<?xml version="1.0" encoding="UTF-8" standalone="no" ?>
<gpx xmlns="http://www.topografix.com/GPX/1/1" xmlns:xsi="http://www.w3.org/2001/XMLSchema-instance" xsi:schemaLocation="http://www.topografix.com/GPX/1/1 http://www.topografix.com/GPX/1/1/gpx.xsd" version="1.1" creator="VisuGPX - https://www.visugpx.com">
  <metadata>
    <name>Circuit André Chamson</name>
    <desc><![CDATA[cet été j'ai enregistré un crcuit court un beau jour assez chaud]]></desc>
  </metadata>
  <trk>
    <name><![CDATA[SITE CHAMSON  LA COTE]]></name>
    <trkseg>
      <trkpt lat="43.7188" lon="4.31866">
        <ele>30.42</ele>
        <time>2017-07-07T13:08:19Z</time>
      </trkpt>
      <trkpt lat="43.71881" lon="4.31867">
        <ele>33.3</ele>
        <time>2017-07-07T13:08:34Z</time>
      </trkpt>
      <trkpt lat="43.71881" lon="4.31866">
        <ele>37.15</ele>
        <time>2017-07-07T13:08:37Z</time>
      </trkpt>
      <trkpt lat="43.71881" lon="4.31865">
        <ele>40.51</ele>
        <time>2017-07-07T13:08:40Z</time>
      </trkpt>
      <trkpt lat="43.71881" lon="4.31864">
        <ele>43.88</ele>
        <time>2017-07-07T13:08:43Z</time>
      </trkpt>
      <trkpt lat="43.71881" lon="4.31863">
        <ele>47.72</ele>
        <time>2017-07-07T13:08:47Z</time>
      </trkpt>
      <trkpt lat="43.71881" lon="4.31863">
        <ele>51.57</ele>
        <time>2017-07-07T13:08:50Z</time>
      </trkpt>
      <trkpt lat="43.71881" lon="4.31863">
        <ele>51.57</ele>
        <time>2017-07-07T13:08:51Z</time>
      </trkpt>
      <trkpt lat="43.7188" lon="4.3186">
        <ele>52.05</ele>
        <time>2017-07-07T13:09:13Z</time>
      </trkpt>
      <trkpt lat="43.71879" lon="4.31866">
        <ele>52.53</ele>
        <time>2017-07-07T13:09:38Z</time>
      </trkpt>
      <trkpt lat="43.71878" lon="4.31862">
        <ele>53.01</ele>
        <time>2017-07-07T13:09:56Z</time>
      </trkpt>
      <trkpt lat="43.71879" lon="4.31863">
        <ele>79.93</ele>
        <time>2017-07-07T13:10:27Z</time>
      </trkpt>
      <trkpt lat="43.71885" lon="4.31857">
        <ele>78.97</ele>
        <time>2017-07-07T13:10:48Z</time>
      </trkpt>
      <trkpt lat="43.71916" lon="4.31866">
        <ele>78.97</ele>
        <time>2017-07-07T13:10:58Z</time>
      </trkpt>
      <trkpt lat="43.71973" lon="4.31888">
        <ele>78.97</ele>
        <time>2017-07-07T13:11:13Z</time>
      </trkpt>
      <trkpt lat="43.72026" lon="4.31909">
        <ele>78.97</ele>
        <time>2017-07-07T13:11:26Z</time>
      </trkpt>
      <trkpt lat="43.72029" lon="4.31913">
        <ele>78.97</ele>
        <time>2017-07-07T13:11:27Z</time>
      </trkpt>
      <trkpt lat="43.72032" lon="4.31916">
        <ele>77.52</ele>
        <time>2017-07-07T13:11:28Z</time>
      </trkpt>
      <trkpt lat="43.72035" lon="4.31921">
        <ele>77.52</ele>
        <time>2017-07-07T13:11:29Z</time>
      </trkpt>
      <trkpt lat="43.72036" lon="4.31924">
        <ele>77.52</ele>
        <time>2017-07-07T13:11:30Z</time>
      </trkpt>
      <trkpt lat="43.72043" lon="4.31961">
        <ele>78</ele>
        <time>2017-07-07T13:11:39Z</time>
      </trkpt>
      <trkpt lat="43.72043" lon="4.31962">
        <ele>78.97</ele>
        <time>2017-07-07T13:11:42Z</time>
      </trkpt>
      <trkpt lat="43.72043" lon="4.31965">
        <ele>78.97</ele>
        <time>2017-07-07T13:12:12Z</time>
      </trkpt>
      <trkpt lat="43.72045" lon="4.31968">
        <ele>78.97</ele>
        <time>2017-07-07T13:12:21Z</time>
      </trkpt>
      <trkpt lat="43.72045" lon="4.31969">
        <ele>78.97</ele>
        <time>2017-07-07T13:12:22Z</time>
      </trkpt>
      <trkpt lat="43.72047" lon="4.31973">
        <ele>78.97</ele>
        <time>2017-07-07T13:12:25Z</time>
      </trkpt>
      <trkpt lat="43.72048" lon="4.31976">
        <ele>78.97</ele>
        <time>2017-07-07T13:12:26Z</time>
      </trkpt>
      <trkpt lat="43.72058" lon="4.3203">
        <ele>78.97</ele>
        <time>2017-07-07T13:12:40Z</time>
      </trkpt>
      <trkpt lat="43.72062" lon="4.32063">
        <ele>78.97</ele>
        <time>2017-07-07T13:12:48Z</time>
      </trkpt>
      <trkpt lat="43.72059" lon="4.32064">
        <ele>78.97</ele>
        <time>2017-07-07T13:12:49Z</time>
      </trkpt>
      <trkpt lat="43.72057" lon="4.32063">
        <ele>78.97</ele>
        <time>2017-07-07T13:12:50Z</time>
      </trkpt>
      <trkpt lat="43.72055" lon="4.32063">
        <ele>78.97</ele>
        <time>2017-07-07T13:12:51Z</time>
      </trkpt>
      <trkpt lat="43.72045" lon="4.32062">
        <ele>79.45</ele>
        <time>2017-07-07T13:12:56Z</time>
      </trkpt>
      <trkpt lat="43.72043" lon="4.32062">
        <ele>79.45</ele>
        <time>2017-07-07T13:12:57Z</time>
      </trkpt>
      <trkpt lat="43.72041" lon="4.32061">
        <ele>80.41</ele>
        <time>2017-07-07T13:13:08Z</time>
      </trkpt>
      <trkpt lat="43.72038" lon="4.32062">
        <ele>80.41</ele>
        <time>2017-07-07T13:13:27Z</time>
      </trkpt>
      <trkpt lat="43.72016" lon="4.32065">
        <ele>80.89</ele>
        <time>2017-07-07T13:13:39Z</time>
      </trkpt>
      <trkpt lat="43.71972" lon="4.32077">
        <ele>83.77</ele>
        <time>2017-07-07T13:13:56Z</time>
      </trkpt>
      <trkpt lat="43.71965" lon="4.3208">
        <ele>84.73</ele>
        <time>2017-07-07T13:13:59Z</time>
      </trkpt>
      <trkpt lat="43.71963" lon="4.3208">
        <ele>84.73</ele>
        <time>2017-07-07T13:14:00Z</time>
      </trkpt>
      <trkpt lat="43.71962" lon="4.32079">
        <ele>84.73</ele>
        <time>2017-07-07T13:14:01Z</time>
      </trkpt>
      <trkpt lat="43.71961" lon="4.32077">
        <ele>84.73</ele>
        <time>2017-07-07T13:14:02Z</time>
      </trkpt>
      <trkpt lat="43.71957" lon="4.32064">
        <ele>85.21</ele>
        <time>2017-07-07T13:14:14Z</time>
      </trkpt>
      <trkpt lat="43.71958" lon="4.32062">
        <ele>85.21</ele>
        <time>2017-07-07T13:14:16Z</time>
      </trkpt>
      <trkpt lat="43.71951" lon="4.32012">
        <ele>82.81</ele>
        <time>2017-07-07T13:14:27Z</time>
      </trkpt>
      <trkpt lat="43.7195" lon="4.32007">
        <ele>82.81</ele>
        <time>2017-07-07T13:14:28Z</time>
      </trkpt>
      <trkpt lat="43.71939" lon="4.31934">
        <ele>81.37</ele>
        <time>2017-07-07T13:14:40Z</time>
      </trkpt>
      <trkpt lat="43.71937" lon="4.31881">
        <ele>79.93</ele>
        <time>2017-07-07T13:14:49Z</time>
      </trkpt>
      <trkpt lat="43.71935" lon="4.31878">
        <ele>79.93</ele>
        <time>2017-07-07T13:14:50Z</time>
      </trkpt>
      <trkpt lat="43.71933" lon="4.31878">
        <ele>78.97</ele>
        <time>2017-07-07T13:14:51Z</time>
      </trkpt>
      <trkpt lat="43.71924" lon="4.31874">
        <ele>78.97</ele>
        <time>2017-07-07T13:15:04Z</time>
      </trkpt>
      <trkpt lat="43.71923" lon="4.31873">
        <ele>78.97</ele>
        <time>2017-07-07T13:15:06Z</time>
      </trkpt>
      <trkpt lat="43.71922" lon="4.31873">
        <ele>78.97</ele>
        <time>2017-07-07T13:15:07Z</time>
      </trkpt>
      <trkpt lat="43.7192" lon="4.31872">
        <ele>78.97</ele>
        <time>2017-07-07T13:15:08Z</time>
      </trkpt>
      <trkpt lat="43.71888" lon="4.31861">
        <ele>78.97</ele>
        <time>2017-07-07T13:15:21Z</time>
      </trkpt>
      <trkpt lat="43.71879" lon="4.31858">
        <ele>78.97</ele>
        <time>2017-07-07T13:15:25Z</time>
      </trkpt>
      <trkpt lat="43.71878" lon="4.31859">
        <ele>78.97</ele>
        <time>2017-07-07T13:15:26Z</time>
      </trkpt>
      <trkpt lat="43.71876" lon="4.31864">
        <ele>78.97</ele>
        <time>2017-07-07T13:15:37Z</time>
      </trkpt>
      <trkpt lat="43.71878" lon="4.31861">
        <ele>78.97</ele>
        <time>2017-07-07T13:15:51Z</time>
      </trkpt>
      <trkpt lat="43.71877" lon="4.31858">
        <ele>78.97</ele>
        <time>2017-07-07T13:16:13Z</time>
      </trkpt>
      <trkpt lat="43.71881" lon="4.31856">
        <ele>78.97</ele>
        <time>2017-07-07T13:16:27Z</time>
      </trkpt>
      <trkpt lat="43.71896" lon="4.3186">
        <ele>78.97</ele>
        <time>2017-07-07T13:16:45Z</time>
      </trkpt>
      <trkpt lat="43.71911" lon="4.31864">
        <ele>78.97</ele>
        <time>2017-07-07T13:16:58Z</time>
      </trkpt>
      <trkpt lat="43.71927" lon="4.31873">
        <ele>78.97</ele>
        <time>2017-07-07T13:17:12Z</time>
      </trkpt>
      <trkpt lat="43.71928" lon="4.31874">
        <ele>78.97</ele>
        <time>2017-07-07T13:17:26Z</time>
      </trkpt>
      <trkpt lat="43.71925" lon="4.31874">
        <ele>78.97</ele>
        <time>2017-07-07T13:17:48Z</time>
      </trkpt>
      <trkpt lat="43.71925" lon="4.31874">
        <ele>78.97</ele>
        <time>2017-07-07T13:18:08Z</time>
      </trkpt>
      <trkpt lat="43.7193" lon="4.31876">
        <ele>78.97</ele>
        <time>2017-07-07T13:18:37Z</time>
      </trkpt>
      <trkpt lat="43.71937" lon="4.31888">
        <ele>78.97</ele>
        <time>2017-07-07T13:18:54Z</time>
      </trkpt>
      <trkpt lat="43.71937" lon="4.31892">
        <ele>80.41</ele>
        <time>2017-07-07T13:18:57Z</time>
      </trkpt>
      <trkpt lat="43.71937" lon="4.31895">
        <ele>80.41</ele>
        <time>2017-07-07T13:18:59Z</time>
      </trkpt>
      <trkpt lat="43.71939" lon="4.31918">
        <ele>81.37</ele>
        <time>2017-07-07T13:19:16Z</time>
      </trkpt>
      <trkpt lat="43.7194" lon="4.31937">
        <ele>81.85</ele>
        <time>2017-07-07T13:19:32Z</time>
      </trkpt>
      <trkpt lat="43.71944" lon="4.31959">
        <ele>81.85</ele>
        <time>2017-07-07T13:19:51Z</time>
      </trkpt>
      <trkpt lat="43.71949" lon="4.31985">
        <ele>82.33</ele>
        <time>2017-07-07T13:20:09Z</time>
      </trkpt>
      <trkpt lat="43.71953" lon="4.32011">
        <ele>83.29</ele>
        <time>2017-07-07T13:20:27Z</time>
      </trkpt>
      <trkpt lat="43.71956" lon="4.32042">
        <ele>84.25</ele>
        <time>2017-07-07T13:20:48Z</time>
      </trkpt>
      <trkpt lat="43.71958" lon="4.32059">
        <ele>84.73</ele>
        <time>2017-07-07T13:21:04Z</time>
      </trkpt>
      <trkpt lat="43.7196" lon="4.32067">
        <ele>84.73</ele>
        <time>2017-07-07T13:21:18Z</time>
      </trkpt>
      <trkpt lat="43.71962" lon="4.32067">
        <ele>84.73</ele>
        <time>2017-07-07T13:21:34Z</time>
      </trkpt>
      <trkpt lat="43.71964" lon="4.32068">
        <ele>84.73</ele>
        <time>2017-07-07T13:21:48Z</time>
      </trkpt>
      <trkpt lat="43.71965" lon="4.32076">
        <ele>84.73</ele>
        <time>2017-07-07T13:21:55Z</time>
      </trkpt>
      <trkpt lat="43.71975" lon="4.32075">
        <ele>83.77</ele>
        <time>2017-07-07T13:22:11Z</time>
      </trkpt>
      <trkpt lat="43.71989" lon="4.32068">
        <ele>82.81</ele>
        <time>2017-07-07T13:22:31Z</time>
      </trkpt>
      <trkpt lat="43.72005" lon="4.32066">
        <ele>82.33</ele>
        <time>2017-07-07T13:22:50Z</time>
      </trkpt>
      <trkpt lat="43.72023" lon="4.32062">
        <ele>81.37</ele>
        <time>2017-07-07T13:23:11Z</time>
      </trkpt>
      <trkpt lat="43.72042" lon="4.32061">
        <ele>79.93</ele>
        <time>2017-07-07T13:23:32Z</time>
      </trkpt>
      <trkpt lat="43.72047" lon="4.3206">
        <ele>79.93</ele>
        <time>2017-07-07T13:23:50Z</time>
      </trkpt>
      <trkpt lat="43.72044" lon="4.32061">
        <ele>79.93</ele>
        <time>2017-07-07T13:24:07Z</time>
      </trkpt>
      <trkpt lat="43.72042" lon="4.32061">
        <ele>79.93</ele>
        <time>2017-07-07T13:24:26Z</time>
      </trkpt>
      <trkpt lat="43.72049" lon="4.32064">
        <ele>79.45</ele>
        <time>2017-07-07T13:24:48Z</time>
      </trkpt>
      <trkpt lat="43.72059" lon="4.32043">
        <ele>78.97</ele>
        <time>2017-07-07T13:25:07Z</time>
      </trkpt>
      <trkpt lat="43.72057" lon="4.32016">
        <ele>78.97</ele>
        <time>2017-07-07T13:25:25Z</time>
      </trkpt>
      <trkpt lat="43.72053" lon="4.31992">
        <ele>78.97</ele>
        <time>2017-07-07T13:25:41Z</time>
      </trkpt>
      <trkpt lat="43.7205" lon="4.31981">
        <ele>78.97</ele>
        <time>2017-07-07T13:25:57Z</time>
      </trkpt>
      <trkpt lat="43.72048" lon="4.31975">
        <ele>78.97</ele>
        <time>2017-07-07T13:26:14Z</time>
      </trkpt>
      <trkpt lat="43.72045" lon="4.31964">
        <ele>78.97</ele>
        <time>2017-07-07T13:26:43Z</time>
      </trkpt>
      <trkpt lat="43.72044" lon="4.31949">
        <ele>78.97</ele>
        <time>2017-07-07T13:26:59Z</time>
      </trkpt>
      <trkpt lat="43.7204" lon="4.31933">
        <ele>78.97</ele>
        <time>2017-07-07T13:27:15Z</time>
      </trkpt>
      <trkpt lat="43.7203" lon="4.31916">
        <ele>78.97</ele>
        <time>2017-07-07T13:27:33Z</time>
      </trkpt>
      <trkpt lat="43.72022" lon="4.31913">
        <ele>78.97</ele>
        <time>2017-07-07T13:27:40Z</time>
      </trkpt>
      <trkpt lat="43.72007" lon="4.31904">
        <ele>78.97</ele>
        <time>2017-07-07T13:27:58Z</time>
      </trkpt>
      <trkpt lat="43.71986" lon="4.31897">
        <ele>78.97</ele>
        <time>2017-07-07T13:28:18Z</time>
      </trkpt>
      <trkpt lat="43.71969" lon="4.31892">
        <ele>78.97</ele>
        <time>2017-07-07T13:28:35Z</time>
      </trkpt>
      <trkpt lat="43.71956" lon="4.31886">
        <ele>78.97</ele>
        <time>2017-07-07T13:28:53Z</time>
      </trkpt>
      <trkpt lat="43.71944" lon="4.31881">
        <ele>78.97</ele>
        <time>2017-07-07T13:29:09Z</time>
      </trkpt>
      <trkpt lat="43.71924" lon="4.31874">
        <ele>78.97</ele>
        <time>2017-07-07T13:29:30Z</time>
      </trkpt>
      <trkpt lat="43.71915" lon="4.3187">
        <ele>78.97</ele>
        <time>2017-07-07T13:29:47Z</time>
      </trkpt>
      <trkpt lat="43.71905" lon="4.31863">
        <ele>78.97</ele>
        <time>2017-07-07T13:30:06Z</time>
      </trkpt>
      <trkpt lat="43.71911" lon="4.31865">
        <ele>78.97</ele>
        <time>2017-07-07T13:30:28Z</time>
      </trkpt>
      <trkpt lat="43.71917" lon="4.31868">
        <ele>78.97</ele>
        <time>2017-07-07T13:30:36Z</time>
      </trkpt>
      <trkpt lat="43.71929" lon="4.31874">
        <ele>78.97</ele>
        <time>2017-07-07T13:30:54Z</time>
      </trkpt>
      <trkpt lat="43.71937" lon="4.31887">
        <ele>78.97</ele>
        <time>2017-07-07T13:31:11Z</time>
      </trkpt>
      <trkpt lat="43.71937" lon="4.31896">
        <ele>79.93</ele>
        <time>2017-07-07T13:31:20Z</time>
      </trkpt>
      <trkpt lat="43.71939" lon="4.31917">
        <ele>80.41</ele>
        <time>2017-07-07T13:31:39Z</time>
      </trkpt>
      <trkpt lat="43.71941" lon="4.31936">
        <ele>81.37</ele>
        <time>2017-07-07T13:31:54Z</time>
      </trkpt>
      <trkpt lat="43.71946" lon="4.31963">
        <ele>81.37</ele>
        <time>2017-07-07T13:32:13Z</time>
      </trkpt>
      <trkpt lat="43.7195" lon="4.31991">
        <ele>82.33</ele>
        <time>2017-07-07T13:32:33Z</time>
      </trkpt>
      <trkpt lat="43.71953" lon="4.32017">
        <ele>82.81</ele>
        <time>2017-07-07T13:32:51Z</time>
      </trkpt>
      <trkpt lat="43.71957" lon="4.32048">
        <ele>84.25</ele>
        <time>2017-07-07T13:33:10Z</time>
      </trkpt>
      <trkpt lat="43.71962" lon="4.32065">
        <ele>84.25</ele>
        <time>2017-07-07T13:33:28Z</time>
      </trkpt>
      <trkpt lat="43.71965" lon="4.32078">
        <ele>84.25</ele>
        <time>2017-07-07T13:33:45Z</time>
      </trkpt>
      <trkpt lat="43.71969" lon="4.3208">
        <ele>84.25</ele>
        <time>2017-07-07T13:33:50Z</time>
      </trkpt>
      <trkpt lat="43.71984" lon="4.32069">
        <ele>83.29</ele>
        <time>2017-07-07T13:34:11Z</time>
      </trkpt>
      <trkpt lat="43.71996" lon="4.32065">
        <ele>82.33</ele>
        <time>2017-07-07T13:34:25Z</time>
      </trkpt>
      <trkpt lat="43.71993" lon="4.32066">
        <ele>82.33</ele>
        <time>2017-07-07T13:34:37Z</time>
      </trkpt>
      <trkpt lat="43.71992" lon="4.32066">
        <ele>82.33</ele>
        <time>2017-07-07T13:34:40Z</time>
      </trkpt>
      <trkpt lat="43.71982" lon="4.32069">
        <ele>83.29</ele>
        <time>2017-07-07T13:34:50Z</time>
      </trkpt>
      <trkpt lat="43.7197" lon="4.32074">
        <ele>84.25</ele>
        <time>2017-07-07T13:35:03Z</time>
      </trkpt>
      <trkpt lat="43.71954" lon="4.3208">
        <ele>85.21</ele>
        <time>2017-07-07T13:35:23Z</time>
      </trkpt>
      <trkpt lat="43.71944" lon="4.32085">
        <ele>85.69</ele>
        <time>2017-07-07T13:35:40Z</time>
      </trkpt>
      <trkpt lat="43.71935" lon="4.32089">
        <ele>86.18</ele>
        <time>2017-07-07T13:35:57Z</time>
      </trkpt>
      <trkpt lat="43.71932" lon="4.32094">
        <ele>86.18</ele>
        <time>2017-07-07T13:36:23Z</time>
      </trkpt>
      <trkpt lat="43.71927" lon="4.32097">
        <ele>86.18</ele>
        <time>2017-07-07T13:36:51Z</time>
      </trkpt>
      <trkpt lat="43.71917" lon="4.32102">
        <ele>86.18</ele>
        <time>2017-07-07T13:37:06Z</time>
      </trkpt>
      <trkpt lat="43.71907" lon="4.32105">
        <ele>86.66</ele>
        <time>2017-07-07T13:37:22Z</time>
      </trkpt>
      <trkpt lat="43.71898" lon="4.32106">
        <ele>86.66</ele>
        <time>2017-07-07T13:37:36Z</time>
      </trkpt>
      <trkpt lat="43.71897" lon="4.32105">
        <ele>86.66</ele>
        <time>2017-07-07T13:37:39Z</time>
      </trkpt>
      <trkpt lat="43.71891" lon="4.32087">
        <ele>86.66</ele>
        <time>2017-07-07T13:37:59Z</time>
      </trkpt>
      <trkpt lat="43.7189" lon="4.32069">
        <ele>85.69</ele>
        <time>2017-07-07T13:38:14Z</time>
      </trkpt>
      <trkpt lat="43.71889" lon="4.32063">
        <ele>85.69</ele>
        <time>2017-07-07T13:38:20Z</time>
      </trkpt>
      <trkpt lat="43.71888" lon="4.3203">
        <ele>83.77</ele>
        <time>2017-07-07T13:38:43Z</time>
      </trkpt>
      <trkpt lat="43.71888" lon="4.32028">
        <ele>83.77</ele>
        <time>2017-07-07T13:38:45Z</time>
      </trkpt>
      <trkpt lat="43.71888" lon="4.32006">
        <ele>82.81</ele>
        <time>2017-07-07T13:38:59Z</time>
      </trkpt>
      <trkpt lat="43.7189" lon="4.31994">
        <ele>82.33</ele>
        <time>2017-07-07T13:39:07Z</time>
      </trkpt>
      <trkpt lat="43.71888" lon="4.31982">
        <ele>82.33</ele>
        <time>2017-07-07T13:39:13Z</time>
      </trkpt>
      <trkpt lat="43.71885" lon="4.31964">
        <ele>81.37</ele>
        <time>2017-07-07T13:39:25Z</time>
      </trkpt>
      <trkpt lat="43.71882" lon="4.31936">
        <ele>80.89</ele>
        <time>2017-07-07T13:39:41Z</time>
      </trkpt>
      <trkpt lat="43.7188" lon="4.31914">
        <ele>79.93</ele>
        <time>2017-07-07T13:39:59Z</time>
      </trkpt>
      <trkpt lat="43.71877" lon="4.31892">
        <ele>79.45</ele>
        <time>2017-07-07T13:40:15Z</time>
      </trkpt>
      <trkpt lat="43.71876" lon="4.31877">
        <ele>78.97</ele>
        <time>2017-07-07T13:40:25Z</time>
      </trkpt>
      <trkpt lat="43.71883" lon="4.31858">
        <ele>78.48</ele>
        <time>2017-07-07T13:40:42Z</time>
      </trkpt>
      <trkpt lat="43.71885" lon="4.3186">
        <ele>78.48</ele>
        <time>2017-07-07T13:40:45Z</time>
      </trkpt>
      <trkpt lat="43.71908" lon="4.31865">
        <ele>78.48</ele>
        <time>2017-07-07T13:41:07Z</time>
      </trkpt>
      <trkpt lat="43.71924" lon="4.31873">
        <ele>78.48</ele>
        <time>2017-07-07T13:41:26Z</time>
      </trkpt>
      <trkpt lat="43.71925" lon="4.31874">
        <ele>78.48</ele>
        <time>2017-07-07T13:41:41Z</time>
      </trkpt>
      <trkpt lat="43.7192" lon="4.31873">
        <ele>78.48</ele>
        <time>2017-07-07T13:41:48Z</time>
      </trkpt>
      <trkpt lat="43.71907" lon="4.31864">
        <ele>78.48</ele>
        <time>2017-07-07T13:42:06Z</time>
      </trkpt>
      <trkpt lat="43.71896" lon="4.31859">
        <ele>78.48</ele>
        <time>2017-07-07T13:42:23Z</time>
      </trkpt>
      <trkpt lat="43.71881" lon="4.31856">
        <ele>78.48</ele>
        <time>2017-07-07T13:42:37Z</time>
      </trkpt>
      <trkpt lat="43.7188" lon="4.31862">
        <ele>78.48</ele>
        <time>2017-07-07T13:42:48Z</time>
      </trkpt>
      <trkpt lat="43.71882" lon="4.31864">
        <ele>78.48</ele>
        <time>2017-07-07T13:43:05Z</time>
      </trkpt>
      <trkpt lat="43.71883" lon="4.31868">
        <ele>78.48</ele>
        <time>2017-07-07T13:43:32Z</time>
      </trkpt>
      <trkpt lat="43.71886" lon="4.31874">
        <ele>78.48</ele>
        <time>2017-07-07T13:43:50Z</time>
      </trkpt>
      <trkpt lat="43.71876" lon="4.31881">
        <ele>78.48</ele>
        <time>2017-07-07T13:44:13Z</time>
      </trkpt>
      <trkpt lat="44.10704" lon="3.48174">
        <ele>1011.93</ele>
        <time>2017-07-14T14:04:33Z</time>
      </trkpt>
      <trkpt lat="44.10697" lon="3.4819">
        <ele>1011.93</ele>
        <time>2017-07-14T14:05:02Z</time>
      </trkpt>
      <trkpt lat="44.10696" lon="3.48197">
        <ele>1012.89</ele>
        <time>2017-07-14T14:05:14Z</time>
      </trkpt>
      <trkpt lat="44.10778" lon="3.48197">
        <ele>1008.56</ele>
        <time>2017-07-14T14:27:27Z</time>
      </trkpt>
      <trkpt lat="44.10777" lon="3.48165">
        <ele>1008.56</ele>
        <time>2017-07-14T14:27:51Z</time>
      </trkpt>
      <trkpt lat="44.10777" lon="3.48167">
        <ele>1010</ele>
        <time>2017-07-14T14:28:06Z</time>
      </trkpt>
      <trkpt lat="44.10776" lon="3.48166">
        <ele>1012.89</ele>
        <time>2017-07-14T14:28:08Z</time>
      </trkpt>
      <trkpt lat="44.10775" lon="3.48164">
        <ele>1018.65</ele>
        <time>2017-07-14T14:28:11Z</time>
      </trkpt>
      <trkpt lat="44.10775" lon="3.48163">
        <ele>1020.1</ele>
        <time>2017-07-14T14:28:13Z</time>
      </trkpt>
      <trkpt lat="44.10775" lon="3.48162">
        <ele>1023.46</ele>
        <time>2017-07-14T14:28:16Z</time>
      </trkpt>
      <trkpt lat="44.10775" lon="3.4816">
        <ele>1026.83</ele>
        <time>2017-07-14T14:28:19Z</time>
      </trkpt>
      <trkpt lat="44.10775" lon="3.48161">
        <ele>1029.71</ele>
        <time>2017-07-14T14:28:22Z</time>
      </trkpt>
      <trkpt lat="44.10774" lon="3.48162">
        <ele>1033.55</ele>
        <time>2017-07-14T14:28:26Z</time>
      </trkpt>
      <trkpt lat="44.10774" lon="3.48164">
        <ele>1037.4</ele>
        <time>2017-07-14T14:28:30Z</time>
      </trkpt>
      <trkpt lat="44.10773" lon="3.48169">
        <ele>1040.28</ele>
        <time>2017-07-14T14:28:35Z</time>
      </trkpt>
      <trkpt lat="44.10773" lon="3.48171">
        <ele>1043.17</ele>
        <time>2017-07-14T14:28:38Z</time>
      </trkpt>
      <trkpt lat="44.10772" lon="3.48171">
        <ele>1046.53</ele>
        <time>2017-07-14T14:28:42Z</time>
      </trkpt>
      <trkpt lat="44.10771" lon="3.4817">
        <ele>1049.42</ele>
        <time>2017-07-14T14:28:46Z</time>
      </trkpt>
      <trkpt lat="44.1077" lon="3.48171">
        <ele>1052.78</ele>
        <time>2017-07-14T14:28:50Z</time>
      </trkpt>
      <trkpt lat="44.10768" lon="3.48172">
        <ele>1056.15</ele>
        <time>2017-07-14T14:28:55Z</time>
      </trkpt>
      <trkpt lat="44.10768" lon="3.48173">
        <ele>1059.51</ele>
        <time>2017-07-14T14:28:59Z</time>
      </trkpt>
      <trkpt lat="44.10768" lon="3.48173">
        <ele>1059.51</ele>
        <time>2017-07-14T14:29:00Z</time>
      </trkpt>
      <trkpt lat="44.10768" lon="3.48174">
        <ele>1060.95</ele>
        <time>2017-07-14T14:29:02Z</time>
      </trkpt>
      <trkpt lat="44.10768" lon="3.48176">
        <ele>1064.32</ele>
        <time>2017-07-14T14:29:07Z</time>
      </trkpt>
      <trkpt lat="44.10767" lon="3.48175">
        <ele>1067.2</ele>
        <time>2017-07-14T14:29:13Z</time>
      </trkpt>
      <trkpt lat="44.10768" lon="3.48173">
        <ele>1070.57</ele>
        <time>2017-07-14T14:29:21Z</time>
      </trkpt>
      <trkpt lat="44.10767" lon="3.48169">
        <ele>1073.93</ele>
        <time>2017-07-14T14:29:30Z</time>
      </trkpt>
      <trkpt lat="44.10767" lon="3.48169">
        <ele>1077.29</ele>
        <time>2017-07-14T14:29:41Z</time>
      </trkpt>
      <trkpt lat="44.10768" lon="3.4817">
        <ele>1080.18</ele>
        <time>2017-07-14T14:29:55Z</time>
      </trkpt>
      <trkpt lat="44.10768" lon="3.48173">
        <ele>1081.62</ele>
        <time>2017-07-14T14:30:28Z</time>
      </trkpt>
      <trkpt lat="44.10765" lon="3.48166">
        <ele>1082.1</ele>
        <time>2017-07-14T14:31:00Z</time>
      </trkpt>
      <trkpt lat="44.10764" lon="3.48169">
        <ele>1087.87</ele>
        <time>2017-07-14T14:31:13Z</time>
      </trkpt>
      <trkpt lat="44.10765" lon="3.4817">
        <ele>1087.39</ele>
        <time>2017-07-14T14:31:38Z</time>
      </trkpt>
      <trkpt lat="44.10768" lon="3.48174">
        <ele>1088.35</ele>
        <time>2017-07-14T14:32:04Z</time>
      </trkpt>
      <trkpt lat="44.10767" lon="3.48181">
        <ele>1088.35</ele>
        <time>2017-07-14T14:32:32Z</time>
      </trkpt>
      <trkpt lat="44.10768" lon="3.48171">
        <ele>1088.35</ele>
        <time>2017-07-14T14:32:59Z</time>
      </trkpt>
      <trkpt lat="44.10767" lon="3.4818">
        <ele>1089.31</ele>
        <time>2017-07-14T14:33:36Z</time>
      </trkpt>
      <trkpt lat="44.10764" lon="3.48183">
        <ele>1089.31</ele>
        <time>2017-07-14T14:34:11Z</time>
      </trkpt>
      <trkpt lat="44.10763" lon="3.48189">
        <ele>1089.31</ele>
        <time>2017-07-14T14:34:48Z</time>
      </trkpt>
      <trkpt lat="44.1076" lon="3.48187">
        <ele>1089.79</ele>
        <time>2017-07-14T14:35:23Z</time>
      </trkpt>
      <trkpt lat="44.10758" lon="3.48196">
        <ele>1090.27</ele>
        <time>2017-07-14T14:35:59Z</time>
      </trkpt>
      <trkpt lat="44.10758" lon="3.48194">
        <ele>1089.31</ele>
        <time>2017-07-14T14:36:06Z</time>
      </trkpt>
      <trkpt lat="44.10766" lon="3.4818">
        <ele>1089.79</ele>
        <time>2017-07-14T14:39:40Z</time>
      </trkpt>
      <trkpt lat="44.10762" lon="3.48188">
        <ele>1093.16</ele>
        <time>2017-07-14T14:40:05Z</time>
      </trkpt>
      <trkpt lat="44.10761" lon="3.48187">
        <ele>1096.04</ele>
        <time>2017-07-14T14:40:15Z</time>
      </trkpt>
      <trkpt lat="44.10761" lon="3.4819">
        <ele>1099.4</ele>
        <time>2017-07-14T14:40:27Z</time>
      </trkpt>
      <trkpt lat="44.10763" lon="3.48195">
        <ele>1101.81</ele>
        <time>2017-07-14T14:40:36Z</time>
      </trkpt>
      <trkpt lat="44.1076" lon="3.48186">
        <ele>1102.77</ele>
        <time>2017-07-14T14:40:59Z</time>
      </trkpt>
      <trkpt lat="44.1076" lon="3.48186">
        <ele>1103.25</ele>
        <time>2017-07-14T14:41:23Z</time>
      </trkpt>
      <trkpt lat="44.10762" lon="3.48186">
        <ele>1103.25</ele>
        <time>2017-07-14T14:41:46Z</time>
      </trkpt>
      <trkpt lat="44.10779" lon="3.48274">
        <ele>1110.46</ele>
        <time>2017-07-14T15:13:09Z</time>
      </trkpt>
      <trkpt lat="44.10779" lon="3.48276">
        <ele>1110.46</ele>
        <time>2017-07-14T15:13:10Z</time>
      </trkpt>
      <trkpt lat="44.10779" lon="3.48283">
        <ele>1110.46</ele>
        <time>2017-07-14T15:13:14Z</time>
      </trkpt>
      <trkpt lat="44.10792" lon="3.48288">
        <ele>1112.86</ele>
        <time>2017-07-14T15:13:29Z</time>
      </trkpt>
      <trkpt lat="44.10795" lon="3.48297">
        <ele>1115.27</ele>
        <time>2017-07-14T15:13:37Z</time>
      </trkpt>
      <trkpt lat="44.10794" lon="3.48311">
        <ele>1116.23</ele>
        <time>2017-07-14T15:13:50Z</time>
      </trkpt>
      <trkpt lat="44.1079" lon="3.48308">
        <ele>1116.71</ele>
        <time>2017-07-14T15:14:03Z</time>
      </trkpt>
      <trkpt lat="44.10785" lon="3.48296">
        <ele>1117.67</ele>
        <time>2017-07-14T15:14:18Z</time>
      </trkpt>
      <trkpt lat="44.10786" lon="3.48296">
        <ele>1118.15</ele>
        <time>2017-07-14T15:14:34Z</time>
      </trkpt>
      <trkpt lat="44.10778" lon="3.48289">
        <ele>1118.63</ele>
        <time>2017-07-14T15:14:49Z</time>
      </trkpt>
      <trkpt lat="44.10768" lon="3.48282">
        <ele>1118.63</ele>
        <time>2017-07-14T15:14:59Z</time>
      </trkpt>
      <trkpt lat="44.10753" lon="3.48273">
        <ele>1119.11</ele>
        <time>2017-07-14T15:15:13Z</time>
      </trkpt>
      <trkpt lat="44.10741" lon="3.4827">
        <ele>1119.11</ele>
        <time>2017-07-14T15:15:26Z</time>
      </trkpt>
      <trkpt lat="44.10722" lon="3.48269">
        <ele>1119.59</ele>
        <time>2017-07-14T15:15:44Z</time>
      </trkpt>
      <trkpt lat="44.10707" lon="3.48269">
        <ele>1120.55</ele>
        <time>2017-07-14T15:15:59Z</time>
      </trkpt>
      <trkpt lat="44.10691" lon="3.48269">
        <ele>1121.52</ele>
        <time>2017-07-14T15:16:15Z</time>
      </trkpt>
      <trkpt lat="44.10687" lon="3.48267">
        <ele>1121.52</ele>
        <time>2017-07-14T15:16:22Z</time>
      </trkpt>
      <trkpt lat="44.10676" lon="3.48266">
        <ele>1122</ele>
        <time>2017-07-14T15:16:32Z</time>
      </trkpt>
      <trkpt lat="44.10668" lon="3.48265">
        <ele>1122</ele>
        <time>2017-07-14T15:16:39Z</time>
      </trkpt>
      <trkpt lat="44.10654" lon="3.4826">
        <ele>1123.44</ele>
        <time>2017-07-14T15:16:53Z</time>
      </trkpt>
      <trkpt lat="44.10646" lon="3.48253">
        <ele>1123.44</ele>
        <time>2017-07-14T15:17:02Z</time>
      </trkpt>
      <trkpt lat="44.10642" lon="3.48248">
        <ele>1122.96</ele>
        <time>2017-07-14T15:17:08Z</time>
      </trkpt>
      <trkpt lat="44.10632" lon="3.48239">
        <ele>1122.96</ele>
        <time>2017-07-14T15:17:22Z</time>
      </trkpt>
      <trkpt lat="44.1063" lon="3.48237">
        <ele>1122.96</ele>
        <time>2017-07-14T15:17:25Z</time>
      </trkpt>
      <trkpt lat="44.10625" lon="3.48234">
        <ele>1123.44</ele>
        <time>2017-07-14T15:17:32Z</time>
      </trkpt>
      <trkpt lat="44.10621" lon="3.4823">
        <ele>1123.44</ele>
        <time>2017-07-14T15:17:37Z</time>
      </trkpt>
      <trkpt lat="44.10613" lon="3.48216">
        <ele>1123.92</ele>
        <time>2017-07-14T15:17:50Z</time>
      </trkpt>
      <trkpt lat="44.1061" lon="3.48214">
        <ele>1123.92</ele>
        <time>2017-07-14T15:17:53Z</time>
      </trkpt>
      <trkpt lat="44.10602" lon="3.48207">
        <ele>1123.92</ele>
        <time>2017-07-14T15:18:00Z</time>
      </trkpt>
      <trkpt lat="44.106" lon="3.48206">
        <ele>1123.92</ele>
        <time>2017-07-14T15:18:02Z</time>
      </trkpt>
      <trkpt lat="44.10597" lon="3.48203">
        <ele>1123.92</ele>
        <time>2017-07-14T15:18:06Z</time>
      </trkpt>
      <trkpt lat="44.10587" lon="3.48192">
        <ele>1125.36</ele>
        <time>2017-07-14T15:18:20Z</time>
      </trkpt>
      <trkpt lat="44.10578" lon="3.48185">
        <ele>1125.84</ele>
        <time>2017-07-14T15:18:31Z</time>
      </trkpt>
      <trkpt lat="44.10567" lon="3.48175">
        <ele>1126.32</ele>
        <time>2017-07-14T15:18:43Z</time>
      </trkpt>
      <trkpt lat="44.10563" lon="3.48171">
        <ele>1126.32</ele>
        <time>2017-07-14T15:18:47Z</time>
      </trkpt>
      <trkpt lat="44.10562" lon="3.48169">
        <ele>1126.32</ele>
        <time>2017-07-14T15:18:48Z</time>
      </trkpt>
      <trkpt lat="44.10562" lon="3.48168">
        <ele>1126.32</ele>
        <time>2017-07-14T15:18:49Z</time>
      </trkpt>
      <trkpt lat="44.10556" lon="3.4816">
        <ele>1126.32</ele>
        <time>2017-07-14T15:18:57Z</time>
      </trkpt>
      <trkpt lat="44.1055" lon="3.48153">
        <ele>1126.8</ele>
        <time>2017-07-14T15:19:05Z</time>
      </trkpt>
      <trkpt lat="44.1055" lon="3.48152">
        <ele>1126.8</ele>
        <time>2017-07-14T15:19:06Z</time>
      </trkpt>
      <trkpt lat="44.1055" lon="3.4815">
        <ele>1126.8</ele>
        <time>2017-07-14T15:19:07Z</time>
      </trkpt>
      <trkpt lat="44.10549" lon="3.48148">
        <ele>1126.8</ele>
        <time>2017-07-14T15:19:08Z</time>
      </trkpt>
      <trkpt lat="44.10549" lon="3.48146">
        <ele>1126.8</ele>
        <time>2017-07-14T15:19:09Z</time>
      </trkpt>
      <trkpt lat="44.10539" lon="3.48139">
        <ele>1126.8</ele>
        <time>2017-07-14T15:19:23Z</time>
      </trkpt>
      <trkpt lat="44.10535" lon="3.48131">
        <ele>1126.8</ele>
        <time>2017-07-14T15:19:29Z</time>
      </trkpt>
      <trkpt lat="44.10524" lon="3.48119">
        <ele>1127.28</ele>
        <time>2017-07-14T15:19:42Z</time>
      </trkpt>
      <trkpt lat="44.10511" lon="3.4811">
        <ele>1127.76</ele>
        <time>2017-07-14T15:19:56Z</time>
      </trkpt>
      <trkpt lat="44.10498" lon="3.48103">
        <ele>1128.24</ele>
        <time>2017-07-14T15:20:09Z</time>
      </trkpt>
      <trkpt lat="44.10486" lon="3.48095">
        <ele>1129.21</ele>
        <time>2017-07-14T15:20:23Z</time>
      </trkpt>
      <trkpt lat="44.10485" lon="3.48095">
        <ele>1129.21</ele>
        <time>2017-07-14T15:20:24Z</time>
      </trkpt>
      <trkpt lat="44.10483" lon="3.48094">
        <ele>1129.21</ele>
        <time>2017-07-14T15:20:26Z</time>
      </trkpt>
      <trkpt lat="44.10472" lon="3.48089">
        <ele>1129.69</ele>
        <time>2017-07-14T15:20:39Z</time>
      </trkpt>
      <trkpt lat="44.10458" lon="3.48083">
        <ele>1130.65</ele>
        <time>2017-07-14T15:20:53Z</time>
      </trkpt>
      <trkpt lat="44.10445" lon="3.48077">
        <ele>1131.61</ele>
        <time>2017-07-14T15:21:07Z</time>
      </trkpt>
      <trkpt lat="44.10433" lon="3.48071">
        <ele>1132.09</ele>
        <time>2017-07-14T15:21:21Z</time>
      </trkpt>
      <trkpt lat="44.1042" lon="3.48065">
        <ele>1132.57</ele>
        <time>2017-07-14T15:21:35Z</time>
      </trkpt>
      <trkpt lat="44.10418" lon="3.48064">
        <ele>1132.57</ele>
        <time>2017-07-14T15:21:41Z</time>
      </trkpt>
      <trkpt lat="44.10415" lon="3.48063">
        <ele>1132.57</ele>
        <time>2017-07-14T15:21:44Z</time>
      </trkpt>
      <trkpt lat="44.10414" lon="3.48063">
        <ele>1132.57</ele>
        <time>2017-07-14T15:21:45Z</time>
      </trkpt>
      <trkpt lat="44.10404" lon="3.4806">
        <ele>1132.09</ele>
        <time>2017-07-14T15:21:56Z</time>
      </trkpt>
      <trkpt lat="44.10391" lon="3.48059">
        <ele>1133.05</ele>
        <time>2017-07-14T15:22:10Z</time>
      </trkpt>
      <trkpt lat="44.1039" lon="3.48058">
        <ele>1133.05</ele>
        <time>2017-07-14T15:22:11Z</time>
      </trkpt>
      <trkpt lat="44.10376" lon="3.48058">
        <ele>1133.53</ele>
        <time>2017-07-14T15:22:24Z</time>
      </trkpt>
      <trkpt lat="44.10362" lon="3.48053">
        <ele>1134.01</ele>
        <time>2017-07-14T15:22:37Z</time>
      </trkpt>
      <trkpt lat="44.10349" lon="3.4805">
        <ele>1134.49</ele>
        <time>2017-07-14T15:22:50Z</time>
      </trkpt>
      <trkpt lat="44.10345" lon="3.48051">
        <ele>1134.49</ele>
        <time>2017-07-14T15:22:55Z</time>
      </trkpt>
      <trkpt lat="44.10343" lon="3.48051">
        <ele>1134.49</ele>
        <time>2017-07-14T15:22:56Z</time>
      </trkpt>
      <trkpt lat="44.10339" lon="3.48048">
        <ele>1135.45</ele>
        <time>2017-07-14T15:23:01Z</time>
      </trkpt>
      <trkpt lat="44.10332" lon="3.48046">
        <ele>1135.45</ele>
        <time>2017-07-14T15:23:08Z</time>
      </trkpt>
      <trkpt lat="44.1033" lon="3.48046">
        <ele>1135.45</ele>
        <time>2017-07-14T15:23:09Z</time>
      </trkpt>
      <trkpt lat="44.10315" lon="3.48041">
        <ele>1135.94</ele>
        <time>2017-07-14T15:23:23Z</time>
      </trkpt>
      <trkpt lat="44.1031" lon="3.48039">
        <ele>1135.94</ele>
        <time>2017-07-14T15:23:29Z</time>
      </trkpt>
      <trkpt lat="44.10296" lon="3.48033">
        <ele>1135.94</ele>
        <time>2017-07-14T15:23:43Z</time>
      </trkpt>
      <trkpt lat="44.10295" lon="3.48032">
        <ele>1135.94</ele>
        <time>2017-07-14T15:23:44Z</time>
      </trkpt>
      <trkpt lat="44.10289" lon="3.48029">
        <ele>1135.94</ele>
        <time>2017-07-14T15:23:49Z</time>
      </trkpt>
      <trkpt lat="44.10288" lon="3.48028">
        <ele>1135.94</ele>
        <time>2017-07-14T15:23:50Z</time>
      </trkpt>
      <trkpt lat="44.10286" lon="3.48027">
        <ele>1135.94</ele>
        <time>2017-07-14T15:23:51Z</time>
      </trkpt>
      <trkpt lat="44.10285" lon="3.48026">
        <ele>1135.94</ele>
        <time>2017-07-14T15:23:52Z</time>
      </trkpt>
      <trkpt lat="44.10281" lon="3.48023">
        <ele>1135.94</ele>
        <time>2017-07-14T15:23:57Z</time>
      </trkpt>
      <trkpt lat="44.10277" lon="3.48019">
        <ele>1135.94</ele>
        <time>2017-07-14T15:24:03Z</time>
      </trkpt>
      <trkpt lat="44.10266" lon="3.48007">
        <ele>1136.9</ele>
        <time>2017-07-14T15:24:16Z</time>
      </trkpt>
      <trkpt lat="44.10266" lon="3.48006">
        <ele>1136.9</ele>
        <time>2017-07-14T15:24:17Z</time>
      </trkpt>
      <trkpt lat="44.10262" lon="3.47998">
        <ele>1137.38</ele>
        <time>2017-07-14T15:24:24Z</time>
      </trkpt>
      <trkpt lat="44.10253" lon="3.47989">
        <ele>1137.38</ele>
        <time>2017-07-14T15:24:35Z</time>
      </trkpt>
      <trkpt lat="44.10252" lon="3.47988">
        <ele>1137.38</ele>
        <time>2017-07-14T15:24:36Z</time>
      </trkpt>
      <trkpt lat="44.10251" lon="3.47986">
        <ele>1137.38</ele>
        <time>2017-07-14T15:24:37Z</time>
      </trkpt>
      <trkpt lat="44.10248" lon="3.47981">
        <ele>1137.38</ele>
        <time>2017-07-14T15:24:42Z</time>
      </trkpt>
      <trkpt lat="44.10247" lon="3.47979">
        <ele>1137.38</ele>
        <time>2017-07-14T15:24:43Z</time>
      </trkpt>
      <trkpt lat="44.10241" lon="3.47964">
        <ele>1137.38</ele>
        <time>2017-07-14T15:24:55Z</time>
      </trkpt>
      <trkpt lat="44.10237" lon="3.47951">
        <ele>1138.34</ele>
        <time>2017-07-14T15:25:06Z</time>
      </trkpt>
      <trkpt lat="44.10231" lon="3.47937">
        <ele>1138.34</ele>
        <time>2017-07-14T15:25:20Z</time>
      </trkpt>
      <trkpt lat="44.10228" lon="3.47925">
        <ele>1138.82</ele>
        <time>2017-07-14T15:25:29Z</time>
      </trkpt>
      <trkpt lat="44.10227" lon="3.47923">
        <ele>1138.82</ele>
        <time>2017-07-14T15:25:30Z</time>
      </trkpt>
      <trkpt lat="44.1022" lon="3.4791">
        <ele>1139.3</ele>
        <time>2017-07-14T15:25:42Z</time>
      </trkpt>
      <trkpt lat="44.10218" lon="3.47896">
        <ele>1140.26</ele>
        <time>2017-07-14T15:25:51Z</time>
      </trkpt>
      <trkpt lat="44.10216" lon="3.4789">
        <ele>1141.22</ele>
        <time>2017-07-14T15:25:56Z</time>
      </trkpt>
      <trkpt lat="44.10215" lon="3.47887">
        <ele>1141.22</ele>
        <time>2017-07-14T15:25:59Z</time>
      </trkpt>
      <trkpt lat="44.10215" lon="3.47877">
        <ele>1141.22</ele>
        <time>2017-07-14T15:26:04Z</time>
      </trkpt>
      <trkpt lat="44.10216" lon="3.47875">
        <ele>1141.22</ele>
        <time>2017-07-14T15:26:05Z</time>
      </trkpt>
      <trkpt lat="44.10216" lon="3.47873">
        <ele>1141.22</ele>
        <time>2017-07-14T15:26:06Z</time>
      </trkpt>
      <trkpt lat="44.10214" lon="3.47857">
        <ele>1141.22</ele>
        <time>2017-07-14T15:26:17Z</time>
      </trkpt>
      <trkpt lat="44.10217" lon="3.47838">
        <ele>1142.66</ele>
        <time>2017-07-14T15:26:34Z</time>
      </trkpt>
      <trkpt lat="44.10217" lon="3.47836">
        <ele>1142.66</ele>
        <time>2017-07-14T15:26:35Z</time>
      </trkpt>
      <trkpt lat="44.10222" lon="3.47804">
        <ele>1143.14</ele>
        <time>2017-07-14T15:26:52Z</time>
      </trkpt>
      <trkpt lat="44.10221" lon="3.4779">
        <ele>1143.14</ele>
        <time>2017-07-14T15:27:03Z</time>
      </trkpt>
      <trkpt lat="44.10219" lon="3.47783">
        <ele>1143.14</ele>
        <time>2017-07-14T15:27:10Z</time>
      </trkpt>
      <trkpt lat="44.10219" lon="3.47782">
        <ele>1143.63</ele>
        <time>2017-07-14T15:27:11Z</time>
      </trkpt>
      <trkpt lat="44.10214" lon="3.47773">
        <ele>1144.11</ele>
        <time>2017-07-14T15:27:23Z</time>
      </trkpt>
      <trkpt lat="44.10202" lon="3.47768">
        <ele>1145.07</ele>
        <time>2017-07-14T15:27:39Z</time>
      </trkpt>
      <trkpt lat="44.10201" lon="3.47767">
        <ele>1145.07</ele>
        <time>2017-07-14T15:27:40Z</time>
      </trkpt>
      <trkpt lat="44.10188" lon="3.47764">
        <ele>1145.07</ele>
        <time>2017-07-14T15:27:55Z</time>
      </trkpt>
      <trkpt lat="44.10187" lon="3.47764">
        <ele>1145.07</ele>
        <time>2017-07-14T15:27:56Z</time>
      </trkpt>
      <trkpt lat="44.10185" lon="3.47764">
        <ele>1145.07</ele>
        <time>2017-07-14T15:27:57Z</time>
      </trkpt>
      <trkpt lat="44.10174" lon="3.47759">
        <ele>1145.55</ele>
        <time>2017-07-14T15:28:09Z</time>
      </trkpt>
      <trkpt lat="44.10172" lon="3.47758">
        <ele>1145.55</ele>
        <time>2017-07-14T15:28:11Z</time>
      </trkpt>
      <trkpt lat="44.10167" lon="3.47758">
        <ele>1146.03</ele>
        <time>2017-07-14T15:28:20Z</time>
      </trkpt>
      <trkpt lat="44.10155" lon="3.47762">
        <ele>1146.51</ele>
        <time>2017-07-14T15:28:33Z</time>
      </trkpt>
      <trkpt lat="44.10151" lon="3.47763">
        <ele>1146.51</ele>
        <time>2017-07-14T15:28:38Z</time>
      </trkpt>
      <trkpt lat="44.10149" lon="3.47764">
        <ele>1146.51</ele>
        <time>2017-07-14T15:28:39Z</time>
      </trkpt>
      <trkpt lat="44.10144" lon="3.47762">
        <ele>1146.99</ele>
        <time>2017-07-14T15:28:43Z</time>
      </trkpt>
      <trkpt lat="44.10142" lon="3.47762">
        <ele>1146.99</ele>
        <time>2017-07-14T15:28:44Z</time>
      </trkpt>
      <trkpt lat="44.1014" lon="3.47762">
        <ele>1146.99</ele>
        <time>2017-07-14T15:28:45Z</time>
      </trkpt>
      <trkpt lat="44.10131" lon="3.47763">
        <ele>1147.47</ele>
        <time>2017-07-14T15:28:56Z</time>
      </trkpt>
      <trkpt lat="44.10118" lon="3.47766">
        <ele>1147.47</ele>
        <time>2017-07-14T15:29:09Z</time>
      </trkpt>
      <trkpt lat="44.10108" lon="3.47759">
        <ele>1147.95</ele>
        <time>2017-07-14T15:29:21Z</time>
      </trkpt>
      <trkpt lat="44.10107" lon="3.47758">
        <ele>1147.95</ele>
        <time>2017-07-14T15:29:22Z</time>
      </trkpt>
      <trkpt lat="44.10098" lon="3.47754">
        <ele>1147.47</ele>
        <time>2017-07-14T15:29:30Z</time>
      </trkpt>
      <trkpt lat="44.10095" lon="3.47752">
        <ele>1147.47</ele>
        <time>2017-07-14T15:29:34Z</time>
      </trkpt>
      <trkpt lat="44.10094" lon="3.47752">
        <ele>1147.95</ele>
        <time>2017-07-14T15:29:35Z</time>
      </trkpt>
      <trkpt lat="44.10089" lon="3.47751">
        <ele>1147.95</ele>
        <time>2017-07-14T15:29:41Z</time>
      </trkpt>
      <trkpt lat="44.10088" lon="3.4775">
        <ele>1147.95</ele>
        <time>2017-07-14T15:29:42Z</time>
      </trkpt>
      <trkpt lat="44.1008" lon="3.47747">
        <ele>1148.43</ele>
        <time>2017-07-14T15:29:50Z</time>
      </trkpt>
      <trkpt lat="44.10079" lon="3.47746">
        <ele>1148.43</ele>
        <time>2017-07-14T15:29:51Z</time>
      </trkpt>
      <trkpt lat="44.10078" lon="3.47744">
        <ele>1149.39</ele>
        <time>2017-07-14T15:29:52Z</time>
      </trkpt>
      <trkpt lat="44.10078" lon="3.47742">
        <ele>1149.39</ele>
        <time>2017-07-14T15:29:53Z</time>
      </trkpt>
      <trkpt lat="44.10073" lon="3.47736">
        <ele>1149.39</ele>
        <time>2017-07-14T15:29:59Z</time>
      </trkpt>
      <trkpt lat="44.10073" lon="3.47732">
        <ele>1148.91</ele>
        <time>2017-07-14T15:30:03Z</time>
      </trkpt>
      <trkpt lat="44.10072" lon="3.47731">
        <ele>1149.39</ele>
        <time>2017-07-14T15:30:04Z</time>
      </trkpt>
      <trkpt lat="44.10072" lon="3.47724">
        <ele>1148.91</ele>
        <time>2017-07-14T15:30:14Z</time>
      </trkpt>
      <trkpt lat="44.1007" lon="3.4772">
        <ele>1148.91</ele>
        <time>2017-07-14T15:30:17Z</time>
      </trkpt>
      <trkpt lat="44.1007" lon="3.47719">
        <ele>1148.91</ele>
        <time>2017-07-14T15:30:18Z</time>
      </trkpt>
      <trkpt lat="44.10068" lon="3.47717">
        <ele>1148.91</ele>
        <time>2017-07-14T15:30:19Z</time>
      </trkpt>
      <trkpt lat="44.10062" lon="3.47709">
        <ele>1149.39</ele>
        <time>2017-07-14T15:30:29Z</time>
      </trkpt>
      <trkpt lat="44.10064" lon="3.47695">
        <ele>1149.39</ele>
        <time>2017-07-14T15:30:39Z</time>
      </trkpt>
      <trkpt lat="44.10064" lon="3.47692">
        <ele>1149.39</ele>
        <time>2017-07-14T15:30:40Z</time>
      </trkpt>
      <trkpt lat="44.10065" lon="3.4769">
        <ele>1149.39</ele>
        <time>2017-07-14T15:30:41Z</time>
      </trkpt>
      <trkpt lat="44.10065" lon="3.47682">
        <ele>1149.87</ele>
        <time>2017-07-14T15:30:47Z</time>
      </trkpt>
      <trkpt lat="44.10064" lon="3.47677">
        <ele>1149.87</ele>
        <time>2017-07-14T15:30:50Z</time>
      </trkpt>
      <trkpt lat="44.10063" lon="3.4767">
        <ele>1149.87</ele>
        <time>2017-07-14T15:30:56Z</time>
      </trkpt>
      <trkpt lat="44.10067" lon="3.47648">
        <ele>1149.87</ele>
        <time>2017-07-14T15:31:08Z</time>
      </trkpt>
      <trkpt lat="44.10067" lon="3.47646">
        <ele>1148.43</ele>
        <time>2017-07-14T15:31:09Z</time>
      </trkpt>
      <trkpt lat="44.10068" lon="3.47644">
        <ele>1148.43</ele>
        <time>2017-07-14T15:31:11Z</time>
      </trkpt>
      <trkpt lat="44.1007" lon="3.47637">
        <ele>1148.43</ele>
        <time>2017-07-14T15:31:17Z</time>
      </trkpt>
      <trkpt lat="44.1007" lon="3.47635">
        <ele>1148.43</ele>
        <time>2017-07-14T15:31:18Z</time>
      </trkpt>
      <trkpt lat="44.10068" lon="3.47616">
        <ele>1149.87</ele>
        <time>2017-07-14T15:31:30Z</time>
      </trkpt>
      <trkpt lat="44.10066" lon="3.47609">
        <ele>1150.35</ele>
        <time>2017-07-14T15:31:35Z</time>
      </trkpt>
      <trkpt lat="44.10061" lon="3.47598">
        <ele>1150.35</ele>
        <time>2017-07-14T15:31:46Z</time>
      </trkpt>
      <trkpt lat="44.10054" lon="3.47589">
        <ele>1150.84</ele>
        <time>2017-07-14T15:31:55Z</time>
      </trkpt>
      <trkpt lat="44.10052" lon="3.47583">
        <ele>1150.84</ele>
        <time>2017-07-14T15:32:00Z</time>
      </trkpt>
      <trkpt lat="44.10051" lon="3.47582">
        <ele>1151.8</ele>
        <time>2017-07-14T15:32:01Z</time>
      </trkpt>
      <trkpt lat="44.10045" lon="3.4757">
        <ele>1152.28</ele>
        <time>2017-07-14T15:32:12Z</time>
      </trkpt>
      <trkpt lat="44.10045" lon="3.47566">
        <ele>1152.76</ele>
        <time>2017-07-14T15:32:14Z</time>
      </trkpt>
      <trkpt lat="44.10043" lon="3.47559">
        <ele>1152.28</ele>
        <time>2017-07-14T15:32:19Z</time>
      </trkpt>
      <trkpt lat="44.10033" lon="3.47551">
        <ele>1152.28</ele>
        <time>2017-07-14T15:32:29Z</time>
      </trkpt>
      <trkpt lat="44.10032" lon="3.47548">
        <ele>1152.28</ele>
        <time>2017-07-14T15:32:30Z</time>
      </trkpt>
      <trkpt lat="44.10031" lon="3.47547">
        <ele>1152.28</ele>
        <time>2017-07-14T15:32:31Z</time>
      </trkpt>
      <trkpt lat="44.10027" lon="3.4754">
        <ele>1152.28</ele>
        <time>2017-07-14T15:32:38Z</time>
      </trkpt>
      <trkpt lat="44.10026" lon="3.47538">
        <ele>1152.28</ele>
        <time>2017-07-14T15:32:39Z</time>
      </trkpt>
      <trkpt lat="44.10021" lon="3.47534">
        <ele>1152.76</ele>
        <time>2017-07-14T15:32:45Z</time>
      </trkpt>
      <trkpt lat="44.1002" lon="3.47533">
        <ele>1152.76</ele>
        <time>2017-07-14T15:32:46Z</time>
      </trkpt>
      <trkpt lat="44.10003" lon="3.47522">
        <ele>1153.24</ele>
        <time>2017-07-14T15:32:58Z</time>
      </trkpt>
      <trkpt lat="44.10002" lon="3.47521">
        <ele>1153.24</ele>
        <time>2017-07-14T15:32:59Z</time>
      </trkpt>
      <trkpt lat="44.1" lon="3.4752">
        <ele>1153.24</ele>
        <time>2017-07-14T15:33:00Z</time>
      </trkpt>
      <trkpt lat="44.09998" lon="3.4752">
        <ele>1153.72</ele>
        <time>2017-07-14T15:33:01Z</time>
      </trkpt>
      <trkpt lat="44.09996" lon="3.4752">
        <ele>1153.72</ele>
        <time>2017-07-14T15:33:02Z</time>
      </trkpt>
      <trkpt lat="44.09992" lon="3.47517">
        <ele>1153.72</ele>
        <time>2017-07-14T15:33:06Z</time>
      </trkpt>
      <trkpt lat="44.09979" lon="3.4751">
        <ele>1154.2</ele>
        <time>2017-07-14T15:33:14Z</time>
      </trkpt>
      <trkpt lat="44.09978" lon="3.47509">
        <ele>1154.2</ele>
        <time>2017-07-14T15:33:15Z</time>
      </trkpt>
      <trkpt lat="44.09977" lon="3.47509">
        <ele>1154.2</ele>
        <time>2017-07-14T15:33:16Z</time>
      </trkpt>
      <trkpt lat="44.09973" lon="3.47508">
        <ele>1154.2</ele>
        <time>2017-07-14T15:33:20Z</time>
      </trkpt>
      <trkpt lat="44.09972" lon="3.47507">
        <ele>1154.2</ele>
        <time>2017-07-14T15:33:21Z</time>
      </trkpt>
      <trkpt lat="44.0997" lon="3.47507">
        <ele>1154.2</ele>
        <time>2017-07-14T15:33:22Z</time>
      </trkpt>
      <trkpt lat="44.09967" lon="3.47504">
        <ele>1154.2</ele>
        <time>2017-07-14T15:33:26Z</time>
      </trkpt>
      <trkpt lat="44.09966" lon="3.47503">
        <ele>1154.2</ele>
        <time>2017-07-14T15:33:27Z</time>
      </trkpt>
      <trkpt lat="44.09961" lon="3.47503">
        <ele>1154.2</ele>
        <time>2017-07-14T15:33:32Z</time>
      </trkpt>
      <trkpt lat="44.0996" lon="3.47504">
        <ele>1154.2</ele>
        <time>2017-07-14T15:33:33Z</time>
      </trkpt>
      <trkpt lat="44.09951" lon="3.47502">
        <ele>1154.68</ele>
        <time>2017-07-14T15:33:43Z</time>
      </trkpt>
      <trkpt lat="44.09949" lon="3.47502">
        <ele>1154.68</ele>
        <time>2017-07-14T15:33:45Z</time>
      </trkpt>
      <trkpt lat="44.09945" lon="3.475">
        <ele>1155.16</ele>
        <time>2017-07-14T15:33:49Z</time>
      </trkpt>
      <trkpt lat="44.09943" lon="3.47499">
        <ele>1155.16</ele>
        <time>2017-07-14T15:33:50Z</time>
      </trkpt>
      <trkpt lat="44.09941" lon="3.47499">
        <ele>1155.16</ele>
        <time>2017-07-14T15:33:51Z</time>
      </trkpt>
      <trkpt lat="44.0994" lon="3.47499">
        <ele>1155.16</ele>
        <time>2017-07-14T15:33:52Z</time>
      </trkpt>
      <trkpt lat="44.09938" lon="3.47498">
        <ele>1155.16</ele>
        <time>2017-07-14T15:33:53Z</time>
      </trkpt>
      <trkpt lat="44.09934" lon="3.47496">
        <ele>1155.16</ele>
        <time>2017-07-14T15:33:57Z</time>
      </trkpt>
      <trkpt lat="44.09933" lon="3.47496">
        <ele>1155.64</ele>
        <time>2017-07-14T15:33:58Z</time>
      </trkpt>
      <trkpt lat="44.0993" lon="3.47496">
        <ele>1156.12</ele>
        <time>2017-07-14T15:34:03Z</time>
      </trkpt>
      <trkpt lat="44.09928" lon="3.47496">
        <ele>1156.12</ele>
        <time>2017-07-14T15:34:04Z</time>
      </trkpt>
      <trkpt lat="44.09923" lon="3.47495">
        <ele>1156.12</ele>
        <time>2017-07-14T15:34:09Z</time>
      </trkpt>
      <trkpt lat="44.09911" lon="3.47496">
        <ele>1156.12</ele>
        <time>2017-07-14T15:34:20Z</time>
      </trkpt>
      <trkpt lat="44.09897" lon="3.47493">
        <ele>1157.08</ele>
        <time>2017-07-14T15:34:33Z</time>
      </trkpt>
      <trkpt lat="44.09892" lon="3.47492">
        <ele>1157.56</ele>
        <time>2017-07-14T15:34:40Z</time>
      </trkpt>
      <trkpt lat="44.0989" lon="3.47491">
        <ele>1157.56</ele>
        <time>2017-07-14T15:34:41Z</time>
      </trkpt>
      <trkpt lat="44.09886" lon="3.47488">
        <ele>1157.56</ele>
        <time>2017-07-14T15:34:45Z</time>
      </trkpt>
      <trkpt lat="44.09885" lon="3.47488">
        <ele>1157.56</ele>
        <time>2017-07-14T15:34:46Z</time>
      </trkpt>
      <trkpt lat="44.09884" lon="3.47487">
        <ele>1157.56</ele>
        <time>2017-07-14T15:34:47Z</time>
      </trkpt>
      <trkpt lat="44.09879" lon="3.47484">
        <ele>1157.56</ele>
        <time>2017-07-14T15:34:52Z</time>
      </trkpt>
      <trkpt lat="44.09877" lon="3.47485">
        <ele>1157.56</ele>
        <time>2017-07-14T15:34:53Z</time>
      </trkpt>
      <trkpt lat="44.09876" lon="3.47486">
        <ele>1157.56</ele>
        <time>2017-07-14T15:34:54Z</time>
      </trkpt>
      <trkpt lat="44.09871" lon="3.47487">
        <ele>1157.56</ele>
        <time>2017-07-14T15:35:00Z</time>
      </trkpt>
      <trkpt lat="44.09869" lon="3.47487">
        <ele>1157.56</ele>
        <time>2017-07-14T15:35:01Z</time>
      </trkpt>
      <trkpt lat="44.09866" lon="3.47485">
        <ele>1158.05</ele>
        <time>2017-07-14T15:35:06Z</time>
      </trkpt>
      <trkpt lat="44.09864" lon="3.47486">
        <ele>1158.05</ele>
        <time>2017-07-14T15:35:07Z</time>
      </trkpt>
      <trkpt lat="44.09862" lon="3.47486">
        <ele>1158.05</ele>
        <time>2017-07-14T15:35:08Z</time>
      </trkpt>
      <trkpt lat="44.09858" lon="3.47486">
        <ele>1158.05</ele>
        <time>2017-07-14T15:35:12Z</time>
      </trkpt>
      <trkpt lat="44.09857" lon="3.47487">
        <ele>1158.05</ele>
        <time>2017-07-14T15:35:13Z</time>
      </trkpt>
      <trkpt lat="44.09855" lon="3.47488">
        <ele>1158.05</ele>
        <time>2017-07-14T15:35:14Z</time>
      </trkpt>
      <trkpt lat="44.09842" lon="3.47493">
        <ele>1158.53</ele>
        <time>2017-07-14T15:35:26Z</time>
      </trkpt>
      <trkpt lat="44.09842" lon="3.47493">
        <ele>1158.53</ele>
        <time>2017-07-14T15:35:27Z</time>
      </trkpt>
      <trkpt lat="44.09841" lon="3.47494">
        <ele>1158.53</ele>
        <time>2017-07-14T15:35:28Z</time>
      </trkpt>
      <trkpt lat="44.09837" lon="3.47494">
        <ele>1158.53</ele>
        <time>2017-07-14T15:35:32Z</time>
      </trkpt>
      <trkpt lat="44.0983" lon="3.47496">
        <ele>1158.53</ele>
        <time>2017-07-14T15:35:38Z</time>
      </trkpt>
      <trkpt lat="44.09829" lon="3.47496">
        <ele>1158.53</ele>
        <time>2017-07-14T15:35:39Z</time>
      </trkpt>
      <trkpt lat="44.09819" lon="3.47502">
        <ele>1159.49</ele>
        <time>2017-07-14T15:35:51Z</time>
      </trkpt>
      <trkpt lat="44.09818" lon="3.47503">
        <ele>1159.49</ele>
        <time>2017-07-14T15:35:53Z</time>
      </trkpt>
      <trkpt lat="44.09812" lon="3.47502">
        <ele>1159.49</ele>
        <time>2017-07-14T15:35:58Z</time>
      </trkpt>
      <trkpt lat="44.09811" lon="3.47502">
        <ele>1159.49</ele>
        <time>2017-07-14T15:35:59Z</time>
      </trkpt>
      <trkpt lat="44.09809" lon="3.47502">
        <ele>1159.49</ele>
        <time>2017-07-14T15:36:00Z</time>
      </trkpt>
      <trkpt lat="44.09802" lon="3.475">
        <ele>1159.49</ele>
        <time>2017-07-14T15:36:06Z</time>
      </trkpt>
      <trkpt lat="44.09797" lon="3.47499">
        <ele>1159.49</ele>
        <time>2017-07-14T15:36:10Z</time>
      </trkpt>
      <trkpt lat="44.09795" lon="3.47499">
        <ele>1159.49</ele>
        <time>2017-07-14T15:36:11Z</time>
      </trkpt>
      <trkpt lat="44.09794" lon="3.47498">
        <ele>1159.49</ele>
        <time>2017-07-14T15:36:12Z</time>
      </trkpt>
      <trkpt lat="44.09792" lon="3.47498">
        <ele>1159.49</ele>
        <time>2017-07-14T15:36:13Z</time>
      </trkpt>
      <trkpt lat="44.09783" lon="3.47501">
        <ele>1159.97</ele>
        <time>2017-07-14T15:36:23Z</time>
      </trkpt>
      <trkpt lat="44.09781" lon="3.47501">
        <ele>1159.97</ele>
        <time>2017-07-14T15:36:24Z</time>
      </trkpt>
      <trkpt lat="44.0978" lon="3.47502">
        <ele>1159.97</ele>
        <time>2017-07-14T15:36:25Z</time>
      </trkpt>
      <trkpt lat="44.09777" lon="3.47501">
        <ele>1159.97</ele>
        <time>2017-07-14T15:36:28Z</time>
      </trkpt>
      <trkpt lat="44.09775" lon="3.47501">
        <ele>1159.97</ele>
        <time>2017-07-14T15:36:30Z</time>
      </trkpt>
      <trkpt lat="44.09765" lon="3.47499">
        <ele>1160.93</ele>
        <time>2017-07-14T15:36:40Z</time>
      </trkpt>
      <trkpt lat="44.09765" lon="3.47503">
        <ele>1160.45</ele>
        <time>2017-07-14T15:36:52Z</time>
      </trkpt>
      <trkpt lat="44.09767" lon="3.47502">
        <ele>1160.45</ele>
        <time>2017-07-14T15:37:04Z</time>
      </trkpt>
      <trkpt lat="44.09766" lon="3.47499">
        <ele>1160.45</ele>
        <time>2017-07-14T15:37:33Z</time>
      </trkpt>
      <trkpt lat="44.09753" lon="3.47503">
        <ele>1160.45</ele>
        <time>2017-07-14T15:37:45Z</time>
      </trkpt>
      <trkpt lat="44.09734" lon="3.47505">
        <ele>1162.37</ele>
        <time>2017-07-14T15:38:03Z</time>
      </trkpt>
      <trkpt lat="44.09719" lon="3.4751">
        <ele>1162.85</ele>
        <time>2017-07-14T15:38:19Z</time>
      </trkpt>
      <trkpt lat="44.09712" lon="3.47512">
        <ele>1162.85</ele>
        <time>2017-07-14T15:38:27Z</time>
      </trkpt>
      <trkpt lat="44.0971" lon="3.47513">
        <ele>1162.85</ele>
        <time>2017-07-14T15:38:28Z</time>
      </trkpt>
      <trkpt lat="44.09703" lon="3.47512">
        <ele>1162.85</ele>
        <time>2017-07-14T15:38:33Z</time>
      </trkpt>
      <trkpt lat="44.09695" lon="3.47513">
        <ele>1162.85</ele>
        <time>2017-07-14T15:38:40Z</time>
      </trkpt>
      <trkpt lat="44.09694" lon="3.47514">
        <ele>1162.85</ele>
        <time>2017-07-14T15:38:41Z</time>
      </trkpt>
      <trkpt lat="44.09688" lon="3.47514">
        <ele>1163.33</ele>
        <time>2017-07-14T15:38:47Z</time>
      </trkpt>
      <trkpt lat="44.09687" lon="3.47515">
        <ele>1163.33</ele>
        <time>2017-07-14T15:38:48Z</time>
      </trkpt>
      <trkpt lat="44.09676" lon="3.47518">
        <ele>1163.33</ele>
        <time>2017-07-14T15:39:01Z</time>
      </trkpt>
      <trkpt lat="44.09674" lon="3.47519">
        <ele>1163.33</ele>
        <time>2017-07-14T15:39:03Z</time>
      </trkpt>
      <trkpt lat="44.09672" lon="3.47519">
        <ele>1163.33</ele>
        <time>2017-07-14T15:39:04Z</time>
      </trkpt>
      <trkpt lat="44.09671" lon="3.47519">
        <ele>1163.81</ele>
        <time>2017-07-14T15:39:05Z</time>
      </trkpt>
      <trkpt lat="44.09658" lon="3.47521">
        <ele>1164.29</ele>
        <time>2017-07-14T15:39:18Z</time>
      </trkpt>
      <trkpt lat="44.09646" lon="3.47519">
        <ele>1164.77</ele>
        <time>2017-07-14T15:39:29Z</time>
      </trkpt>
      <trkpt lat="44.09634" lon="3.47521">
        <ele>1165.74</ele>
        <time>2017-07-14T15:39:43Z</time>
      </trkpt>
      <trkpt lat="44.09621" lon="3.47531">
        <ele>1165.74</ele>
        <time>2017-07-14T15:39:57Z</time>
      </trkpt>
      <trkpt lat="44.09619" lon="3.47531">
        <ele>1165.74</ele>
        <time>2017-07-14T15:39:58Z</time>
      </trkpt>
      <trkpt lat="44.09605" lon="3.47542">
        <ele>1166.7</ele>
        <time>2017-07-14T15:40:10Z</time>
      </trkpt>
      <trkpt lat="44.09604" lon="3.47544">
        <ele>1166.7</ele>
        <time>2017-07-14T15:40:11Z</time>
      </trkpt>
      <trkpt lat="44.09594" lon="3.4755">
        <ele>1166.7</ele>
        <time>2017-07-14T15:40:23Z</time>
      </trkpt>
      <trkpt lat="44.09585" lon="3.47558">
        <ele>1167.18</ele>
        <time>2017-07-14T15:40:32Z</time>
      </trkpt>
      <trkpt lat="44.09582" lon="3.47559">
        <ele>1167.18</ele>
        <time>2017-07-14T15:40:34Z</time>
      </trkpt>
      <trkpt lat="44.09569" lon="3.47565">
        <ele>1167.18</ele>
        <time>2017-07-14T15:40:45Z</time>
      </trkpt>
      <trkpt lat="44.09568" lon="3.47565">
        <ele>1167.66</ele>
        <time>2017-07-14T15:40:46Z</time>
      </trkpt>
      <trkpt lat="44.09564" lon="3.47568">
        <ele>1168.14</ele>
        <time>2017-07-14T15:40:51Z</time>
      </trkpt>
      <trkpt lat="44.09563" lon="3.47568">
        <ele>1168.14</ele>
        <time>2017-07-14T15:40:52Z</time>
      </trkpt>
      <trkpt lat="44.0956" lon="3.47572">
        <ele>1168.14</ele>
        <time>2017-07-14T15:40:57Z</time>
      </trkpt>
      <trkpt lat="44.09549" lon="3.47582">
        <ele>1168.14</ele>
        <time>2017-07-14T15:41:08Z</time>
      </trkpt>
      <trkpt lat="44.09542" lon="3.47589">
        <ele>1168.14</ele>
        <time>2017-07-14T15:41:16Z</time>
      </trkpt>
      <trkpt lat="44.09534" lon="3.47595">
        <ele>1168.62</ele>
        <time>2017-07-14T15:41:28Z</time>
      </trkpt>
      <trkpt lat="44.0953" lon="3.47596">
        <ele>1168.62</ele>
        <time>2017-07-14T15:41:31Z</time>
      </trkpt>
      <trkpt lat="44.09529" lon="3.47596">
        <ele>1169.1</ele>
        <time>2017-07-14T15:41:32Z</time>
      </trkpt>
      <trkpt lat="44.09523" lon="3.47599">
        <ele>1169.58</ele>
        <time>2017-07-14T15:41:38Z</time>
      </trkpt>
      <trkpt lat="44.09514" lon="3.47607">
        <ele>1169.58</ele>
        <time>2017-07-14T15:41:50Z</time>
      </trkpt>
      <trkpt lat="44.09506" lon="3.47613">
        <ele>1170.54</ele>
        <time>2017-07-14T15:42:00Z</time>
      </trkpt>
      <trkpt lat="44.09504" lon="3.47614">
        <ele>1170.54</ele>
        <time>2017-07-14T15:42:01Z</time>
      </trkpt>
      <trkpt lat="44.09498" lon="3.47617">
        <ele>1170.54</ele>
        <time>2017-07-14T15:42:07Z</time>
      </trkpt>
      <trkpt lat="44.09491" lon="3.4762">
        <ele>1171.02</ele>
        <time>2017-07-14T15:42:13Z</time>
      </trkpt>
      <trkpt lat="44.09474" lon="3.4763">
        <ele>1171.02</ele>
        <time>2017-07-14T15:42:28Z</time>
      </trkpt>
      <trkpt lat="44.0947" lon="3.47633">
        <ele>1171.02</ele>
        <time>2017-07-14T15:42:33Z</time>
      </trkpt>
      <trkpt lat="44.09461" lon="3.47641">
        <ele>1171.02</ele>
        <time>2017-07-14T15:42:44Z</time>
      </trkpt>
      <trkpt lat="44.09452" lon="3.47646">
        <ele>1171.02</ele>
        <time>2017-07-14T15:42:52Z</time>
      </trkpt>
      <trkpt lat="44.09451" lon="3.47646">
        <ele>1171.98</ele>
        <time>2017-07-14T15:42:53Z</time>
      </trkpt>
      <trkpt lat="44.09446" lon="3.47654">
        <ele>1172.95</ele>
        <time>2017-07-14T15:42:59Z</time>
      </trkpt>
      <trkpt lat="44.09437" lon="3.47664">
        <ele>1171.98</ele>
        <time>2017-07-14T15:43:12Z</time>
      </trkpt>
      <trkpt lat="44.09429" lon="3.47681">
        <ele>1171.98</ele>
        <time>2017-07-14T15:43:25Z</time>
      </trkpt>
      <trkpt lat="44.09427" lon="3.47696">
        <ele>1173.43</ele>
        <time>2017-07-14T15:43:36Z</time>
      </trkpt>
      <trkpt lat="44.09427" lon="3.47696">
        <ele>1173.43</ele>
        <time>2017-07-14T15:43:37Z</time>
      </trkpt>
      <trkpt lat="44.09427" lon="3.477">
        <ele>1173.43</ele>
        <time>2017-07-14T15:43:43Z</time>
      </trkpt>
      <trkpt lat="44.09426" lon="3.47705">
        <ele>1171.98</ele>
        <time>2017-07-14T15:43:47Z</time>
      </trkpt>
      <trkpt lat="44.09426" lon="3.47707">
        <ele>1171.98</ele>
        <time>2017-07-14T15:43:48Z</time>
      </trkpt>
      <trkpt lat="44.09427" lon="3.47709">
        <ele>1173.91</ele>
        <time>2017-07-14T15:43:49Z</time>
      </trkpt>
      <trkpt lat="44.09427" lon="3.47711">
        <ele>1173.91</ele>
        <time>2017-07-14T15:43:50Z</time>
      </trkpt>
      <trkpt lat="44.09427" lon="3.47716">
        <ele>1172.95</ele>
        <time>2017-07-14T15:43:55Z</time>
      </trkpt>
      <trkpt lat="44.09433" lon="3.47731">
        <ele>1172.95</ele>
        <time>2017-07-14T15:44:02Z</time>
      </trkpt>
      <trkpt lat="44.09433" lon="3.47732">
        <ele>1172.95</ele>
        <time>2017-07-14T15:44:03Z</time>
      </trkpt>
      <trkpt lat="44.09435" lon="3.47746">
        <ele>1172.95</ele>
        <time>2017-07-14T15:44:12Z</time>
      </trkpt>
      <trkpt lat="44.09437" lon="3.4776">
        <ele>1173.91</ele>
        <time>2017-07-14T15:44:22Z</time>
      </trkpt>
      <trkpt lat="44.09437" lon="3.47764">
        <ele>1174.39</ele>
        <time>2017-07-14T15:44:35Z</time>
      </trkpt>
      <trkpt lat="44.09438" lon="3.47768">
        <ele>1174.87</ele>
        <time>2017-07-14T15:44:53Z</time>
      </trkpt>
      <trkpt lat="44.09439" lon="3.47771">
        <ele>1174.87</ele>
        <time>2017-07-14T15:44:57Z</time>
      </trkpt>
      <trkpt lat="44.09439" lon="3.47773">
        <ele>1174.87</ele>
        <time>2017-07-14T15:44:58Z</time>
      </trkpt>
      <trkpt lat="44.09445" lon="3.4778">
        <ele>1174.87</ele>
        <time>2017-07-14T15:45:10Z</time>
      </trkpt>
      <trkpt lat="44.09445" lon="3.47781">
        <ele>1174.87</ele>
        <time>2017-07-14T15:45:22Z</time>
      </trkpt>
      <trkpt lat="44.09442" lon="3.47777">
        <ele>1174.87</ele>
        <time>2017-07-14T15:45:30Z</time>
      </trkpt>
      <trkpt lat="44.0944" lon="3.47778">
        <ele>1174.87</ele>
        <time>2017-07-14T15:45:42Z</time>
      </trkpt>
      <trkpt lat="44.09441" lon="3.47775">
        <ele>1174.87</ele>
        <time>2017-07-14T15:45:58Z</time>
      </trkpt>
      <trkpt lat="44.09441" lon="3.47775">
        <ele>1174.87</ele>
        <time>2017-07-14T15:45:59Z</time>
      </trkpt>
      <trkpt lat="44.09441" lon="3.47773">
        <ele>1174.87</ele>
        <time>2017-07-14T15:46:00Z</time>
      </trkpt>
      <trkpt lat="44.09441" lon="3.47771">
        <ele>1174.87</ele>
        <time>2017-07-14T15:46:01Z</time>
      </trkpt>
      <trkpt lat="44.0944" lon="3.47748">
        <ele>1175.35</ele>
        <time>2017-07-14T15:46:17Z</time>
      </trkpt>
      <trkpt lat="44.09435" lon="3.47733">
        <ele>1175.83</ele>
        <time>2017-07-14T15:46:32Z</time>
      </trkpt>
      <trkpt lat="44.09436" lon="3.47716">
        <ele>1176.31</ele>
        <time>2017-07-14T15:46:46Z</time>
      </trkpt>
      <trkpt lat="44.09439" lon="3.47696">
        <ele>1177.27</ele>
        <time>2017-07-14T15:47:00Z</time>
      </trkpt>
      <trkpt lat="44.09443" lon="3.4769">
        <ele>1177.75</ele>
        <time>2017-07-14T15:47:06Z</time>
      </trkpt>
      <trkpt lat="44.09453" lon="3.47677">
        <ele>1176.31</ele>
        <time>2017-07-14T15:47:18Z</time>
      </trkpt>
      <trkpt lat="44.09453" lon="3.47676">
        <ele>1176.31</ele>
        <time>2017-07-14T15:47:19Z</time>
      </trkpt>
      <trkpt lat="44.09457" lon="3.47675">
        <ele>1178.23</ele>
        <time>2017-07-14T15:47:23Z</time>
      </trkpt>
      <trkpt lat="44.09465" lon="3.47671">
        <ele>1176.79</ele>
        <time>2017-07-14T15:47:32Z</time>
      </trkpt>
      <trkpt lat="44.09477" lon="3.47666">
        <ele>1177.75</ele>
        <time>2017-07-14T15:47:45Z</time>
      </trkpt>
      <trkpt lat="44.09487" lon="3.47658">
        <ele>1177.27</ele>
        <time>2017-07-14T15:47:59Z</time>
      </trkpt>
      <trkpt lat="44.09489" lon="3.47657">
        <ele>1177.75</ele>
        <time>2017-07-14T15:48:02Z</time>
      </trkpt>
      <trkpt lat="44.09494" lon="3.47656">
        <ele>1177.27</ele>
        <time>2017-07-14T15:48:18Z</time>
      </trkpt>
      <trkpt lat="44.09493" lon="3.47655">
        <ele>1178.71</ele>
        <time>2017-07-14T15:48:41Z</time>
      </trkpt>
      <trkpt lat="44.0949" lon="3.47655">
        <ele>1177.27</ele>
        <time>2017-07-14T15:49:06Z</time>
      </trkpt>
      <trkpt lat="44.09496" lon="3.47653">
        <ele>1177.27</ele>
        <time>2017-07-14T15:49:22Z</time>
      </trkpt>
      <trkpt lat="44.09499" lon="3.47653">
        <ele>1177.27</ele>
        <time>2017-07-14T15:49:26Z</time>
      </trkpt>
      <trkpt lat="44.09501" lon="3.47651">
        <ele>1177.27</ele>
        <time>2017-07-14T15:49:30Z</time>
      </trkpt>
      <trkpt lat="44.09514" lon="3.47649">
        <ele>1177.27</ele>
        <time>2017-07-14T15:49:43Z</time>
      </trkpt>
      <trkpt lat="44.09526" lon="3.47653">
        <ele>1178.71</ele>
        <time>2017-07-14T15:49:56Z</time>
      </trkpt>
      <trkpt lat="44.09531" lon="3.47655">
        <ele>1178.71</ele>
        <time>2017-07-14T15:50:01Z</time>
      </trkpt>
      <trkpt lat="44.09536" lon="3.47652">
        <ele>1178.71</ele>
        <time>2017-07-14T15:50:07Z</time>
      </trkpt>
      <trkpt lat="44.0954" lon="3.4765">
        <ele>1178.71</ele>
        <time>2017-07-14T15:50:11Z</time>
      </trkpt>
      <trkpt lat="44.09545" lon="3.47651">
        <ele>1178.71</ele>
        <time>2017-07-14T15:50:15Z</time>
      </trkpt>
      <trkpt lat="44.09555" lon="3.47642">
        <ele>1179.19</ele>
        <time>2017-07-14T15:50:27Z</time>
      </trkpt>
      <trkpt lat="44.09568" lon="3.47627">
        <ele>1180.16</ele>
        <time>2017-07-14T15:50:38Z</time>
      </trkpt>
      <trkpt lat="44.09582" lon="3.47615">
        <ele>1180.64</ele>
        <time>2017-07-14T15:50:54Z</time>
      </trkpt>
      <trkpt lat="44.09584" lon="3.47614">
        <ele>1180.64</ele>
        <time>2017-07-14T15:50:56Z</time>
      </trkpt>
      <trkpt lat="44.09598" lon="3.47608">
        <ele>1180.64</ele>
        <time>2017-07-14T15:51:10Z</time>
      </trkpt>
      <trkpt lat="44.096" lon="3.47607">
        <ele>1180.64</ele>
        <time>2017-07-14T15:51:12Z</time>
      </trkpt>
      <trkpt lat="44.09601" lon="3.47607">
        <ele>1180.64</ele>
        <time>2017-07-14T15:51:13Z</time>
      </trkpt>
      <trkpt lat="44.09612" lon="3.47607">
        <ele>1181.12</ele>
        <time>2017-07-14T15:51:20Z</time>
      </trkpt>
      <trkpt lat="44.09613" lon="3.47605">
        <ele>1181.12</ele>
        <time>2017-07-14T15:51:21Z</time>
      </trkpt>
      <trkpt lat="44.0962" lon="3.47604">
        <ele>1181.6</ele>
        <time>2017-07-14T15:51:27Z</time>
      </trkpt>
      <trkpt lat="44.09632" lon="3.47599">
        <ele>1181.6</ele>
        <time>2017-07-14T15:51:40Z</time>
      </trkpt>
      <trkpt lat="44.09634" lon="3.47597">
        <ele>1181.6</ele>
        <time>2017-07-14T15:51:42Z</time>
      </trkpt>
      <trkpt lat="44.09645" lon="3.47597">
        <ele>1182.08</ele>
        <time>2017-07-14T15:51:52Z</time>
      </trkpt>
      <trkpt lat="44.09646" lon="3.47597">
        <ele>1182.08</ele>
        <time>2017-07-14T15:51:53Z</time>
      </trkpt>
      <trkpt lat="44.09651" lon="3.47592">
        <ele>1182.56</ele>
        <time>2017-07-14T15:51:59Z</time>
      </trkpt>
      <trkpt lat="44.09652" lon="3.47592">
        <ele>1182.56</ele>
        <time>2017-07-14T15:52:00Z</time>
      </trkpt>
      <trkpt lat="44.09654" lon="3.47591">
        <ele>1182.56</ele>
        <time>2017-07-14T15:52:01Z</time>
      </trkpt>
      <trkpt lat="44.09665" lon="3.47591">
        <ele>1183.04</ele>
        <time>2017-07-14T15:52:12Z</time>
      </trkpt>
      <trkpt lat="44.0968" lon="3.47587">
        <ele>1184</ele>
        <time>2017-07-14T15:52:26Z</time>
      </trkpt>
      <trkpt lat="44.09698" lon="3.47592">
        <ele>1184</ele>
        <time>2017-07-14T15:52:43Z</time>
      </trkpt>
      <trkpt lat="44.09705" lon="3.47597">
        <ele>1184</ele>
        <time>2017-07-14T15:52:53Z</time>
      </trkpt>
      <trkpt lat="44.09707" lon="3.47598">
        <ele>1184</ele>
        <time>2017-07-14T15:52:54Z</time>
      </trkpt>
      <trkpt lat="44.09718" lon="3.47598">
        <ele>1184</ele>
        <time>2017-07-14T15:53:05Z</time>
      </trkpt>
      <trkpt lat="44.09729" lon="3.476">
        <ele>1184.48</ele>
        <time>2017-07-14T15:53:16Z</time>
      </trkpt>
      <trkpt lat="44.09738" lon="3.47595">
        <ele>1184.48</ele>
        <time>2017-07-14T15:53:27Z</time>
      </trkpt>
      <trkpt lat="44.09758" lon="3.47595">
        <ele>1184.96</ele>
        <time>2017-07-14T15:53:42Z</time>
      </trkpt>
      <trkpt lat="44.09759" lon="3.47596">
        <ele>1184.96</ele>
        <time>2017-07-14T15:53:45Z</time>
      </trkpt>
      <trkpt lat="44.09761" lon="3.47597">
        <ele>1184.96</ele>
        <time>2017-07-14T15:53:46Z</time>
      </trkpt>
      <trkpt lat="44.09769" lon="3.47602">
        <ele>1184.96</ele>
        <time>2017-07-14T15:53:52Z</time>
      </trkpt>
      <trkpt lat="44.0977" lon="3.47603">
        <ele>1184.96</ele>
        <time>2017-07-14T15:53:53Z</time>
      </trkpt>
      <trkpt lat="44.09772" lon="3.47604">
        <ele>1184.96</ele>
        <time>2017-07-14T15:53:54Z</time>
      </trkpt>
      <trkpt lat="44.09774" lon="3.47606">
        <ele>1184.96</ele>
        <time>2017-07-14T15:53:58Z</time>
      </trkpt>
      <trkpt lat="44.09776" lon="3.47607">
        <ele>1184.96</ele>
        <time>2017-07-14T15:53:59Z</time>
      </trkpt>
      <trkpt lat="44.09777" lon="3.47608">
        <ele>1184.96</ele>
        <time>2017-07-14T15:54:00Z</time>
      </trkpt>
      <trkpt lat="44.09787" lon="3.47615">
        <ele>1184.96</ele>
        <time>2017-07-14T15:54:10Z</time>
      </trkpt>
      <trkpt lat="44.09788" lon="3.47616">
        <ele>1184.96</ele>
        <time>2017-07-14T15:54:11Z</time>
      </trkpt>
      <trkpt lat="44.09789" lon="3.47617">
        <ele>1184.96</ele>
        <time>2017-07-14T15:54:12Z</time>
      </trkpt>
      <trkpt lat="44.0979" lon="3.47619">
        <ele>1184.96</ele>
        <time>2017-07-14T15:54:13Z</time>
      </trkpt>
      <trkpt lat="44.09795" lon="3.47619">
        <ele>1185.92</ele>
        <time>2017-07-14T15:54:26Z</time>
      </trkpt>
      <trkpt lat="44.09805" lon="3.47626">
        <ele>1186.4</ele>
        <time>2017-07-14T15:54:44Z</time>
      </trkpt>
      <trkpt lat="44.09813" lon="3.47632">
        <ele>1186.4</ele>
        <time>2017-07-14T15:55:00Z</time>
      </trkpt>
      <trkpt lat="44.0982" lon="3.47645">
        <ele>1186.4</ele>
        <time>2017-07-14T15:55:16Z</time>
      </trkpt>
      <trkpt lat="44.09832" lon="3.47665">
        <ele>1186.88</ele>
        <time>2017-07-14T15:55:35Z</time>
      </trkpt>
      <trkpt lat="44.09838" lon="3.47674">
        <ele>1187.37</ele>
        <time>2017-07-14T15:55:43Z</time>
      </trkpt>
      <trkpt lat="44.09846" lon="3.47684">
        <ele>1187.37</ele>
        <time>2017-07-14T15:55:53Z</time>
      </trkpt>
      <trkpt lat="44.09847" lon="3.47686">
        <ele>1187.37</ele>
        <time>2017-07-14T15:55:54Z</time>
      </trkpt>
      <trkpt lat="44.09855" lon="3.47704">
        <ele>1187.37</ele>
        <time>2017-07-14T15:56:10Z</time>
      </trkpt>
      <trkpt lat="44.09861" lon="3.47724">
        <ele>1187.85</ele>
        <time>2017-07-14T15:56:27Z</time>
      </trkpt>
      <trkpt lat="44.09865" lon="3.47743">
        <ele>1187.85</ele>
        <time>2017-07-14T15:56:42Z</time>
      </trkpt>
      <trkpt lat="44.09863" lon="3.47746">
        <ele>1187.85</ele>
        <time>2017-07-14T15:56:44Z</time>
      </trkpt>
      <trkpt lat="44.09863" lon="3.47748">
        <ele>1187.85</ele>
        <time>2017-07-14T15:56:45Z</time>
      </trkpt>
      <trkpt lat="44.0986" lon="3.47754">
        <ele>1187.85</ele>
        <time>2017-07-14T15:56:50Z</time>
      </trkpt>
      <trkpt lat="44.0986" lon="3.47756">
        <ele>1188.81</ele>
        <time>2017-07-14T15:56:51Z</time>
      </trkpt>
      <trkpt lat="44.0986" lon="3.47759">
        <ele>1188.81</ele>
        <time>2017-07-14T15:56:52Z</time>
      </trkpt>
      <trkpt lat="44.0986" lon="3.47761">
        <ele>1188.81</ele>
        <time>2017-07-14T15:56:53Z</time>
      </trkpt>
      <trkpt lat="44.09861" lon="3.4777">
        <ele>1188.81</ele>
        <time>2017-07-14T15:56:58Z</time>
      </trkpt>
      <trkpt lat="44.09861" lon="3.47772">
        <ele>1188.81</ele>
        <time>2017-07-14T15:56:59Z</time>
      </trkpt>
      <trkpt lat="44.09861" lon="3.47774">
        <ele>1188.81</ele>
        <time>2017-07-14T15:57:00Z</time>
      </trkpt>
      <trkpt lat="44.09861" lon="3.47776">
        <ele>1188.81</ele>
        <time>2017-07-14T15:57:01Z</time>
      </trkpt>
      <trkpt lat="44.0986" lon="3.47778">
        <ele>1188.81</ele>
        <time>2017-07-14T15:57:02Z</time>
      </trkpt>
      <trkpt lat="44.0986" lon="3.4778">
        <ele>1188.81</ele>
        <time>2017-07-14T15:57:03Z</time>
      </trkpt>
      <trkpt lat="44.0986" lon="3.47782">
        <ele>1188.81</ele>
        <time>2017-07-14T15:57:04Z</time>
      </trkpt>
      <trkpt lat="44.0986" lon="3.47784">
        <ele>1188.81</ele>
        <time>2017-07-14T15:57:05Z</time>
      </trkpt>
      <trkpt lat="44.09865" lon="3.47798">
        <ele>1189.29</ele>
        <time>2017-07-14T15:57:17Z</time>
      </trkpt>
      <trkpt lat="44.09866" lon="3.47799">
        <ele>1189.29</ele>
        <time>2017-07-14T15:57:18Z</time>
      </trkpt>
      <trkpt lat="44.09868" lon="3.47801">
        <ele>1189.29</ele>
        <time>2017-07-14T15:57:19Z</time>
      </trkpt>
      <trkpt lat="44.09884" lon="3.4782">
        <ele>1190.25</ele>
        <time>2017-07-14T15:57:35Z</time>
      </trkpt>
      <trkpt lat="44.09893" lon="3.47835">
        <ele>1190.73</ele>
        <time>2017-07-14T15:57:49Z</time>
      </trkpt>
      <trkpt lat="44.099" lon="3.47847">
        <ele>1190.73</ele>
        <time>2017-07-14T15:57:59Z</time>
      </trkpt>
      <trkpt lat="44.099" lon="3.47848">
        <ele>1190.73</ele>
        <time>2017-07-14T15:58:00Z</time>
      </trkpt>
      <trkpt lat="44.09905" lon="3.47857">
        <ele>1190.73</ele>
        <time>2017-07-14T15:58:08Z</time>
      </trkpt>
      <trkpt lat="44.09905" lon="3.47858">
        <ele>1190.73</ele>
        <time>2017-07-14T15:58:09Z</time>
      </trkpt>
      <trkpt lat="44.09916" lon="3.47878">
        <ele>1191.21</ele>
        <time>2017-07-14T15:58:24Z</time>
      </trkpt>
      <trkpt lat="44.09924" lon="3.47896">
        <ele>1191.21</ele>
        <time>2017-07-14T15:58:38Z</time>
      </trkpt>
      <trkpt lat="44.09935" lon="3.47907">
        <ele>1191.69</ele>
        <time>2017-07-14T15:58:50Z</time>
      </trkpt>
      <trkpt lat="44.09941" lon="3.47914">
        <ele>1191.69</ele>
        <time>2017-07-14T15:58:57Z</time>
      </trkpt>
      <trkpt lat="44.09941" lon="3.47915">
        <ele>1191.69</ele>
        <time>2017-07-14T15:58:58Z</time>
      </trkpt>
      <trkpt lat="44.09942" lon="3.47917">
        <ele>1191.69</ele>
        <time>2017-07-14T15:58:59Z</time>
      </trkpt>
      <trkpt lat="44.09943" lon="3.47918">
        <ele>1191.69</ele>
        <time>2017-07-14T15:59:00Z</time>
      </trkpt>
      <trkpt lat="44.09945" lon="3.47919">
        <ele>1191.69</ele>
        <time>2017-07-14T15:59:01Z</time>
      </trkpt>
      <trkpt lat="44.09957" lon="3.47934">
        <ele>1193.13</ele>
        <time>2017-07-14T15:59:14Z</time>
      </trkpt>
      <trkpt lat="44.09958" lon="3.47936">
        <ele>1193.13</ele>
        <time>2017-07-14T15:59:16Z</time>
      </trkpt>
      <trkpt lat="44.09958" lon="3.47937">
        <ele>1193.13</ele>
        <time>2017-07-14T15:59:17Z</time>
      </trkpt>
      <trkpt lat="44.09959" lon="3.47938">
        <ele>1193.13</ele>
        <time>2017-07-14T15:59:18Z</time>
      </trkpt>
      <trkpt lat="44.0996" lon="3.4794">
        <ele>1192.65</ele>
        <time>2017-07-14T15:59:19Z</time>
      </trkpt>
      <trkpt lat="44.09961" lon="3.47941">
        <ele>1192.65</ele>
        <time>2017-07-14T15:59:20Z</time>
      </trkpt>
      <trkpt lat="44.09963" lon="3.47943">
        <ele>1192.65</ele>
        <time>2017-07-14T15:59:22Z</time>
      </trkpt>
      <trkpt lat="44.09965" lon="3.47945">
        <ele>1192.65</ele>
        <time>2017-07-14T15:59:24Z</time>
      </trkpt>
      <trkpt lat="44.09972" lon="3.47954">
        <ele>1192.65</ele>
        <time>2017-07-14T15:59:35Z</time>
      </trkpt>
      <trkpt lat="44.09981" lon="3.47961">
        <ele>1192.65</ele>
        <time>2017-07-14T15:59:45Z</time>
      </trkpt>
      <trkpt lat="44.09982" lon="3.47962">
        <ele>1192.65</ele>
        <time>2017-07-14T15:59:46Z</time>
      </trkpt>
      <trkpt lat="44.09983" lon="3.47963">
        <ele>1192.65</ele>
        <time>2017-07-14T15:59:47Z</time>
      </trkpt>
      <trkpt lat="44.09984" lon="3.47964">
        <ele>1192.65</ele>
        <time>2017-07-14T15:59:48Z</time>
      </trkpt>
      <trkpt lat="44.09985" lon="3.47965">
        <ele>1192.65</ele>
        <time>2017-07-14T15:59:49Z</time>
      </trkpt>
      <trkpt lat="44.09986" lon="3.47965">
        <ele>1192.65</ele>
        <time>2017-07-14T15:59:50Z</time>
      </trkpt>
      <trkpt lat="44.09987" lon="3.47966">
        <ele>1192.65</ele>
        <time>2017-07-14T15:59:51Z</time>
      </trkpt>
      <trkpt lat="44.09988" lon="3.47965">
        <ele>1192.65</ele>
        <time>2017-07-14T15:59:52Z</time>
      </trkpt>
      <trkpt lat="44.10003" lon="3.47976">
        <ele>1192.17</ele>
        <time>2017-07-14T16:00:08Z</time>
      </trkpt>
      <trkpt lat="44.10005" lon="3.47978">
        <ele>1192.65</ele>
        <time>2017-07-14T16:00:10Z</time>
      </trkpt>
      <trkpt lat="44.10006" lon="3.47979">
        <ele>1192.65</ele>
        <time>2017-07-14T16:00:11Z</time>
      </trkpt>
      <trkpt lat="44.10007" lon="3.4798">
        <ele>1192.65</ele>
        <time>2017-07-14T16:00:12Z</time>
      </trkpt>
      <trkpt lat="44.10008" lon="3.47982">
        <ele>1192.65</ele>
        <time>2017-07-14T16:00:13Z</time>
      </trkpt>
      <trkpt lat="44.10008" lon="3.47984">
        <ele>1192.65</ele>
        <time>2017-07-14T16:00:14Z</time>
      </trkpt>
      <trkpt lat="44.10013" lon="3.47988">
        <ele>1193.13</ele>
        <time>2017-07-14T16:00:19Z</time>
      </trkpt>
      <trkpt lat="44.10014" lon="3.47989">
        <ele>1193.13</ele>
        <time>2017-07-14T16:00:20Z</time>
      </trkpt>
      <trkpt lat="44.10017" lon="3.48001">
        <ele>1193.61</ele>
        <time>2017-07-14T16:00:29Z</time>
      </trkpt>
      <trkpt lat="44.10019" lon="3.48002">
        <ele>1193.61</ele>
        <time>2017-07-14T16:00:30Z</time>
      </trkpt>
      <trkpt lat="44.10019" lon="3.48003">
        <ele>1193.61</ele>
        <time>2017-07-14T16:00:31Z</time>
      </trkpt>
      <trkpt lat="44.10019" lon="3.48005">
        <ele>1193.61</ele>
        <time>2017-07-14T16:00:32Z</time>
      </trkpt>
      <trkpt lat="44.1002" lon="3.4801">
        <ele>1194.09</ele>
        <time>2017-07-14T16:00:36Z</time>
      </trkpt>
      <trkpt lat="44.10021" lon="3.48011">
        <ele>1194.09</ele>
        <time>2017-07-14T16:00:37Z</time>
      </trkpt>
      <trkpt lat="44.10023" lon="3.48024">
        <ele>1194.09</ele>
        <time>2017-07-14T16:00:47Z</time>
      </trkpt>
      <trkpt lat="44.10023" lon="3.48032">
        <ele>1194.09</ele>
        <time>2017-07-14T16:00:52Z</time>
      </trkpt>
      <trkpt lat="44.10022" lon="3.48037">
        <ele>1194.58</ele>
        <time>2017-07-14T16:00:56Z</time>
      </trkpt>
      <trkpt lat="44.10029" lon="3.48062">
        <ele>1195.06</ele>
        <time>2017-07-14T16:01:11Z</time>
      </trkpt>
      <trkpt lat="44.10029" lon="3.48065">
        <ele>1195.06</ele>
        <time>2017-07-14T16:01:13Z</time>
      </trkpt>
      <trkpt lat="44.10032" lon="3.48072">
        <ele>1195.54</ele>
        <time>2017-07-14T16:01:18Z</time>
      </trkpt>
      <trkpt lat="44.10034" lon="3.48078">
        <ele>1195.54</ele>
        <time>2017-07-14T16:01:23Z</time>
      </trkpt>
      <trkpt lat="44.10035" lon="3.48079">
        <ele>1195.54</ele>
        <time>2017-07-14T16:01:24Z</time>
      </trkpt>
      <trkpt lat="44.10036" lon="3.48081">
        <ele>1195.54</ele>
        <time>2017-07-14T16:01:25Z</time>
      </trkpt>
      <trkpt lat="44.10037" lon="3.48082">
        <ele>1195.54</ele>
        <time>2017-07-14T16:01:26Z</time>
      </trkpt>
      <trkpt lat="44.10042" lon="3.48101">
        <ele>1196.02</ele>
        <time>2017-07-14T16:01:38Z</time>
      </trkpt>
      <trkpt lat="44.10042" lon="3.48108">
        <ele>1196.02</ele>
        <time>2017-07-14T16:01:43Z</time>
      </trkpt>
      <trkpt lat="44.10044" lon="3.48112">
        <ele>1196.02</ele>
        <time>2017-07-14T16:01:48Z</time>
      </trkpt>
      <trkpt lat="44.10045" lon="3.48114">
        <ele>1196.02</ele>
        <time>2017-07-14T16:01:49Z</time>
      </trkpt>
      <trkpt lat="44.10046" lon="3.48115">
        <ele>1196.02</ele>
        <time>2017-07-14T16:01:50Z</time>
      </trkpt>
      <trkpt lat="44.10049" lon="3.48128">
        <ele>1196.02</ele>
        <time>2017-07-14T16:02:01Z</time>
      </trkpt>
      <trkpt lat="44.10048" lon="3.4813">
        <ele>1196.02</ele>
        <time>2017-07-14T16:02:02Z</time>
      </trkpt>
      <trkpt lat="44.10048" lon="3.48132">
        <ele>1196.02</ele>
        <time>2017-07-14T16:02:03Z</time>
      </trkpt>
      <trkpt lat="44.10048" lon="3.48134">
        <ele>1196.02</ele>
        <time>2017-07-14T16:02:04Z</time>
      </trkpt>
      <trkpt lat="44.10048" lon="3.48136">
        <ele>1196.02</ele>
        <time>2017-07-14T16:02:05Z</time>
      </trkpt>
      <trkpt lat="44.10051" lon="3.48144">
        <ele>1196.02</ele>
        <time>2017-07-14T16:02:10Z</time>
      </trkpt>
      <trkpt lat="44.10053" lon="3.48148">
        <ele>1196.02</ele>
        <time>2017-07-14T16:02:14Z</time>
      </trkpt>
      <trkpt lat="44.10054" lon="3.4815">
        <ele>1196.02</ele>
        <time>2017-07-14T16:02:15Z</time>
      </trkpt>
      <trkpt lat="44.10055" lon="3.48151">
        <ele>1196.02</ele>
        <time>2017-07-14T16:02:16Z</time>
      </trkpt>
      <trkpt lat="44.10056" lon="3.48153">
        <ele>1196.02</ele>
        <time>2017-07-14T16:02:17Z</time>
      </trkpt>
      <trkpt lat="44.10056" lon="3.48155">
        <ele>1196.02</ele>
        <time>2017-07-14T16:02:18Z</time>
      </trkpt>
      <trkpt lat="44.10057" lon="3.48161">
        <ele>1196.5</ele>
        <time>2017-07-14T16:02:23Z</time>
      </trkpt>
      <trkpt lat="44.10057" lon="3.48163">
        <ele>1196.5</ele>
        <time>2017-07-14T16:02:24Z</time>
      </trkpt>
      <trkpt lat="44.10057" lon="3.48165">
        <ele>1196.5</ele>
        <time>2017-07-14T16:02:25Z</time>
      </trkpt>
      <trkpt lat="44.10057" lon="3.48172">
        <ele>1196.98</ele>
        <time>2017-07-14T16:02:29Z</time>
      </trkpt>
      <trkpt lat="44.10057" lon="3.48173">
        <ele>1197.94</ele>
        <time>2017-07-14T16:02:30Z</time>
      </trkpt>
      <trkpt lat="44.10059" lon="3.48178">
        <ele>1197.94</ele>
        <time>2017-07-14T16:02:35Z</time>
      </trkpt>
      <trkpt lat="44.1006" lon="3.4818">
        <ele>1197.94</ele>
        <time>2017-07-14T16:02:36Z</time>
      </trkpt>
      <trkpt lat="44.10062" lon="3.48183">
        <ele>1197.94</ele>
        <time>2017-07-14T16:02:37Z</time>
      </trkpt>
      <trkpt lat="44.10063" lon="3.48185">
        <ele>1197.94</ele>
        <time>2017-07-14T16:02:38Z</time>
      </trkpt>
      <trkpt lat="44.10064" lon="3.48186">
        <ele>1197.94</ele>
        <time>2017-07-14T16:02:39Z</time>
      </trkpt>
      <trkpt lat="44.10066" lon="3.48188">
        <ele>1197.94</ele>
        <time>2017-07-14T16:02:41Z</time>
      </trkpt>
      <trkpt lat="44.10066" lon="3.4819">
        <ele>1197.94</ele>
        <time>2017-07-14T16:02:42Z</time>
      </trkpt>
      <trkpt lat="44.10067" lon="3.48192">
        <ele>1197.94</ele>
        <time>2017-07-14T16:02:43Z</time>
      </trkpt>
      <trkpt lat="44.10067" lon="3.48193">
        <ele>1197.94</ele>
        <time>2017-07-14T16:02:44Z</time>
      </trkpt>
      <trkpt lat="44.10068" lon="3.48195">
        <ele>1197.94</ele>
        <time>2017-07-14T16:02:45Z</time>
      </trkpt>
      <trkpt lat="44.1007" lon="3.48203">
        <ele>1197.94</ele>
        <time>2017-07-14T16:02:51Z</time>
      </trkpt>
      <trkpt lat="44.10072" lon="3.48206">
        <ele>1197.94</ele>
        <time>2017-07-14T16:02:54Z</time>
      </trkpt>
      <trkpt lat="44.10073" lon="3.48209">
        <ele>1198.42</ele>
        <time>2017-07-14T16:02:56Z</time>
      </trkpt>
      <trkpt lat="44.10073" lon="3.48212">
        <ele>1198.42</ele>
        <time>2017-07-14T16:02:57Z</time>
      </trkpt>
      <trkpt lat="44.10075" lon="3.48227">
        <ele>1198.42</ele>
        <time>2017-07-14T16:03:09Z</time>
      </trkpt>
      <trkpt lat="44.10079" lon="3.48231">
        <ele>1198.42</ele>
        <time>2017-07-14T16:03:13Z</time>
      </trkpt>
      <trkpt lat="44.10081" lon="3.48233">
        <ele>1198.42</ele>
        <time>2017-07-14T16:03:14Z</time>
      </trkpt>
      <trkpt lat="44.10081" lon="3.48234">
        <ele>1198.42</ele>
        <time>2017-07-14T16:03:15Z</time>
      </trkpt>
      <trkpt lat="44.10083" lon="3.48242">
        <ele>1198.9</ele>
        <time>2017-07-14T16:03:20Z</time>
      </trkpt>
      <trkpt lat="44.10083" lon="3.48244">
        <ele>1198.9</ele>
        <time>2017-07-14T16:03:21Z</time>
      </trkpt>
      <trkpt lat="44.10083" lon="3.48246">
        <ele>1198.9</ele>
        <time>2017-07-14T16:03:22Z</time>
      </trkpt>
      <trkpt lat="44.10085" lon="3.48247">
        <ele>1198.9</ele>
        <time>2017-07-14T16:03:23Z</time>
      </trkpt>
      <trkpt lat="44.10088" lon="3.4825">
        <ele>1198.9</ele>
        <time>2017-07-14T16:03:26Z</time>
      </trkpt>
      <trkpt lat="44.10087" lon="3.48252">
        <ele>1198.9</ele>
        <time>2017-07-14T16:03:27Z</time>
      </trkpt>
      <trkpt lat="44.10087" lon="3.48255">
        <ele>1198.9</ele>
        <time>2017-07-14T16:03:28Z</time>
      </trkpt>
      <trkpt lat="44.10086" lon="3.48262">
        <ele>1198.9</ele>
        <time>2017-07-14T16:03:33Z</time>
      </trkpt>
      <trkpt lat="44.10087" lon="3.48264">
        <ele>1199.38</ele>
        <time>2017-07-14T16:03:34Z</time>
      </trkpt>
      <trkpt lat="44.10087" lon="3.48266">
        <ele>1199.38</ele>
        <time>2017-07-14T16:03:35Z</time>
      </trkpt>
      <trkpt lat="44.10089" lon="3.48272">
        <ele>1199.38</ele>
        <time>2017-07-14T16:03:40Z</time>
      </trkpt>
      <trkpt lat="44.10089" lon="3.48274">
        <ele>1199.38</ele>
        <time>2017-07-14T16:03:41Z</time>
      </trkpt>
      <trkpt lat="44.10089" lon="3.48289">
        <ele>1199.86</ele>
        <time>2017-07-14T16:03:50Z</time>
      </trkpt>
      <trkpt lat="44.10091" lon="3.48298">
        <ele>1199.86</ele>
        <time>2017-07-14T16:03:55Z</time>
      </trkpt>
      <trkpt lat="44.10095" lon="3.48314">
        <ele>1200.34</ele>
        <time>2017-07-14T16:04:06Z</time>
      </trkpt>
      <trkpt lat="44.10098" lon="3.4834">
        <ele>1200.82</ele>
        <time>2017-07-14T16:04:22Z</time>
      </trkpt>
      <trkpt lat="44.10098" lon="3.48341">
        <ele>1200.82</ele>
        <time>2017-07-14T16:04:24Z</time>
      </trkpt>
      <trkpt lat="44.10098" lon="3.48343">
        <ele>1200.82</ele>
        <time>2017-07-14T16:04:25Z</time>
      </trkpt>
      <trkpt lat="44.10098" lon="3.48345">
        <ele>1200.82</ele>
        <time>2017-07-14T16:04:26Z</time>
      </trkpt>
      <trkpt lat="44.10101" lon="3.4836">
        <ele>1200.82</ele>
        <time>2017-07-14T16:04:37Z</time>
      </trkpt>
      <trkpt lat="44.10103" lon="3.4837">
        <ele>1200.82</ele>
        <time>2017-07-14T16:04:44Z</time>
      </trkpt>
      <trkpt lat="44.10104" lon="3.48372">
        <ele>1200.82</ele>
        <time>2017-07-14T16:04:45Z</time>
      </trkpt>
      <trkpt lat="44.10098" lon="3.48394">
        <ele>1200.82</ele>
        <time>2017-07-14T16:04:57Z</time>
      </trkpt>
      <trkpt lat="44.10098" lon="3.48397">
        <ele>1200.82</ele>
        <time>2017-07-14T16:04:59Z</time>
      </trkpt>
      <trkpt lat="44.10098" lon="3.484">
        <ele>1200.82</ele>
        <time>2017-07-14T16:05:00Z</time>
      </trkpt>
      <trkpt lat="44.10098" lon="3.48402">
        <ele>1200.82</ele>
        <time>2017-07-14T16:05:01Z</time>
      </trkpt>
      <trkpt lat="44.10101" lon="3.48421">
        <ele>1200.82</ele>
        <time>2017-07-14T16:05:11Z</time>
      </trkpt>
      <trkpt lat="44.10097" lon="3.48436">
        <ele>1199.38</ele>
        <time>2017-07-14T16:05:22Z</time>
      </trkpt>
      <trkpt lat="44.10094" lon="3.4845">
        <ele>1198.9</ele>
        <time>2017-07-14T16:05:32Z</time>
      </trkpt>
      <trkpt lat="44.10089" lon="3.48461">
        <ele>1198.9</ele>
        <time>2017-07-14T16:05:40Z</time>
      </trkpt>
      <trkpt lat="44.10087" lon="3.48463">
        <ele>1198.9</ele>
        <time>2017-07-14T16:05:41Z</time>
      </trkpt>
      <trkpt lat="44.10075" lon="3.48472">
        <ele>1198.42</ele>
        <time>2017-07-14T16:05:52Z</time>
      </trkpt>
      <trkpt lat="44.10072" lon="3.48475">
        <ele>1198.42</ele>
        <time>2017-07-14T16:05:55Z</time>
      </trkpt>
      <trkpt lat="44.10071" lon="3.48475">
        <ele>1198.9</ele>
        <time>2017-07-14T16:05:56Z</time>
      </trkpt>
      <trkpt lat="44.10061" lon="3.4848">
        <ele>1198.9</ele>
        <time>2017-07-14T16:06:07Z</time>
      </trkpt>
      <trkpt lat="44.10059" lon="3.48481">
        <ele>1198.9</ele>
        <time>2017-07-14T16:06:09Z</time>
      </trkpt>
      <trkpt lat="44.10046" lon="3.48485">
        <ele>1199.86</ele>
        <time>2017-07-14T16:06:21Z</time>
      </trkpt>
      <trkpt lat="44.10034" lon="3.48489">
        <ele>1201.3</ele>
        <time>2017-07-14T16:06:31Z</time>
      </trkpt>
      <trkpt lat="44.10032" lon="3.48489">
        <ele>1201.3</ele>
        <time>2017-07-14T16:06:33Z</time>
      </trkpt>
      <trkpt lat="44.1003" lon="3.4849">
        <ele>1201.3</ele>
        <time>2017-07-14T16:06:34Z</time>
      </trkpt>
      <trkpt lat="44.10029" lon="3.48491">
        <ele>1201.3</ele>
        <time>2017-07-14T16:06:35Z</time>
      </trkpt>
      <trkpt lat="44.10018" lon="3.48492">
        <ele>1202.27</ele>
        <time>2017-07-14T16:06:45Z</time>
      </trkpt>
      <trkpt lat="44.10006" lon="3.48493">
        <ele>1203.23</ele>
        <time>2017-07-14T16:06:57Z</time>
      </trkpt>
      <trkpt lat="44.10002" lon="3.48493">
        <ele>1204.19</ele>
        <time>2017-07-14T16:07:02Z</time>
      </trkpt>
      <trkpt lat="44.09992" lon="3.48503">
        <ele>1205.15</ele>
        <time>2017-07-14T16:07:14Z</time>
      </trkpt>
      <trkpt lat="44.09988" lon="3.48503">
        <ele>1205.15</ele>
        <time>2017-07-14T16:07:26Z</time>
      </trkpt>
      <trkpt lat="44.09986" lon="3.48503">
        <ele>1205.15</ele>
        <time>2017-07-14T16:07:27Z</time>
      </trkpt>
      <trkpt lat="44.09972" lon="3.48506">
        <ele>1205.15</ele>
        <time>2017-07-14T16:07:38Z</time>
      </trkpt>
      <trkpt lat="44.09971" lon="3.48506">
        <ele>1205.15</ele>
        <time>2017-07-14T16:07:39Z</time>
      </trkpt>
      <trkpt lat="44.0997" lon="3.48507">
        <ele>1205.15</ele>
        <time>2017-07-14T16:07:40Z</time>
      </trkpt>
      <trkpt lat="44.09968" lon="3.48508">
        <ele>1205.15</ele>
        <time>2017-07-14T16:07:41Z</time>
      </trkpt>
      <trkpt lat="44.09966" lon="3.48508">
        <ele>1205.15</ele>
        <time>2017-07-14T16:07:42Z</time>
      </trkpt>
      <trkpt lat="44.09964" lon="3.48509">
        <ele>1205.15</ele>
        <time>2017-07-14T16:07:43Z</time>
      </trkpt>
      <trkpt lat="44.09963" lon="3.4851">
        <ele>1205.15</ele>
        <time>2017-07-14T16:07:44Z</time>
      </trkpt>
      <trkpt lat="44.09962" lon="3.48511">
        <ele>1205.15</ele>
        <time>2017-07-14T16:07:45Z</time>
      </trkpt>
      <trkpt lat="44.09961" lon="3.48513">
        <ele>1205.15</ele>
        <time>2017-07-14T16:07:47Z</time>
      </trkpt>
      <trkpt lat="44.0996" lon="3.48514">
        <ele>1205.15</ele>
        <time>2017-07-14T16:07:48Z</time>
      </trkpt>
      <trkpt lat="44.09959" lon="3.48515">
        <ele>1205.15</ele>
        <time>2017-07-14T16:07:49Z</time>
      </trkpt>
      <trkpt lat="44.09958" lon="3.48516">
        <ele>1205.15</ele>
        <time>2017-07-14T16:07:50Z</time>
      </trkpt>
      <trkpt lat="44.0995" lon="3.48523">
        <ele>1205.15</ele>
        <time>2017-07-14T16:08:00Z</time>
      </trkpt>
      <trkpt lat="44.09949" lon="3.48525">
        <ele>1205.15</ele>
        <time>2017-07-14T16:08:01Z</time>
      </trkpt>
      <trkpt lat="44.09948" lon="3.48527">
        <ele>1205.15</ele>
        <time>2017-07-14T16:08:02Z</time>
      </trkpt>
      <trkpt lat="44.09948" lon="3.48532">
        <ele>1205.63</ele>
        <time>2017-07-14T16:08:07Z</time>
      </trkpt>
      <trkpt lat="44.09943" lon="3.4855">
        <ele>1206.11</ele>
        <time>2017-07-14T16:08:20Z</time>
      </trkpt>
      <trkpt lat="44.09942" lon="3.48551">
        <ele>1206.59</ele>
        <time>2017-07-14T16:08:21Z</time>
      </trkpt>
      <trkpt lat="44.09941" lon="3.48554">
        <ele>1206.59</ele>
        <time>2017-07-14T16:08:22Z</time>
      </trkpt>
      <trkpt lat="44.0994" lon="3.48556">
        <ele>1206.59</ele>
        <time>2017-07-14T16:08:23Z</time>
      </trkpt>
      <trkpt lat="44.09941" lon="3.48565">
        <ele>1206.59</ele>
        <time>2017-07-14T16:08:28Z</time>
      </trkpt>
      <trkpt lat="44.09941" lon="3.48567">
        <ele>1206.59</ele>
        <time>2017-07-14T16:08:29Z</time>
      </trkpt>
      <trkpt lat="44.09941" lon="3.48569">
        <ele>1206.59</ele>
        <time>2017-07-14T16:08:30Z</time>
      </trkpt>
      <trkpt lat="44.09941" lon="3.48587">
        <ele>1206.59</ele>
        <time>2017-07-14T16:08:41Z</time>
      </trkpt>
      <trkpt lat="44.09938" lon="3.48593">
        <ele>1206.59</ele>
        <time>2017-07-14T16:08:47Z</time>
      </trkpt>
      <trkpt lat="44.09939" lon="3.48607">
        <ele>1206.59</ele>
        <time>2017-07-14T16:08:58Z</time>
      </trkpt>
      <trkpt lat="44.09945" lon="3.48619">
        <ele>1206.59</ele>
        <time>2017-07-14T16:09:06Z</time>
      </trkpt>
      <trkpt lat="44.09945" lon="3.48621">
        <ele>1206.59</ele>
        <time>2017-07-14T16:09:07Z</time>
      </trkpt>
      <trkpt lat="44.09944" lon="3.48623">
        <ele>1206.59</ele>
        <time>2017-07-14T16:09:08Z</time>
      </trkpt>
      <trkpt lat="44.09945" lon="3.48627">
        <ele>1207.07</ele>
        <time>2017-07-14T16:09:11Z</time>
      </trkpt>
      <trkpt lat="44.09946" lon="3.4863">
        <ele>1207.55</ele>
        <time>2017-07-14T16:09:13Z</time>
      </trkpt>
      <trkpt lat="44.09952" lon="3.48649">
        <ele>1207.55</ele>
        <time>2017-07-14T16:09:24Z</time>
      </trkpt>
      <trkpt lat="44.09958" lon="3.48664">
        <ele>1207.55</ele>
        <time>2017-07-14T16:09:38Z</time>
      </trkpt>
      <trkpt lat="44.09964" lon="3.48673">
        <ele>1207.55</ele>
        <time>2017-07-14T16:09:50Z</time>
      </trkpt>
      <trkpt lat="44.09965" lon="3.48674">
        <ele>1207.55</ele>
        <time>2017-07-14T16:09:52Z</time>
      </trkpt>
      <trkpt lat="44.0997" lon="3.48677">
        <ele>1207.55</ele>
        <time>2017-07-14T16:09:56Z</time>
      </trkpt>
      <trkpt lat="44.09974" lon="3.4868">
        <ele>1207.55</ele>
        <time>2017-07-14T16:09:58Z</time>
      </trkpt>
      <trkpt lat="44.09979" lon="3.48687">
        <ele>1207.55</ele>
        <time>2017-07-14T16:10:02Z</time>
      </trkpt>
      <trkpt lat="44.09994" lon="3.48695">
        <ele>1208.03</ele>
        <time>2017-07-14T16:10:17Z</time>
      </trkpt>
      <trkpt lat="44.10008" lon="3.48704">
        <ele>1208.51</ele>
        <time>2017-07-14T16:10:32Z</time>
      </trkpt>
      <trkpt lat="44.10027" lon="3.48716">
        <ele>1208.51</ele>
        <time>2017-07-14T16:10:48Z</time>
      </trkpt>
      <trkpt lat="44.10039" lon="3.48721">
        <ele>1208.51</ele>
        <time>2017-07-14T16:11:03Z</time>
      </trkpt>
      <trkpt lat="44.10052" lon="3.48729">
        <ele>1209</ele>
        <time>2017-07-14T16:11:18Z</time>
      </trkpt>
      <trkpt lat="44.10064" lon="3.4874">
        <ele>1209.96</ele>
        <time>2017-07-14T16:11:33Z</time>
      </trkpt>
      <trkpt lat="44.10073" lon="3.48754">
        <ele>1210.44</ele>
        <time>2017-07-14T16:11:49Z</time>
      </trkpt>
      <trkpt lat="44.10076" lon="3.48757">
        <ele>1210.92</ele>
        <time>2017-07-14T16:11:52Z</time>
      </trkpt>
      <trkpt lat="44.10092" lon="3.4877">
        <ele>1210.92</ele>
        <time>2017-07-14T16:12:04Z</time>
      </trkpt>
      <trkpt lat="44.10108" lon="3.48789">
        <ele>1210.92</ele>
        <time>2017-07-14T16:12:17Z</time>
      </trkpt>
      <trkpt lat="44.10112" lon="3.48803">
        <ele>1210.92</ele>
        <time>2017-07-14T16:12:29Z</time>
      </trkpt>
      <trkpt lat="44.10109" lon="3.4881">
        <ele>1211.88</ele>
        <time>2017-07-14T16:12:40Z</time>
      </trkpt>
      <trkpt lat="44.10109" lon="3.48814">
        <ele>1212.36</ele>
        <time>2017-07-14T16:12:53Z</time>
      </trkpt>
      <trkpt lat="44.10108" lon="3.48821">
        <ele>1212.36</ele>
        <time>2017-07-14T16:12:59Z</time>
      </trkpt>
      <trkpt lat="44.10111" lon="3.4885">
        <ele>1211.88</ele>
        <time>2017-07-14T16:13:17Z</time>
      </trkpt>
      <trkpt lat="44.10107" lon="3.48874">
        <ele>1212.36</ele>
        <time>2017-07-14T16:13:34Z</time>
      </trkpt>
      <trkpt lat="44.10104" lon="3.48885">
        <ele>1212.36</ele>
        <time>2017-07-14T16:13:42Z</time>
      </trkpt>
      <trkpt lat="44.10102" lon="3.48888">
        <ele>1212.36</ele>
        <time>2017-07-14T16:13:45Z</time>
      </trkpt>
      <trkpt lat="44.10096" lon="3.48902">
        <ele>1213.32</ele>
        <time>2017-07-14T16:13:55Z</time>
      </trkpt>
      <trkpt lat="44.10086" lon="3.4892">
        <ele>1213.8</ele>
        <time>2017-07-14T16:14:09Z</time>
      </trkpt>
      <trkpt lat="44.10077" lon="3.48933">
        <ele>1214.76</ele>
        <time>2017-07-14T16:14:20Z</time>
      </trkpt>
      <trkpt lat="44.10076" lon="3.48934">
        <ele>1214.76</ele>
        <time>2017-07-14T16:14:21Z</time>
      </trkpt>
      <trkpt lat="44.10069" lon="3.48946">
        <ele>1215.72</ele>
        <time>2017-07-14T16:14:33Z</time>
      </trkpt>
      <trkpt lat="44.10059" lon="3.48956">
        <ele>1216.69</ele>
        <time>2017-07-14T16:14:45Z</time>
      </trkpt>
      <trkpt lat="44.10041" lon="3.48968">
        <ele>1217.17</ele>
        <time>2017-07-14T16:15:01Z</time>
      </trkpt>
      <trkpt lat="44.10038" lon="3.48979">
        <ele>1218.13</ele>
        <time>2017-07-14T16:15:10Z</time>
      </trkpt>
      <trkpt lat="44.10038" lon="3.4898">
        <ele>1218.13</ele>
        <time>2017-07-14T16:15:11Z</time>
      </trkpt>
      <trkpt lat="44.10038" lon="3.48987">
        <ele>1219.09</ele>
        <time>2017-07-14T16:15:17Z</time>
      </trkpt>
      <trkpt lat="44.10038" lon="3.48993">
        <ele>1219.57</ele>
        <time>2017-07-14T16:15:21Z</time>
      </trkpt>
      <trkpt lat="44.10038" lon="3.48995">
        <ele>1219.57</ele>
        <time>2017-07-14T16:15:22Z</time>
      </trkpt>
      <trkpt lat="44.10038" lon="3.48997">
        <ele>1219.57</ele>
        <time>2017-07-14T16:15:23Z</time>
      </trkpt>
      <trkpt lat="44.10039" lon="3.49014">
        <ele>1220.53</ele>
        <time>2017-07-14T16:15:35Z</time>
      </trkpt>
      <trkpt lat="44.10039" lon="3.49015">
        <ele>1220.53</ele>
        <time>2017-07-14T16:15:36Z</time>
      </trkpt>
      <trkpt lat="44.10039" lon="3.49017">
        <ele>1220.53</ele>
        <time>2017-07-14T16:15:37Z</time>
      </trkpt>
      <trkpt lat="44.1004" lon="3.49041">
        <ele>1222.45</ele>
        <time>2017-07-14T16:15:53Z</time>
      </trkpt>
      <trkpt lat="44.1004" lon="3.49044">
        <ele>1222.45</ele>
        <time>2017-07-14T16:15:54Z</time>
      </trkpt>
      <trkpt lat="44.10033" lon="3.49055">
        <ele>1222.93</ele>
        <time>2017-07-14T16:16:04Z</time>
      </trkpt>
      <trkpt lat="44.10031" lon="3.49057">
        <ele>1223.42</ele>
        <time>2017-07-14T16:16:05Z</time>
      </trkpt>
      <trkpt lat="44.1003" lon="3.49058">
        <ele>1223.42</ele>
        <time>2017-07-14T16:16:06Z</time>
      </trkpt>
      <trkpt lat="44.10028" lon="3.49065">
        <ele>1224.38</ele>
        <time>2017-07-14T16:16:12Z</time>
      </trkpt>
      <trkpt lat="44.10022" lon="3.4908">
        <ele>1225.82</ele>
        <time>2017-07-14T16:16:24Z</time>
      </trkpt>
      <trkpt lat="44.10015" lon="3.49096">
        <ele>1226.3</ele>
        <time>2017-07-14T16:16:36Z</time>
      </trkpt>
      <trkpt lat="44.1001" lon="3.4911">
        <ele>1226.78</ele>
        <time>2017-07-14T16:16:46Z</time>
      </trkpt>
      <trkpt lat="44.10005" lon="3.49116">
        <ele>1227.26</ele>
        <time>2017-07-14T16:16:52Z</time>
      </trkpt>
      <trkpt lat="44.10004" lon="3.49117">
        <ele>1227.26</ele>
        <time>2017-07-14T16:16:53Z</time>
      </trkpt>
      <trkpt lat="44.10003" lon="3.49118">
        <ele>1227.26</ele>
        <time>2017-07-14T16:16:54Z</time>
      </trkpt>
      <trkpt lat="44.10002" lon="3.4912">
        <ele>1227.74</ele>
        <time>2017-07-14T16:16:55Z</time>
      </trkpt>
      <trkpt lat="44.1" lon="3.49135">
        <ele>1228.7</ele>
        <time>2017-07-14T16:17:06Z</time>
      </trkpt>
      <trkpt lat="44.09995" lon="3.4915">
        <ele>1229.66</ele>
        <time>2017-07-14T16:17:17Z</time>
      </trkpt>
      <trkpt lat="44.09992" lon="3.49155">
        <ele>1229.66</ele>
        <time>2017-07-14T16:17:21Z</time>
      </trkpt>
      <trkpt lat="44.09992" lon="3.49157">
        <ele>1229.66</ele>
        <time>2017-07-14T16:17:22Z</time>
      </trkpt>
      <trkpt lat="44.09992" lon="3.49159">
        <ele>1230.14</ele>
        <time>2017-07-14T16:17:23Z</time>
      </trkpt>
      <trkpt lat="44.0999" lon="3.49165">
        <ele>1230.62</ele>
        <time>2017-07-14T16:17:27Z</time>
      </trkpt>
      <trkpt lat="44.09989" lon="3.49166">
        <ele>1230.62</ele>
        <time>2017-07-14T16:17:28Z</time>
      </trkpt>
      <trkpt lat="44.09983" lon="3.49179">
        <ele>1231.59</ele>
        <time>2017-07-14T16:17:39Z</time>
      </trkpt>
      <trkpt lat="44.09978" lon="3.49192">
        <ele>1233.03</ele>
        <time>2017-07-14T16:17:51Z</time>
      </trkpt>
      <trkpt lat="44.09978" lon="3.49199">
        <ele>1233.03</ele>
        <time>2017-07-14T16:17:58Z</time>
      </trkpt>
      <trkpt lat="44.09976" lon="3.49201">
        <ele>1233.03</ele>
        <time>2017-07-14T16:18:02Z</time>
      </trkpt>
      <trkpt lat="44.09975" lon="3.49202">
        <ele>1233.03</ele>
        <time>2017-07-14T16:18:03Z</time>
      </trkpt>
      <trkpt lat="44.09974" lon="3.49203">
        <ele>1233.51</ele>
        <time>2017-07-14T16:18:04Z</time>
      </trkpt>
      <trkpt lat="44.09972" lon="3.49205">
        <ele>1233.51</ele>
        <time>2017-07-14T16:18:06Z</time>
      </trkpt>
      <trkpt lat="44.09971" lon="3.49206">
        <ele>1233.99</ele>
        <time>2017-07-14T16:18:07Z</time>
      </trkpt>
      <trkpt lat="44.09971" lon="3.49208">
        <ele>1233.99</ele>
        <time>2017-07-14T16:18:08Z</time>
      </trkpt>
      <trkpt lat="44.09961" lon="3.49222">
        <ele>1233.99</ele>
        <time>2017-07-14T16:18:21Z</time>
      </trkpt>
      <trkpt lat="44.09953" lon="3.49229">
        <ele>1233.99</ele>
        <time>2017-07-14T16:18:35Z</time>
      </trkpt>
      <trkpt lat="44.09955" lon="3.49227">
        <ele>1233.99</ele>
        <time>2017-07-14T16:18:41Z</time>
      </trkpt>
      <trkpt lat="44.09959" lon="3.49229">
        <ele>1233.99</ele>
        <time>2017-07-14T16:18:46Z</time>
      </trkpt>
      <trkpt lat="44.09962" lon="3.49226">
        <ele>1233.99</ele>
        <time>2017-07-14T16:18:51Z</time>
      </trkpt>
      <trkpt lat="44.09971" lon="3.49211">
        <ele>1232.55</ele>
        <time>2017-07-14T16:19:01Z</time>
      </trkpt>
      <trkpt lat="44.09974" lon="3.49205">
        <ele>1232.55</ele>
        <time>2017-07-14T16:19:07Z</time>
      </trkpt>
      <trkpt lat="44.0998" lon="3.49195">
        <ele>1232.07</ele>
        <time>2017-07-14T16:19:15Z</time>
      </trkpt>
      <trkpt lat="44.09987" lon="3.49176">
        <ele>1231.11</ele>
        <time>2017-07-14T16:19:28Z</time>
      </trkpt>
      <trkpt lat="44.09995" lon="3.49164">
        <ele>1230.62</ele>
        <time>2017-07-14T16:19:38Z</time>
      </trkpt>
      <trkpt lat="44.10004" lon="3.49148">
        <ele>1229.66</ele>
        <time>2017-07-14T16:19:49Z</time>
      </trkpt>
      <trkpt lat="44.10006" lon="3.49143">
        <ele>1229.18</ele>
        <time>2017-07-14T16:19:53Z</time>
      </trkpt>
      <trkpt lat="44.10015" lon="3.49123">
        <ele>1227.74</ele>
        <time>2017-07-14T16:20:06Z</time>
      </trkpt>
      <trkpt lat="44.10019" lon="3.49113">
        <ele>1227.26</ele>
        <time>2017-07-14T16:20:13Z</time>
      </trkpt>
      <trkpt lat="44.10019" lon="3.49111">
        <ele>1227.26</ele>
        <time>2017-07-14T16:20:14Z</time>
      </trkpt>
      <trkpt lat="44.10022" lon="3.49099">
        <ele>1225.82</ele>
        <time>2017-07-14T16:20:22Z</time>
      </trkpt>
      <trkpt lat="44.10023" lon="3.49096">
        <ele>1225.82</ele>
        <time>2017-07-14T16:20:24Z</time>
      </trkpt>
      <trkpt lat="44.10025" lon="3.49095">
        <ele>1225.82</ele>
        <time>2017-07-14T16:20:25Z</time>
      </trkpt>
      <trkpt lat="44.10027" lon="3.49084">
        <ele>1225.34</ele>
        <time>2017-07-14T16:20:33Z</time>
      </trkpt>
      <trkpt lat="44.10028" lon="3.49081">
        <ele>1225.34</ele>
        <time>2017-07-14T16:20:34Z</time>
      </trkpt>
      <trkpt lat="44.10031" lon="3.49065">
        <ele>1223.9</ele>
        <time>2017-07-14T16:20:45Z</time>
      </trkpt>
      <trkpt lat="44.10032" lon="3.49054">
        <ele>1222.45</ele>
        <time>2017-07-14T16:20:52Z</time>
      </trkpt>
      <trkpt lat="44.10031" lon="3.49047">
        <ele>1222.45</ele>
        <time>2017-07-14T16:20:55Z</time>
      </trkpt>
      <trkpt lat="44.10036" lon="3.49038">
        <ele>1222.45</ele>
        <time>2017-07-14T16:21:03Z</time>
      </trkpt>
      <trkpt lat="44.10037" lon="3.49037">
        <ele>1222.45</ele>
        <time>2017-07-14T16:21:04Z</time>
      </trkpt>
      <trkpt lat="44.10038" lon="3.49021">
        <ele>1221.01</ele>
        <time>2017-07-14T16:21:17Z</time>
      </trkpt>
      <trkpt lat="44.10041" lon="3.49005">
        <ele>1220.53</ele>
        <time>2017-07-14T16:21:27Z</time>
      </trkpt>
      <trkpt lat="44.10042" lon="3.49003">
        <ele>1220.53</ele>
        <time>2017-07-14T16:21:28Z</time>
      </trkpt>
      <trkpt lat="44.10042" lon="3.48996">
        <ele>1219.57</ele>
        <time>2017-07-14T16:21:33Z</time>
      </trkpt>
      <trkpt lat="44.10042" lon="3.48994">
        <ele>1219.57</ele>
        <time>2017-07-14T16:21:34Z</time>
      </trkpt>
      <trkpt lat="44.10043" lon="3.48993">
        <ele>1219.57</ele>
        <time>2017-07-14T16:21:35Z</time>
      </trkpt>
      <trkpt lat="44.10043" lon="3.48991">
        <ele>1219.09</ele>
        <time>2017-07-14T16:21:36Z</time>
      </trkpt>
      <trkpt lat="44.10043" lon="3.4899">
        <ele>1219.09</ele>
        <time>2017-07-14T16:21:37Z</time>
      </trkpt>
      <trkpt lat="44.10045" lon="3.48985">
        <ele>1218.61</ele>
        <time>2017-07-14T16:21:40Z</time>
      </trkpt>
      <trkpt lat="44.10046" lon="3.48982">
        <ele>1218.61</ele>
        <time>2017-07-14T16:21:41Z</time>
      </trkpt>
      <trkpt lat="44.10047" lon="3.48981">
        <ele>1218.61</ele>
        <time>2017-07-14T16:21:42Z</time>
      </trkpt>
      <trkpt lat="44.10048" lon="3.4898">
        <ele>1218.61</ele>
        <time>2017-07-14T16:21:43Z</time>
      </trkpt>
      <trkpt lat="44.10049" lon="3.48979">
        <ele>1218.61</ele>
        <time>2017-07-14T16:21:44Z</time>
      </trkpt>
      <trkpt lat="44.10051" lon="3.48963">
        <ele>1217.65</ele>
        <time>2017-07-14T16:21:56Z</time>
      </trkpt>
      <trkpt lat="44.10063" lon="3.48953">
        <ele>1217.17</ele>
        <time>2017-07-14T16:22:11Z</time>
      </trkpt>
      <trkpt lat="44.10071" lon="3.48942">
        <ele>1216.21</ele>
        <time>2017-07-14T16:22:23Z</time>
      </trkpt>
      <trkpt lat="44.10081" lon="3.48928">
        <ele>1215.24</ele>
        <time>2017-07-14T16:22:37Z</time>
      </trkpt>
      <trkpt lat="44.10083" lon="3.48924">
        <ele>1215.24</ele>
        <time>2017-07-14T16:22:44Z</time>
      </trkpt>
      <trkpt lat="44.10089" lon="3.4891">
        <ele>1214.28</ele>
        <time>2017-07-14T16:22:57Z</time>
      </trkpt>
      <trkpt lat="44.10095" lon="3.48899">
        <ele>1213.8</ele>
        <time>2017-07-14T16:23:10Z</time>
      </trkpt>
      <trkpt lat="44.10102" lon="3.4888">
        <ele>1213.32</ele>
        <time>2017-07-14T16:23:25Z</time>
      </trkpt>
      <trkpt lat="44.10106" lon="3.4888">
        <ele>1213.32</ele>
        <time>2017-07-14T16:23:28Z</time>
      </trkpt>
      <trkpt lat="44.10115" lon="3.48886">
        <ele>1211.4</ele>
        <time>2017-07-14T16:23:38Z</time>
      </trkpt>
      <trkpt lat="44.10113" lon="3.48883">
        <ele>1212.36</ele>
        <time>2017-07-14T16:23:53Z</time>
      </trkpt>
      <trkpt lat="44.10123" lon="3.48888">
        <ele>1210.44</ele>
        <time>2017-07-14T16:24:07Z</time>
      </trkpt>
      <trkpt lat="44.10132" lon="3.48894">
        <ele>1209.96</ele>
        <time>2017-07-14T16:24:20Z</time>
      </trkpt>
      <trkpt lat="44.10137" lon="3.48894">
        <ele>1209</ele>
        <time>2017-07-14T16:24:25Z</time>
      </trkpt>
      <trkpt lat="44.10152" lon="3.48889">
        <ele>1207.07</ele>
        <time>2017-07-14T16:24:41Z</time>
      </trkpt>
      <trkpt lat="44.10161" lon="3.48888">
        <ele>1205.63</ele>
        <time>2017-07-14T16:24:59Z</time>
      </trkpt>
      <trkpt lat="44.1017" lon="3.48885">
        <ele>1204.67</ele>
        <time>2017-07-14T16:25:15Z</time>
      </trkpt>
      <trkpt lat="44.10174" lon="3.48886">
        <ele>1204.19</ele>
        <time>2017-07-14T16:25:19Z</time>
      </trkpt>
      <trkpt lat="44.1019" lon="3.4889">
        <ele>1201.79</ele>
        <time>2017-07-14T16:25:35Z</time>
      </trkpt>
      <trkpt lat="44.10205" lon="3.48885">
        <ele>1199.38</ele>
        <time>2017-07-14T16:25:53Z</time>
      </trkpt>
      <trkpt lat="44.10218" lon="3.48882">
        <ele>1196.98</ele>
        <time>2017-07-14T16:26:08Z</time>
      </trkpt>
      <trkpt lat="44.10233" lon="3.48879">
        <ele>1194.58</ele>
        <time>2017-07-14T16:26:24Z</time>
      </trkpt>
      <trkpt lat="44.10247" lon="3.48881">
        <ele>1192.17</ele>
        <time>2017-07-14T16:26:39Z</time>
      </trkpt>
      <trkpt lat="44.1026" lon="3.48883">
        <ele>1190.25</ele>
        <time>2017-07-14T16:26:54Z</time>
      </trkpt>
      <trkpt lat="44.10267" lon="3.48889">
        <ele>1188.33</ele>
        <time>2017-07-14T16:27:07Z</time>
      </trkpt>
      <trkpt lat="44.10273" lon="3.48891">
        <ele>1187.37</ele>
        <time>2017-07-14T16:27:26Z</time>
      </trkpt>
      <trkpt lat="44.10283" lon="3.48893">
        <ele>1185.44</ele>
        <time>2017-07-14T16:27:41Z</time>
      </trkpt>
      <trkpt lat="44.10285" lon="3.48894">
        <ele>1184.48</ele>
        <time>2017-07-14T16:27:57Z</time>
      </trkpt>
      <trkpt lat="44.10291" lon="3.48897">
        <ele>1183.04</ele>
        <time>2017-07-14T16:28:05Z</time>
      </trkpt>
      <trkpt lat="44.10298" lon="3.48903">
        <ele>1181.12</ele>
        <time>2017-07-14T16:28:14Z</time>
      </trkpt>
      <trkpt lat="44.10307" lon="3.48911">
        <ele>1179.67</ele>
        <time>2017-07-14T16:28:26Z</time>
      </trkpt>
      <trkpt lat="44.10306" lon="3.48911">
        <ele>1179.19</ele>
        <time>2017-07-14T16:28:38Z</time>
      </trkpt>
      <trkpt lat="44.10303" lon="3.4891">
        <ele>1178.71</ele>
        <time>2017-07-14T16:29:01Z</time>
      </trkpt>
      <trkpt lat="44.10315" lon="3.48912">
        <ele>1176.79</ele>
        <time>2017-07-14T16:29:17Z</time>
      </trkpt>
      <trkpt lat="44.10325" lon="3.48915">
        <ele>1174.39</ele>
        <time>2017-07-14T16:29:34Z</time>
      </trkpt>
      <trkpt lat="44.10332" lon="3.4892">
        <ele>1173.43</ele>
        <time>2017-07-14T16:29:50Z</time>
      </trkpt>
      <trkpt lat="44.10337" lon="3.48929">
        <ele>1171.5</ele>
        <time>2017-07-14T16:30:04Z</time>
      </trkpt>
      <trkpt lat="44.10336" lon="3.4894">
        <ele>1169.58</ele>
        <time>2017-07-14T16:30:16Z</time>
      </trkpt>
      <trkpt lat="44.10335" lon="3.48951">
        <ele>1168.14</ele>
        <time>2017-07-14T16:30:28Z</time>
      </trkpt>
      <trkpt lat="44.10342" lon="3.48955">
        <ele>1167.18</ele>
        <time>2017-07-14T16:30:41Z</time>
      </trkpt>
      <trkpt lat="44.10351" lon="3.48954">
        <ele>1165.74</ele>
        <time>2017-07-14T16:30:57Z</time>
      </trkpt>
      <trkpt lat="44.10359" lon="3.48954">
        <ele>1163.81</ele>
        <time>2017-07-14T16:31:14Z</time>
      </trkpt>
      <trkpt lat="44.10364" lon="3.48955">
        <ele>1162.37</ele>
        <time>2017-07-14T16:31:31Z</time>
      </trkpt>
      <trkpt lat="44.10372" lon="3.48956">
        <ele>1161.41</ele>
        <time>2017-07-14T16:31:47Z</time>
      </trkpt>
      <trkpt lat="44.10381" lon="3.48957">
        <ele>1159.49</ele>
        <time>2017-07-14T16:32:04Z</time>
      </trkpt>
      <trkpt lat="44.1039" lon="3.48957">
        <ele>1157.08</ele>
        <time>2017-07-14T16:32:20Z</time>
      </trkpt>
      <trkpt lat="44.10399" lon="3.48967">
        <ele>1155.64</ele>
        <time>2017-07-14T16:32:35Z</time>
      </trkpt>
      <trkpt lat="44.10401" lon="3.48978">
        <ele>1153.72</ele>
        <time>2017-07-14T16:32:49Z</time>
      </trkpt>
      <trkpt lat="44.10399" lon="3.48984">
        <ele>1153.24</ele>
        <time>2017-07-14T16:32:54Z</time>
      </trkpt>
      <trkpt lat="44.10387" lon="3.48997">
        <ele>1152.28</ele>
        <time>2017-07-14T16:33:10Z</time>
      </trkpt>
      <trkpt lat="44.10376" lon="3.49004">
        <ele>1151.8</ele>
        <time>2017-07-14T16:33:19Z</time>
      </trkpt>
      <trkpt lat="44.10372" lon="3.49018">
        <ele>1150.84</ele>
        <time>2017-07-14T16:33:29Z</time>
      </trkpt>
      <trkpt lat="44.10379" lon="3.49032">
        <ele>1149.87</ele>
        <time>2017-07-14T16:33:41Z</time>
      </trkpt>
      <trkpt lat="44.10393" lon="3.49049">
        <ele>1148.91</ele>
        <time>2017-07-14T16:33:57Z</time>
      </trkpt>
      <trkpt lat="44.10396" lon="3.49053">
        <ele>1148.43</ele>
        <time>2017-07-14T16:34:00Z</time>
      </trkpt>
      <trkpt lat="44.10409" lon="3.49065">
        <ele>1147.47</ele>
        <time>2017-07-14T16:34:13Z</time>
      </trkpt>
      <trkpt lat="44.10418" lon="3.49078">
        <ele>1146.03</ele>
        <time>2017-07-14T16:34:24Z</time>
      </trkpt>
      <trkpt lat="44.1043" lon="3.49092">
        <ele>1144.59</ele>
        <time>2017-07-14T16:34:41Z</time>
      </trkpt>
      <trkpt lat="44.10435" lon="3.491">
        <ele>1143.63</ele>
        <time>2017-07-14T16:34:48Z</time>
      </trkpt>
      <trkpt lat="44.10437" lon="3.491">
        <ele>1143.63</ele>
        <time>2017-07-14T16:34:50Z</time>
      </trkpt>
      <trkpt lat="44.1044" lon="3.49087">
        <ele>1143.14</ele>
        <time>2017-07-14T16:35:05Z</time>
      </trkpt>
      <trkpt lat="44.10437" lon="3.4907">
        <ele>1142.66</ele>
        <time>2017-07-14T16:35:17Z</time>
      </trkpt>
      <trkpt lat="44.10436" lon="3.49046">
        <ele>1142.18</ele>
        <time>2017-07-14T16:35:34Z</time>
      </trkpt>
      <trkpt lat="44.10436" lon="3.4904">
        <ele>1141.7</ele>
        <time>2017-07-14T16:35:38Z</time>
      </trkpt>
      <trkpt lat="44.10442" lon="3.49024">
        <ele>1140.26</ele>
        <time>2017-07-14T16:35:50Z</time>
      </trkpt>
      <trkpt lat="44.10456" lon="3.49026">
        <ele>1139.3</ele>
        <time>2017-07-14T16:36:03Z</time>
      </trkpt>
      <trkpt lat="44.10462" lon="3.49021">
        <ele>1139.3</ele>
        <time>2017-07-14T16:36:09Z</time>
      </trkpt>
      <trkpt lat="44.10464" lon="3.4902">
        <ele>1138.34</ele>
        <time>2017-07-14T16:36:11Z</time>
      </trkpt>
      <trkpt lat="44.10476" lon="3.49004">
        <ele>1138.34</ele>
        <time>2017-07-14T16:36:24Z</time>
      </trkpt>
      <trkpt lat="44.10478" lon="3.48998">
        <ele>1138.34</ele>
        <time>2017-07-14T16:36:28Z</time>
      </trkpt>
      <trkpt lat="44.10481" lon="3.48985">
        <ele>1137.86</ele>
        <time>2017-07-14T16:36:36Z</time>
      </trkpt>
      <trkpt lat="44.10483" lon="3.48963">
        <ele>1137.38</ele>
        <time>2017-07-14T16:36:50Z</time>
      </trkpt>
      <trkpt lat="44.10483" lon="3.48957">
        <ele>1137.38</ele>
        <time>2017-07-14T16:36:54Z</time>
      </trkpt>
      <trkpt lat="44.10483" lon="3.4895">
        <ele>1137.38</ele>
        <time>2017-07-14T16:36:59Z</time>
      </trkpt>
      <trkpt lat="44.10483" lon="3.48943">
        <ele>1137.38</ele>
        <time>2017-07-14T16:37:07Z</time>
      </trkpt>
      <trkpt lat="44.10484" lon="3.48938">
        <ele>1137.38</ele>
        <time>2017-07-14T16:37:11Z</time>
      </trkpt>
      <trkpt lat="44.10482" lon="3.48923">
        <ele>1137.38</ele>
        <time>2017-07-14T16:37:21Z</time>
      </trkpt>
      <trkpt lat="44.10481" lon="3.48917">
        <ele>1138.82</ele>
        <time>2017-07-14T16:37:26Z</time>
      </trkpt>
      <trkpt lat="44.10479" lon="3.48898">
        <ele>1139.3</ele>
        <time>2017-07-14T16:37:39Z</time>
      </trkpt>
      <trkpt lat="44.10474" lon="3.48874">
        <ele>1138.82</ele>
        <time>2017-07-14T16:37:55Z</time>
      </trkpt>
      <trkpt lat="44.10472" lon="3.48851">
        <ele>1138.82</ele>
        <time>2017-07-14T16:38:12Z</time>
      </trkpt>
      <trkpt lat="44.10472" lon="3.48829">
        <ele>1140.26</ele>
        <time>2017-07-14T16:38:26Z</time>
      </trkpt>
      <trkpt lat="44.10473" lon="3.48818">
        <ele>1140.26</ele>
        <time>2017-07-14T16:38:33Z</time>
      </trkpt>
      <trkpt lat="44.10472" lon="3.48812">
        <ele>1140.26</ele>
        <time>2017-07-14T16:38:37Z</time>
      </trkpt>
      <trkpt lat="44.10469" lon="3.48798">
        <ele>1139.78</ele>
        <time>2017-07-14T16:38:51Z</time>
      </trkpt>
      <trkpt lat="44.10469" lon="3.48797">
        <ele>1139.78</ele>
        <time>2017-07-14T16:38:52Z</time>
      </trkpt>
      <trkpt lat="44.10469" lon="3.48792">
        <ele>1139.78</ele>
        <time>2017-07-14T16:38:56Z</time>
      </trkpt>
      <trkpt lat="44.10465" lon="3.48777">
        <ele>1139.78</ele>
        <time>2017-07-14T16:39:06Z</time>
      </trkpt>
      <trkpt lat="44.10458" lon="3.48754">
        <ele>1139.78</ele>
        <time>2017-07-14T16:39:22Z</time>
      </trkpt>
      <trkpt lat="44.10449" lon="3.48732">
        <ele>1139.78</ele>
        <time>2017-07-14T16:39:37Z</time>
      </trkpt>
      <trkpt lat="44.1044" lon="3.4871">
        <ele>1139.78</ele>
        <time>2017-07-14T16:39:54Z</time>
      </trkpt>
      <trkpt lat="44.10436" lon="3.48694">
        <ele>1139.78</ele>
        <time>2017-07-14T16:40:07Z</time>
      </trkpt>
      <trkpt lat="44.10429" lon="3.48667">
        <ele>1139.78</ele>
        <time>2017-07-14T16:40:25Z</time>
      </trkpt>
      <trkpt lat="44.10428" lon="3.4866">
        <ele>1139.78</ele>
        <time>2017-07-14T16:40:30Z</time>
      </trkpt>
      <trkpt lat="44.10428" lon="3.48654">
        <ele>1139.78</ele>
        <time>2017-07-14T16:40:34Z</time>
      </trkpt>
      <trkpt lat="44.10428" lon="3.48646">
        <ele>1139.3</ele>
        <time>2017-07-14T16:40:39Z</time>
      </trkpt>
      <trkpt lat="44.10428" lon="3.48639">
        <ele>1139.3</ele>
        <time>2017-07-14T16:40:44Z</time>
      </trkpt>
      <trkpt lat="44.10431" lon="3.48631">
        <ele>1139.3</ele>
        <time>2017-07-14T16:40:50Z</time>
      </trkpt>
      <trkpt lat="44.10434" lon="3.48626">
        <ele>1139.3</ele>
        <time>2017-07-14T16:41:03Z</time>
      </trkpt>
      <trkpt lat="44.10436" lon="3.48624">
        <ele>1139.3</ele>
        <time>2017-07-14T16:41:06Z</time>
      </trkpt>
      <trkpt lat="44.10448" lon="3.48614">
        <ele>1139.3</ele>
        <time>2017-07-14T16:41:21Z</time>
      </trkpt>
      <trkpt lat="44.1045" lon="3.48612">
        <ele>1138.34</ele>
        <time>2017-07-14T16:41:23Z</time>
      </trkpt>
      <trkpt lat="44.10451" lon="3.48607">
        <ele>1137.38</ele>
        <time>2017-07-14T16:41:29Z</time>
      </trkpt>
      <trkpt lat="44.10465" lon="3.48592">
        <ele>1137.38</ele>
        <time>2017-07-14T16:41:43Z</time>
      </trkpt>
      <trkpt lat="44.10483" lon="3.48579">
        <ele>1137.38</ele>
        <time>2017-07-14T16:41:58Z</time>
      </trkpt>
      <trkpt lat="44.10484" lon="3.48578">
        <ele>1137.38</ele>
        <time>2017-07-14T16:41:59Z</time>
      </trkpt>
      <trkpt lat="44.10497" lon="3.48565">
        <ele>1136.9</ele>
        <time>2017-07-14T16:42:12Z</time>
      </trkpt>
      <trkpt lat="44.10504" lon="3.48561">
        <ele>1135.94</ele>
        <time>2017-07-14T16:42:22Z</time>
      </trkpt>
      <trkpt lat="44.10504" lon="3.48561">
        <ele>1135.94</ele>
        <time>2017-07-14T16:42:23Z</time>
      </trkpt>
      <trkpt lat="44.10514" lon="3.48555">
        <ele>1134.49</ele>
        <time>2017-07-14T16:42:36Z</time>
      </trkpt>
      <trkpt lat="44.10515" lon="3.48555">
        <ele>1134.49</ele>
        <time>2017-07-14T16:42:37Z</time>
      </trkpt>
      <trkpt lat="44.10517" lon="3.48553">
        <ele>1134.49</ele>
        <time>2017-07-14T16:42:41Z</time>
      </trkpt>
      <trkpt lat="44.10521" lon="3.48553">
        <ele>1134.01</ele>
        <time>2017-07-14T16:42:44Z</time>
      </trkpt>
      <trkpt lat="44.10531" lon="3.48555">
        <ele>1134.01</ele>
        <time>2017-07-14T16:42:53Z</time>
      </trkpt>
      <trkpt lat="44.10545" lon="3.48554">
        <ele>1133.53</ele>
        <time>2017-07-14T16:43:05Z</time>
      </trkpt>
      <trkpt lat="44.10554" lon="3.48547">
        <ele>1133.53</ele>
        <time>2017-07-14T16:43:19Z</time>
      </trkpt>
      <trkpt lat="44.10565" lon="3.48538">
        <ele>1133.05</ele>
        <time>2017-07-14T16:43:30Z</time>
      </trkpt>
      <trkpt lat="44.1058" lon="3.48528">
        <ele>1132.09</ele>
        <time>2017-07-14T16:43:44Z</time>
      </trkpt>
      <trkpt lat="44.10592" lon="3.48519">
        <ele>1132.09</ele>
        <time>2017-07-14T16:43:57Z</time>
      </trkpt>
      <trkpt lat="44.106" lon="3.48523">
        <ele>1131.13</ele>
        <time>2017-07-14T16:44:04Z</time>
      </trkpt>
      <trkpt lat="44.10602" lon="3.48524">
        <ele>1130.65</ele>
        <time>2017-07-14T16:44:06Z</time>
      </trkpt>
      <trkpt lat="44.10609" lon="3.48525">
        <ele>1130.65</ele>
        <time>2017-07-14T16:44:13Z</time>
      </trkpt>
      <trkpt lat="44.10624" lon="3.48523">
        <ele>1129.21</ele>
        <time>2017-07-14T16:44:26Z</time>
      </trkpt>
      <trkpt lat="44.10637" lon="3.48526">
        <ele>1128.24</ele>
        <time>2017-07-14T16:44:37Z</time>
      </trkpt>
      <trkpt lat="44.10644" lon="3.48528">
        <ele>1128.24</ele>
        <time>2017-07-14T16:44:45Z</time>
      </trkpt>
      <trkpt lat="44.10665" lon="3.48531">
        <ele>1126.8</ele>
        <time>2017-07-14T16:45:01Z</time>
      </trkpt>
      <trkpt lat="44.10668" lon="3.48532">
        <ele>1126.32</ele>
        <time>2017-07-14T16:45:05Z</time>
      </trkpt>
      <trkpt lat="44.10683" lon="3.48531">
        <ele>1125.36</ele>
        <time>2017-07-14T16:45:19Z</time>
      </trkpt>
      <trkpt lat="44.10698" lon="3.48526">
        <ele>1123.92</ele>
        <time>2017-07-14T16:45:34Z</time>
      </trkpt>
      <trkpt lat="44.10714" lon="3.4852">
        <ele>1122.48</ele>
        <time>2017-07-14T16:45:50Z</time>
      </trkpt>
      <trkpt lat="44.10728" lon="3.48511">
        <ele>1121.52</ele>
        <time>2017-07-14T16:46:04Z</time>
      </trkpt>
      <trkpt lat="44.1074" lon="3.485">
        <ele>1119.11</ele>
        <time>2017-07-14T16:46:17Z</time>
      </trkpt>
      <trkpt lat="44.10751" lon="3.48492">
        <ele>1118.63</ele>
        <time>2017-07-14T16:46:25Z</time>
      </trkpt>
      <trkpt lat="44.10761" lon="3.48477">
        <ele>1117.67</ele>
        <time>2017-07-14T16:46:36Z</time>
      </trkpt>
      <trkpt lat="44.10771" lon="3.48463">
        <ele>1116.23</ele>
        <time>2017-07-14T16:46:48Z</time>
      </trkpt>
      <trkpt lat="44.1078" lon="3.48451">
        <ele>1115.27</ele>
        <time>2017-07-14T16:46:59Z</time>
      </trkpt>
      <trkpt lat="44.1078" lon="3.4845">
        <ele>1115.27</ele>
        <time>2017-07-14T16:47:00Z</time>
      </trkpt>
      <trkpt lat="44.10787" lon="3.48438">
        <ele>1114.31</ele>
        <time>2017-07-14T16:47:10Z</time>
      </trkpt>
      <trkpt lat="44.10791" lon="3.48426">
        <ele>1113.82</ele>
        <time>2017-07-14T16:47:19Z</time>
      </trkpt>
      <trkpt lat="44.10796" lon="3.48421">
        <ele>1112.86</ele>
        <time>2017-07-14T16:47:25Z</time>
      </trkpt>
      <trkpt lat="44.10797" lon="3.4842">
        <ele>1112.38</ele>
        <time>2017-07-14T16:47:27Z</time>
      </trkpt>
      <trkpt lat="44.10805" lon="3.48406">
        <ele>1110.94</ele>
        <time>2017-07-14T16:47:40Z</time>
      </trkpt>
      <trkpt lat="44.10805" lon="3.48389">
        <ele>1110.46</ele>
        <time>2017-07-14T16:47:55Z</time>
      </trkpt>
      <trkpt lat="44.10805" lon="3.48382">
        <ele>1111.9</ele>
        <time>2017-07-14T16:48:01Z</time>
      </trkpt>
      <trkpt lat="44.10803" lon="3.4837">
        <ele>1111.9</ele>
        <time>2017-07-14T16:48:17Z</time>
      </trkpt>
      <trkpt lat="44.10797" lon="3.48345">
        <ele>1111.9</ele>
        <time>2017-07-14T16:48:29Z</time>
      </trkpt>
      <trkpt lat="44.10796" lon="3.48335">
        <ele>1111.9</ele>
        <time>2017-07-14T16:48:35Z</time>
      </trkpt>
      <trkpt lat="44.10795" lon="3.48325">
        <ele>1111.9</ele>
        <time>2017-07-14T16:48:42Z</time>
      </trkpt>
      <trkpt lat="44.10796" lon="3.48313">
        <ele>1111.9</ele>
        <time>2017-07-14T16:48:52Z</time>
      </trkpt>
      <trkpt lat="44.10793" lon="3.48296">
        <ele>1110.46</ele>
        <time>2017-07-14T16:49:02Z</time>
      </trkpt>
      <trkpt lat="44.10783" lon="3.48281">
        <ele>1109.98</ele>
        <time>2017-07-14T16:49:16Z</time>
      </trkpt>
      <trkpt lat="44.10772" lon="3.48269">
        <ele>1109.02</ele>
        <time>2017-07-14T16:49:28Z</time>
      </trkpt>
      <trkpt lat="44.10759" lon="3.48256">
        <ele>1108.54</ele>
        <time>2017-07-14T16:49:42Z</time>
      </trkpt>
      <trkpt lat="44.10745" lon="3.48241">
        <ele>1107.58</ele>
        <time>2017-07-14T16:49:58Z</time>
      </trkpt>
      <trkpt lat="44.10739" lon="3.48233">
        <ele>1107.58</ele>
        <time>2017-07-14T16:50:06Z</time>
      </trkpt>
      <trkpt lat="44.10724" lon="3.48217">
        <ele>1106.13</ele>
        <time>2017-07-14T16:50:22Z</time>
      </trkpt>
      <trkpt lat="44.10713" lon="3.48203">
        <ele>1105.17</ele>
        <time>2017-07-14T16:50:35Z</time>
      </trkpt>
      <trkpt lat="44.10713" lon="3.48202">
        <ele>1105.17</ele>
        <time>2017-07-14T16:50:36Z</time>
      </trkpt>
      <trkpt lat="44.10718" lon="3.48196">
        <ele>1104.69</ele>
        <time>2017-07-14T16:50:44Z</time>
      </trkpt>
      <trkpt lat="44.10722" lon="3.48195">
        <ele>1103.73</ele>
        <time>2017-07-14T16:50:48Z</time>
      </trkpt>
      <trkpt lat="44.10728" lon="3.48196">
        <ele>1103.25</ele>
        <time>2017-07-14T16:50:54Z</time>
      </trkpt>
      <trkpt lat="44.10733" lon="3.48196">
        <ele>1102.77</ele>
        <time>2017-07-14T16:50:59Z</time>
      </trkpt>
      <trkpt lat="44.10727" lon="3.48184">
        <ele>1100.85</ele>
        <time>2017-07-14T16:51:13Z</time>
      </trkpt>
      <trkpt lat="44.10731" lon="3.4818">
        <ele>1099.89</ele>
        <time>2017-07-14T16:51:21Z</time>
      </trkpt>
      <trkpt lat="44.10748" lon="3.48175">
        <ele>1099.89</ele>
        <time>2017-07-14T16:51:38Z</time>
      </trkpt>
      <trkpt lat="44.10762" lon="3.48175">
        <ele>1099.89</ele>
        <time>2017-07-14T16:51:53Z</time>
      </trkpt>
      <trkpt lat="44.10757" lon="3.48177">
        <ele>1099.89</ele>
        <time>2017-07-14T16:52:06Z</time>
      </trkpt>
      <trkpt lat="44.10755" lon="3.48176">
        <ele>1099.89</ele>
        <time>2017-07-14T16:52:27Z</time>
      </trkpt>
      <trkpt lat="44.10761" lon="3.48182">
        <ele>1099.4</ele>
        <time>2017-07-14T16:52:56Z</time>
      </trkpt>
      <trkpt lat="44.10759" lon="3.48185">
        <ele>1099.4</ele>
        <time>2017-07-14T16:53:18Z</time>
      </trkpt>
      <trkpt lat="44.10764" lon="3.48184">
        <ele>1100.85</ele>
        <time>2017-07-14T16:53:48Z</time>
      </trkpt>
      <trkpt lat="44.10762" lon="3.48186">
        <ele>1100.85</ele>
        <time>2017-07-14T16:54:07Z</time>
      </trkpt>
      <trkpt lat="44.10763" lon="3.48185">
        <ele>1100.85</ele>
        <time>2017-07-14T16:54:30Z</time>
      </trkpt>
      <trkpt lat="44.10763" lon="3.48185">
        <ele>1099.89</ele>
        <time>2017-07-14T16:54:54Z</time>
      </trkpt>
      <trkpt lat="44.10761" lon="3.48185">
        <ele>1099.89</ele>
        <time>2017-07-14T16:55:17Z</time>
      </trkpt>
      <trkpt lat="44.10761" lon="3.48187">
        <ele>1099.89</ele>
        <time>2017-07-14T16:56:00Z</time>
      </trkpt>
      <trkpt lat="44.10763" lon="3.48189">
        <ele>1099.89</ele>
        <time>2017-07-14T16:56:20Z</time>
      </trkpt>
      <trkpt lat="44.10765" lon="3.48187">
        <ele>1101.33</ele>
        <time>2017-07-14T16:56:24Z</time>
      </trkpt>
      <trkpt lat="44.10769" lon="3.48185">
        <ele>1101.33</ele>
        <time>2017-07-14T16:56:55Z</time>
      </trkpt>
      <trkpt lat="44.10772" lon="3.48188">
        <ele>1101.33</ele>
        <time>2017-07-14T16:57:23Z</time>
      </trkpt>
      <trkpt lat="44.10776" lon="3.48187">
        <ele>1101.33</ele>
        <time>2017-07-14T16:57:56Z</time>
      </trkpt>
      <trkpt lat="44.10769" lon="3.48185">
        <ele>1101.33</ele>
        <time>2017-07-14T16:58:30Z</time>
      </trkpt>
      <trkpt lat="44.10772" lon="3.48185">
        <ele>1101.33</ele>
        <time>2017-07-14T16:59:07Z</time>
      </trkpt>
      <trkpt lat="44.10773" lon="3.48184">
        <ele>1101.33</ele>
        <time>2017-07-14T16:59:39Z</time>
      </trkpt>
      <trkpt lat="44.10773" lon="3.48181">
        <ele>1101.33</ele>
        <time>2017-07-14T17:00:08Z</time>
      </trkpt>
      <trkpt lat="44.10768" lon="3.4818">
        <ele>1101.33</ele>
        <time>2017-07-14T17:00:38Z</time>
      </trkpt>
      <trkpt lat="44.10768" lon="3.4818">
        <ele>1101.33</ele>
        <time>2017-07-14T17:01:15Z</time>
      </trkpt>
      <trkpt lat="44.10766" lon="3.48183">
        <ele>1099.4</ele>
        <time>2017-07-14T17:01:44Z</time>
      </trkpt>
      <trkpt lat="44.10766" lon="3.48183">
        <ele>1103.73</ele>
        <time>2017-07-14T17:01:45Z</time>
      </trkpt>
      <trkpt lat="44.10766" lon="3.48184">
        <ele>1100.85</ele>
        <time>2017-07-14T17:01:46Z</time>
      </trkpt>
      <trkpt lat="44.10767" lon="3.48185">
        <ele>1100.37</ele>
        <time>2017-07-14T17:02:16Z</time>
      </trkpt>
      <trkpt lat="44.10765" lon="3.48184">
        <ele>1100.37</ele>
        <time>2017-07-14T17:02:43Z</time>
      </trkpt>
      <trkpt lat="44.10763" lon="3.4818">
        <ele>1100.37</ele>
        <time>2017-07-14T17:03:09Z</time>
      </trkpt>
      <trkpt lat="44.10767" lon="3.48179">
        <ele>1100.37</ele>
        <time>2017-07-14T17:03:43Z</time>
      </trkpt>
      <trkpt lat="44.10769" lon="3.48183">
        <ele>1100.37</ele>
        <time>2017-07-14T17:04:17Z</time>
      </trkpt>
      <trkpt lat="44.10768" lon="3.4819">
        <ele>1099.89</ele>
        <time>2017-07-14T17:04:33Z</time>
      </trkpt>
      <trkpt lat="44.10772" lon="3.48178">
        <ele>1053.26</ele>
        <time>2017-07-15T08:00:34Z</time>
      </trkpt>
      <trkpt lat="44.10771" lon="3.48187">
        <ele>1057.11</ele>
        <time>2017-07-15T08:00:58Z</time>
      </trkpt>
      <trkpt lat="44.10771" lon="3.48187">
        <ele>1057.11</ele>
        <time>2017-07-15T08:00:59Z</time>
      </trkpt>
      <trkpt lat="44.10771" lon="3.48188">
        <ele>1059.99</ele>
        <time>2017-07-15T08:01:01Z</time>
      </trkpt>
      <trkpt lat="44.1077" lon="3.48188">
        <ele>1063.36</ele>
        <time>2017-07-15T08:01:04Z</time>
      </trkpt>
      <trkpt lat="44.1077" lon="3.48188">
        <ele>1066.72</ele>
        <time>2017-07-15T08:01:06Z</time>
      </trkpt>
      <trkpt lat="44.1077" lon="3.48189">
        <ele>1066.72</ele>
        <time>2017-07-15T08:01:07Z</time>
      </trkpt>
      <trkpt lat="44.10769" lon="3.48189">
        <ele>1070.57</ele>
        <time>2017-07-15T08:01:11Z</time>
      </trkpt>
      <trkpt lat="44.10769" lon="3.4819">
        <ele>1073.93</ele>
        <time>2017-07-15T08:01:15Z</time>
      </trkpt>
      <trkpt lat="44.10769" lon="3.4819">
        <ele>1075.85</ele>
        <time>2017-07-15T08:01:17Z</time>
      </trkpt>
      <trkpt lat="44.10768" lon="3.4819">
        <ele>1077.78</ele>
        <time>2017-07-15T08:01:20Z</time>
      </trkpt>
      <trkpt lat="44.10766" lon="3.4819">
        <ele>1081.62</ele>
        <time>2017-07-15T08:01:24Z</time>
      </trkpt>
      <trkpt lat="44.10765" lon="3.4819">
        <ele>1082.58</ele>
        <time>2017-07-15T08:01:27Z</time>
      </trkpt>
      <trkpt lat="44.10764" lon="3.48189">
        <ele>1086.43</ele>
        <time>2017-07-15T08:01:33Z</time>
      </trkpt>
      <trkpt lat="44.10764" lon="3.48188">
        <ele>1088.35</ele>
        <time>2017-07-15T08:01:36Z</time>
      </trkpt>
      <trkpt lat="44.11931" lon="3.55882">
        <ele>1407.99</ele>
        <time>2017-07-15T10:03:08Z</time>
      </trkpt>
      <trkpt lat="44.11932" lon="3.55881">
        <ele>1407.99</ele>
        <time>2017-07-15T10:03:09Z</time>
      </trkpt>
      <trkpt lat="44.11934" lon="3.55881">
        <ele>1409.91</ele>
        <time>2017-07-15T10:03:13Z</time>
      </trkpt>
      <trkpt lat="44.11934" lon="3.55882">
        <ele>1411.83</ele>
        <time>2017-07-15T10:03:16Z</time>
      </trkpt>
      <trkpt lat="44.11935" lon="3.55882">
        <ele>1414.72</ele>
        <time>2017-07-15T10:03:23Z</time>
      </trkpt>
      <trkpt lat="44.11935" lon="3.55882">
        <ele>1418.08</ele>
        <time>2017-07-15T10:03:32Z</time>
      </trkpt>
      <trkpt lat="44.11934" lon="3.55885">
        <ele>1421.45</ele>
        <time>2017-07-15T10:03:48Z</time>
      </trkpt>
      <trkpt lat="44.11934" lon="3.55885">
        <ele>1422.89</ele>
        <time>2017-07-15T10:04:01Z</time>
      </trkpt>
      <trkpt lat="44.11935" lon="3.55886">
        <ele>1424.81</ele>
        <time>2017-07-15T10:04:10Z</time>
      </trkpt>
      <trkpt lat="44.11939" lon="3.55889">
        <ele>1425.29</ele>
        <time>2017-07-15T10:04:18Z</time>
      </trkpt>
      <trkpt lat="44.11942" lon="3.55893">
        <ele>1426.73</ele>
        <time>2017-07-15T10:04:23Z</time>
      </trkpt>
      <trkpt lat="44.11948" lon="3.55899">
        <ele>1428.18</ele>
        <time>2017-07-15T10:04:30Z</time>
      </trkpt>
      <trkpt lat="44.1195" lon="3.55903">
        <ele>1427.21</ele>
        <time>2017-07-15T10:04:34Z</time>
      </trkpt>
      <trkpt lat="44.11952" lon="3.55906">
        <ele>1427.21</ele>
        <time>2017-07-15T10:04:37Z</time>
      </trkpt>
      <trkpt lat="44.11957" lon="3.5591">
        <ele>1429.14</ele>
        <time>2017-07-15T10:04:43Z</time>
      </trkpt>
      <trkpt lat="44.11959" lon="3.55914">
        <ele>1427.7</ele>
        <time>2017-07-15T10:04:46Z</time>
      </trkpt>
      <trkpt lat="44.11958" lon="3.55917">
        <ele>1426.73</ele>
        <time>2017-07-15T10:04:48Z</time>
      </trkpt>
      <trkpt lat="44.1196" lon="3.55921">
        <ele>1428.18</ele>
        <time>2017-07-15T10:04:51Z</time>
      </trkpt>
      <trkpt lat="44.11962" lon="3.55929">
        <ele>1427.21</ele>
        <time>2017-07-15T10:04:58Z</time>
      </trkpt>
      <trkpt lat="44.11968" lon="3.55927">
        <ele>1429.62</ele>
        <time>2017-07-15T10:05:12Z</time>
      </trkpt>
      <trkpt lat="44.11969" lon="3.55928">
        <ele>1432.5</ele>
        <time>2017-07-15T10:05:27Z</time>
      </trkpt>
      <trkpt lat="44.11974" lon="3.55941">
        <ele>1433.94</ele>
        <time>2017-07-15T10:05:42Z</time>
      </trkpt>
      <trkpt lat="44.11981" lon="3.55949">
        <ele>1434.91</ele>
        <time>2017-07-15T10:05:57Z</time>
      </trkpt>
      <trkpt lat="44.11992" lon="3.55966">
        <ele>1436.83</ele>
        <time>2017-07-15T10:06:17Z</time>
      </trkpt>
      <trkpt lat="44.12001" lon="3.55975">
        <ele>1438.27</ele>
        <time>2017-07-15T10:06:35Z</time>
      </trkpt>
      <trkpt lat="44.12009" lon="3.55988">
        <ele>1440.19</ele>
        <time>2017-07-15T10:06:52Z</time>
      </trkpt>
      <trkpt lat="44.12018" lon="3.56005">
        <ele>1440.67</ele>
        <time>2017-07-15T10:07:06Z</time>
      </trkpt>
      <trkpt lat="44.12028" lon="3.56017">
        <ele>1443.08</ele>
        <time>2017-07-15T10:07:22Z</time>
      </trkpt>
      <trkpt lat="44.12037" lon="3.56029">
        <ele>1444.04</ele>
        <time>2017-07-15T10:07:36Z</time>
      </trkpt>
      <trkpt lat="44.12045" lon="3.56044">
        <ele>1445.96</ele>
        <time>2017-07-15T10:07:49Z</time>
      </trkpt>
      <trkpt lat="44.12046" lon="3.56046">
        <ele>1444.52</ele>
        <time>2017-07-15T10:07:51Z</time>
      </trkpt>
      <trkpt lat="44.12047" lon="3.56048">
        <ele>1445.96</ele>
        <time>2017-07-15T10:07:53Z</time>
      </trkpt>
      <trkpt lat="44.12058" lon="3.56065">
        <ele>1445.48</ele>
        <time>2017-07-15T10:08:10Z</time>
      </trkpt>
      <trkpt lat="44.1206" lon="3.56067">
        <ele>1447.4</ele>
        <time>2017-07-15T10:08:13Z</time>
      </trkpt>
      <trkpt lat="44.12065" lon="3.56077">
        <ele>1447.4</ele>
        <time>2017-07-15T10:08:23Z</time>
      </trkpt>
      <trkpt lat="44.12069" lon="3.56084">
        <ele>1449.81</ele>
        <time>2017-07-15T10:08:30Z</time>
      </trkpt>
      <trkpt lat="44.12081" lon="3.56096">
        <ele>1448.84</ele>
        <time>2017-07-15T10:08:46Z</time>
      </trkpt>
      <trkpt lat="44.12082" lon="3.56097">
        <ele>1450.29</ele>
        <time>2017-07-15T10:08:48Z</time>
      </trkpt>
      <trkpt lat="44.12088" lon="3.56103">
        <ele>1452.21</ele>
        <time>2017-07-15T10:09:01Z</time>
      </trkpt>
      <trkpt lat="44.12092" lon="3.56107">
        <ele>1450.77</ele>
        <time>2017-07-15T10:09:07Z</time>
      </trkpt>
      <trkpt lat="44.12103" lon="3.56114">
        <ele>1452.21</ele>
        <time>2017-07-15T10:09:20Z</time>
      </trkpt>
      <trkpt lat="44.12107" lon="3.56116">
        <ele>1454.13</ele>
        <time>2017-07-15T10:09:23Z</time>
      </trkpt>
      <trkpt lat="44.12115" lon="3.56121">
        <ele>1455.57</ele>
        <time>2017-07-15T10:09:34Z</time>
      </trkpt>
      <trkpt lat="44.12116" lon="3.56122">
        <ele>1453.17</ele>
        <time>2017-07-15T10:09:35Z</time>
      </trkpt>
      <trkpt lat="44.12127" lon="3.56134">
        <ele>1456.05</ele>
        <time>2017-07-15T10:09:51Z</time>
      </trkpt>
      <trkpt lat="44.12137" lon="3.56143">
        <ele>1457.98</ele>
        <time>2017-07-15T10:10:06Z</time>
      </trkpt>
      <trkpt lat="44.1215" lon="3.56154">
        <ele>1459.42</ele>
        <time>2017-07-15T10:10:25Z</time>
      </trkpt>
      <trkpt lat="44.12168" lon="3.56164">
        <ele>1460.86</ele>
        <time>2017-07-15T10:10:45Z</time>
      </trkpt>
      <trkpt lat="44.12168" lon="3.56175">
        <ele>1460.38</ele>
        <time>2017-07-15T10:10:55Z</time>
      </trkpt>
      <trkpt lat="44.12168" lon="3.56177">
        <ele>1461.82</ele>
        <time>2017-07-15T10:10:57Z</time>
      </trkpt>
      <trkpt lat="44.12167" lon="3.56179">
        <ele>1461.82</ele>
        <time>2017-07-15T10:11:06Z</time>
      </trkpt>
      <trkpt lat="44.1217" lon="3.5619">
        <ele>1461.82</ele>
        <time>2017-07-15T10:11:16Z</time>
      </trkpt>
      <trkpt lat="44.12166" lon="3.56207">
        <ele>1462.78</ele>
        <time>2017-07-15T10:11:32Z</time>
      </trkpt>
      <trkpt lat="44.12166" lon="3.56208">
        <ele>1462.78</ele>
        <time>2017-07-15T10:11:33Z</time>
      </trkpt>
      <trkpt lat="44.12155" lon="3.56231">
        <ele>1462.78</ele>
        <time>2017-07-15T10:11:52Z</time>
      </trkpt>
      <trkpt lat="44.1215" lon="3.56253">
        <ele>1462.78</ele>
        <time>2017-07-15T10:12:08Z</time>
      </trkpt>
      <trkpt lat="44.12147" lon="3.56277">
        <ele>1460.86</ele>
        <time>2017-07-15T10:12:27Z</time>
      </trkpt>
      <trkpt lat="44.1215" lon="3.563">
        <ele>1460.86</ele>
        <time>2017-07-15T10:12:43Z</time>
      </trkpt>
      <trkpt lat="44.12149" lon="3.5631">
        <ele>1459.9</ele>
        <time>2017-07-15T10:12:49Z</time>
      </trkpt>
      <trkpt lat="44.12149" lon="3.56316">
        <ele>1461.34</ele>
        <time>2017-07-15T10:12:53Z</time>
      </trkpt>
      <trkpt lat="44.12144" lon="3.56341">
        <ele>1461.34</ele>
        <time>2017-07-15T10:13:10Z</time>
      </trkpt>
      <trkpt lat="44.12144" lon="3.56356">
        <ele>1459.9</ele>
        <time>2017-07-15T10:13:19Z</time>
      </trkpt>
      <trkpt lat="44.12133" lon="3.56384">
        <ele>1459.42</ele>
        <time>2017-07-15T10:13:38Z</time>
      </trkpt>
      <trkpt lat="44.1213" lon="3.56378">
        <ele>1460.38</ele>
        <time>2017-07-15T10:13:55Z</time>
      </trkpt>
      <trkpt lat="44.12133" lon="3.56383">
        <ele>1458.94</ele>
        <time>2017-07-15T10:13:59Z</time>
      </trkpt>
      <trkpt lat="44.12133" lon="3.56385">
        <ele>1458.94</ele>
        <time>2017-07-15T10:14:01Z</time>
      </trkpt>
      <trkpt lat="44.12133" lon="3.56404">
        <ele>1458.46</ele>
        <time>2017-07-15T10:14:10Z</time>
      </trkpt>
      <trkpt lat="44.12133" lon="3.5643">
        <ele>1457.98</ele>
        <time>2017-07-15T10:14:28Z</time>
      </trkpt>
      <trkpt lat="44.12138" lon="3.5644">
        <ele>1457.5</ele>
        <time>2017-07-15T10:14:46Z</time>
      </trkpt>
      <trkpt lat="44.12138" lon="3.56458">
        <ele>1461.82</ele>
        <time>2017-07-15T10:14:59Z</time>
      </trkpt>
      <trkpt lat="44.12138" lon="3.56459">
        <ele>1458.46</ele>
        <time>2017-07-15T10:15:00Z</time>
      </trkpt>
      <trkpt lat="44.12138" lon="3.5646">
        <ele>1458.46</ele>
        <time>2017-07-15T10:15:01Z</time>
      </trkpt>
      <trkpt lat="44.12141" lon="3.56493">
        <ele>1456.53</ele>
        <time>2017-07-15T10:15:20Z</time>
      </trkpt>
      <trkpt lat="44.12134" lon="3.5652">
        <ele>1455.57</ele>
        <time>2017-07-15T10:15:38Z</time>
      </trkpt>
      <trkpt lat="44.12117" lon="3.56544">
        <ele>1455.57</ele>
        <time>2017-07-15T10:15:59Z</time>
      </trkpt>
      <trkpt lat="44.12097" lon="3.56569">
        <ele>1454.61</ele>
        <time>2017-07-15T10:16:20Z</time>
      </trkpt>
      <trkpt lat="44.12096" lon="3.56571">
        <ele>1453.65</ele>
        <time>2017-07-15T10:16:21Z</time>
      </trkpt>
      <trkpt lat="44.12083" lon="3.56599">
        <ele>1454.61</ele>
        <time>2017-07-15T10:16:41Z</time>
      </trkpt>
      <trkpt lat="44.1208" lon="3.56604">
        <ele>1453.17</ele>
        <time>2017-07-15T10:16:46Z</time>
      </trkpt>
      <trkpt lat="44.12072" lon="3.56619">
        <ele>1452.69</ele>
        <time>2017-07-15T10:16:57Z</time>
      </trkpt>
      <trkpt lat="44.12059" lon="3.56648">
        <ele>1452.69</ele>
        <time>2017-07-15T10:17:18Z</time>
      </trkpt>
      <trkpt lat="44.12048" lon="3.56678">
        <ele>1452.21</ele>
        <time>2017-07-15T10:17:35Z</time>
      </trkpt>
      <trkpt lat="44.12043" lon="3.56687">
        <ele>1452.21</ele>
        <time>2017-07-15T10:17:46Z</time>
      </trkpt>
      <trkpt lat="44.1203" lon="3.567">
        <ele>1450.77</ele>
        <time>2017-07-15T10:18:01Z</time>
      </trkpt>
      <trkpt lat="44.12021" lon="3.56724">
        <ele>1450.77</ele>
        <time>2017-07-15T10:18:19Z</time>
      </trkpt>
      <trkpt lat="44.12017" lon="3.56734">
        <ele>1449.81</ele>
        <time>2017-07-15T10:18:27Z</time>
      </trkpt>
      <trkpt lat="44.12018" lon="3.56737">
        <ele>1449.81</ele>
        <time>2017-07-15T10:18:44Z</time>
      </trkpt>
      <trkpt lat="44.12019" lon="3.56736">
        <ele>1450.77</ele>
        <time>2017-07-15T10:19:06Z</time>
      </trkpt>
      <trkpt lat="44.12016" lon="3.56743">
        <ele>1449.32</ele>
        <time>2017-07-15T10:19:12Z</time>
      </trkpt>
      <trkpt lat="44.12014" lon="3.56747">
        <ele>1449.32</ele>
        <time>2017-07-15T10:19:15Z</time>
      </trkpt>
      <trkpt lat="44.12005" lon="3.56775">
        <ele>1446.92</ele>
        <time>2017-07-15T10:19:33Z</time>
      </trkpt>
      <trkpt lat="44.11991" lon="3.56799">
        <ele>1446.92</ele>
        <time>2017-07-15T10:19:52Z</time>
      </trkpt>
      <trkpt lat="44.11974" lon="3.56798">
        <ele>1445.96</ele>
        <time>2017-07-15T10:20:11Z</time>
      </trkpt>
      <trkpt lat="44.11968" lon="3.56797">
        <ele>1443.56</ele>
        <time>2017-07-15T10:20:17Z</time>
      </trkpt>
      <trkpt lat="44.11955" lon="3.56798">
        <ele>1443.56</ele>
        <time>2017-07-15T10:20:37Z</time>
      </trkpt>
      <trkpt lat="44.11957" lon="3.56797">
        <ele>1443.56</ele>
        <time>2017-07-15T10:20:42Z</time>
      </trkpt>
      <trkpt lat="44.11955" lon="3.56795">
        <ele>1443.56</ele>
        <time>2017-07-15T10:20:55Z</time>
      </trkpt>
      <trkpt lat="44.11946" lon="3.56806">
        <ele>1443.56</ele>
        <time>2017-07-15T10:21:11Z</time>
      </trkpt>
      <trkpt lat="44.11943" lon="3.56809">
        <ele>1444.04</ele>
        <time>2017-07-15T10:21:14Z</time>
      </trkpt>
      <trkpt lat="44.11931" lon="3.56812">
        <ele>1445</ele>
        <time>2017-07-15T10:21:23Z</time>
      </trkpt>
      <trkpt lat="44.11912" lon="3.56828">
        <ele>1445</ele>
        <time>2017-07-15T10:21:42Z</time>
      </trkpt>
      <trkpt lat="44.11902" lon="3.56836">
        <ele>1446.92</ele>
        <time>2017-07-15T10:21:52Z</time>
      </trkpt>
      <trkpt lat="44.11881" lon="3.56852">
        <ele>1447.88</ele>
        <time>2017-07-15T10:22:10Z</time>
      </trkpt>
      <trkpt lat="44.11877" lon="3.56855">
        <ele>1446.44</ele>
        <time>2017-07-15T10:22:14Z</time>
      </trkpt>
      <trkpt lat="44.11875" lon="3.56857">
        <ele>1447.88</ele>
        <time>2017-07-15T10:22:16Z</time>
      </trkpt>
      <trkpt lat="44.11865" lon="3.56874">
        <ele>1446.92</ele>
        <time>2017-07-15T10:22:28Z</time>
      </trkpt>
      <trkpt lat="44.11864" lon="3.56876">
        <ele>1450.77</ele>
        <time>2017-07-15T10:22:30Z</time>
      </trkpt>
      <trkpt lat="44.11863" lon="3.56876">
        <ele>1448.36</ele>
        <time>2017-07-15T10:22:31Z</time>
      </trkpt>
      <trkpt lat="44.11861" lon="3.56877">
        <ele>1447.4</ele>
        <time>2017-07-15T10:22:33Z</time>
      </trkpt>
      <trkpt lat="44.11859" lon="3.56878">
        <ele>1449.32</ele>
        <time>2017-07-15T10:22:35Z</time>
      </trkpt>
      <trkpt lat="44.11851" lon="3.56893">
        <ele>1449.81</ele>
        <time>2017-07-15T10:22:49Z</time>
      </trkpt>
      <trkpt lat="44.11844" lon="3.56899">
        <ele>1450.29</ele>
        <time>2017-07-15T10:22:58Z</time>
      </trkpt>
      <trkpt lat="44.11827" lon="3.56927">
        <ele>1450.29</ele>
        <time>2017-07-15T10:23:19Z</time>
      </trkpt>
      <trkpt lat="44.11825" lon="3.5693">
        <ele>1450.77</ele>
        <time>2017-07-15T10:23:22Z</time>
      </trkpt>
      <trkpt lat="44.11816" lon="3.56938">
        <ele>1451.73</ele>
        <time>2017-07-15T10:23:33Z</time>
      </trkpt>
      <trkpt lat="44.11801" lon="3.56963">
        <ele>1452.21</ele>
        <time>2017-07-15T10:23:53Z</time>
      </trkpt>
      <trkpt lat="44.11783" lon="3.56977">
        <ele>1453.65</ele>
        <time>2017-07-15T10:24:09Z</time>
      </trkpt>
      <trkpt lat="44.11763" lon="3.56989">
        <ele>1454.13</ele>
        <time>2017-07-15T10:24:29Z</time>
      </trkpt>
      <trkpt lat="44.11755" lon="3.56996">
        <ele>1454.13</ele>
        <time>2017-07-15T10:24:38Z</time>
      </trkpt>
      <trkpt lat="44.11731" lon="3.57004">
        <ele>1456.53</ele>
        <time>2017-07-15T10:24:59Z</time>
      </trkpt>
      <trkpt lat="44.11709" lon="3.57018">
        <ele>1457.5</ele>
        <time>2017-07-15T10:25:20Z</time>
      </trkpt>
      <trkpt lat="44.11708" lon="3.57018">
        <ele>1457.5</ele>
        <time>2017-07-15T10:25:21Z</time>
      </trkpt>
      <trkpt lat="44.11692" lon="3.57032">
        <ele>1457.02</ele>
        <time>2017-07-15T10:25:38Z</time>
      </trkpt>
      <trkpt lat="44.11688" lon="3.57032">
        <ele>1458.46</ele>
        <time>2017-07-15T10:25:43Z</time>
      </trkpt>
      <trkpt lat="44.11683" lon="3.57035">
        <ele>1459.42</ele>
        <time>2017-07-15T10:26:03Z</time>
      </trkpt>
      <trkpt lat="44.11686" lon="3.57038">
        <ele>1459.42</ele>
        <time>2017-07-15T10:26:20Z</time>
      </trkpt>
      <trkpt lat="44.11687" lon="3.57036">
        <ele>1459.42</ele>
        <time>2017-07-15T10:26:38Z</time>
      </trkpt>
      <trkpt lat="44.11686" lon="3.5703">
        <ele>1458.46</ele>
        <time>2017-07-15T10:26:43Z</time>
      </trkpt>
      <trkpt lat="44.11686" lon="3.57027">
        <ele>1456.05</ele>
        <time>2017-07-15T10:26:46Z</time>
      </trkpt>
      <trkpt lat="44.11683" lon="3.57014">
        <ele>1455.57</ele>
        <time>2017-07-15T10:27:02Z</time>
      </trkpt>
      <trkpt lat="44.11681" lon="3.57012">
        <ele>1456.53</ele>
        <time>2017-07-15T10:27:05Z</time>
      </trkpt>
      <trkpt lat="44.11676" lon="3.57004">
        <ele>1454.61</ele>
        <time>2017-07-15T10:27:17Z</time>
      </trkpt>
      <trkpt lat="44.11668" lon="3.56991">
        <ele>1452.69</ele>
        <time>2017-07-15T10:27:31Z</time>
      </trkpt>
      <trkpt lat="44.11666" lon="3.56987">
        <ele>1452.69</ele>
        <time>2017-07-15T10:27:33Z</time>
      </trkpt>
      <trkpt lat="44.11652" lon="3.5697">
        <ele>1450.29</ele>
        <time>2017-07-15T10:27:52Z</time>
      </trkpt>
      <trkpt lat="44.11644" lon="3.56956">
        <ele>1448.36</ele>
        <time>2017-07-15T10:28:05Z</time>
      </trkpt>
      <trkpt lat="44.11639" lon="3.56951">
        <ele>1446.44</ele>
        <time>2017-07-15T10:28:19Z</time>
      </trkpt>
      <trkpt lat="44.11624" lon="3.56933">
        <ele>1444.04</ele>
        <time>2017-07-15T10:28:38Z</time>
      </trkpt>
      <trkpt lat="44.11613" lon="3.56918">
        <ele>1439.71</ele>
        <time>2017-07-15T10:28:56Z</time>
      </trkpt>
      <trkpt lat="44.11612" lon="3.56917">
        <ele>1439.71</ele>
        <time>2017-07-15T10:28:57Z</time>
      </trkpt>
      <trkpt lat="44.11605" lon="3.56905">
        <ele>1437.31</ele>
        <time>2017-07-15T10:29:08Z</time>
      </trkpt>
      <trkpt lat="44.11598" lon="3.56899">
        <ele>1437.31</ele>
        <time>2017-07-15T10:29:17Z</time>
      </trkpt>
      <trkpt lat="44.11595" lon="3.56895">
        <ele>1433.94</ele>
        <time>2017-07-15T10:29:25Z</time>
      </trkpt>
      <trkpt lat="44.11594" lon="3.56894">
        <ele>1433.94</ele>
        <time>2017-07-15T10:29:26Z</time>
      </trkpt>
      <trkpt lat="44.11581" lon="3.56873">
        <ele>1430.58</ele>
        <time>2017-07-15T10:29:45Z</time>
      </trkpt>
      <trkpt lat="44.11562" lon="3.56848">
        <ele>1428.18</ele>
        <time>2017-07-15T10:30:03Z</time>
      </trkpt>
      <trkpt lat="44.1156" lon="3.56844">
        <ele>1427.21</ele>
        <time>2017-07-15T10:30:07Z</time>
      </trkpt>
      <trkpt lat="44.11556" lon="3.5684">
        <ele>1426.25</ele>
        <time>2017-07-15T10:30:13Z</time>
      </trkpt>
      <trkpt lat="44.1155" lon="3.56832">
        <ele>1425.77</ele>
        <time>2017-07-15T10:30:20Z</time>
      </trkpt>
      <trkpt lat="44.11542" lon="3.56815">
        <ele>1423.37</ele>
        <time>2017-07-15T10:30:35Z</time>
      </trkpt>
      <trkpt lat="44.11534" lon="3.56807">
        <ele>1422.41</ele>
        <time>2017-07-15T10:30:48Z</time>
      </trkpt>
      <trkpt lat="44.11523" lon="3.56795">
        <ele>1420</ele>
        <time>2017-07-15T10:31:05Z</time>
      </trkpt>
      <trkpt lat="44.11513" lon="3.56781">
        <ele>1418.56</ele>
        <time>2017-07-15T10:31:20Z</time>
      </trkpt>
      <trkpt lat="44.115" lon="3.56767">
        <ele>1416.16</ele>
        <time>2017-07-15T10:31:35Z</time>
      </trkpt>
      <trkpt lat="44.11491" lon="3.56755">
        <ele>1414.72</ele>
        <time>2017-07-15T10:31:47Z</time>
      </trkpt>
      <trkpt lat="44.11486" lon="3.56746">
        <ele>1413.28</ele>
        <time>2017-07-15T10:31:55Z</time>
      </trkpt>
      <trkpt lat="44.11475" lon="3.56734">
        <ele>1410.87</ele>
        <time>2017-07-15T10:32:07Z</time>
      </trkpt>
      <trkpt lat="44.11465" lon="3.56724">
        <ele>1407.99</ele>
        <time>2017-07-15T10:32:19Z</time>
      </trkpt>
      <trkpt lat="44.11456" lon="3.56711">
        <ele>1407.51</ele>
        <time>2017-07-15T10:32:32Z</time>
      </trkpt>
      <trkpt lat="44.11446" lon="3.56698">
        <ele>1405.1</ele>
        <time>2017-07-15T10:32:45Z</time>
      </trkpt>
      <trkpt lat="44.11444" lon="3.56695">
        <ele>1404.14</ele>
        <time>2017-07-15T10:32:48Z</time>
      </trkpt>
      <trkpt lat="44.11443" lon="3.56685">
        <ele>1403.66</ele>
        <time>2017-07-15T10:32:54Z</time>
      </trkpt>
      <trkpt lat="44.11437" lon="3.56671">
        <ele>1401.26</ele>
        <time>2017-07-15T10:33:05Z</time>
      </trkpt>
      <trkpt lat="44.11434" lon="3.56669">
        <ele>1401.26</ele>
        <time>2017-07-15T10:33:08Z</time>
      </trkpt>
      <trkpt lat="44.11432" lon="3.56666">
        <ele>1400.78</ele>
        <time>2017-07-15T10:33:10Z</time>
      </trkpt>
      <trkpt lat="44.11418" lon="3.5665">
        <ele>1399.82</ele>
        <time>2017-07-15T10:33:25Z</time>
      </trkpt>
      <trkpt lat="44.11414" lon="3.56642">
        <ele>1399.34</ele>
        <time>2017-07-15T10:33:32Z</time>
      </trkpt>
      <trkpt lat="44.11412" lon="3.5664">
        <ele>1398.37</ele>
        <time>2017-07-15T10:33:34Z</time>
      </trkpt>
      <trkpt lat="44.11397" lon="3.56623">
        <ele>1398.37</ele>
        <time>2017-07-15T10:33:48Z</time>
      </trkpt>
      <trkpt lat="44.11396" lon="3.56622">
        <ele>1397.41</ele>
        <time>2017-07-15T10:33:49Z</time>
      </trkpt>
      <trkpt lat="44.11386" lon="3.56612">
        <ele>1396.93</ele>
        <time>2017-07-15T10:34:01Z</time>
      </trkpt>
      <trkpt lat="44.11377" lon="3.56594">
        <ele>1395.97</ele>
        <time>2017-07-15T10:34:13Z</time>
      </trkpt>
      <trkpt lat="44.11371" lon="3.56594">
        <ele>1395.97</ele>
        <time>2017-07-15T10:34:27Z</time>
      </trkpt>
      <trkpt lat="44.1137" lon="3.56593">
        <ele>1395.97</ele>
        <time>2017-07-15T10:34:29Z</time>
      </trkpt>
      <trkpt lat="44.11367" lon="3.56588">
        <ele>1397.41</ele>
        <time>2017-07-15T10:34:32Z</time>
      </trkpt>
      <trkpt lat="44.11365" lon="3.56585">
        <ele>1397.41</ele>
        <time>2017-07-15T10:34:35Z</time>
      </trkpt>
      <trkpt lat="44.11351" lon="3.5657">
        <ele>1397.89</ele>
        <time>2017-07-15T10:34:52Z</time>
      </trkpt>
      <trkpt lat="44.11343" lon="3.56558">
        <ele>1398.37</ele>
        <time>2017-07-15T10:35:04Z</time>
      </trkpt>
      <trkpt lat="44.11338" lon="3.56551">
        <ele>1398.37</ele>
        <time>2017-07-15T10:35:10Z</time>
      </trkpt>
      <trkpt lat="44.11334" lon="3.56544">
        <ele>1398.86</ele>
        <time>2017-07-15T10:35:19Z</time>
      </trkpt>
      <trkpt lat="44.11332" lon="3.56539">
        <ele>1398.86</ele>
        <time>2017-07-15T10:35:24Z</time>
      </trkpt>
      <trkpt lat="44.11322" lon="3.56527">
        <ele>1398.86</ele>
        <time>2017-07-15T10:35:36Z</time>
      </trkpt>
      <trkpt lat="44.1132" lon="3.56522">
        <ele>1399.34</ele>
        <time>2017-07-15T10:35:40Z</time>
      </trkpt>
      <trkpt lat="44.11308" lon="3.56506">
        <ele>1399.82</ele>
        <time>2017-07-15T10:35:54Z</time>
      </trkpt>
      <trkpt lat="44.11308" lon="3.565">
        <ele>1399.82</ele>
        <time>2017-07-15T10:35:59Z</time>
      </trkpt>
      <trkpt lat="44.11306" lon="3.56499">
        <ele>1399.82</ele>
        <time>2017-07-15T10:36:01Z</time>
      </trkpt>
      <trkpt lat="44.11303" lon="3.56495">
        <ele>1399.82</ele>
        <time>2017-07-15T10:36:05Z</time>
      </trkpt>
      <trkpt lat="44.11295" lon="3.56482">
        <ele>1400.3</ele>
        <time>2017-07-15T10:36:16Z</time>
      </trkpt>
      <trkpt lat="44.11285" lon="3.56472">
        <ele>1400.78</ele>
        <time>2017-07-15T10:36:28Z</time>
      </trkpt>
      <trkpt lat="44.11277" lon="3.56462">
        <ele>1401.74</ele>
        <time>2017-07-15T10:36:40Z</time>
      </trkpt>
      <trkpt lat="44.11272" lon="3.56452">
        <ele>1401.26</ele>
        <time>2017-07-15T10:36:49Z</time>
      </trkpt>
      <trkpt lat="44.11258" lon="3.56439">
        <ele>1403.18</ele>
        <time>2017-07-15T10:37:01Z</time>
      </trkpt>
      <trkpt lat="44.11249" lon="3.56431">
        <ele>1404.14</ele>
        <time>2017-07-15T10:37:12Z</time>
      </trkpt>
      <trkpt lat="44.11244" lon="3.5642">
        <ele>1405.1</ele>
        <time>2017-07-15T10:37:23Z</time>
      </trkpt>
      <trkpt lat="44.1124" lon="3.56413">
        <ele>1405.58</ele>
        <time>2017-07-15T10:37:31Z</time>
      </trkpt>
      <trkpt lat="44.11233" lon="3.56398">
        <ele>1406.55</ele>
        <time>2017-07-15T10:37:46Z</time>
      </trkpt>
      <trkpt lat="44.1123" lon="3.56395">
        <ele>1407.03</ele>
        <time>2017-07-15T10:37:50Z</time>
      </trkpt>
      <trkpt lat="44.11219" lon="3.56379">
        <ele>1407.03</ele>
        <time>2017-07-15T10:38:04Z</time>
      </trkpt>
      <trkpt lat="44.1121" lon="3.56366">
        <ele>1406.07</ele>
        <time>2017-07-15T10:38:17Z</time>
      </trkpt>
      <trkpt lat="44.11203" lon="3.5636">
        <ele>1406.07</ele>
        <time>2017-07-15T10:38:24Z</time>
      </trkpt>
      <trkpt lat="44.11183" lon="3.56353">
        <ele>1406.07</ele>
        <time>2017-07-15T10:38:37Z</time>
      </trkpt>
      <trkpt lat="44.11165" lon="3.56345">
        <ele>1405.58</ele>
        <time>2017-07-15T10:38:51Z</time>
      </trkpt>
      <trkpt lat="44.11156" lon="3.56345">
        <ele>1404.14</ele>
        <time>2017-07-15T10:39:00Z</time>
      </trkpt>
      <trkpt lat="44.11145" lon="3.56342">
        <ele>1401.26</ele>
        <time>2017-07-15T10:39:11Z</time>
      </trkpt>
      <trkpt lat="44.11138" lon="3.56338">
        <ele>1399.82</ele>
        <time>2017-07-15T10:39:18Z</time>
      </trkpt>
      <trkpt lat="44.11134" lon="3.56337">
        <ele>1399.82</ele>
        <time>2017-07-15T10:39:20Z</time>
      </trkpt>
      <trkpt lat="44.11118" lon="3.5633">
        <ele>1398.86</ele>
        <time>2017-07-15T10:39:35Z</time>
      </trkpt>
      <trkpt lat="44.11107" lon="3.56325">
        <ele>1397.89</ele>
        <time>2017-07-15T10:39:45Z</time>
      </trkpt>
      <trkpt lat="44.11103" lon="3.56324">
        <ele>1396.93</ele>
        <time>2017-07-15T10:39:49Z</time>
      </trkpt>
      <trkpt lat="44.11101" lon="3.56323">
        <ele>1396.45</ele>
        <time>2017-07-15T10:39:51Z</time>
      </trkpt>
      <trkpt lat="44.11084" lon="3.56319">
        <ele>1394.53</ele>
        <time>2017-07-15T10:40:08Z</time>
      </trkpt>
      <trkpt lat="44.11077" lon="3.56316">
        <ele>1393.57</ele>
        <time>2017-07-15T10:40:19Z</time>
      </trkpt>
      <trkpt lat="44.11068" lon="3.56314">
        <ele>1392.13</ele>
        <time>2017-07-15T10:40:28Z</time>
      </trkpt>
      <trkpt lat="44.11064" lon="3.56313">
        <ele>1391.17</ele>
        <time>2017-07-15T10:40:32Z</time>
      </trkpt>
      <trkpt lat="44.11059" lon="3.56309">
        <ele>1389.72</ele>
        <time>2017-07-15T10:40:37Z</time>
      </trkpt>
      <trkpt lat="44.11043" lon="3.56304">
        <ele>1387.8</ele>
        <time>2017-07-15T10:40:51Z</time>
      </trkpt>
      <trkpt lat="44.11029" lon="3.56304">
        <ele>1386.36</ele>
        <time>2017-07-15T10:41:01Z</time>
      </trkpt>
      <trkpt lat="44.11028" lon="3.563">
        <ele>1385.88</ele>
        <time>2017-07-15T10:41:11Z</time>
      </trkpt>
      <trkpt lat="44.11017" lon="3.56296">
        <ele>1384.92</ele>
        <time>2017-07-15T10:41:24Z</time>
      </trkpt>
      <trkpt lat="44.11001" lon="3.56292">
        <ele>1382.51</ele>
        <time>2017-07-15T10:41:36Z</time>
      </trkpt>
      <trkpt lat="44.10985" lon="3.56287">
        <ele>1380.59</ele>
        <time>2017-07-15T10:41:50Z</time>
      </trkpt>
      <trkpt lat="44.10979" lon="3.56283">
        <ele>1379.15</ele>
        <time>2017-07-15T10:41:56Z</time>
      </trkpt>
      <trkpt lat="44.10967" lon="3.56273">
        <ele>1378.19</ele>
        <time>2017-07-15T10:42:09Z</time>
      </trkpt>
      <trkpt lat="44.10964" lon="3.56271">
        <ele>1378.19</ele>
        <time>2017-07-15T10:42:12Z</time>
      </trkpt>
      <trkpt lat="44.10954" lon="3.56265">
        <ele>1377.71</ele>
        <time>2017-07-15T10:42:25Z</time>
      </trkpt>
      <trkpt lat="44.10946" lon="3.56262">
        <ele>1377.23</ele>
        <time>2017-07-15T10:42:36Z</time>
      </trkpt>
      <trkpt lat="44.10947" lon="3.56261">
        <ele>1377.23</ele>
        <time>2017-07-15T10:42:45Z</time>
      </trkpt>
      <trkpt lat="44.10934" lon="3.5625">
        <ele>1376.26</ele>
        <time>2017-07-15T10:42:59Z</time>
      </trkpt>
      <trkpt lat="44.10933" lon="3.56249">
        <ele>1376.26</ele>
        <time>2017-07-15T10:43:00Z</time>
      </trkpt>
      <trkpt lat="44.10929" lon="3.56247">
        <ele>1376.26</ele>
        <time>2017-07-15T10:43:05Z</time>
      </trkpt>
      <trkpt lat="44.10915" lon="3.56239">
        <ele>1376.26</ele>
        <time>2017-07-15T10:43:15Z</time>
      </trkpt>
      <trkpt lat="44.109" lon="3.5623">
        <ele>1376.26</ele>
        <time>2017-07-15T10:43:28Z</time>
      </trkpt>
      <trkpt lat="44.10884" lon="3.56219">
        <ele>1376.26</ele>
        <time>2017-07-15T10:43:44Z</time>
      </trkpt>
      <trkpt lat="44.10871" lon="3.56208">
        <ele>1376.26</ele>
        <time>2017-07-15T10:43:56Z</time>
      </trkpt>
      <trkpt lat="44.10868" lon="3.56205">
        <ele>1376.26</ele>
        <time>2017-07-15T10:43:59Z</time>
      </trkpt>
      <trkpt lat="44.10858" lon="3.56197">
        <ele>1374.82</ele>
        <time>2017-07-15T10:44:11Z</time>
      </trkpt>
      <trkpt lat="44.10852" lon="3.56194">
        <ele>1374.82</ele>
        <time>2017-07-15T10:44:16Z</time>
      </trkpt>
      <trkpt lat="44.10848" lon="3.56187">
        <ele>1374.82</ele>
        <time>2017-07-15T10:44:30Z</time>
      </trkpt>
      <trkpt lat="44.1085" lon="3.56189">
        <ele>1374.34</ele>
        <time>2017-07-15T10:44:35Z</time>
      </trkpt>
      <trkpt lat="44.10854" lon="3.56191">
        <ele>1375.3</ele>
        <time>2017-07-15T10:44:39Z</time>
      </trkpt>
      <trkpt lat="44.10864" lon="3.56199">
        <ele>1376.26</ele>
        <time>2017-07-15T10:44:51Z</time>
      </trkpt>
      <trkpt lat="44.10875" lon="3.56207">
        <ele>1377.23</ele>
        <time>2017-07-15T10:45:03Z</time>
      </trkpt>
      <trkpt lat="44.10885" lon="3.56215">
        <ele>1377.23</ele>
        <time>2017-07-15T10:45:13Z</time>
      </trkpt>
      <trkpt lat="44.10901" lon="3.56226">
        <ele>1377.23</ele>
        <time>2017-07-15T10:45:27Z</time>
      </trkpt>
      <trkpt lat="44.10906" lon="3.5623">
        <ele>1377.23</ele>
        <time>2017-07-15T10:45:33Z</time>
      </trkpt>
      <trkpt lat="44.1091" lon="3.56231">
        <ele>1377.23</ele>
        <time>2017-07-15T10:45:35Z</time>
      </trkpt>
      <trkpt lat="44.1093" lon="3.56243">
        <ele>1377.71</ele>
        <time>2017-07-15T10:45:51Z</time>
      </trkpt>
      <trkpt lat="44.1094" lon="3.56251">
        <ele>1377.71</ele>
        <time>2017-07-15T10:46:00Z</time>
      </trkpt>
      <trkpt lat="44.10947" lon="3.56255">
        <ele>1377.71</ele>
        <time>2017-07-15T10:46:05Z</time>
      </trkpt>
      <trkpt lat="44.10961" lon="3.5626">
        <ele>1377.71</ele>
        <time>2017-07-15T10:46:21Z</time>
      </trkpt>
      <trkpt lat="44.10964" lon="3.56259">
        <ele>1379.15</ele>
        <time>2017-07-15T10:46:23Z</time>
      </trkpt>
      <trkpt lat="44.10983" lon="3.56251">
        <ele>1377.71</ele>
        <time>2017-07-15T10:46:39Z</time>
      </trkpt>
      <trkpt lat="44.10984" lon="3.56251">
        <ele>1377.71</ele>
        <time>2017-07-15T10:46:40Z</time>
      </trkpt>
      <trkpt lat="44.10998" lon="3.56246">
        <ele>1377.71</ele>
        <time>2017-07-15T10:46:54Z</time>
      </trkpt>
      <trkpt lat="44.11013" lon="3.56241">
        <ele>1377.71</ele>
        <time>2017-07-15T10:47:07Z</time>
      </trkpt>
      <trkpt lat="44.11025" lon="3.56235">
        <ele>1378.19</ele>
        <time>2017-07-15T10:47:20Z</time>
      </trkpt>
      <trkpt lat="44.11035" lon="3.5623">
        <ele>1378.19</ele>
        <time>2017-07-15T10:47:31Z</time>
      </trkpt>
      <trkpt lat="44.11049" lon="3.56223">
        <ele>1378.67</ele>
        <time>2017-07-15T10:47:46Z</time>
      </trkpt>
      <trkpt lat="44.11062" lon="3.56214">
        <ele>1379.15</ele>
        <time>2017-07-15T10:48:00Z</time>
      </trkpt>
      <trkpt lat="44.11071" lon="3.56206">
        <ele>1379.15</ele>
        <time>2017-07-15T10:48:11Z</time>
      </trkpt>
      <trkpt lat="44.11087" lon="3.56196">
        <ele>1379.63</ele>
        <time>2017-07-15T10:48:24Z</time>
      </trkpt>
      <trkpt lat="44.11088" lon="3.56195">
        <ele>1379.63</ele>
        <time>2017-07-15T10:48:26Z</time>
      </trkpt>
      <trkpt lat="44.11099" lon="3.56185">
        <ele>1379.63</ele>
        <time>2017-07-15T10:48:34Z</time>
      </trkpt>
      <trkpt lat="44.11114" lon="3.56169">
        <ele>1380.11</ele>
        <time>2017-07-15T10:48:47Z</time>
      </trkpt>
      <trkpt lat="44.11118" lon="3.56164">
        <ele>1379.15</ele>
        <time>2017-07-15T10:48:50Z</time>
      </trkpt>
      <trkpt lat="44.11132" lon="3.56147">
        <ele>1378.67</ele>
        <time>2017-07-15T10:49:04Z</time>
      </trkpt>
      <trkpt lat="44.11146" lon="3.56129">
        <ele>1378.67</ele>
        <time>2017-07-15T10:49:18Z</time>
      </trkpt>
      <trkpt lat="44.11154" lon="3.56118">
        <ele>1380.11</ele>
        <time>2017-07-15T10:49:28Z</time>
      </trkpt>
      <trkpt lat="44.11157" lon="3.56115">
        <ele>1380.11</ele>
        <time>2017-07-15T10:49:31Z</time>
      </trkpt>
      <trkpt lat="44.11166" lon="3.56106">
        <ele>1380.11</ele>
        <time>2017-07-15T10:49:43Z</time>
      </trkpt>
      <trkpt lat="44.11183" lon="3.56097">
        <ele>1380.11</ele>
        <time>2017-07-15T10:49:57Z</time>
      </trkpt>
      <trkpt lat="44.11187" lon="3.56094">
        <ele>1380.11</ele>
        <time>2017-07-15T10:50:01Z</time>
      </trkpt>
      <trkpt lat="44.11193" lon="3.56091">
        <ele>1380.11</ele>
        <time>2017-07-15T10:50:07Z</time>
      </trkpt>
      <trkpt lat="44.112" lon="3.56088">
        <ele>1380.59</ele>
        <time>2017-07-15T10:50:12Z</time>
      </trkpt>
      <trkpt lat="44.11218" lon="3.56087">
        <ele>1380.59</ele>
        <time>2017-07-15T10:50:25Z</time>
      </trkpt>
      <trkpt lat="44.11222" lon="3.56086">
        <ele>1381.07</ele>
        <time>2017-07-15T10:50:29Z</time>
      </trkpt>
      <trkpt lat="44.11235" lon="3.56093">
        <ele>1379.63</ele>
        <time>2017-07-15T10:50:41Z</time>
      </trkpt>
      <trkpt lat="44.11248" lon="3.56099">
        <ele>1379.15</ele>
        <time>2017-07-15T10:50:52Z</time>
      </trkpt>
      <trkpt lat="44.11259" lon="3.56112">
        <ele>1378.67</ele>
        <time>2017-07-15T10:51:05Z</time>
      </trkpt>
      <trkpt lat="44.1127" lon="3.56125">
        <ele>1378.67</ele>
        <time>2017-07-15T10:51:16Z</time>
      </trkpt>
      <trkpt lat="44.11276" lon="3.56134">
        <ele>1380.11</ele>
        <time>2017-07-15T10:51:23Z</time>
      </trkpt>
      <trkpt lat="44.11287" lon="3.56149">
        <ele>1381.07</ele>
        <time>2017-07-15T10:51:36Z</time>
      </trkpt>
      <trkpt lat="44.11297" lon="3.56168">
        <ele>1381.55</ele>
        <time>2017-07-15T10:51:50Z</time>
      </trkpt>
      <trkpt lat="44.11299" lon="3.5617">
        <ele>1381.55</ele>
        <time>2017-07-15T10:51:52Z</time>
      </trkpt>
      <trkpt lat="44.11308" lon="3.5619">
        <ele>1382.51</ele>
        <time>2017-07-15T10:52:06Z</time>
      </trkpt>
      <trkpt lat="44.11313" lon="3.56205">
        <ele>1381.07</ele>
        <time>2017-07-15T10:52:15Z</time>
      </trkpt>
      <trkpt lat="44.11316" lon="3.56226">
        <ele>1381.07</ele>
        <time>2017-07-15T10:52:29Z</time>
      </trkpt>
      <trkpt lat="44.11317" lon="3.56231">
        <ele>1381.07</ele>
        <time>2017-07-15T10:52:33Z</time>
      </trkpt>
      <trkpt lat="44.11318" lon="3.56234">
        <ele>1381.07</ele>
        <time>2017-07-15T10:52:35Z</time>
      </trkpt>
      <trkpt lat="44.11322" lon="3.5625">
        <ele>1382.99</ele>
        <time>2017-07-15T10:52:47Z</time>
      </trkpt>
      <trkpt lat="44.11327" lon="3.5627">
        <ele>1382.99</ele>
        <time>2017-07-15T10:52:59Z</time>
      </trkpt>
      <trkpt lat="44.11336" lon="3.56288">
        <ele>1383.47</ele>
        <time>2017-07-15T10:53:09Z</time>
      </trkpt>
      <trkpt lat="44.11342" lon="3.56301">
        <ele>1381.55</ele>
        <time>2017-07-15T10:53:23Z</time>
      </trkpt>
      <trkpt lat="44.11342" lon="3.56302">
        <ele>1381.55</ele>
        <time>2017-07-15T10:53:26Z</time>
      </trkpt>
      <trkpt lat="44.11345" lon="3.56308">
        <ele>1380.59</ele>
        <time>2017-07-15T10:53:31Z</time>
      </trkpt>
      <trkpt lat="44.11346" lon="3.5631">
        <ele>1382.99</ele>
        <time>2017-07-15T10:53:33Z</time>
      </trkpt>
      <trkpt lat="44.11351" lon="3.56319">
        <ele>1383.96</ele>
        <time>2017-07-15T10:53:40Z</time>
      </trkpt>
      <trkpt lat="44.1136" lon="3.5633">
        <ele>1382.99</ele>
        <time>2017-07-15T10:53:49Z</time>
      </trkpt>
      <trkpt lat="44.11366" lon="3.56338">
        <ele>1382.51</ele>
        <time>2017-07-15T10:53:55Z</time>
      </trkpt>
      <trkpt lat="44.11367" lon="3.56339">
        <ele>1382.51</ele>
        <time>2017-07-15T10:53:57Z</time>
      </trkpt>
      <trkpt lat="44.11375" lon="3.56346">
        <ele>1382.03</ele>
        <time>2017-07-15T10:54:05Z</time>
      </trkpt>
      <trkpt lat="44.11387" lon="3.56356">
        <ele>1382.03</ele>
        <time>2017-07-15T10:54:16Z</time>
      </trkpt>
      <trkpt lat="44.11399" lon="3.56369">
        <ele>1383.47</ele>
        <time>2017-07-15T10:54:28Z</time>
      </trkpt>
      <trkpt lat="44.11406" lon="3.56377">
        <ele>1383.47</ele>
        <time>2017-07-15T10:54:36Z</time>
      </trkpt>
      <trkpt lat="44.11412" lon="3.56384">
        <ele>1383.47</ele>
        <time>2017-07-15T10:54:42Z</time>
      </trkpt>
      <trkpt lat="44.11425" lon="3.56401">
        <ele>1383.47</ele>
        <time>2017-07-15T10:54:57Z</time>
      </trkpt>
      <trkpt lat="44.11425" lon="3.56402">
        <ele>1383.96</ele>
        <time>2017-07-15T10:54:58Z</time>
      </trkpt>
      <trkpt lat="44.11438" lon="3.56423">
        <ele>1384.92</ele>
        <time>2017-07-15T10:55:15Z</time>
      </trkpt>
      <trkpt lat="44.11447" lon="3.56436">
        <ele>1384.92</ele>
        <time>2017-07-15T10:55:26Z</time>
      </trkpt>
      <trkpt lat="44.11447" lon="3.56441">
        <ele>1384.92</ele>
        <time>2017-07-15T10:55:29Z</time>
      </trkpt>
      <trkpt lat="44.11455" lon="3.56461">
        <ele>1385.4</ele>
        <time>2017-07-15T10:55:42Z</time>
      </trkpt>
      <trkpt lat="44.11456" lon="3.56461">
        <ele>1385.4</ele>
        <time>2017-07-15T10:55:49Z</time>
      </trkpt>
      <trkpt lat="44.11456" lon="3.56465">
        <ele>1385.88</ele>
        <time>2017-07-15T10:55:53Z</time>
      </trkpt>
      <trkpt lat="44.11467" lon="3.56485">
        <ele>1386.36</ele>
        <time>2017-07-15T10:56:08Z</time>
      </trkpt>
      <trkpt lat="44.11476" lon="3.56492">
        <ele>1387.32</ele>
        <time>2017-07-15T10:56:18Z</time>
      </trkpt>
      <trkpt lat="44.11487" lon="3.56496">
        <ele>1387.8</ele>
        <time>2017-07-15T10:56:31Z</time>
      </trkpt>
      <trkpt lat="44.11502" lon="3.56499">
        <ele>1389.24</ele>
        <time>2017-07-15T10:56:43Z</time>
      </trkpt>
      <trkpt lat="44.11519" lon="3.56503">
        <ele>1390.2</ele>
        <time>2017-07-15T10:56:56Z</time>
      </trkpt>
      <trkpt lat="44.11522" lon="3.56503">
        <ele>1390.2</ele>
        <time>2017-07-15T10:56:59Z</time>
      </trkpt>
      <trkpt lat="44.11535" lon="3.56505">
        <ele>1390.68</ele>
        <time>2017-07-15T10:57:12Z</time>
      </trkpt>
      <trkpt lat="44.1155" lon="3.56514">
        <ele>1391.17</ele>
        <time>2017-07-15T10:57:24Z</time>
      </trkpt>
      <trkpt lat="44.11559" lon="3.56517">
        <ele>1391.17</ele>
        <time>2017-07-15T10:57:31Z</time>
      </trkpt>
      <trkpt lat="44.11561" lon="3.56518">
        <ele>1391.17</ele>
        <time>2017-07-15T10:57:33Z</time>
      </trkpt>
      <trkpt lat="44.11566" lon="3.56521">
        <ele>1391.65</ele>
        <time>2017-07-15T10:57:39Z</time>
      </trkpt>
      <trkpt lat="44.11575" lon="3.5653">
        <ele>1392.61</ele>
        <time>2017-07-15T10:57:49Z</time>
      </trkpt>
      <trkpt lat="44.11588" lon="3.56546">
        <ele>1393.57</ele>
        <time>2017-07-15T10:58:02Z</time>
      </trkpt>
      <trkpt lat="44.11593" lon="3.56552">
        <ele>1394.05</ele>
        <time>2017-07-15T10:58:08Z</time>
      </trkpt>
      <trkpt lat="44.11596" lon="3.56553">
        <ele>1394.53</ele>
        <time>2017-07-15T10:58:10Z</time>
      </trkpt>
      <trkpt lat="44.11601" lon="3.56561">
        <ele>1395.01</ele>
        <time>2017-07-15T10:58:16Z</time>
      </trkpt>
      <trkpt lat="44.11613" lon="3.56564">
        <ele>1395.01</ele>
        <time>2017-07-15T10:58:26Z</time>
      </trkpt>
      <trkpt lat="44.11632" lon="3.5656">
        <ele>1395.01</ele>
        <time>2017-07-15T10:58:42Z</time>
      </trkpt>
      <trkpt lat="44.1164" lon="3.56554">
        <ele>1394.05</ele>
        <time>2017-07-15T10:58:49Z</time>
      </trkpt>
      <trkpt lat="44.11642" lon="3.56554">
        <ele>1394.05</ele>
        <time>2017-07-15T10:58:51Z</time>
      </trkpt>
      <trkpt lat="44.11646" lon="3.56557">
        <ele>1394.05</ele>
        <time>2017-07-15T10:58:56Z</time>
      </trkpt>
      <trkpt lat="44.11665" lon="3.56563">
        <ele>1393.09</ele>
        <time>2017-07-15T10:59:10Z</time>
      </trkpt>
      <trkpt lat="44.11673" lon="3.56559">
        <ele>1393.09</ele>
        <time>2017-07-15T10:59:18Z</time>
      </trkpt>
      <trkpt lat="44.11685" lon="3.56545">
        <ele>1393.09</ele>
        <time>2017-07-15T10:59:32Z</time>
      </trkpt>
      <trkpt lat="44.11696" lon="3.56527">
        <ele>1393.09</ele>
        <time>2017-07-15T10:59:47Z</time>
      </trkpt>
      <trkpt lat="44.11701" lon="3.56524">
        <ele>1392.61</ele>
        <time>2017-07-15T10:59:53Z</time>
      </trkpt>
      <trkpt lat="44.11703" lon="3.56522">
        <ele>1392.61</ele>
        <time>2017-07-15T10:59:54Z</time>
      </trkpt>
      <trkpt lat="44.11722" lon="3.56512">
        <ele>1392.61</ele>
        <time>2017-07-15T11:00:08Z</time>
      </trkpt>
      <trkpt lat="44.11738" lon="3.56498">
        <ele>1394.05</ele>
        <time>2017-07-15T11:00:24Z</time>
      </trkpt>
      <trkpt lat="44.11748" lon="3.56483">
        <ele>1394.05</ele>
        <time>2017-07-15T11:00:35Z</time>
      </trkpt>
      <trkpt lat="44.11756" lon="3.56466">
        <ele>1394.05</ele>
        <time>2017-07-15T11:00:47Z</time>
      </trkpt>
      <trkpt lat="44.11762" lon="3.56458">
        <ele>1394.05</ele>
        <time>2017-07-15T11:00:56Z</time>
      </trkpt>
      <trkpt lat="44.11769" lon="3.56452">
        <ele>1394.05</ele>
        <time>2017-07-15T11:01:02Z</time>
      </trkpt>
      <trkpt lat="44.11775" lon="3.56449">
        <ele>1394.05</ele>
        <time>2017-07-15T11:01:08Z</time>
      </trkpt>
      <trkpt lat="44.1178" lon="3.56445">
        <ele>1392.61</ele>
        <time>2017-07-15T11:01:12Z</time>
      </trkpt>
      <trkpt lat="44.11786" lon="3.56439">
        <ele>1392.13</ele>
        <time>2017-07-15T11:01:18Z</time>
      </trkpt>
      <trkpt lat="44.11787" lon="3.56424">
        <ele>1392.13</ele>
        <time>2017-07-15T11:01:27Z</time>
      </trkpt>
      <trkpt lat="44.11787" lon="3.56411">
        <ele>1392.13</ele>
        <time>2017-07-15T11:01:40Z</time>
      </trkpt>
      <trkpt lat="44.11791" lon="3.56405">
        <ele>1392.13</ele>
        <time>2017-07-15T11:01:46Z</time>
      </trkpt>
      <trkpt lat="44.11794" lon="3.56401">
        <ele>1392.13</ele>
        <time>2017-07-15T11:01:49Z</time>
      </trkpt>
      <trkpt lat="44.11801" lon="3.56398">
        <ele>1392.13</ele>
        <time>2017-07-15T11:01:56Z</time>
      </trkpt>
      <trkpt lat="44.11815" lon="3.56388">
        <ele>1392.13</ele>
        <time>2017-07-15T11:02:10Z</time>
      </trkpt>
      <trkpt lat="44.11819" lon="3.5638">
        <ele>1391.65</ele>
        <time>2017-07-15T11:02:21Z</time>
      </trkpt>
      <trkpt lat="44.11819" lon="3.56357">
        <ele>1391.65</ele>
        <time>2017-07-15T11:02:33Z</time>
      </trkpt>
      <trkpt lat="44.11818" lon="3.56347">
        <ele>1391.65</ele>
        <time>2017-07-15T11:02:39Z</time>
      </trkpt>
      <trkpt lat="44.11823" lon="3.56324">
        <ele>1391.65</ele>
        <time>2017-07-15T11:02:54Z</time>
      </trkpt>
      <trkpt lat="44.11833" lon="3.56309">
        <ele>1391.65</ele>
        <time>2017-07-15T11:03:06Z</time>
      </trkpt>
      <trkpt lat="44.11832" lon="3.56296">
        <ele>1392.61</ele>
        <time>2017-07-15T11:03:15Z</time>
      </trkpt>
      <trkpt lat="44.11831" lon="3.5629">
        <ele>1392.61</ele>
        <time>2017-07-15T11:03:33Z</time>
      </trkpt>
      <trkpt lat="44.11832" lon="3.56288">
        <ele>1388.76</ele>
        <time>2017-07-15T11:03:51Z</time>
      </trkpt>
      <trkpt lat="44.11831" lon="3.56288">
        <ele>1393.57</ele>
        <time>2017-07-15T11:03:52Z</time>
      </trkpt>
      <trkpt lat="44.11831" lon="3.56288">
        <ele>1393.57</ele>
        <time>2017-07-15T11:03:53Z</time>
      </trkpt>
      <trkpt lat="44.11823" lon="3.56286">
        <ele>1391.65</ele>
        <time>2017-07-15T11:04:01Z</time>
      </trkpt>
      <trkpt lat="44.11813" lon="3.56283">
        <ele>1391.17</ele>
        <time>2017-07-15T11:04:09Z</time>
      </trkpt>
      <trkpt lat="44.11809" lon="3.56282">
        <ele>1391.17</ele>
        <time>2017-07-15T11:04:12Z</time>
      </trkpt>
      <trkpt lat="44.11804" lon="3.56279">
        <ele>1391.17</ele>
        <time>2017-07-15T11:04:15Z</time>
      </trkpt>
      <trkpt lat="44.11778" lon="3.5627">
        <ele>1391.17</ele>
        <time>2017-07-15T11:04:34Z</time>
      </trkpt>
      <trkpt lat="44.11762" lon="3.56263">
        <ele>1391.17</ele>
        <time>2017-07-15T11:04:45Z</time>
      </trkpt>
      <trkpt lat="44.11745" lon="3.56258">
        <ele>1391.17</ele>
        <time>2017-07-15T11:04:59Z</time>
      </trkpt>
      <trkpt lat="44.11726" lon="3.56252">
        <ele>1390.68</ele>
        <time>2017-07-15T11:05:12Z</time>
      </trkpt>
      <trkpt lat="44.11711" lon="3.5625">
        <ele>1390.2</ele>
        <time>2017-07-15T11:05:26Z</time>
      </trkpt>
      <trkpt lat="44.11691" lon="3.56251">
        <ele>1390.2</ele>
        <time>2017-07-15T11:05:39Z</time>
      </trkpt>
      <trkpt lat="44.11678" lon="3.56249">
        <ele>1390.2</ele>
        <time>2017-07-15T11:05:54Z</time>
      </trkpt>
      <trkpt lat="44.11678" lon="3.56248">
        <ele>1390.2</ele>
        <time>2017-07-15T11:05:55Z</time>
      </trkpt>
      <trkpt lat="44.1167" lon="3.56236">
        <ele>1393.09</ele>
        <time>2017-07-15T11:06:11Z</time>
      </trkpt>
      <trkpt lat="44.11671" lon="3.56226">
        <ele>1393.57</ele>
        <time>2017-07-15T11:06:20Z</time>
      </trkpt>
      <trkpt lat="44.11677" lon="3.56206">
        <ele>1396.45</ele>
        <time>2017-07-15T11:06:37Z</time>
      </trkpt>
      <trkpt lat="44.11683" lon="3.56187">
        <ele>1398.37</ele>
        <time>2017-07-15T11:06:53Z</time>
      </trkpt>
      <trkpt lat="44.11688" lon="3.56172">
        <ele>1400.3</ele>
        <time>2017-07-15T11:07:07Z</time>
      </trkpt>
      <trkpt lat="44.11692" lon="3.56166">
        <ele>1400.3</ele>
        <time>2017-07-15T11:07:15Z</time>
      </trkpt>
      <trkpt lat="44.11694" lon="3.56165">
        <ele>1400.3</ele>
        <time>2017-07-15T11:07:17Z</time>
      </trkpt>
      <trkpt lat="44.11702" lon="3.56162">
        <ele>1401.26</ele>
        <time>2017-07-15T11:07:26Z</time>
      </trkpt>
      <trkpt lat="44.11708" lon="3.56157">
        <ele>1402.7</ele>
        <time>2017-07-15T11:07:37Z</time>
      </trkpt>
      <trkpt lat="44.11709" lon="3.56155">
        <ele>1402.7</ele>
        <time>2017-07-15T11:07:40Z</time>
      </trkpt>
      <trkpt lat="44.11714" lon="3.56153">
        <ele>1403.18</ele>
        <time>2017-07-15T11:07:51Z</time>
      </trkpt>
      <trkpt lat="44.11716" lon="3.56153">
        <ele>1403.18</ele>
        <time>2017-07-15T11:07:54Z</time>
      </trkpt>
      <trkpt lat="44.11719" lon="3.56153">
        <ele>1403.66</ele>
        <time>2017-07-15T11:07:56Z</time>
      </trkpt>
      <trkpt lat="44.11724" lon="3.56153">
        <ele>1403.66</ele>
        <time>2017-07-15T11:08:00Z</time>
      </trkpt>
      <trkpt lat="44.11737" lon="3.56147">
        <ele>1406.07</ele>
        <time>2017-07-15T11:08:12Z</time>
      </trkpt>
      <trkpt lat="44.11738" lon="3.56146">
        <ele>1406.07</ele>
        <time>2017-07-15T11:08:14Z</time>
      </trkpt>
      <trkpt lat="44.11747" lon="3.56141">
        <ele>1407.51</ele>
        <time>2017-07-15T11:08:26Z</time>
      </trkpt>
      <trkpt lat="44.11753" lon="3.56135">
        <ele>1407.99</ele>
        <time>2017-07-15T11:08:36Z</time>
      </trkpt>
      <trkpt lat="44.11762" lon="3.56126">
        <ele>1410.39</ele>
        <time>2017-07-15T11:08:48Z</time>
      </trkpt>
      <trkpt lat="44.11765" lon="3.56123">
        <ele>1410.87</ele>
        <time>2017-07-15T11:08:52Z</time>
      </trkpt>
      <trkpt lat="44.11773" lon="3.56114">
        <ele>1412.31</ele>
        <time>2017-07-15T11:09:03Z</time>
      </trkpt>
      <trkpt lat="44.11781" lon="3.56105">
        <ele>1413.76</ele>
        <time>2017-07-15T11:09:14Z</time>
      </trkpt>
      <trkpt lat="44.11781" lon="3.56103">
        <ele>1414.24</ele>
        <time>2017-07-15T11:09:17Z</time>
      </trkpt>
      <trkpt lat="44.11786" lon="3.56097">
        <ele>1415.2</ele>
        <time>2017-07-15T11:09:23Z</time>
      </trkpt>
      <trkpt lat="44.11783" lon="3.56078">
        <ele>1415.68</ele>
        <time>2017-07-15T11:09:39Z</time>
      </trkpt>
      <trkpt lat="44.11783" lon="3.56077">
        <ele>1415.68</ele>
        <time>2017-07-15T11:09:40Z</time>
      </trkpt>
      <trkpt lat="44.11781" lon="3.56062">
        <ele>1414.24</ele>
        <time>2017-07-15T11:09:49Z</time>
      </trkpt>
      <trkpt lat="44.11779" lon="3.56043">
        <ele>1414.24</ele>
        <time>2017-07-15T11:10:01Z</time>
      </trkpt>
      <trkpt lat="44.11781" lon="3.56022">
        <ele>1414.24</ele>
        <time>2017-07-15T11:10:14Z</time>
      </trkpt>
      <trkpt lat="44.11782" lon="3.56005">
        <ele>1414.24</ele>
        <time>2017-07-15T11:10:24Z</time>
      </trkpt>
      <trkpt lat="44.11784" lon="3.55994">
        <ele>1414.24</ele>
        <time>2017-07-15T11:10:31Z</time>
      </trkpt>
      <trkpt lat="44.11785" lon="3.5599">
        <ele>1414.24</ele>
        <time>2017-07-15T11:10:38Z</time>
      </trkpt>
      <trkpt lat="44.11785" lon="3.55985">
        <ele>1414.24</ele>
        <time>2017-07-15T11:10:41Z</time>
      </trkpt>
      <trkpt lat="44.1179" lon="3.55975">
        <ele>1415.68</ele>
        <time>2017-07-15T11:10:51Z</time>
      </trkpt>
      <trkpt lat="44.11791" lon="3.55975">
        <ele>1416.64</ele>
        <time>2017-07-15T11:10:53Z</time>
      </trkpt>
      <trkpt lat="44.11792" lon="3.55972">
        <ele>1418.08</ele>
        <time>2017-07-15T11:10:55Z</time>
      </trkpt>
      <trkpt lat="44.11793" lon="3.55952">
        <ele>1415.2</ele>
        <time>2017-07-15T11:11:12Z</time>
      </trkpt>
      <trkpt lat="44.11794" lon="3.55937">
        <ele>1415.2</ele>
        <time>2017-07-15T11:11:21Z</time>
      </trkpt>
      <trkpt lat="44.118" lon="3.55914">
        <ele>1415.2</ele>
        <time>2017-07-15T11:11:38Z</time>
      </trkpt>
      <trkpt lat="44.11802" lon="3.55908">
        <ele>1416.64</ele>
        <time>2017-07-15T11:11:44Z</time>
      </trkpt>
      <trkpt lat="44.11814" lon="3.55906">
        <ele>1417.6</ele>
        <time>2017-07-15T11:11:58Z</time>
      </trkpt>
      <trkpt lat="44.11823" lon="3.55913">
        <ele>1419.52</ele>
        <time>2017-07-15T11:12:07Z</time>
      </trkpt>
      <trkpt lat="44.11834" lon="3.55912">
        <ele>1421.45</ele>
        <time>2017-07-15T11:12:21Z</time>
      </trkpt>
      <trkpt lat="44.1184" lon="3.55903">
        <ele>1422.41</ele>
        <time>2017-07-15T11:12:36Z</time>
      </trkpt>
      <trkpt lat="44.11849" lon="3.55895">
        <ele>1423.85</ele>
        <time>2017-07-15T11:12:48Z</time>
      </trkpt>
      <trkpt lat="44.11863" lon="3.55886">
        <ele>1423.85</ele>
        <time>2017-07-15T11:13:03Z</time>
      </trkpt>
      <trkpt lat="44.11877" lon="3.55891">
        <ele>1425.77</ele>
        <time>2017-07-15T11:13:17Z</time>
      </trkpt>
      <trkpt lat="44.11883" lon="3.55897">
        <ele>1426.73</ele>
        <time>2017-07-15T11:13:30Z</time>
      </trkpt>
      <trkpt lat="44.11888" lon="3.55891">
        <ele>1426.73</ele>
        <time>2017-07-15T11:13:50Z</time>
      </trkpt>
      <trkpt lat="44.119" lon="3.55891">
        <ele>1426.73</ele>
        <time>2017-07-15T11:14:05Z</time>
      </trkpt>
      <trkpt lat="44.11914" lon="3.5589">
        <ele>1427.7</ele>
        <time>2017-07-15T11:14:19Z</time>
      </trkpt>
      <trkpt lat="44.11922" lon="3.55887">
        <ele>1426.73</ele>
        <time>2017-07-15T11:14:34Z</time>
      </trkpt>
      <trkpt lat="44.11926" lon="3.55882">
        <ele>1427.7</ele>
        <time>2017-07-15T11:14:51Z</time>
      </trkpt>
      <trkpt lat="44.1193" lon="3.55881">
        <ele>1425.29</ele>
        <time>2017-07-15T11:15:02Z</time>
      </trkpt>
      <trkpt lat="44.11937" lon="3.55881">
        <ele>1424.81</ele>
        <time>2017-07-15T11:29:37Z</time>
      </trkpt>
      <trkpt lat="44.11934" lon="3.55883">
        <ele>1427.21</ele>
        <time>2017-07-15T11:30:09Z</time>
      </trkpt>
      <trkpt lat="44.11933" lon="3.55884">
        <ele>1430.1</ele>
        <time>2017-07-15T11:30:38Z</time>
      </trkpt>
      <trkpt lat="44.11933" lon="3.55883">
        <ele>1430.1</ele>
        <time>2017-07-15T11:31:09Z</time>
      </trkpt>
      <trkpt lat="44.11931" lon="3.55886">
        <ele>1430.1</ele>
        <time>2017-07-15T11:31:44Z</time>
      </trkpt>
      <trkpt lat="44.11932" lon="3.55887">
        <ele>1429.14</ele>
        <time>2017-07-15T11:31:57Z</time>
      </trkpt>
      <trkpt lat="44.11931" lon="3.55886">
        <ele>1430.1</ele>
        <time>2017-07-15T11:32:38Z</time>
      </trkpt>
      <trkpt lat="44.11931" lon="3.55886">
        <ele>1429.14</ele>
        <time>2017-07-15T11:33:11Z</time>
      </trkpt>
      <trkpt lat="44.11931" lon="3.55883">
        <ele>1429.14</ele>
        <time>2017-07-15T11:33:43Z</time>
      </trkpt>
      <trkpt lat="44.11935" lon="3.55885">
        <ele>1430.1</ele>
        <time>2017-07-15T11:34:16Z</time>
      </trkpt>
      <trkpt lat="44.11936" lon="3.55886">
        <ele>1430.1</ele>
        <time>2017-07-15T11:34:54Z</time>
      </trkpt>
      <trkpt lat="44.11934" lon="3.55886">
        <ele>1430.1</ele>
        <time>2017-07-15T11:35:30Z</time>
      </trkpt>
      <trkpt lat="44.11934" lon="3.55887">
        <ele>1430.1</ele>
        <time>2017-07-15T11:36:10Z</time>
      </trkpt>
      <trkpt lat="44.11936" lon="3.55887">
        <ele>1428.66</ele>
        <time>2017-07-15T11:36:45Z</time>
      </trkpt>
      <trkpt lat="44.11936" lon="3.55887">
        <ele>1429.62</ele>
        <time>2017-07-15T11:37:07Z</time>
      </trkpt>
      <trkpt lat="44.11936" lon="3.55886">
        <ele>1428.66</ele>
        <time>2017-07-15T11:37:28Z</time>
      </trkpt>
      <trkpt lat="44.11936" lon="3.55886">
        <ele>1429.14</ele>
        <time>2017-07-15T11:38:10Z</time>
      </trkpt>
      <trkpt lat="44.11935" lon="3.55885">
        <ele>1429.62</ele>
        <time>2017-07-15T11:38:46Z</time>
      </trkpt>
      <trkpt lat="44.11933" lon="3.55884">
        <ele>1429.62</ele>
        <time>2017-07-15T11:39:29Z</time>
      </trkpt>
      <trkpt lat="44.11933" lon="3.55886">
        <ele>1430.58</ele>
        <time>2017-07-15T11:40:01Z</time>
      </trkpt>
      <trkpt lat="44.11933" lon="3.55887">
        <ele>1430.58</ele>
        <time>2017-07-15T11:40:36Z</time>
      </trkpt>
      <trkpt lat="44.11936" lon="3.55888">
        <ele>1429.62</ele>
        <time>2017-07-15T11:41:01Z</time>
      </trkpt>
      <trkpt lat="44.11936" lon="3.55887">
        <ele>1427.7</ele>
        <time>2017-07-15T11:41:16Z</time>
      </trkpt>
      <trkpt lat="44.11935" lon="3.55886">
        <ele>1430.58</ele>
        <time>2017-07-15T11:41:20Z</time>
      </trkpt>
      <trkpt lat="44.11935" lon="3.55886">
        <ele>1429.62</ele>
        <time>2017-07-15T11:41:35Z</time>
      </trkpt>
      <trkpt lat="44.11938" lon="3.55885">
        <ele>1429.14</ele>
        <time>2017-07-15T11:42:02Z</time>
      </trkpt>
      <trkpt lat="44.11938" lon="3.55884">
        <ele>1429.14</ele>
        <time>2017-07-15T11:42:24Z</time>
      </trkpt>
      <trkpt lat="44.11936" lon="3.55885">
        <ele>1427.7</ele>
        <time>2017-07-15T11:42:54Z</time>
      </trkpt>
      <trkpt lat="44.11936" lon="3.55886">
        <ele>1428.66</ele>
        <time>2017-07-15T11:43:07Z</time>
      </trkpt>
      <trkpt lat="44.11939" lon="3.55886">
        <ele>1427.21</ele>
        <time>2017-07-15T11:43:27Z</time>
      </trkpt>
      <trkpt lat="44.11938" lon="3.55886">
        <ele>1428.18</ele>
        <time>2017-07-15T11:44:02Z</time>
      </trkpt>
      <trkpt lat="44.11937" lon="3.55888">
        <ele>1428.66</ele>
        <time>2017-07-15T11:44:33Z</time>
      </trkpt>
      <trkpt lat="44.11938" lon="3.55887">
        <ele>1429.14</ele>
        <time>2017-07-15T11:45:07Z</time>
      </trkpt>
      <trkpt lat="44.11939" lon="3.55888">
        <ele>1429.14</ele>
        <time>2017-07-15T11:45:54Z</time>
      </trkpt>
      <trkpt lat="44.11939" lon="3.55885">
        <ele>1430.58</ele>
        <time>2017-07-15T11:46:27Z</time>
      </trkpt>
      <trkpt lat="44.11938" lon="3.55885">
        <ele>1429.14</ele>
        <time>2017-07-15T11:46:57Z</time>
      </trkpt>
      <trkpt lat="44.11936" lon="3.55883">
        <ele>1430.1</ele>
        <time>2017-07-15T11:47:29Z</time>
      </trkpt>
      <trkpt lat="44.11933" lon="3.55885">
        <ele>1430.1</ele>
        <time>2017-07-15T11:47:59Z</time>
      </trkpt>
      <trkpt lat="44.11934" lon="3.55885">
        <ele>1429.14</ele>
        <time>2017-07-15T11:48:36Z</time>
      </trkpt>
      <trkpt lat="44.11935" lon="3.55884">
        <ele>1429.14</ele>
        <time>2017-07-15T11:49:02Z</time>
      </trkpt>
      <trkpt lat="44.11934" lon="3.55886">
        <ele>1430.1</ele>
        <time>2017-07-15T11:49:39Z</time>
      </trkpt>
      <trkpt lat="44.11936" lon="3.55884">
        <ele>1430.58</ele>
        <time>2017-07-15T11:50:11Z</time>
      </trkpt>
      <trkpt lat="44.11938" lon="3.55883">
        <ele>1429.62</ele>
        <time>2017-07-15T11:50:40Z</time>
      </trkpt>
      <trkpt lat="44.11938" lon="3.55884">
        <ele>1430.58</ele>
        <time>2017-07-15T11:51:07Z</time>
      </trkpt>
      <trkpt lat="44.11937" lon="3.55884">
        <ele>1429.62</ele>
        <time>2017-07-15T11:51:28Z</time>
      </trkpt>
      <trkpt lat="44.11937" lon="3.55885">
        <ele>1430.1</ele>
        <time>2017-07-15T11:51:37Z</time>
      </trkpt>
      <trkpt lat="44.11936" lon="3.55886">
        <ele>1430.58</ele>
        <time>2017-07-15T11:52:06Z</time>
      </trkpt>
      <trkpt lat="44.11936" lon="3.55885">
        <ele>1429.14</ele>
        <time>2017-07-15T11:52:46Z</time>
      </trkpt>
      <trkpt lat="44.11933" lon="3.55883">
        <ele>1428.66</ele>
        <time>2017-07-15T11:53:17Z</time>
      </trkpt>
      <trkpt lat="44.11933" lon="3.55883">
        <ele>1430.1</ele>
        <time>2017-07-15T11:53:20Z</time>
      </trkpt>
      <trkpt lat="44.11933" lon="3.55884">
        <ele>1428.66</ele>
        <time>2017-07-15T11:53:34Z</time>
      </trkpt>
      <trkpt lat="44.11938" lon="3.55883">
        <ele>1427.7</ele>
        <time>2017-07-15T11:54:01Z</time>
      </trkpt>
      <trkpt lat="44.11936" lon="3.55884">
        <ele>1428.66</ele>
        <time>2017-07-15T11:54:38Z</time>
      </trkpt>
      <trkpt lat="44.11937" lon="3.55886">
        <ele>1429.14</ele>
        <time>2017-07-15T11:55:15Z</time>
      </trkpt>
      <trkpt lat="44.11937" lon="3.55886">
        <ele>1427.7</ele>
        <time>2017-07-15T11:55:23Z</time>
      </trkpt>
      <trkpt lat="44.11938" lon="3.55885">
        <ele>1428.66</ele>
        <time>2017-07-15T11:55:30Z</time>
      </trkpt>
      <trkpt lat="44.11936" lon="3.55885">
        <ele>1427.7</ele>
        <time>2017-07-15T11:56:09Z</time>
      </trkpt>
      <trkpt lat="44.11937" lon="3.55881">
        <ele>1428.66</ele>
        <time>2017-07-15T11:56:43Z</time>
      </trkpt>
      <trkpt lat="44.11935" lon="3.55887">
        <ele>1428.66</ele>
        <time>2017-07-15T11:57:12Z</time>
      </trkpt>
      <trkpt lat="44.11936" lon="3.55887">
        <ele>1427.7</ele>
        <time>2017-07-15T11:57:29Z</time>
      </trkpt>
      <trkpt lat="44.11935" lon="3.55887">
        <ele>1429.14</ele>
        <time>2017-07-15T11:57:37Z</time>
      </trkpt>
      <trkpt lat="44.11935" lon="3.55886">
        <ele>1427.7</ele>
        <time>2017-07-15T11:57:40Z</time>
      </trkpt>
      <trkpt lat="44.11937" lon="3.55886">
        <ele>1428.18</ele>
        <time>2017-07-15T11:57:56Z</time>
      </trkpt>
      <trkpt lat="44.11937" lon="3.55886">
        <ele>1427.21</ele>
        <time>2017-07-15T11:58:06Z</time>
      </trkpt>
      <trkpt lat="44.11938" lon="3.55888">
        <ele>1428.18</ele>
        <time>2017-07-15T11:58:43Z</time>
      </trkpt>
      <trkpt lat="44.11941" lon="3.55883">
        <ele>1428.66</ele>
        <time>2017-07-15T11:59:28Z</time>
      </trkpt>
      <trkpt lat="44.11936" lon="3.55885">
        <ele>1427.21</ele>
        <time>2017-07-15T12:00:01Z</time>
      </trkpt>
      <trkpt lat="44.11937" lon="3.55884">
        <ele>1427.21</ele>
        <time>2017-07-15T12:00:30Z</time>
      </trkpt>
      <trkpt lat="44.11935" lon="3.55892">
        <ele>1428.66</ele>
        <time>2017-07-15T12:01:05Z</time>
      </trkpt>
      <trkpt lat="44.11932" lon="3.5589">
        <ele>1429.14</ele>
        <time>2017-07-15T12:01:32Z</time>
      </trkpt>
      <trkpt lat="44.11932" lon="3.55892">
        <ele>1427.7</ele>
        <time>2017-07-15T12:01:38Z</time>
      </trkpt>
      <trkpt lat="44.11931" lon="3.55893">
        <ele>1428.66</ele>
        <time>2017-07-15T12:01:58Z</time>
      </trkpt>
      <trkpt lat="44.11933" lon="3.55883">
        <ele>1429.14</ele>
        <time>2017-07-15T12:02:34Z</time>
      </trkpt>
      <trkpt lat="44.11932" lon="3.55882">
        <ele>1427.7</ele>
        <time>2017-07-15T12:02:47Z</time>
      </trkpt>
      <trkpt lat="44.11931" lon="3.55888">
        <ele>1429.14</ele>
        <time>2017-07-15T12:03:06Z</time>
      </trkpt>
      <trkpt lat="44.11934" lon="3.55887">
        <ele>1428.66</ele>
        <time>2017-07-15T12:03:31Z</time>
      </trkpt>
      <trkpt lat="44.11933" lon="3.55887">
        <ele>1428.18</ele>
        <time>2017-07-15T12:03:50Z</time>
      </trkpt>
      <trkpt lat="44.11935" lon="3.55882">
        <ele>1429.14</ele>
        <time>2017-07-15T12:04:19Z</time>
      </trkpt>
      <trkpt lat="44.11932" lon="3.5588">
        <ele>1429.14</ele>
        <time>2017-07-15T12:04:54Z</time>
      </trkpt>
      <trkpt lat="44.11934" lon="3.55882">
        <ele>1429.14</ele>
        <time>2017-07-15T12:05:23Z</time>
      </trkpt>
      <trkpt lat="44.11935" lon="3.55885">
        <ele>1428.66</ele>
        <time>2017-07-15T12:06:05Z</time>
      </trkpt>
      <trkpt lat="44.11931" lon="3.55884">
        <ele>1428.66</ele>
        <time>2017-07-15T12:06:24Z</time>
      </trkpt>
      <trkpt lat="44.11933" lon="3.55885">
        <ele>1428.18</ele>
        <time>2017-07-15T12:06:59Z</time>
      </trkpt>
      <trkpt lat="44.11929" lon="3.55889">
        <ele>1428.18</ele>
        <time>2017-07-15T12:07:26Z</time>
      </trkpt>
      <trkpt lat="44.11926" lon="3.5589">
        <ele>1427.21</ele>
        <time>2017-07-15T12:07:33Z</time>
      </trkpt>
      <trkpt lat="44.11927" lon="3.55889">
        <ele>1428.18</ele>
        <time>2017-07-15T12:07:40Z</time>
      </trkpt>
      <trkpt lat="44.11933" lon="3.55887">
        <ele>1427.21</ele>
        <time>2017-07-15T12:07:51Z</time>
      </trkpt>
      <trkpt lat="44.11935" lon="3.55888">
        <ele>1427.21</ele>
        <time>2017-07-15T12:08:25Z</time>
      </trkpt>
      <trkpt lat="44.11934" lon="3.55887">
        <ele>1427.21</ele>
        <time>2017-07-15T12:09:02Z</time>
      </trkpt>
      <trkpt lat="44.11939" lon="3.55886">
        <ele>1428.66</ele>
        <time>2017-07-15T12:09:37Z</time>
      </trkpt>
      <trkpt lat="44.11939" lon="3.55886">
        <ele>1427.21</ele>
        <time>2017-07-15T12:09:42Z</time>
      </trkpt>
      <trkpt lat="44.11939" lon="3.55886">
        <ele>1428.18</ele>
        <time>2017-07-15T12:09:51Z</time>
      </trkpt>
      <trkpt lat="44.11931" lon="3.55887">
        <ele>1427.21</ele>
        <time>2017-07-15T12:10:27Z</time>
      </trkpt>
      <trkpt lat="44.11931" lon="3.55887">
        <ele>1427.21</ele>
        <time>2017-07-15T12:11:03Z</time>
      </trkpt>
      <trkpt lat="44.11932" lon="3.55885">
        <ele>1426.73</ele>
        <time>2017-07-15T12:11:41Z</time>
      </trkpt>
      <trkpt lat="44.11936" lon="3.55885">
        <ele>1427.7</ele>
        <time>2017-07-15T12:12:18Z</time>
      </trkpt>
      <trkpt lat="44.11933" lon="3.55886">
        <ele>1427.7</ele>
        <time>2017-07-15T12:12:49Z</time>
      </trkpt>
      <trkpt lat="44.11934" lon="3.55884">
        <ele>1426.25</ele>
        <time>2017-07-15T12:13:11Z</time>
      </trkpt>
      <trkpt lat="44.11933" lon="3.55883">
        <ele>1428.18</ele>
        <time>2017-07-15T12:13:35Z</time>
      </trkpt>
      <trkpt lat="44.11934" lon="3.55881">
        <ele>1428.18</ele>
        <time>2017-07-15T12:14:10Z</time>
      </trkpt>
      <trkpt lat="44.11932" lon="3.55883">
        <ele>1427.7</ele>
        <time>2017-07-15T12:14:30Z</time>
      </trkpt>
      <trkpt lat="44.11932" lon="3.55885">
        <ele>1428.66</ele>
        <time>2017-07-15T12:14:41Z</time>
      </trkpt>
      <trkpt lat="44.11933" lon="3.55879">
        <ele>1428.66</ele>
        <time>2017-07-15T12:15:21Z</time>
      </trkpt>
      <trkpt lat="44.11934" lon="3.5588">
        <ele>1427.7</ele>
        <time>2017-07-15T12:16:03Z</time>
      </trkpt>
      <trkpt lat="44.11933" lon="3.55883">
        <ele>1429.14</ele>
        <time>2017-07-15T12:16:21Z</time>
      </trkpt>
      <trkpt lat="44.11933" lon="3.55885">
        <ele>1427.7</ele>
        <time>2017-07-15T12:16:33Z</time>
      </trkpt>
      <trkpt lat="44.11932" lon="3.55883">
        <ele>1429.14</ele>
        <time>2017-07-15T12:17:06Z</time>
      </trkpt>
      <trkpt lat="44.11931" lon="3.55882">
        <ele>1428.18</ele>
        <time>2017-07-15T12:17:32Z</time>
      </trkpt>
      <trkpt lat="44.11931" lon="3.55882">
        <ele>1428.18</ele>
        <time>2017-07-15T12:17:33Z</time>
      </trkpt>
      <trkpt lat="44.11931" lon="3.55885">
        <ele>1428.18</ele>
        <time>2017-07-15T12:18:00Z</time>
      </trkpt>
      <trkpt lat="44.11932" lon="3.55885">
        <ele>1428.18</ele>
        <time>2017-07-15T12:18:27Z</time>
      </trkpt>
      <trkpt lat="44.1193" lon="3.5588">
        <ele>1429.14</ele>
        <time>2017-07-15T12:18:49Z</time>
      </trkpt>
      <trkpt lat="44.11933" lon="3.55884">
        <ele>1429.14</ele>
        <time>2017-07-15T12:19:10Z</time>
      </trkpt>
      <trkpt lat="44.11933" lon="3.55886">
        <ele>1427.7</ele>
        <time>2017-07-15T12:19:47Z</time>
      </trkpt>
      <trkpt lat="44.11932" lon="3.55882">
        <ele>1429.62</ele>
        <time>2017-07-15T12:20:20Z</time>
      </trkpt>
      <trkpt lat="44.11932" lon="3.55882">
        <ele>1428.18</ele>
        <time>2017-07-15T12:20:31Z</time>
      </trkpt>
      <trkpt lat="44.11931" lon="3.55882">
        <ele>1429.14</ele>
        <time>2017-07-15T12:20:35Z</time>
      </trkpt>
      <trkpt lat="44.11931" lon="3.55887">
        <ele>1427.7</ele>
        <time>2017-07-15T12:20:57Z</time>
      </trkpt>
      <trkpt lat="44.1193" lon="3.55886">
        <ele>1428.66</ele>
        <time>2017-07-15T12:21:36Z</time>
      </trkpt>
      <trkpt lat="44.1193" lon="3.55883">
        <ele>1427.7</ele>
        <time>2017-07-15T12:21:50Z</time>
      </trkpt>
      <trkpt lat="44.1193" lon="3.55881">
        <ele>1427.7</ele>
        <time>2017-07-15T12:22:22Z</time>
      </trkpt>
      <trkpt lat="44.11928" lon="3.55879">
        <ele>1429.14</ele>
        <time>2017-07-15T12:22:54Z</time>
      </trkpt>
      <trkpt lat="44.11931" lon="3.55884">
        <ele>1429.14</ele>
        <time>2017-07-15T12:23:17Z</time>
      </trkpt>
      <trkpt lat="44.1193" lon="3.55882">
        <ele>1428.18</ele>
        <time>2017-07-15T12:23:45Z</time>
      </trkpt>
      <trkpt lat="44.11931" lon="3.55882">
        <ele>1429.14</ele>
        <time>2017-07-15T12:23:53Z</time>
      </trkpt>
      <trkpt lat="44.11931" lon="3.55885">
        <ele>1429.14</ele>
        <time>2017-07-15T12:23:59Z</time>
      </trkpt>
      <trkpt lat="44.12114" lon="3.57733">
        <ele>1553.63</ele>
        <time>2017-07-15T14:39:14Z</time>
      </trkpt>
      <trkpt lat="44.12108" lon="3.57726">
        <ele>1553.63</ele>
        <time>2017-07-15T14:39:15Z</time>
      </trkpt>
      <trkpt lat="44.12098" lon="3.57721">
        <ele>1550.26</ele>
        <time>2017-07-15T14:39:23Z</time>
      </trkpt>
      <trkpt lat="44.12098" lon="3.57721">
        <ele>1550.26</ele>
        <time>2017-07-15T14:39:24Z</time>
      </trkpt>
      <trkpt lat="44.12093" lon="3.57713">
        <ele>1547.86</ele>
        <time>2017-07-15T14:39:32Z</time>
      </trkpt>
      <trkpt lat="44.1209" lon="3.57707">
        <ele>1546.42</ele>
        <time>2017-07-15T14:39:36Z</time>
      </trkpt>
      <trkpt lat="44.12088" lon="3.57698">
        <ele>1543.53</ele>
        <time>2017-07-15T14:39:43Z</time>
      </trkpt>
      <trkpt lat="44.12087" lon="3.57694">
        <ele>1542.09</ele>
        <time>2017-07-15T14:39:47Z</time>
      </trkpt>
      <trkpt lat="44.12086" lon="3.57692">
        <ele>1541.61</ele>
        <time>2017-07-15T14:39:48Z</time>
      </trkpt>
      <trkpt lat="44.12084" lon="3.57689">
        <ele>1543.05</ele>
        <time>2017-07-15T14:39:52Z</time>
      </trkpt>
      <trkpt lat="44.12081" lon="3.57688">
        <ele>1543.53</ele>
        <time>2017-07-15T14:39:56Z</time>
      </trkpt>
      <trkpt lat="44.12076" lon="3.57687">
        <ele>1544.01</ele>
        <time>2017-07-15T14:40:03Z</time>
      </trkpt>
      <trkpt lat="44.1207" lon="3.57693">
        <ele>1541.61</ele>
        <time>2017-07-15T14:40:09Z</time>
      </trkpt>
      <trkpt lat="44.12067" lon="3.57696">
        <ele>1540.17</ele>
        <time>2017-07-15T14:40:16Z</time>
      </trkpt>
      <trkpt lat="44.12066" lon="3.57693">
        <ele>1539.21</ele>
        <time>2017-07-15T14:40:18Z</time>
      </trkpt>
      <trkpt lat="44.12066" lon="3.57677">
        <ele>1537.29</ele>
        <time>2017-07-15T14:40:29Z</time>
      </trkpt>
      <trkpt lat="44.12065" lon="3.57675">
        <ele>1537.29</ele>
        <time>2017-07-15T14:40:30Z</time>
      </trkpt>
      <trkpt lat="44.12065" lon="3.57669">
        <ele>1539.21</ele>
        <time>2017-07-15T14:40:33Z</time>
      </trkpt>
      <trkpt lat="44.12064" lon="3.57664">
        <ele>1537.29</ele>
        <time>2017-07-15T14:40:37Z</time>
      </trkpt>
      <trkpt lat="44.12064" lon="3.57663">
        <ele>1537.29</ele>
        <time>2017-07-15T14:40:38Z</time>
      </trkpt>
      <trkpt lat="44.12064" lon="3.57641">
        <ele>1536.8</ele>
        <time>2017-07-15T14:40:52Z</time>
      </trkpt>
      <trkpt lat="44.12062" lon="3.57626">
        <ele>1535.84</ele>
        <time>2017-07-15T14:41:05Z</time>
      </trkpt>
      <trkpt lat="44.12061" lon="3.57619">
        <ele>1536.32</ele>
        <time>2017-07-15T14:41:13Z</time>
      </trkpt>
      <trkpt lat="44.12062" lon="3.57612">
        <ele>1534.88</ele>
        <time>2017-07-15T14:41:19Z</time>
      </trkpt>
      <trkpt lat="44.1206" lon="3.57594">
        <ele>1534.4</ele>
        <time>2017-07-15T14:41:37Z</time>
      </trkpt>
      <trkpt lat="44.12059" lon="3.57588">
        <ele>1533.92</ele>
        <time>2017-07-15T14:41:41Z</time>
      </trkpt>
      <trkpt lat="44.12058" lon="3.57584">
        <ele>1532.48</ele>
        <time>2017-07-15T14:41:44Z</time>
      </trkpt>
      <trkpt lat="44.12057" lon="3.57578">
        <ele>1533.92</ele>
        <time>2017-07-15T14:41:48Z</time>
      </trkpt>
      <trkpt lat="44.12057" lon="3.57575">
        <ele>1532.48</ele>
        <time>2017-07-15T14:41:50Z</time>
      </trkpt>
      <trkpt lat="44.12056" lon="3.57562">
        <ele>1531.04</ele>
        <time>2017-07-15T14:42:06Z</time>
      </trkpt>
      <trkpt lat="44.12056" lon="3.57551">
        <ele>1530.08</ele>
        <time>2017-07-15T14:42:16Z</time>
      </trkpt>
      <trkpt lat="44.12054" lon="3.57537">
        <ele>1529.59</ele>
        <time>2017-07-15T14:42:23Z</time>
      </trkpt>
      <trkpt lat="44.12053" lon="3.57531">
        <ele>1529.59</ele>
        <time>2017-07-15T14:42:27Z</time>
      </trkpt>
      <trkpt lat="44.12052" lon="3.5752">
        <ele>1529.11</ele>
        <time>2017-07-15T14:42:33Z</time>
      </trkpt>
      <trkpt lat="44.12051" lon="3.575">
        <ele>1527.67</ele>
        <time>2017-07-15T14:42:50Z</time>
      </trkpt>
      <trkpt lat="44.12049" lon="3.57491">
        <ele>1526.71</ele>
        <time>2017-07-15T14:42:57Z</time>
      </trkpt>
      <trkpt lat="44.12044" lon="3.57476">
        <ele>1525.75</ele>
        <time>2017-07-15T14:43:10Z</time>
      </trkpt>
      <trkpt lat="44.12041" lon="3.57469">
        <ele>1525.75</ele>
        <time>2017-07-15T14:43:16Z</time>
      </trkpt>
      <trkpt lat="44.12035" lon="3.57452">
        <ele>1524.31</ele>
        <time>2017-07-15T14:43:29Z</time>
      </trkpt>
      <trkpt lat="44.12027" lon="3.57438">
        <ele>1523.35</ele>
        <time>2017-07-15T14:43:44Z</time>
      </trkpt>
      <trkpt lat="44.12026" lon="3.57437">
        <ele>1522.87</ele>
        <time>2017-07-15T14:43:45Z</time>
      </trkpt>
      <trkpt lat="44.1202" lon="3.57429">
        <ele>1522.39</ele>
        <time>2017-07-15T14:43:53Z</time>
      </trkpt>
      <trkpt lat="44.12011" lon="3.5742">
        <ele>1520.94</ele>
        <time>2017-07-15T14:44:06Z</time>
      </trkpt>
      <trkpt lat="44.12008" lon="3.57417">
        <ele>1520.46</ele>
        <time>2017-07-15T14:44:11Z</time>
      </trkpt>
      <trkpt lat="44.11996" lon="3.57407">
        <ele>1519.5</ele>
        <time>2017-07-15T14:44:22Z</time>
      </trkpt>
      <trkpt lat="44.11992" lon="3.57406">
        <ele>1519.5</ele>
        <time>2017-07-15T14:44:26Z</time>
      </trkpt>
      <trkpt lat="44.11988" lon="3.57402">
        <ele>1518.54</ele>
        <time>2017-07-15T14:44:32Z</time>
      </trkpt>
      <trkpt lat="44.11986" lon="3.574">
        <ele>1518.54</ele>
        <time>2017-07-15T14:44:34Z</time>
      </trkpt>
      <trkpt lat="44.11977" lon="3.57388">
        <ele>1517.58</ele>
        <time>2017-07-15T14:44:47Z</time>
      </trkpt>
      <trkpt lat="44.11972" lon="3.57382">
        <ele>1516.62</ele>
        <time>2017-07-15T14:44:55Z</time>
      </trkpt>
      <trkpt lat="44.11962" lon="3.57371">
        <ele>1515.18</ele>
        <time>2017-07-15T14:45:08Z</time>
      </trkpt>
      <trkpt lat="44.11951" lon="3.57365">
        <ele>1515.66</ele>
        <time>2017-07-15T14:45:21Z</time>
      </trkpt>
      <trkpt lat="44.1195" lon="3.57362">
        <ele>1513.73</ele>
        <time>2017-07-15T14:45:24Z</time>
      </trkpt>
      <trkpt lat="44.11941" lon="3.57347">
        <ele>1513.73</ele>
        <time>2017-07-15T14:45:43Z</time>
      </trkpt>
      <trkpt lat="44.11931" lon="3.57324">
        <ele>1510.37</ele>
        <time>2017-07-15T14:45:54Z</time>
      </trkpt>
      <trkpt lat="44.11928" lon="3.57314">
        <ele>1510.85</ele>
        <time>2017-07-15T14:46:01Z</time>
      </trkpt>
      <trkpt lat="44.11922" lon="3.57292">
        <ele>1510.37</ele>
        <time>2017-07-15T14:46:19Z</time>
      </trkpt>
      <trkpt lat="44.11915" lon="3.57266">
        <ele>1507</ele>
        <time>2017-07-15T14:46:37Z</time>
      </trkpt>
      <trkpt lat="44.11914" lon="3.57263">
        <ele>1507.97</ele>
        <time>2017-07-15T14:46:40Z</time>
      </trkpt>
      <trkpt lat="44.11914" lon="3.57254">
        <ele>1507</ele>
        <time>2017-07-15T14:46:44Z</time>
      </trkpt>
      <trkpt lat="44.11915" lon="3.57242">
        <ele>1505.56</ele>
        <time>2017-07-15T14:47:03Z</time>
      </trkpt>
      <trkpt lat="44.11913" lon="3.57233">
        <ele>1502.68</ele>
        <time>2017-07-15T14:47:18Z</time>
      </trkpt>
      <trkpt lat="44.11914" lon="3.57226">
        <ele>1503.64</ele>
        <time>2017-07-15T14:47:23Z</time>
      </trkpt>
      <trkpt lat="44.11916" lon="3.57209">
        <ele>1501.72</ele>
        <time>2017-07-15T14:47:42Z</time>
      </trkpt>
      <trkpt lat="44.11919" lon="3.57194">
        <ele>1500.76</ele>
        <time>2017-07-15T14:47:59Z</time>
      </trkpt>
      <trkpt lat="44.11926" lon="3.57182">
        <ele>1497.87</ele>
        <time>2017-07-15T14:48:13Z</time>
      </trkpt>
      <trkpt lat="44.11929" lon="3.57164">
        <ele>1496.91</ele>
        <time>2017-07-15T14:48:24Z</time>
      </trkpt>
      <trkpt lat="44.11934" lon="3.57131">
        <ele>1494.99</ele>
        <time>2017-07-15T14:48:46Z</time>
      </trkpt>
      <trkpt lat="44.11937" lon="3.57103">
        <ele>1492.1</ele>
        <time>2017-07-15T14:49:08Z</time>
      </trkpt>
      <trkpt lat="44.11942" lon="3.57087">
        <ele>1490.18</ele>
        <time>2017-07-15T14:49:27Z</time>
      </trkpt>
      <trkpt lat="44.11941" lon="3.57087">
        <ele>1493.06</ele>
        <time>2017-07-15T14:49:28Z</time>
      </trkpt>
      <trkpt lat="44.11941" lon="3.57087">
        <ele>1489.7</ele>
        <time>2017-07-15T14:49:38Z</time>
      </trkpt>
      <trkpt lat="44.11942" lon="3.57088">
        <ele>1491.14</ele>
        <time>2017-07-15T14:49:41Z</time>
      </trkpt>
      <trkpt lat="44.11945" lon="3.57089">
        <ele>1491.62</ele>
        <time>2017-07-15T14:50:06Z</time>
      </trkpt>
      <trkpt lat="44.11942" lon="3.57083">
        <ele>1491.62</ele>
        <time>2017-07-15T14:50:21Z</time>
      </trkpt>
      <trkpt lat="44.11943" lon="3.57076">
        <ele>1489.7</ele>
        <time>2017-07-15T14:50:26Z</time>
      </trkpt>
      <trkpt lat="44.11949" lon="3.57051">
        <ele>1488.26</ele>
        <time>2017-07-15T14:50:48Z</time>
      </trkpt>
      <trkpt lat="44.11948" lon="3.57039">
        <ele>1486.82</ele>
        <time>2017-07-15T14:50:59Z</time>
      </trkpt>
      <trkpt lat="44.11948" lon="3.57036">
        <ele>1485.37</ele>
        <time>2017-07-15T14:51:01Z</time>
      </trkpt>
      <trkpt lat="44.11959" lon="3.57012">
        <ele>1483.45</ele>
        <time>2017-07-15T14:51:21Z</time>
      </trkpt>
      <trkpt lat="44.11967" lon="3.56998">
        <ele>1482.49</ele>
        <time>2017-07-15T14:51:32Z</time>
      </trkpt>
      <trkpt lat="44.11975" lon="3.56975">
        <ele>1480.57</ele>
        <time>2017-07-15T14:51:50Z</time>
      </trkpt>
      <trkpt lat="44.11991" lon="3.56956">
        <ele>1478.16</ele>
        <time>2017-07-15T14:52:11Z</time>
      </trkpt>
      <trkpt lat="44.12003" lon="3.5694">
        <ele>1476.24</ele>
        <time>2017-07-15T14:52:30Z</time>
      </trkpt>
      <trkpt lat="44.12017" lon="3.56926">
        <ele>1473.84</ele>
        <time>2017-07-15T14:52:48Z</time>
      </trkpt>
      <trkpt lat="44.12023" lon="3.56914">
        <ele>1473.84</ele>
        <time>2017-07-15T14:52:58Z</time>
      </trkpt>
      <trkpt lat="44.12034" lon="3.56904">
        <ele>1471.44</ele>
        <time>2017-07-15T14:53:14Z</time>
      </trkpt>
      <trkpt lat="44.1205" lon="3.56892">
        <ele>1469.99</ele>
        <time>2017-07-15T14:53:32Z</time>
      </trkpt>
      <trkpt lat="44.12062" lon="3.56887">
        <ele>1469.99</ele>
        <time>2017-07-15T14:53:42Z</time>
      </trkpt>
      <trkpt lat="44.12065" lon="3.56886">
        <ele>1468.07</ele>
        <time>2017-07-15T14:53:46Z</time>
      </trkpt>
      <trkpt lat="44.12064" lon="3.56875">
        <ele>1467.59</ele>
        <time>2017-07-15T14:54:00Z</time>
      </trkpt>
      <trkpt lat="44.1206" lon="3.56862">
        <ele>1466.63</ele>
        <time>2017-07-15T14:54:05Z</time>
      </trkpt>
      <trkpt lat="44.12055" lon="3.56851">
        <ele>1466.15</ele>
        <time>2017-07-15T14:54:11Z</time>
      </trkpt>
      <trkpt lat="44.12047" lon="3.56838">
        <ele>1463.74</ele>
        <time>2017-07-15T14:54:22Z</time>
      </trkpt>
      <trkpt lat="44.12044" lon="3.56833">
        <ele>1460.38</ele>
        <time>2017-07-15T14:54:25Z</time>
      </trkpt>
      <trkpt lat="44.12043" lon="3.56829">
        <ele>1463.26</ele>
        <time>2017-07-15T14:54:31Z</time>
      </trkpt>
      <trkpt lat="44.12039" lon="3.56824">
        <ele>1462.3</ele>
        <time>2017-07-15T14:54:34Z</time>
      </trkpt>
      <trkpt lat="44.12037" lon="3.56815">
        <ele>1461.82</ele>
        <time>2017-07-15T14:54:39Z</time>
      </trkpt>
      <trkpt lat="44.12036" lon="3.56812">
        <ele>1461.34</ele>
        <time>2017-07-15T14:54:44Z</time>
      </trkpt>
      <trkpt lat="44.12035" lon="3.5681">
        <ele>1460.86</ele>
        <time>2017-07-15T14:54:45Z</time>
      </trkpt>
      <trkpt lat="44.12035" lon="3.56808">
        <ele>1460.86</ele>
        <time>2017-07-15T14:54:47Z</time>
      </trkpt>
      <trkpt lat="44.12034" lon="3.56807">
        <ele>1460.86</ele>
        <time>2017-07-15T14:54:48Z</time>
      </trkpt>
      <trkpt lat="44.12033" lon="3.568">
        <ele>1459.42</ele>
        <time>2017-07-15T14:54:57Z</time>
      </trkpt>
      <trkpt lat="44.12031" lon="3.56781">
        <ele>1457.5</ele>
        <time>2017-07-15T14:55:09Z</time>
      </trkpt>
      <trkpt lat="44.12032" lon="3.56765">
        <ele>1456.05</ele>
        <time>2017-07-15T14:55:17Z</time>
      </trkpt>
      <trkpt lat="44.12033" lon="3.56739">
        <ele>1454.61</ele>
        <time>2017-07-15T14:55:30Z</time>
      </trkpt>
      <trkpt lat="44.12033" lon="3.56713">
        <ele>1452.21</ele>
        <time>2017-07-15T14:55:48Z</time>
      </trkpt>
      <trkpt lat="44.12033" lon="3.5671">
        <ele>1452.21</ele>
        <time>2017-07-15T14:55:50Z</time>
      </trkpt>
      <trkpt lat="44.12033" lon="3.56705">
        <ele>1451.73</ele>
        <time>2017-07-15T14:55:53Z</time>
      </trkpt>
      <trkpt lat="44.12035" lon="3.56685">
        <ele>1448.84</ele>
        <time>2017-07-15T14:56:06Z</time>
      </trkpt>
      <trkpt lat="44.12037" lon="3.56684">
        <ele>1448.84</ele>
        <time>2017-07-15T14:56:20Z</time>
      </trkpt>
      <trkpt lat="44.1204" lon="3.56677">
        <ele>1448.84</ele>
        <time>2017-07-15T14:56:35Z</time>
      </trkpt>
      <trkpt lat="44.12043" lon="3.56668">
        <ele>1450.29</ele>
        <time>2017-07-15T14:56:44Z</time>
      </trkpt>
      <trkpt lat="44.12049" lon="3.5666">
        <ele>1450.29</ele>
        <time>2017-07-15T14:56:56Z</time>
      </trkpt>
      <trkpt lat="44.12057" lon="3.56648">
        <ele>1449.32</ele>
        <time>2017-07-15T14:57:07Z</time>
      </trkpt>
      <trkpt lat="44.12071" lon="3.56634">
        <ele>1450.29</ele>
        <time>2017-07-15T14:57:22Z</time>
      </trkpt>
      <trkpt lat="44.12074" lon="3.56629">
        <ele>1451.25</ele>
        <time>2017-07-15T14:57:26Z</time>
      </trkpt>
      <trkpt lat="44.1208" lon="3.56618">
        <ele>1450.29</ele>
        <time>2017-07-15T14:57:35Z</time>
      </trkpt>
      <trkpt lat="44.12082" lon="3.56614">
        <ele>1451.73</ele>
        <time>2017-07-15T14:57:37Z</time>
      </trkpt>
      <trkpt lat="44.12085" lon="3.56608">
        <ele>1452.21</ele>
        <time>2017-07-15T14:57:42Z</time>
      </trkpt>
      <trkpt lat="44.12086" lon="3.56606">
        <ele>1452.21</ele>
        <time>2017-07-15T14:57:43Z</time>
      </trkpt>
      <trkpt lat="44.12089" lon="3.566">
        <ele>1450.77</ele>
        <time>2017-07-15T14:57:47Z</time>
      </trkpt>
      <trkpt lat="44.1209" lon="3.56598">
        <ele>1452.21</ele>
        <time>2017-07-15T14:57:48Z</time>
      </trkpt>
      <trkpt lat="44.12102" lon="3.5658">
        <ele>1451.25</ele>
        <time>2017-07-15T14:58:05Z</time>
      </trkpt>
      <trkpt lat="44.12104" lon="3.56577">
        <ele>1453.17</ele>
        <time>2017-07-15T14:58:07Z</time>
      </trkpt>
      <trkpt lat="44.12111" lon="3.56563">
        <ele>1453.65</ele>
        <time>2017-07-15T14:58:19Z</time>
      </trkpt>
      <trkpt lat="44.12116" lon="3.56557">
        <ele>1452.21</ele>
        <time>2017-07-15T14:58:28Z</time>
      </trkpt>
      <trkpt lat="44.12118" lon="3.56554">
        <ele>1454.13</ele>
        <time>2017-07-15T14:58:30Z</time>
      </trkpt>
      <trkpt lat="44.12122" lon="3.56546">
        <ele>1454.13</ele>
        <time>2017-07-15T14:58:37Z</time>
      </trkpt>
      <trkpt lat="44.12123" lon="3.56539">
        <ele>1454.13</ele>
        <time>2017-07-15T14:58:42Z</time>
      </trkpt>
      <trkpt lat="44.12132" lon="3.56518">
        <ele>1454.61</ele>
        <time>2017-07-15T14:59:00Z</time>
      </trkpt>
      <trkpt lat="44.12135" lon="3.56504">
        <ele>1452.69</ele>
        <time>2017-07-15T14:59:10Z</time>
      </trkpt>
      <trkpt lat="44.12138" lon="3.56475">
        <ele>1455.09</ele>
        <time>2017-07-15T14:59:27Z</time>
      </trkpt>
      <trkpt lat="44.12141" lon="3.56442">
        <ele>1455.09</ele>
        <time>2017-07-15T14:59:48Z</time>
      </trkpt>
      <trkpt lat="44.12141" lon="3.5644">
        <ele>1455.09</ele>
        <time>2017-07-15T14:59:49Z</time>
      </trkpt>
      <trkpt lat="44.12142" lon="3.56435">
        <ele>1456.05</ele>
        <time>2017-07-15T14:59:53Z</time>
      </trkpt>
      <trkpt lat="44.12143" lon="3.56432">
        <ele>1454.13</ele>
        <time>2017-07-15T14:59:55Z</time>
      </trkpt>
      <trkpt lat="44.12144" lon="3.56418">
        <ele>1455.09</ele>
        <time>2017-07-15T15:00:05Z</time>
      </trkpt>
      <trkpt lat="44.12145" lon="3.56414">
        <ele>1456.53</ele>
        <time>2017-07-15T15:00:08Z</time>
      </trkpt>
      <trkpt lat="44.12146" lon="3.56402">
        <ele>1455.57</ele>
        <time>2017-07-15T15:00:17Z</time>
      </trkpt>
      <trkpt lat="44.12146" lon="3.564">
        <ele>1457.02</ele>
        <time>2017-07-15T15:00:19Z</time>
      </trkpt>
      <trkpt lat="44.12146" lon="3.56398">
        <ele>1455.09</ele>
        <time>2017-07-15T15:00:21Z</time>
      </trkpt>
      <trkpt lat="44.12145" lon="3.56395">
        <ele>1457.02</ele>
        <time>2017-07-15T15:00:23Z</time>
      </trkpt>
      <trkpt lat="44.12144" lon="3.56391">
        <ele>1455.57</ele>
        <time>2017-07-15T15:00:27Z</time>
      </trkpt>
      <trkpt lat="44.12143" lon="3.56389">
        <ele>1457.5</ele>
        <time>2017-07-15T15:00:29Z</time>
      </trkpt>
      <trkpt lat="44.12142" lon="3.56386">
        <ele>1457.02</ele>
        <time>2017-07-15T15:00:47Z</time>
      </trkpt>
      <trkpt lat="44.12142" lon="3.56384">
        <ele>1455.57</ele>
        <time>2017-07-15T15:00:55Z</time>
      </trkpt>
      <trkpt lat="44.12142" lon="3.5638">
        <ele>1457.98</ele>
        <time>2017-07-15T15:00:57Z</time>
      </trkpt>
      <trkpt lat="44.12142" lon="3.56376">
        <ele>1456.53</ele>
        <time>2017-07-15T15:00:59Z</time>
      </trkpt>
      <trkpt lat="44.12144" lon="3.5637">
        <ele>1457.98</ele>
        <time>2017-07-15T15:01:02Z</time>
      </trkpt>
      <trkpt lat="44.12145" lon="3.56364">
        <ele>1456.05</ele>
        <time>2017-07-15T15:01:05Z</time>
      </trkpt>
      <trkpt lat="44.12146" lon="3.56359">
        <ele>1458.46</ele>
        <time>2017-07-15T15:01:08Z</time>
      </trkpt>
      <trkpt lat="44.12148" lon="3.56347">
        <ele>1457.02</ele>
        <time>2017-07-15T15:01:17Z</time>
      </trkpt>
      <trkpt lat="44.12148" lon="3.56345">
        <ele>1457.98</ele>
        <time>2017-07-15T15:01:18Z</time>
      </trkpt>
      <trkpt lat="44.12147" lon="3.56342">
        <ele>1457.98</ele>
        <time>2017-07-15T15:01:20Z</time>
      </trkpt>
      <trkpt lat="44.12147" lon="3.56335">
        <ele>1458.94</ele>
        <time>2017-07-15T15:01:25Z</time>
      </trkpt>
      <trkpt lat="44.12148" lon="3.56327">
        <ele>1457.5</ele>
        <time>2017-07-15T15:01:30Z</time>
      </trkpt>
      <trkpt lat="44.12148" lon="3.56324">
        <ele>1459.42</ele>
        <time>2017-07-15T15:01:32Z</time>
      </trkpt>
      <trkpt lat="44.12149" lon="3.5632">
        <ele>1457.02</ele>
        <time>2017-07-15T15:01:35Z</time>
      </trkpt>
      <trkpt lat="44.12149" lon="3.56318">
        <ele>1458.94</ele>
        <time>2017-07-15T15:01:37Z</time>
      </trkpt>
      <trkpt lat="44.12151" lon="3.56313">
        <ele>1457.5</ele>
        <time>2017-07-15T15:01:41Z</time>
      </trkpt>
      <trkpt lat="44.12151" lon="3.56311">
        <ele>1457.5</ele>
        <time>2017-07-15T15:01:42Z</time>
      </trkpt>
      <trkpt lat="44.1215" lon="3.56301">
        <ele>1458.94</ele>
        <time>2017-07-15T15:01:48Z</time>
      </trkpt>
      <trkpt lat="44.12152" lon="3.56283">
        <ele>1459.42</ele>
        <time>2017-07-15T15:02:02Z</time>
      </trkpt>
      <trkpt lat="44.12157" lon="3.56254">
        <ele>1460.38</ele>
        <time>2017-07-15T15:02:20Z</time>
      </trkpt>
      <trkpt lat="44.12158" lon="3.56252">
        <ele>1460.38</ele>
        <time>2017-07-15T15:02:21Z</time>
      </trkpt>
      <trkpt lat="44.12162" lon="3.5623">
        <ele>1460.38</ele>
        <time>2017-07-15T15:02:35Z</time>
      </trkpt>
      <trkpt lat="44.12162" lon="3.56227">
        <ele>1460.38</ele>
        <time>2017-07-15T15:02:37Z</time>
      </trkpt>
      <trkpt lat="44.12167" lon="3.56207">
        <ele>1460.38</ele>
        <time>2017-07-15T15:02:51Z</time>
      </trkpt>
      <trkpt lat="44.12175" lon="3.56185">
        <ele>1460.38</ele>
        <time>2017-07-15T15:03:06Z</time>
      </trkpt>
      <trkpt lat="44.12176" lon="3.56184">
        <ele>1460.38</ele>
        <time>2017-07-15T15:03:07Z</time>
      </trkpt>
      <trkpt lat="44.12177" lon="3.56183">
        <ele>1460.38</ele>
        <time>2017-07-15T15:03:08Z</time>
      </trkpt>
      <trkpt lat="44.12178" lon="3.56183">
        <ele>1460.38</ele>
        <time>2017-07-15T15:03:09Z</time>
      </trkpt>
      <trkpt lat="44.12179" lon="3.56182">
        <ele>1459.9</ele>
        <time>2017-07-15T15:03:10Z</time>
      </trkpt>
      <trkpt lat="44.12185" lon="3.5618">
        <ele>1459.42</ele>
        <time>2017-07-15T15:03:18Z</time>
      </trkpt>
      <trkpt lat="44.12187" lon="3.56181">
        <ele>1459.42</ele>
        <time>2017-07-15T15:03:20Z</time>
      </trkpt>
      <trkpt lat="44.122" lon="3.56185">
        <ele>1460.86</ele>
        <time>2017-07-15T15:03:35Z</time>
      </trkpt>
      <trkpt lat="44.12201" lon="3.56187">
        <ele>1462.3</ele>
        <time>2017-07-15T15:03:38Z</time>
      </trkpt>
      <trkpt lat="44.12208" lon="3.56193">
        <ele>1462.78</ele>
        <time>2017-07-15T15:03:48Z</time>
      </trkpt>
      <trkpt lat="44.12215" lon="3.56201">
        <ele>1463.74</ele>
        <time>2017-07-15T15:03:58Z</time>
      </trkpt>
      <trkpt lat="44.12222" lon="3.56207">
        <ele>1464.71</ele>
        <time>2017-07-15T15:04:08Z</time>
      </trkpt>
      <trkpt lat="44.1223" lon="3.56213">
        <ele>1465.67</ele>
        <time>2017-07-15T15:04:18Z</time>
      </trkpt>
      <trkpt lat="44.12231" lon="3.56214">
        <ele>1466.15</ele>
        <time>2017-07-15T15:04:22Z</time>
      </trkpt>
      <trkpt lat="44.12232" lon="3.56215">
        <ele>1466.15</ele>
        <time>2017-07-15T15:04:23Z</time>
      </trkpt>
      <trkpt lat="44.12239" lon="3.56219">
        <ele>1467.59</ele>
        <time>2017-07-15T15:04:33Z</time>
      </trkpt>
      <trkpt lat="44.12244" lon="3.56223">
        <ele>1468.55</ele>
        <time>2017-07-15T15:04:42Z</time>
      </trkpt>
      <trkpt lat="44.12245" lon="3.56224">
        <ele>1469.03</ele>
        <time>2017-07-15T15:04:43Z</time>
      </trkpt>
      <trkpt lat="44.12247" lon="3.56224">
        <ele>1469.03</ele>
        <time>2017-07-15T15:04:44Z</time>
      </trkpt>
      <trkpt lat="44.12249" lon="3.56224">
        <ele>1468.55</ele>
        <time>2017-07-15T15:04:47Z</time>
      </trkpt>
      <trkpt lat="44.1225" lon="3.56225">
        <ele>1469.03</ele>
        <time>2017-07-15T15:04:48Z</time>
      </trkpt>
      <trkpt lat="44.12251" lon="3.56226">
        <ele>1469.03</ele>
        <time>2017-07-15T15:04:49Z</time>
      </trkpt>
      <trkpt lat="44.12256" lon="3.56231">
        <ele>1470.47</ele>
        <time>2017-07-15T15:04:59Z</time>
      </trkpt>
      <trkpt lat="44.12261" lon="3.56235">
        <ele>1471.44</ele>
        <time>2017-07-15T15:05:08Z</time>
      </trkpt>
      <trkpt lat="44.12267" lon="3.56241">
        <ele>1472.88</ele>
        <time>2017-07-15T15:05:19Z</time>
      </trkpt>
      <trkpt lat="44.12272" lon="3.56247">
        <ele>1473.84</ele>
        <time>2017-07-15T15:05:29Z</time>
      </trkpt>
      <trkpt lat="44.12278" lon="3.56253">
        <ele>1475.28</ele>
        <time>2017-07-15T15:05:39Z</time>
      </trkpt>
      <trkpt lat="44.12278" lon="3.56254">
        <ele>1476.24</ele>
        <time>2017-07-15T15:05:41Z</time>
      </trkpt>
      <trkpt lat="44.12279" lon="3.56255">
        <ele>1476.24</ele>
        <time>2017-07-15T15:05:42Z</time>
      </trkpt>
      <trkpt lat="44.1228" lon="3.56256">
        <ele>1476.24</ele>
        <time>2017-07-15T15:05:43Z</time>
      </trkpt>
      <trkpt lat="44.12285" lon="3.5626">
        <ele>1477.68</ele>
        <time>2017-07-15T15:05:52Z</time>
      </trkpt>
      <trkpt lat="44.12286" lon="3.56263">
        <ele>1477.68</ele>
        <time>2017-07-15T15:05:54Z</time>
      </trkpt>
      <trkpt lat="44.12291" lon="3.56268">
        <ele>1478.65</ele>
        <time>2017-07-15T15:06:04Z</time>
      </trkpt>
      <trkpt lat="44.12297" lon="3.56277">
        <ele>1480.57</ele>
        <time>2017-07-15T15:06:14Z</time>
      </trkpt>
      <trkpt lat="44.12299" lon="3.5628">
        <ele>1480.57</ele>
        <time>2017-07-15T15:06:19Z</time>
      </trkpt>
      <trkpt lat="44.123" lon="3.56283">
        <ele>1481.05</ele>
        <time>2017-07-15T15:06:24Z</time>
      </trkpt>
      <trkpt lat="44.12301" lon="3.56285">
        <ele>1481.05</ele>
        <time>2017-07-15T15:06:25Z</time>
      </trkpt>
      <trkpt lat="44.12304" lon="3.56292">
        <ele>1483.45</ele>
        <time>2017-07-15T15:06:35Z</time>
      </trkpt>
      <trkpt lat="44.12307" lon="3.56297">
        <ele>1484.41</ele>
        <time>2017-07-15T15:06:41Z</time>
      </trkpt>
      <trkpt lat="44.12308" lon="3.56299">
        <ele>1484.41</ele>
        <time>2017-07-15T15:06:42Z</time>
      </trkpt>
      <trkpt lat="44.1231" lon="3.56304">
        <ele>1483.93</ele>
        <time>2017-07-15T15:06:52Z</time>
      </trkpt>
      <trkpt lat="44.12311" lon="3.56302">
        <ele>1483.93</ele>
        <time>2017-07-15T15:06:59Z</time>
      </trkpt>
      <trkpt lat="44.1231" lon="3.5631">
        <ele>1483.93</ele>
        <time>2017-07-15T15:07:06Z</time>
      </trkpt>
      <trkpt lat="44.1231" lon="3.56312">
        <ele>1483.93</ele>
        <time>2017-07-15T15:07:07Z</time>
      </trkpt>
      <trkpt lat="44.1231" lon="3.56324">
        <ele>1486.34</ele>
        <time>2017-07-15T15:07:17Z</time>
      </trkpt>
      <trkpt lat="44.12311" lon="3.56336">
        <ele>1487.3</ele>
        <time>2017-07-15T15:07:27Z</time>
      </trkpt>
      <trkpt lat="44.12313" lon="3.56343">
        <ele>1488.74</ele>
        <time>2017-07-15T15:07:34Z</time>
      </trkpt>
      <trkpt lat="44.12316" lon="3.56349">
        <ele>1489.7</ele>
        <time>2017-07-15T15:07:44Z</time>
      </trkpt>
      <trkpt lat="44.1232" lon="3.56359">
        <ele>1490.66</ele>
        <time>2017-07-15T15:07:54Z</time>
      </trkpt>
      <trkpt lat="44.12322" lon="3.56371">
        <ele>1491.62</ele>
        <time>2017-07-15T15:08:04Z</time>
      </trkpt>
      <trkpt lat="44.12325" lon="3.56375">
        <ele>1491.62</ele>
        <time>2017-07-15T15:08:08Z</time>
      </trkpt>
      <trkpt lat="44.12327" lon="3.5638">
        <ele>1492.1</ele>
        <time>2017-07-15T15:08:13Z</time>
      </trkpt>
      <trkpt lat="44.12327" lon="3.56382">
        <ele>1492.58</ele>
        <time>2017-07-15T15:08:14Z</time>
      </trkpt>
      <trkpt lat="44.12329" lon="3.56386">
        <ele>1492.58</ele>
        <time>2017-07-15T15:08:18Z</time>
      </trkpt>
      <trkpt lat="44.12337" lon="3.56393">
        <ele>1493.55</ele>
        <time>2017-07-15T15:08:27Z</time>
      </trkpt>
      <trkpt lat="44.12343" lon="3.56396">
        <ele>1494.99</ele>
        <time>2017-07-15T15:08:36Z</time>
      </trkpt>
      <trkpt lat="44.12344" lon="3.56397">
        <ele>1494.99</ele>
        <time>2017-07-15T15:08:37Z</time>
      </trkpt>
      <trkpt lat="44.12346" lon="3.564">
        <ele>1495.95</ele>
        <time>2017-07-15T15:08:41Z</time>
      </trkpt>
      <trkpt lat="44.12347" lon="3.56402">
        <ele>1495.95</ele>
        <time>2017-07-15T15:08:42Z</time>
      </trkpt>
      <trkpt lat="44.12349" lon="3.56415">
        <ele>1496.43</ele>
        <time>2017-07-15T15:08:53Z</time>
      </trkpt>
      <trkpt lat="44.12351" lon="3.5642">
        <ele>1496.91</ele>
        <time>2017-07-15T15:08:56Z</time>
      </trkpt>
      <trkpt lat="44.12352" lon="3.56431">
        <ele>1498.35</ele>
        <time>2017-07-15T15:09:06Z</time>
      </trkpt>
      <trkpt lat="44.12352" lon="3.56443">
        <ele>1499.79</ele>
        <time>2017-07-15T15:09:16Z</time>
      </trkpt>
      <trkpt lat="44.12349" lon="3.56457">
        <ele>1500.27</ele>
        <time>2017-07-15T15:09:26Z</time>
      </trkpt>
      <trkpt lat="44.12347" lon="3.56469">
        <ele>1500.27</ele>
        <time>2017-07-15T15:09:36Z</time>
      </trkpt>
      <trkpt lat="44.12347" lon="3.56484">
        <ele>1500.76</ele>
        <time>2017-07-15T15:09:45Z</time>
      </trkpt>
      <trkpt lat="44.12347" lon="3.56488">
        <ele>1501.24</ele>
        <time>2017-07-15T15:09:49Z</time>
      </trkpt>
      <trkpt lat="44.12348" lon="3.5649">
        <ele>1501.24</ele>
        <time>2017-07-15T15:09:50Z</time>
      </trkpt>
      <trkpt lat="44.12348" lon="3.56492">
        <ele>1501.24</ele>
        <time>2017-07-15T15:09:51Z</time>
      </trkpt>
      <trkpt lat="44.12348" lon="3.56495">
        <ele>1501.24</ele>
        <time>2017-07-15T15:09:54Z</time>
      </trkpt>
      <trkpt lat="44.12349" lon="3.56497">
        <ele>1501.24</ele>
        <time>2017-07-15T15:09:55Z</time>
      </trkpt>
      <trkpt lat="44.12348" lon="3.56517">
        <ele>1503.16</ele>
        <time>2017-07-15T15:10:10Z</time>
      </trkpt>
      <trkpt lat="44.12346" lon="3.56528">
        <ele>1503.16</ele>
        <time>2017-07-15T15:10:23Z</time>
      </trkpt>
      <trkpt lat="44.12347" lon="3.5653">
        <ele>1502.2</ele>
        <time>2017-07-15T15:10:31Z</time>
      </trkpt>
      <trkpt lat="44.12347" lon="3.56532">
        <ele>1502.2</ele>
        <time>2017-07-15T15:10:34Z</time>
      </trkpt>
      <trkpt lat="44.12346" lon="3.56535">
        <ele>1505.08</ele>
        <time>2017-07-15T15:10:37Z</time>
      </trkpt>
      <trkpt lat="44.12345" lon="3.56543">
        <ele>1506.04</ele>
        <time>2017-07-15T15:10:43Z</time>
      </trkpt>
      <trkpt lat="44.12345" lon="3.56544">
        <ele>1506.04</ele>
        <time>2017-07-15T15:10:44Z</time>
      </trkpt>
      <trkpt lat="44.12345" lon="3.56546">
        <ele>1506.04</ele>
        <time>2017-07-15T15:10:45Z</time>
      </trkpt>
      <trkpt lat="44.12344" lon="3.56549">
        <ele>1504.6</ele>
        <time>2017-07-15T15:10:47Z</time>
      </trkpt>
      <trkpt lat="44.12343" lon="3.56551">
        <ele>1504.6</ele>
        <time>2017-07-15T15:10:49Z</time>
      </trkpt>
      <trkpt lat="44.12343" lon="3.56553">
        <ele>1504.6</ele>
        <time>2017-07-15T15:10:50Z</time>
      </trkpt>
      <trkpt lat="44.12343" lon="3.56559">
        <ele>1504.6</ele>
        <time>2017-07-15T15:10:55Z</time>
      </trkpt>
      <trkpt lat="44.12342" lon="3.56564">
        <ele>1504.6</ele>
        <time>2017-07-15T15:10:59Z</time>
      </trkpt>
      <trkpt lat="44.12342" lon="3.5657">
        <ele>1506.04</ele>
        <time>2017-07-15T15:11:03Z</time>
      </trkpt>
      <trkpt lat="44.1234" lon="3.56585">
        <ele>1507</ele>
        <time>2017-07-15T15:11:14Z</time>
      </trkpt>
      <trkpt lat="44.12338" lon="3.56597">
        <ele>1507.97</ele>
        <time>2017-07-15T15:11:25Z</time>
      </trkpt>
      <trkpt lat="44.12335" lon="3.56607">
        <ele>1508.93</ele>
        <time>2017-07-15T15:11:34Z</time>
      </trkpt>
      <trkpt lat="44.12335" lon="3.56609">
        <ele>1509.41</ele>
        <time>2017-07-15T15:11:35Z</time>
      </trkpt>
      <trkpt lat="44.12334" lon="3.56612">
        <ele>1509.41</ele>
        <time>2017-07-15T15:11:38Z</time>
      </trkpt>
      <trkpt lat="44.12334" lon="3.56614">
        <ele>1509.41</ele>
        <time>2017-07-15T15:11:39Z</time>
      </trkpt>
      <trkpt lat="44.12333" lon="3.56616">
        <ele>1509.41</ele>
        <time>2017-07-15T15:11:40Z</time>
      </trkpt>
      <trkpt lat="44.1233" lon="3.56625">
        <ele>1510.37</ele>
        <time>2017-07-15T15:11:49Z</time>
      </trkpt>
      <trkpt lat="44.12325" lon="3.56637">
        <ele>1512.29</ele>
        <time>2017-07-15T15:11:59Z</time>
      </trkpt>
      <trkpt lat="44.12325" lon="3.56638">
        <ele>1510.85</ele>
        <time>2017-07-15T15:12:03Z</time>
      </trkpt>
      <trkpt lat="44.12324" lon="3.56639">
        <ele>1511.81</ele>
        <time>2017-07-15T15:12:07Z</time>
      </trkpt>
      <trkpt lat="44.12325" lon="3.5664">
        <ele>1511.33</ele>
        <time>2017-07-15T15:12:14Z</time>
      </trkpt>
      <trkpt lat="44.12319" lon="3.56653">
        <ele>1512.29</ele>
        <time>2017-07-15T15:12:24Z</time>
      </trkpt>
      <trkpt lat="44.12319" lon="3.56654">
        <ele>1512.29</ele>
        <time>2017-07-15T15:12:26Z</time>
      </trkpt>
      <trkpt lat="44.12318" lon="3.56656">
        <ele>1512.29</ele>
        <time>2017-07-15T15:12:27Z</time>
      </trkpt>
      <trkpt lat="44.12317" lon="3.56657">
        <ele>1512.29</ele>
        <time>2017-07-15T15:12:28Z</time>
      </trkpt>
      <trkpt lat="44.12313" lon="3.56666">
        <ele>1515.18</ele>
        <time>2017-07-15T15:12:37Z</time>
      </trkpt>
      <trkpt lat="44.12313" lon="3.56668">
        <ele>1515.18</ele>
        <time>2017-07-15T15:12:38Z</time>
      </trkpt>
      <trkpt lat="44.12312" lon="3.5667">
        <ele>1515.18</ele>
        <time>2017-07-15T15:12:39Z</time>
      </trkpt>
      <trkpt lat="44.12307" lon="3.56681">
        <ele>1515.66</ele>
        <time>2017-07-15T15:12:50Z</time>
      </trkpt>
      <trkpt lat="44.12305" lon="3.56684">
        <ele>1516.14</ele>
        <time>2017-07-15T15:12:53Z</time>
      </trkpt>
      <trkpt lat="44.12302" lon="3.56686">
        <ele>1516.62</ele>
        <time>2017-07-15T15:12:58Z</time>
      </trkpt>
      <trkpt lat="44.12301" lon="3.56688">
        <ele>1516.62</ele>
        <time>2017-07-15T15:12:59Z</time>
      </trkpt>
      <trkpt lat="44.12295" lon="3.56695">
        <ele>1518.54</ele>
        <time>2017-07-15T15:13:09Z</time>
      </trkpt>
      <trkpt lat="44.12293" lon="3.56698">
        <ele>1519.02</ele>
        <time>2017-07-15T15:13:11Z</time>
      </trkpt>
      <trkpt lat="44.1229" lon="3.56705">
        <ele>1519.5</ele>
        <time>2017-07-15T15:13:17Z</time>
      </trkpt>
      <trkpt lat="44.12287" lon="3.56719">
        <ele>1520.46</ele>
        <time>2017-07-15T15:13:26Z</time>
      </trkpt>
      <trkpt lat="44.12284" lon="3.56729">
        <ele>1520.94</ele>
        <time>2017-07-15T15:13:34Z</time>
      </trkpt>
      <trkpt lat="44.12283" lon="3.5673">
        <ele>1520.94</ele>
        <time>2017-07-15T15:13:35Z</time>
      </trkpt>
      <trkpt lat="44.12282" lon="3.56735">
        <ele>1521.9</ele>
        <time>2017-07-15T15:13:39Z</time>
      </trkpt>
      <trkpt lat="44.12282" lon="3.56737">
        <ele>1522.39</ele>
        <time>2017-07-15T15:13:40Z</time>
      </trkpt>
      <trkpt lat="44.12282" lon="3.56741">
        <ele>1522.39</ele>
        <time>2017-07-15T15:13:44Z</time>
      </trkpt>
      <trkpt lat="44.12281" lon="3.56747">
        <ele>1523.35</ele>
        <time>2017-07-15T15:13:49Z</time>
      </trkpt>
      <trkpt lat="44.12281" lon="3.56749">
        <ele>1523.35</ele>
        <time>2017-07-15T15:13:50Z</time>
      </trkpt>
      <trkpt lat="44.1228" lon="3.56752">
        <ele>1523.83</ele>
        <time>2017-07-15T15:13:54Z</time>
      </trkpt>
      <trkpt lat="44.1228" lon="3.56754">
        <ele>1523.83</ele>
        <time>2017-07-15T15:13:55Z</time>
      </trkpt>
      <trkpt lat="44.1228" lon="3.56755">
        <ele>1523.83</ele>
        <time>2017-07-15T15:13:56Z</time>
      </trkpt>
      <trkpt lat="44.12277" lon="3.5676">
        <ele>1524.31</ele>
        <time>2017-07-15T15:14:01Z</time>
      </trkpt>
      <trkpt lat="44.12276" lon="3.56762">
        <ele>1524.79</ele>
        <time>2017-07-15T15:14:02Z</time>
      </trkpt>
      <trkpt lat="44.12276" lon="3.56763">
        <ele>1525.27</ele>
        <time>2017-07-15T15:14:03Z</time>
      </trkpt>
      <trkpt lat="44.12274" lon="3.56767">
        <ele>1526.23</ele>
        <time>2017-07-15T15:14:07Z</time>
      </trkpt>
      <trkpt lat="44.12272" lon="3.56769">
        <ele>1526.23</ele>
        <time>2017-07-15T15:14:08Z</time>
      </trkpt>
      <trkpt lat="44.12272" lon="3.56771">
        <ele>1526.71</ele>
        <time>2017-07-15T15:14:09Z</time>
      </trkpt>
      <trkpt lat="44.1227" lon="3.56781">
        <ele>1527.19</ele>
        <time>2017-07-15T15:14:18Z</time>
      </trkpt>
      <trkpt lat="44.12269" lon="3.56782">
        <ele>1527.19</ele>
        <time>2017-07-15T15:14:19Z</time>
      </trkpt>
      <trkpt lat="44.12269" lon="3.56784">
        <ele>1527.19</ele>
        <time>2017-07-15T15:14:20Z</time>
      </trkpt>
      <trkpt lat="44.12268" lon="3.56786">
        <ele>1527.19</ele>
        <time>2017-07-15T15:14:21Z</time>
      </trkpt>
      <trkpt lat="44.12266" lon="3.56789">
        <ele>1527.19</ele>
        <time>2017-07-15T15:14:25Z</time>
      </trkpt>
      <trkpt lat="44.12265" lon="3.56793">
        <ele>1527.67</ele>
        <time>2017-07-15T15:14:39Z</time>
      </trkpt>
      <trkpt lat="44.12265" lon="3.56795">
        <ele>1527.67</ele>
        <time>2017-07-15T15:14:46Z</time>
      </trkpt>
      <trkpt lat="44.12264" lon="3.568">
        <ele>1527.67</ele>
        <time>2017-07-15T15:14:50Z</time>
      </trkpt>
      <trkpt lat="44.12263" lon="3.56804">
        <ele>1527.67</ele>
        <time>2017-07-15T15:14:54Z</time>
      </trkpt>
      <trkpt lat="44.12263" lon="3.56806">
        <ele>1528.15</ele>
        <time>2017-07-15T15:14:55Z</time>
      </trkpt>
      <trkpt lat="44.12262" lon="3.5681">
        <ele>1529.11</ele>
        <time>2017-07-15T15:15:00Z</time>
      </trkpt>
      <trkpt lat="44.12261" lon="3.56811">
        <ele>1529.11</ele>
        <time>2017-07-15T15:15:01Z</time>
      </trkpt>
      <trkpt lat="44.1226" lon="3.56816">
        <ele>1529.11</ele>
        <time>2017-07-15T15:15:05Z</time>
      </trkpt>
      <trkpt lat="44.12257" lon="3.56824">
        <ele>1530.56</ele>
        <time>2017-07-15T15:15:14Z</time>
      </trkpt>
      <trkpt lat="44.12257" lon="3.56826">
        <ele>1531.04</ele>
        <time>2017-07-15T15:15:15Z</time>
      </trkpt>
      <trkpt lat="44.12255" lon="3.56833">
        <ele>1530.08</ele>
        <time>2017-07-15T15:15:20Z</time>
      </trkpt>
      <trkpt lat="44.12254" lon="3.5684">
        <ele>1530.08</ele>
        <time>2017-07-15T15:15:35Z</time>
      </trkpt>
      <trkpt lat="44.12253" lon="3.5685">
        <ele>1531.04</ele>
        <time>2017-07-15T15:15:44Z</time>
      </trkpt>
      <trkpt lat="44.12251" lon="3.56858">
        <ele>1532.48</ele>
        <time>2017-07-15T15:15:51Z</time>
      </trkpt>
      <trkpt lat="44.1225" lon="3.56873">
        <ele>1532.96</ele>
        <time>2017-07-15T15:16:02Z</time>
      </trkpt>
      <trkpt lat="44.12248" lon="3.56888">
        <ele>1534.88</ele>
        <time>2017-07-15T15:16:13Z</time>
      </trkpt>
      <trkpt lat="44.12248" lon="3.56894">
        <ele>1534.88</ele>
        <time>2017-07-15T15:16:18Z</time>
      </trkpt>
      <trkpt lat="44.12247" lon="3.56907">
        <ele>1533.44</ele>
        <time>2017-07-15T15:16:28Z</time>
      </trkpt>
      <trkpt lat="44.12246" lon="3.56921">
        <ele>1535.36</ele>
        <time>2017-07-15T15:16:39Z</time>
      </trkpt>
      <trkpt lat="44.12244" lon="3.56936">
        <ele>1536.8</ele>
        <time>2017-07-15T15:16:51Z</time>
      </trkpt>
      <trkpt lat="44.12243" lon="3.56942">
        <ele>1536.8</ele>
        <time>2017-07-15T15:16:56Z</time>
      </trkpt>
      <trkpt lat="44.12241" lon="3.56956">
        <ele>1538.73</ele>
        <time>2017-07-15T15:17:07Z</time>
      </trkpt>
      <trkpt lat="44.12241" lon="3.56962">
        <ele>1539.21</ele>
        <time>2017-07-15T15:17:11Z</time>
      </trkpt>
      <trkpt lat="44.12241" lon="3.56967">
        <ele>1539.69</ele>
        <time>2017-07-15T15:17:15Z</time>
      </trkpt>
      <trkpt lat="44.12237" lon="3.56981">
        <ele>1538.73</ele>
        <time>2017-07-15T15:17:27Z</time>
      </trkpt>
      <trkpt lat="44.12237" lon="3.56981">
        <ele>1538.73</ele>
        <time>2017-07-15T15:17:28Z</time>
      </trkpt>
      <trkpt lat="44.12237" lon="3.5698">
        <ele>1540.17</ele>
        <time>2017-07-15T15:17:29Z</time>
      </trkpt>
      <trkpt lat="44.12237" lon="3.5698">
        <ele>1540.17</ele>
        <time>2017-07-15T15:17:30Z</time>
      </trkpt>
      <trkpt lat="44.12235" lon="3.56982">
        <ele>1541.13</ele>
        <time>2017-07-15T15:17:33Z</time>
      </trkpt>
      <trkpt lat="44.12235" lon="3.56984">
        <ele>1541.13</ele>
        <time>2017-07-15T15:17:34Z</time>
      </trkpt>
      <trkpt lat="44.12235" lon="3.56986">
        <ele>1541.13</ele>
        <time>2017-07-15T15:17:35Z</time>
      </trkpt>
      <trkpt lat="44.12229" lon="3.57001">
        <ele>1541.13</ele>
        <time>2017-07-15T15:17:47Z</time>
      </trkpt>
      <trkpt lat="44.12224" lon="3.57015">
        <ele>1542.09</ele>
        <time>2017-07-15T15:18:00Z</time>
      </trkpt>
      <trkpt lat="44.12218" lon="3.57037">
        <ele>1543.05</ele>
        <time>2017-07-15T15:18:16Z</time>
      </trkpt>
      <trkpt lat="44.12217" lon="3.57039">
        <ele>1543.05</ele>
        <time>2017-07-15T15:18:17Z</time>
      </trkpt>
      <trkpt lat="44.12216" lon="3.57042">
        <ele>1542.09</ele>
        <time>2017-07-15T15:18:21Z</time>
      </trkpt>
      <trkpt lat="44.12215" lon="3.57045">
        <ele>1542.09</ele>
        <time>2017-07-15T15:18:25Z</time>
      </trkpt>
      <trkpt lat="44.12214" lon="3.57047">
        <ele>1542.09</ele>
        <time>2017-07-15T15:18:26Z</time>
      </trkpt>
      <trkpt lat="44.12214" lon="3.57049">
        <ele>1543.53</ele>
        <time>2017-07-15T15:18:28Z</time>
      </trkpt>
      <trkpt lat="44.12214" lon="3.5705">
        <ele>1543.53</ele>
        <time>2017-07-15T15:18:29Z</time>
      </trkpt>
      <trkpt lat="44.12213" lon="3.57053">
        <ele>1543.53</ele>
        <time>2017-07-15T15:18:31Z</time>
      </trkpt>
      <trkpt lat="44.12207" lon="3.57072">
        <ele>1543.53</ele>
        <time>2017-07-15T15:18:43Z</time>
      </trkpt>
      <trkpt lat="44.12203" lon="3.57084">
        <ele>1543.53</ele>
        <time>2017-07-15T15:18:56Z</time>
      </trkpt>
      <trkpt lat="44.12197" lon="3.57103">
        <ele>1544.01</ele>
        <time>2017-07-15T15:19:12Z</time>
      </trkpt>
      <trkpt lat="44.12197" lon="3.57104">
        <ele>1544.01</ele>
        <time>2017-07-15T15:19:13Z</time>
      </trkpt>
      <trkpt lat="44.12192" lon="3.57126">
        <ele>1545.46</ele>
        <time>2017-07-15T15:19:26Z</time>
      </trkpt>
      <trkpt lat="44.12184" lon="3.57152">
        <ele>1543.53</ele>
        <time>2017-07-15T15:19:43Z</time>
      </trkpt>
      <trkpt lat="44.1218" lon="3.5717">
        <ele>1543.53</ele>
        <time>2017-07-15T15:19:56Z</time>
      </trkpt>
      <trkpt lat="44.12175" lon="3.57193">
        <ele>1544.98</ele>
        <time>2017-07-15T15:20:10Z</time>
      </trkpt>
      <trkpt lat="44.12175" lon="3.57195">
        <ele>1544.98</ele>
        <time>2017-07-15T15:20:11Z</time>
      </trkpt>
      <trkpt lat="44.1217" lon="3.57216">
        <ele>1545.46</ele>
        <time>2017-07-15T15:20:25Z</time>
      </trkpt>
      <trkpt lat="44.1217" lon="3.57217">
        <ele>1545.46</ele>
        <time>2017-07-15T15:20:26Z</time>
      </trkpt>
      <trkpt lat="44.12169" lon="3.57219">
        <ele>1545.46</ele>
        <time>2017-07-15T15:20:27Z</time>
      </trkpt>
      <trkpt lat="44.12169" lon="3.5722">
        <ele>1545.46</ele>
        <time>2017-07-15T15:20:28Z</time>
      </trkpt>
      <trkpt lat="44.12165" lon="3.57237">
        <ele>1546.42</ele>
        <time>2017-07-15T15:20:40Z</time>
      </trkpt>
      <trkpt lat="44.12165" lon="3.57239">
        <ele>1546.42</ele>
        <time>2017-07-15T15:20:41Z</time>
      </trkpt>
      <trkpt lat="44.12164" lon="3.57241">
        <ele>1546.42</ele>
        <time>2017-07-15T15:20:42Z</time>
      </trkpt>
      <trkpt lat="44.12164" lon="3.57243">
        <ele>1546.42</ele>
        <time>2017-07-15T15:20:43Z</time>
      </trkpt>
      <trkpt lat="44.12163" lon="3.57245">
        <ele>1546.42</ele>
        <time>2017-07-15T15:20:44Z</time>
      </trkpt>
      <trkpt lat="44.1216" lon="3.5726">
        <ele>1548.82</ele>
        <time>2017-07-15T15:20:54Z</time>
      </trkpt>
      <trkpt lat="44.12158" lon="3.57284">
        <ele>1549.3</ele>
        <time>2017-07-15T15:21:09Z</time>
      </trkpt>
      <trkpt lat="44.12157" lon="3.57304">
        <ele>1549.78</ele>
        <time>2017-07-15T15:21:22Z</time>
      </trkpt>
      <trkpt lat="44.12157" lon="3.5731">
        <ele>1550.26</ele>
        <time>2017-07-15T15:21:25Z</time>
      </trkpt>
      <trkpt lat="44.12157" lon="3.57312">
        <ele>1550.26</ele>
        <time>2017-07-15T15:21:26Z</time>
      </trkpt>
      <trkpt lat="44.12156" lon="3.57327">
        <ele>1549.78</ele>
        <time>2017-07-15T15:21:37Z</time>
      </trkpt>
      <trkpt lat="44.12156" lon="3.57329">
        <ele>1549.78</ele>
        <time>2017-07-15T15:21:38Z</time>
      </trkpt>
      <trkpt lat="44.12155" lon="3.57339">
        <ele>1551.71</ele>
        <time>2017-07-15T15:21:45Z</time>
      </trkpt>
      <trkpt lat="44.12155" lon="3.5736">
        <ele>1551.71</ele>
        <time>2017-07-15T15:21:57Z</time>
      </trkpt>
      <trkpt lat="44.12154" lon="3.57383">
        <ele>1550.74</ele>
        <time>2017-07-15T15:22:12Z</time>
      </trkpt>
      <trkpt lat="44.12155" lon="3.57397">
        <ele>1552.19</ele>
        <time>2017-07-15T15:22:22Z</time>
      </trkpt>
      <trkpt lat="44.12155" lon="3.57402">
        <ele>1552.19</ele>
        <time>2017-07-15T15:22:26Z</time>
      </trkpt>
      <trkpt lat="44.12154" lon="3.57404">
        <ele>1552.19</ele>
        <time>2017-07-15T15:22:27Z</time>
      </trkpt>
      <trkpt lat="44.12154" lon="3.57406">
        <ele>1552.19</ele>
        <time>2017-07-15T15:22:28Z</time>
      </trkpt>
      <trkpt lat="44.12155" lon="3.57407">
        <ele>1552.19</ele>
        <time>2017-07-15T15:22:29Z</time>
      </trkpt>
      <trkpt lat="44.12155" lon="3.57413">
        <ele>1551.71</ele>
        <time>2017-07-15T15:22:34Z</time>
      </trkpt>
      <trkpt lat="44.12155" lon="3.57416">
        <ele>1551.71</ele>
        <time>2017-07-15T15:22:35Z</time>
      </trkpt>
      <trkpt lat="44.12155" lon="3.57422">
        <ele>1550.74</ele>
        <time>2017-07-15T15:22:38Z</time>
      </trkpt>
      <trkpt lat="44.12156" lon="3.57425">
        <ele>1552.19</ele>
        <time>2017-07-15T15:22:45Z</time>
      </trkpt>
      <trkpt lat="44.12156" lon="3.57428">
        <ele>1550.74</ele>
        <time>2017-07-15T15:22:54Z</time>
      </trkpt>
      <trkpt lat="44.12156" lon="3.57438">
        <ele>1551.22</ele>
        <time>2017-07-15T15:23:01Z</time>
      </trkpt>
      <trkpt lat="44.12155" lon="3.57455">
        <ele>1552.67</ele>
        <time>2017-07-15T15:23:13Z</time>
      </trkpt>
      <trkpt lat="44.12156" lon="3.57471">
        <ele>1551.22</ele>
        <time>2017-07-15T15:23:23Z</time>
      </trkpt>
      <trkpt lat="44.12157" lon="3.5749">
        <ele>1550.74</ele>
        <time>2017-07-15T15:23:36Z</time>
      </trkpt>
      <trkpt lat="44.12155" lon="3.57511">
        <ele>1553.15</ele>
        <time>2017-07-15T15:23:49Z</time>
      </trkpt>
      <trkpt lat="44.12155" lon="3.57528">
        <ele>1553.63</ele>
        <time>2017-07-15T15:24:01Z</time>
      </trkpt>
      <trkpt lat="44.12155" lon="3.57536">
        <ele>1554.59</ele>
        <time>2017-07-15T15:24:05Z</time>
      </trkpt>
      <trkpt lat="44.12154" lon="3.57541">
        <ele>1555.55</ele>
        <time>2017-07-15T15:24:09Z</time>
      </trkpt>
      <trkpt lat="44.12154" lon="3.57543">
        <ele>1555.55</ele>
        <time>2017-07-15T15:24:10Z</time>
      </trkpt>
      <trkpt lat="44.12154" lon="3.57544">
        <ele>1554.11</ele>
        <time>2017-07-15T15:24:11Z</time>
      </trkpt>
      <trkpt lat="44.12154" lon="3.57545">
        <ele>1554.11</ele>
        <time>2017-07-15T15:24:12Z</time>
      </trkpt>
      <trkpt lat="44.12154" lon="3.57548">
        <ele>1554.11</ele>
        <time>2017-07-15T15:24:14Z</time>
      </trkpt>
      <trkpt lat="44.12154" lon="3.57551">
        <ele>1555.07</ele>
        <time>2017-07-15T15:24:17Z</time>
      </trkpt>
      <trkpt lat="44.12155" lon="3.57553">
        <ele>1556.51</ele>
        <time>2017-07-15T15:24:20Z</time>
      </trkpt>
      <trkpt lat="44.12155" lon="3.57555">
        <ele>1557.95</ele>
        <time>2017-07-15T15:24:32Z</time>
      </trkpt>
      <trkpt lat="44.12156" lon="3.57557">
        <ele>1556.51</ele>
        <time>2017-07-15T15:24:33Z</time>
      </trkpt>
      <trkpt lat="44.12156" lon="3.57558">
        <ele>1556.51</ele>
        <time>2017-07-15T15:24:34Z</time>
      </trkpt>
      <trkpt lat="44.1215" lon="3.57567">
        <ele>1555.07</ele>
        <time>2017-07-15T15:24:44Z</time>
      </trkpt>
      <trkpt lat="44.12146" lon="3.57571">
        <ele>1554.59</ele>
        <time>2017-07-15T15:24:51Z</time>
      </trkpt>
      <trkpt lat="44.12146" lon="3.57572">
        <ele>1556.51</ele>
        <time>2017-07-15T15:24:56Z</time>
      </trkpt>
      <trkpt lat="44.12143" lon="3.57572">
        <ele>1555.55</ele>
        <time>2017-07-15T15:25:09Z</time>
      </trkpt>
      <trkpt lat="44.12137" lon="3.57574">
        <ele>1556.03</ele>
        <time>2017-07-15T15:25:20Z</time>
      </trkpt>
      <trkpt lat="44.12135" lon="3.57574">
        <ele>1556.51</ele>
        <time>2017-07-15T15:25:38Z</time>
      </trkpt>
      <trkpt lat="44.12133" lon="3.57576">
        <ele>1556.99</ele>
        <time>2017-07-15T15:25:45Z</time>
      </trkpt>
      <trkpt lat="44.12132" lon="3.57578">
        <ele>1556.99</ele>
        <time>2017-07-15T15:25:46Z</time>
      </trkpt>
      <trkpt lat="44.12131" lon="3.57582">
        <ele>1555.07</ele>
        <time>2017-07-15T15:25:50Z</time>
      </trkpt>
      <trkpt lat="44.12129" lon="3.57589">
        <ele>1555.07</ele>
        <time>2017-07-15T15:25:58Z</time>
      </trkpt>
      <trkpt lat="44.12125" lon="3.57599">
        <ele>1556.51</ele>
        <time>2017-07-15T15:26:06Z</time>
      </trkpt>
      <trkpt lat="44.12125" lon="3.576">
        <ele>1556.51</ele>
        <time>2017-07-15T15:26:07Z</time>
      </trkpt>
      <trkpt lat="44.12123" lon="3.57609">
        <ele>1556.99</ele>
        <time>2017-07-15T15:26:13Z</time>
      </trkpt>
      <trkpt lat="44.1212" lon="3.57631">
        <ele>1555.55</ele>
        <time>2017-07-15T15:26:27Z</time>
      </trkpt>
      <trkpt lat="44.1212" lon="3.57633">
        <ele>1555.55</ele>
        <time>2017-07-15T15:26:28Z</time>
      </trkpt>
      <trkpt lat="44.1212" lon="3.57636">
        <ele>1557.47</ele>
        <time>2017-07-15T15:26:31Z</time>
      </trkpt>
      <trkpt lat="44.12119" lon="3.5765">
        <ele>1556.03</ele>
        <time>2017-07-15T15:26:41Z</time>
      </trkpt>
      <trkpt lat="44.12119" lon="3.57653">
        <ele>1558.92</ele>
        <time>2017-07-15T15:26:43Z</time>
      </trkpt>
      <trkpt lat="44.12118" lon="3.57661">
        <ele>1559.4</ele>
        <time>2017-07-15T15:26:49Z</time>
      </trkpt>
      <trkpt lat="44.12118" lon="3.57668">
        <ele>1557.95</ele>
        <time>2017-07-15T15:26:54Z</time>
      </trkpt>
      <trkpt lat="44.12118" lon="3.57669">
        <ele>1557.95</ele>
        <time>2017-07-15T15:26:55Z</time>
      </trkpt>
      <trkpt lat="44.12117" lon="3.57674">
        <ele>1560.84</ele>
        <time>2017-07-15T15:26:58Z</time>
      </trkpt>
      <trkpt lat="44.12117" lon="3.57677">
        <ele>1558.43</ele>
        <time>2017-07-15T15:27:00Z</time>
      </trkpt>
      <trkpt lat="44.12116" lon="3.5768">
        <ele>1555.07</ele>
        <time>2017-07-15T15:27:02Z</time>
      </trkpt>
      <trkpt lat="44.12116" lon="3.57682">
        <ele>1559.88</ele>
        <time>2017-07-15T15:27:03Z</time>
      </trkpt>
      <trkpt lat="44.12115" lon="3.57684">
        <ele>1559.4</ele>
        <time>2017-07-15T15:27:04Z</time>
      </trkpt>
      <trkpt lat="44.12115" lon="3.57686">
        <ele>1557.95</ele>
        <time>2017-07-15T15:27:05Z</time>
      </trkpt>
      <trkpt lat="44.12114" lon="3.57693">
        <ele>1560.84</ele>
        <time>2017-07-15T15:27:10Z</time>
      </trkpt>
      <trkpt lat="44.12113" lon="3.57699">
        <ele>1560.84</ele>
        <time>2017-07-15T15:27:14Z</time>
      </trkpt>
      <trkpt lat="44.12112" lon="3.57701">
        <ele>1558.92</ele>
        <time>2017-07-15T15:27:16Z</time>
      </trkpt>
      <trkpt lat="44.12105" lon="3.57717">
        <ele>1559.88</ele>
        <time>2017-07-15T15:27:28Z</time>
      </trkpt>
      <trkpt lat="44.12105" lon="3.57719">
        <ele>1558.43</ele>
        <time>2017-07-15T15:27:30Z</time>
      </trkpt>
      <trkpt lat="44.12101" lon="3.57734">
        <ele>1560.36</ele>
        <time>2017-07-15T15:27:42Z</time>
      </trkpt>
      <trkpt lat="44.12099" lon="3.57742">
        <ele>1563.24</ele>
        <time>2017-07-15T15:27:47Z</time>
      </trkpt>
      <trkpt lat="44.12099" lon="3.57752">
        <ele>1560.36</ele>
        <time>2017-07-15T15:27:55Z</time>
      </trkpt>
      <trkpt lat="44.12098" lon="3.57753">
        <ele>1559.4</ele>
        <time>2017-07-15T15:27:59Z</time>
      </trkpt>
      <trkpt lat="44.12098" lon="3.57754">
        <ele>1558.43</ele>
        <time>2017-07-15T15:28:05Z</time>
      </trkpt>
      <trkpt lat="44.12098" lon="3.57753">
        <ele>1560.36</ele>
        <time>2017-07-15T15:28:11Z</time>
      </trkpt>
      <trkpt lat="44.12098" lon="3.57756">
        <ele>1559.88</ele>
        <time>2017-07-15T15:28:15Z</time>
      </trkpt>
      <trkpt lat="44.12096" lon="3.57763">
        <ele>1558.43</ele>
        <time>2017-07-15T15:28:20Z</time>
      </trkpt>
      <trkpt lat="44.12096" lon="3.57772">
        <ele>1560.36</ele>
        <time>2017-07-15T15:28:27Z</time>
      </trkpt>
      <trkpt lat="44.12097" lon="3.57778">
        <ele>1560.84</ele>
        <time>2017-07-15T15:28:31Z</time>
      </trkpt>
      <trkpt lat="44.12098" lon="3.57786">
        <ele>1559.4</ele>
        <time>2017-07-15T15:28:48Z</time>
      </trkpt>
      <trkpt lat="44.12098" lon="3.57787">
        <ele>1560.84</ele>
        <time>2017-07-15T15:29:11Z</time>
      </trkpt>
      <trkpt lat="44.12098" lon="3.57788">
        <ele>1559.88</ele>
        <time>2017-07-15T15:29:27Z</time>
      </trkpt>
      <trkpt lat="44.12098" lon="3.57788">
        <ele>1559.88</ele>
        <time>2017-07-15T15:29:28Z</time>
      </trkpt>
      <trkpt lat="44.121" lon="3.57788">
        <ele>1559.4</ele>
        <time>2017-07-15T15:29:44Z</time>
      </trkpt>
      <trkpt lat="44.121" lon="3.57787">
        <ele>1559.4</ele>
        <time>2017-07-15T15:30:01Z</time>
      </trkpt>
      <trkpt lat="44.121" lon="3.57787">
        <ele>1559.88</ele>
        <time>2017-07-15T15:30:12Z</time>
      </trkpt>
      <trkpt lat="44.121" lon="3.57787">
        <ele>1559.88</ele>
        <time>2017-07-15T15:30:53Z</time>
      </trkpt>
      <trkpt lat="44.12099" lon="3.57786">
        <ele>1560.84</ele>
        <time>2017-07-15T15:31:42Z</time>
      </trkpt>
      <trkpt lat="44.12099" lon="3.57787">
        <ele>1559.4</ele>
        <time>2017-07-15T15:32:21Z</time>
      </trkpt>
      <trkpt lat="44.12099" lon="3.57787">
        <ele>1559.4</ele>
        <time>2017-07-15T15:32:56Z</time>
      </trkpt>
      <trkpt lat="44.12099" lon="3.57787">
        <ele>1559.88</ele>
        <time>2017-07-15T15:33:19Z</time>
      </trkpt>
      <trkpt lat="44.12099" lon="3.57786">
        <ele>1559.88</ele>
        <time>2017-07-15T15:33:43Z</time>
      </trkpt>
      <trkpt lat="44.121" lon="3.57787">
        <ele>1560.36</ele>
        <time>2017-07-15T15:34:23Z</time>
      </trkpt>
      <trkpt lat="44.121" lon="3.57787">
        <ele>1559.4</ele>
        <time>2017-07-15T15:34:38Z</time>
      </trkpt>
      <trkpt lat="44.121" lon="3.57787">
        <ele>1560.36</ele>
        <time>2017-07-15T15:35:12Z</time>
      </trkpt>
      <trkpt lat="44.121" lon="3.57787">
        <ele>1560.36</ele>
        <time>2017-07-15T15:35:13Z</time>
      </trkpt>
      <trkpt lat="44.121" lon="3.57787">
        <ele>1561.32</ele>
        <time>2017-07-15T15:35:47Z</time>
      </trkpt>
      <trkpt lat="44.12099" lon="3.57787">
        <ele>1560.36</ele>
        <time>2017-07-15T15:35:58Z</time>
      </trkpt>
      <trkpt lat="44.12098" lon="3.57788">
        <ele>1558.92</ele>
        <time>2017-07-15T15:36:28Z</time>
      </trkpt>
      <trkpt lat="44.12099" lon="3.57789">
        <ele>1560.36</ele>
        <time>2017-07-15T15:36:45Z</time>
      </trkpt>
      <trkpt lat="44.121" lon="3.57789">
        <ele>1560.36</ele>
        <time>2017-07-15T15:36:52Z</time>
      </trkpt>
      <trkpt lat="44.12101" lon="3.57795">
        <ele>1561.8</ele>
        <time>2017-07-15T15:42:20Z</time>
      </trkpt>
      <trkpt lat="44.12101" lon="3.57794">
        <ele>1561.8</ele>
        <time>2017-07-15T15:42:22Z</time>
      </trkpt>
      <trkpt lat="44.12101" lon="3.5779">
        <ele>1561.32</ele>
        <time>2017-07-15T15:42:39Z</time>
      </trkpt>
      <trkpt lat="44.12101" lon="3.57789">
        <ele>1559.88</ele>
        <time>2017-07-15T15:42:45Z</time>
      </trkpt>
      <trkpt lat="44.12101" lon="3.57788">
        <ele>1561.8</ele>
        <time>2017-07-15T15:42:56Z</time>
      </trkpt>
      <trkpt lat="44.12101" lon="3.5779">
        <ele>1560.36</ele>
        <time>2017-07-15T15:43:14Z</time>
      </trkpt>
      <trkpt lat="44.12101" lon="3.57791">
        <ele>1558.92</ele>
        <time>2017-07-15T15:43:39Z</time>
      </trkpt>
      <trkpt lat="44.12101" lon="3.57791">
        <ele>1558.92</ele>
        <time>2017-07-15T15:43:40Z</time>
      </trkpt>
      <trkpt lat="44.12101" lon="3.5779">
        <ele>1558.92</ele>
        <time>2017-07-15T15:44:14Z</time>
      </trkpt>
      <trkpt lat="44.12101" lon="3.5779">
        <ele>1558.92</ele>
        <time>2017-07-15T15:44:15Z</time>
      </trkpt>
      <trkpt lat="44.12101" lon="3.57789">
        <ele>1560.84</ele>
        <time>2017-07-15T15:44:25Z</time>
      </trkpt>
      <trkpt lat="44.12101" lon="3.57789">
        <ele>1559.4</ele>
        <time>2017-07-15T15:44:36Z</time>
      </trkpt>
      <trkpt lat="44.121" lon="3.5779">
        <ele>1559.4</ele>
        <time>2017-07-15T15:45:03Z</time>
      </trkpt>
      <trkpt lat="44.121" lon="3.57788">
        <ele>1560.36</ele>
        <time>2017-07-15T15:45:43Z</time>
      </trkpt>
      <trkpt lat="44.121" lon="3.57788">
        <ele>1559.88</ele>
        <time>2017-07-15T15:46:03Z</time>
      </trkpt>
      <trkpt lat="44.121" lon="3.57788">
        <ele>1558.92</ele>
        <time>2017-07-15T15:46:38Z</time>
      </trkpt>
      <trkpt lat="44.121" lon="3.57788">
        <ele>1559.4</ele>
        <time>2017-07-15T15:47:06Z</time>
      </trkpt>
      <trkpt lat="44.121" lon="3.57789">
        <ele>1560.36</ele>
        <time>2017-07-15T15:47:33Z</time>
      </trkpt>
      <trkpt lat="44.121" lon="3.57789">
        <ele>1560.36</ele>
        <time>2017-07-15T15:47:52Z</time>
      </trkpt>
      <trkpt lat="44.12099" lon="3.57789">
        <ele>1559.88</ele>
        <time>2017-07-15T15:48:30Z</time>
      </trkpt>
      <trkpt lat="44.12099" lon="3.57788">
        <ele>1558.43</ele>
        <time>2017-07-15T15:49:05Z</time>
      </trkpt>
      <trkpt lat="44.06013" lon="3.60574">
        <ele>1218.61</ele>
        <time>2017-07-16T12:04:33Z</time>
      </trkpt>
      <trkpt lat="44.05956" lon="3.60534">
        <ele>1223.9</ele>
        <time>2017-07-16T12:04:44Z</time>
      </trkpt>
      <trkpt lat="44.05955" lon="3.60534">
        <ele>1228.7</ele>
        <time>2017-07-16T12:04:45Z</time>
      </trkpt>
      <trkpt lat="44.05955" lon="3.60534">
        <ele>1233.51</ele>
        <time>2017-07-16T12:04:46Z</time>
      </trkpt>
      <trkpt lat="44.05955" lon="3.60534">
        <ele>1237.83</ele>
        <time>2017-07-16T12:04:47Z</time>
      </trkpt>
      <trkpt lat="44.05952" lon="3.60532">
        <ele>1242.16</ele>
        <time>2017-07-16T12:04:50Z</time>
      </trkpt>
      <trkpt lat="44.05951" lon="3.60531">
        <ele>1246.49</ele>
        <time>2017-07-16T12:04:51Z</time>
      </trkpt>
      <trkpt lat="44.05949" lon="3.60531">
        <ele>1250.33</ele>
        <time>2017-07-16T12:04:52Z</time>
      </trkpt>
      <trkpt lat="44.05948" lon="3.6053">
        <ele>1254.18</ele>
        <time>2017-07-16T12:04:53Z</time>
      </trkpt>
      <trkpt lat="44.05947" lon="3.60529">
        <ele>1257.54</ele>
        <time>2017-07-16T12:04:54Z</time>
      </trkpt>
      <trkpt lat="44.05944" lon="3.60528">
        <ele>1400.3</ele>
        <time>2017-07-16T12:04:56Z</time>
      </trkpt>
      <trkpt lat="44.05942" lon="3.60526">
        <ele>1358</ele>
        <time>2017-07-16T12:04:59Z</time>
      </trkpt>
      <trkpt lat="44.05942" lon="3.60526">
        <ele>1358</ele>
        <time>2017-07-16T12:05:00Z</time>
      </trkpt>
      <trkpt lat="44.05932" lon="3.60527">
        <ele>1357.52</ele>
        <time>2017-07-16T12:05:12Z</time>
      </trkpt>
      <trkpt lat="44.05926" lon="3.60535">
        <ele>1356.56</ele>
        <time>2017-07-16T12:05:20Z</time>
      </trkpt>
      <trkpt lat="44.05918" lon="3.60532">
        <ele>1355.6</ele>
        <time>2017-07-16T12:05:36Z</time>
      </trkpt>
      <trkpt lat="44.05915" lon="3.6053">
        <ele>1355.12</ele>
        <time>2017-07-16T12:05:47Z</time>
      </trkpt>
      <trkpt lat="44.05918" lon="3.60534">
        <ele>1354.15</ele>
        <time>2017-07-16T12:06:00Z</time>
      </trkpt>
      <trkpt lat="44.05919" lon="3.60536">
        <ele>1353.19</ele>
        <time>2017-07-16T12:06:13Z</time>
      </trkpt>
      <trkpt lat="44.05925" lon="3.60541">
        <ele>1351.75</ele>
        <time>2017-07-16T12:06:27Z</time>
      </trkpt>
      <trkpt lat="44.05931" lon="3.60541">
        <ele>1351.27</ele>
        <time>2017-07-16T12:06:43Z</time>
      </trkpt>
      <trkpt lat="44.05936" lon="3.60541">
        <ele>1349.83</ele>
        <time>2017-07-16T12:06:59Z</time>
      </trkpt>
      <trkpt lat="44.05948" lon="3.60545">
        <ele>1346.94</ele>
        <time>2017-07-16T12:07:15Z</time>
      </trkpt>
      <trkpt lat="44.05951" lon="3.60545">
        <ele>1346.94</ele>
        <time>2017-07-16T12:07:18Z</time>
      </trkpt>
      <trkpt lat="44.05962" lon="3.60544">
        <ele>1344.54</ele>
        <time>2017-07-16T12:07:36Z</time>
      </trkpt>
      <trkpt lat="44.05973" lon="3.6055">
        <ele>1341.66</ele>
        <time>2017-07-16T12:07:51Z</time>
      </trkpt>
      <trkpt lat="44.05981" lon="3.60554">
        <ele>1340.7</ele>
        <time>2017-07-16T12:08:01Z</time>
      </trkpt>
      <trkpt lat="44.05986" lon="3.60555">
        <ele>1340.22</ele>
        <time>2017-07-16T12:08:07Z</time>
      </trkpt>
      <trkpt lat="44.05996" lon="3.60556">
        <ele>1341.66</ele>
        <time>2017-07-16T12:08:19Z</time>
      </trkpt>
      <trkpt lat="44.06005" lon="3.60559">
        <ele>1342.14</ele>
        <time>2017-07-16T12:08:30Z</time>
      </trkpt>
      <trkpt lat="44.06011" lon="3.60564">
        <ele>1342.62</ele>
        <time>2017-07-16T12:08:40Z</time>
      </trkpt>
      <trkpt lat="44.06012" lon="3.60565">
        <ele>1342.62</ele>
        <time>2017-07-16T12:08:41Z</time>
      </trkpt>
      <trkpt lat="44.06015" lon="3.60564">
        <ele>1343.1</ele>
        <time>2017-07-16T12:08:45Z</time>
      </trkpt>
      <trkpt lat="44.0602" lon="3.60564">
        <ele>1343.58</ele>
        <time>2017-07-16T12:08:51Z</time>
      </trkpt>
      <trkpt lat="44.06025" lon="3.60576">
        <ele>1344.54</ele>
        <time>2017-07-16T12:09:02Z</time>
      </trkpt>
      <trkpt lat="44.06033" lon="3.60581">
        <ele>1344.54</ele>
        <time>2017-07-16T12:09:13Z</time>
      </trkpt>
      <trkpt lat="44.06035" lon="3.60584">
        <ele>1344.54</ele>
        <time>2017-07-16T12:09:17Z</time>
      </trkpt>
      <trkpt lat="44.06035" lon="3.60592">
        <ele>1345.02</ele>
        <time>2017-07-16T12:09:31Z</time>
      </trkpt>
      <trkpt lat="44.06037" lon="3.60592">
        <ele>1344.54</ele>
        <time>2017-07-16T12:09:48Z</time>
      </trkpt>
      <trkpt lat="44.06037" lon="3.60592">
        <ele>1344.06</ele>
        <time>2017-07-16T12:10:04Z</time>
      </trkpt>
      <trkpt lat="44.06039" lon="3.60593">
        <ele>1343.1</ele>
        <time>2017-07-16T12:10:33Z</time>
      </trkpt>
      <trkpt lat="44.06037" lon="3.60595">
        <ele>1342.14</ele>
        <time>2017-07-16T12:10:54Z</time>
      </trkpt>
      <trkpt lat="44.0604" lon="3.60596">
        <ele>1340.7</ele>
        <time>2017-07-16T12:11:33Z</time>
      </trkpt>
      <trkpt lat="44.0604" lon="3.60593">
        <ele>1339.73</ele>
        <time>2017-07-16T12:12:05Z</time>
      </trkpt>
      <trkpt lat="44.0604" lon="3.60594">
        <ele>1338.77</ele>
        <time>2017-07-16T12:12:35Z</time>
      </trkpt>
      <trkpt lat="44.06036" lon="3.60595">
        <ele>1337.33</ele>
        <time>2017-07-16T12:13:18Z</time>
      </trkpt>
      <trkpt lat="44.06041" lon="3.60595">
        <ele>1336.37</ele>
        <time>2017-07-16T12:13:59Z</time>
      </trkpt>
      <trkpt lat="44.0604" lon="3.60596">
        <ele>1335.41</ele>
        <time>2017-07-16T12:14:25Z</time>
      </trkpt>
      <trkpt lat="44.0604" lon="3.60597">
        <ele>1334.93</ele>
        <time>2017-07-16T12:14:54Z</time>
      </trkpt>
      <trkpt lat="44.06039" lon="3.60596">
        <ele>1333.49</ele>
        <time>2017-07-16T12:15:45Z</time>
      </trkpt>
      <trkpt lat="44.0604" lon="3.60596">
        <ele>1332.04</ele>
        <time>2017-07-16T12:15:48Z</time>
      </trkpt>
      <trkpt lat="44.06042" lon="3.60597">
        <ele>1332.04</ele>
        <time>2017-07-16T12:15:53Z</time>
      </trkpt>
      <trkpt lat="44.06047" lon="3.60597">
        <ele>1332.04</ele>
        <time>2017-07-16T12:15:58Z</time>
      </trkpt>
      <trkpt lat="44.06052" lon="3.60593">
        <ele>1331.56</ele>
        <time>2017-07-16T12:16:06Z</time>
      </trkpt>
      <trkpt lat="44.06056" lon="3.60588">
        <ele>1331.56</ele>
        <time>2017-07-16T12:16:14Z</time>
      </trkpt>
      <trkpt lat="44.06057" lon="3.60581">
        <ele>1331.56</ele>
        <time>2017-07-16T12:16:21Z</time>
      </trkpt>
      <trkpt lat="44.06057" lon="3.60571">
        <ele>1332.04</ele>
        <time>2017-07-16T12:16:29Z</time>
      </trkpt>
      <trkpt lat="44.06059" lon="3.60562">
        <ele>1332.52</ele>
        <time>2017-07-16T12:16:37Z</time>
      </trkpt>
      <trkpt lat="44.0606" lon="3.60553">
        <ele>1333.01</ele>
        <time>2017-07-16T12:16:46Z</time>
      </trkpt>
      <trkpt lat="44.06065" lon="3.60542">
        <ele>1334.45</ele>
        <time>2017-07-16T12:17:00Z</time>
      </trkpt>
      <trkpt lat="44.06068" lon="3.60528">
        <ele>1334.45</ele>
        <time>2017-07-16T12:17:10Z</time>
      </trkpt>
      <trkpt lat="44.06073" lon="3.60516">
        <ele>1335.41</ele>
        <time>2017-07-16T12:17:20Z</time>
      </trkpt>
      <trkpt lat="44.06076" lon="3.60499">
        <ele>1336.85</ele>
        <time>2017-07-16T12:17:34Z</time>
      </trkpt>
      <trkpt lat="44.06069" lon="3.60482">
        <ele>1336.85</ele>
        <time>2017-07-16T12:17:51Z</time>
      </trkpt>
      <trkpt lat="44.06068" lon="3.60481">
        <ele>1336.85</ele>
        <time>2017-07-16T12:17:52Z</time>
      </trkpt>
      <trkpt lat="44.06057" lon="3.60473">
        <ele>1336.37</ele>
        <time>2017-07-16T12:18:08Z</time>
      </trkpt>
      <trkpt lat="44.06048" lon="3.60467">
        <ele>1335.41</ele>
        <time>2017-07-16T12:18:22Z</time>
      </trkpt>
      <trkpt lat="44.06048" lon="3.60467">
        <ele>1335.41</ele>
        <time>2017-07-16T12:18:27Z</time>
      </trkpt>
      <trkpt lat="44.06034" lon="3.60454">
        <ele>1333.97</ele>
        <time>2017-07-16T12:18:44Z</time>
      </trkpt>
      <trkpt lat="44.06021" lon="3.60445">
        <ele>1333.97</ele>
        <time>2017-07-16T12:18:57Z</time>
      </trkpt>
      <trkpt lat="44.06003" lon="3.60441">
        <ele>1333.49</ele>
        <time>2017-07-16T12:19:15Z</time>
      </trkpt>
      <trkpt lat="44.05998" lon="3.60441">
        <ele>1332.52</ele>
        <time>2017-07-16T12:19:20Z</time>
      </trkpt>
      <trkpt lat="44.05978" lon="3.60445">
        <ele>1332.52</ele>
        <time>2017-07-16T12:19:36Z</time>
      </trkpt>
      <trkpt lat="44.05968" lon="3.60448">
        <ele>1332.04</ele>
        <time>2017-07-16T12:19:50Z</time>
      </trkpt>
      <trkpt lat="44.05963" lon="3.60443">
        <ele>1331.56</ele>
        <time>2017-07-16T12:20:06Z</time>
      </trkpt>
      <trkpt lat="44.05955" lon="3.60448">
        <ele>1331.08</ele>
        <time>2017-07-16T12:20:38Z</time>
      </trkpt>
      <trkpt lat="44.05939" lon="3.60456">
        <ele>1330.6</ele>
        <time>2017-07-16T12:20:50Z</time>
      </trkpt>
      <trkpt lat="44.05932" lon="3.60461">
        <ele>1330.6</ele>
        <time>2017-07-16T12:21:00Z</time>
      </trkpt>
      <trkpt lat="44.05921" lon="3.60459">
        <ele>1330.12</ele>
        <time>2017-07-16T12:21:09Z</time>
      </trkpt>
      <trkpt lat="44.05915" lon="3.60455">
        <ele>1331.08</ele>
        <time>2017-07-16T12:21:18Z</time>
      </trkpt>
      <trkpt lat="44.05917" lon="3.60452">
        <ele>1330.6</ele>
        <time>2017-07-16T12:21:34Z</time>
      </trkpt>
      <trkpt lat="44.05911" lon="3.60451">
        <ele>1331.08</ele>
        <time>2017-07-16T12:21:46Z</time>
      </trkpt>
      <trkpt lat="44.05909" lon="3.60448">
        <ele>1330.6</ele>
        <time>2017-07-16T12:21:50Z</time>
      </trkpt>
      <trkpt lat="44.05906" lon="3.60438">
        <ele>1330.6</ele>
        <time>2017-07-16T12:22:03Z</time>
      </trkpt>
      <trkpt lat="44.05908" lon="3.60439">
        <ele>1330.12</ele>
        <time>2017-07-16T12:22:21Z</time>
      </trkpt>
      <trkpt lat="44.0591" lon="3.60444">
        <ele>1330.12</ele>
        <time>2017-07-16T12:22:26Z</time>
      </trkpt>
      <trkpt lat="44.05913" lon="3.6045">
        <ele>1329.64</ele>
        <time>2017-07-16T12:22:40Z</time>
      </trkpt>
      <trkpt lat="44.05914" lon="3.60445">
        <ele>1329.64</ele>
        <time>2017-07-16T12:22:48Z</time>
      </trkpt>
      <trkpt lat="44.05919" lon="3.60439">
        <ele>1329.16</ele>
        <time>2017-07-16T12:23:00Z</time>
      </trkpt>
      <trkpt lat="44.0592" lon="3.60437">
        <ele>1328.68</ele>
        <time>2017-07-16T12:23:20Z</time>
      </trkpt>
      <trkpt lat="44.05917" lon="3.60435">
        <ele>1327.72</ele>
        <time>2017-07-16T12:24:00Z</time>
      </trkpt>
      <trkpt lat="44.05921" lon="3.60443">
        <ele>1327.24</ele>
        <time>2017-07-16T12:24:47Z</time>
      </trkpt>
      <trkpt lat="44.05913" lon="3.60436">
        <ele>1326.76</ele>
        <time>2017-07-16T12:25:07Z</time>
      </trkpt>
      <trkpt lat="44.05912" lon="3.60435">
        <ele>1326.76</ele>
        <time>2017-07-16T12:25:08Z</time>
      </trkpt>
      <trkpt lat="44.05908" lon="3.60433">
        <ele>1326.76</ele>
        <time>2017-07-16T12:25:12Z</time>
      </trkpt>
      <trkpt lat="44.05903" lon="3.60433">
        <ele>1326.28</ele>
        <time>2017-07-16T12:25:19Z</time>
      </trkpt>
      <trkpt lat="44.05899" lon="3.60433">
        <ele>1326.76</ele>
        <time>2017-07-16T12:25:24Z</time>
      </trkpt>
      <trkpt lat="44.05878" lon="3.6044">
        <ele>1327.72</ele>
        <time>2017-07-16T12:25:42Z</time>
      </trkpt>
      <trkpt lat="44.0587" lon="3.60443">
        <ele>1328.2</ele>
        <time>2017-07-16T12:25:57Z</time>
      </trkpt>
      <trkpt lat="44.05866" lon="3.60441">
        <ele>1328.2</ele>
        <time>2017-07-16T12:26:00Z</time>
      </trkpt>
      <trkpt lat="44.05851" lon="3.60441">
        <ele>1328.68</ele>
        <time>2017-07-16T12:26:14Z</time>
      </trkpt>
      <trkpt lat="44.05839" lon="3.60443">
        <ele>1329.64</ele>
        <time>2017-07-16T12:26:28Z</time>
      </trkpt>
      <trkpt lat="44.05825" lon="3.60442">
        <ele>1329.64</ele>
        <time>2017-07-16T12:26:41Z</time>
      </trkpt>
      <trkpt lat="44.05809" lon="3.60439">
        <ele>1330.6</ele>
        <time>2017-07-16T12:26:58Z</time>
      </trkpt>
      <trkpt lat="44.05793" lon="3.6044">
        <ele>1331.56</ele>
        <time>2017-07-16T12:27:15Z</time>
      </trkpt>
      <trkpt lat="44.05784" lon="3.60442">
        <ele>1332.52</ele>
        <time>2017-07-16T12:27:28Z</time>
      </trkpt>
      <trkpt lat="44.05772" lon="3.60446">
        <ele>1333.49</ele>
        <time>2017-07-16T12:27:41Z</time>
      </trkpt>
      <trkpt lat="44.05769" lon="3.60446">
        <ele>1333.49</ele>
        <time>2017-07-16T12:27:43Z</time>
      </trkpt>
      <trkpt lat="44.05763" lon="3.60447">
        <ele>1333.49</ele>
        <time>2017-07-16T12:27:47Z</time>
      </trkpt>
      <trkpt lat="44.05754" lon="3.60447">
        <ele>1333.97</ele>
        <time>2017-07-16T12:27:53Z</time>
      </trkpt>
      <trkpt lat="44.05739" lon="3.60446">
        <ele>1334.93</ele>
        <time>2017-07-16T12:28:04Z</time>
      </trkpt>
      <trkpt lat="44.05732" lon="3.60451">
        <ele>1335.89</ele>
        <time>2017-07-16T12:28:17Z</time>
      </trkpt>
      <trkpt lat="44.05724" lon="3.60452">
        <ele>1336.37</ele>
        <time>2017-07-16T12:28:28Z</time>
      </trkpt>
      <trkpt lat="44.05718" lon="3.60455">
        <ele>1337.33</ele>
        <time>2017-07-16T12:28:40Z</time>
      </trkpt>
      <trkpt lat="44.05711" lon="3.60454">
        <ele>1338.29</ele>
        <time>2017-07-16T12:28:51Z</time>
      </trkpt>
      <trkpt lat="44.05692" lon="3.60451">
        <ele>1339.25</ele>
        <time>2017-07-16T12:29:05Z</time>
      </trkpt>
      <trkpt lat="44.05689" lon="3.60451">
        <ele>1339.73</ele>
        <time>2017-07-16T12:29:08Z</time>
      </trkpt>
      <trkpt lat="44.05681" lon="3.60451">
        <ele>1341.18</ele>
        <time>2017-07-16T12:29:21Z</time>
      </trkpt>
      <trkpt lat="44.05676" lon="3.60449">
        <ele>1341.66</ele>
        <time>2017-07-16T12:29:29Z</time>
      </trkpt>
      <trkpt lat="44.05666" lon="3.60447">
        <ele>1343.1</ele>
        <time>2017-07-16T12:29:42Z</time>
      </trkpt>
      <trkpt lat="44.05651" lon="3.60448">
        <ele>1344.54</ele>
        <time>2017-07-16T12:29:56Z</time>
      </trkpt>
      <trkpt lat="44.05636" lon="3.60448">
        <ele>1346.46</ele>
        <time>2017-07-16T12:30:13Z</time>
      </trkpt>
      <trkpt lat="44.05633" lon="3.60449">
        <ele>1346.46</ele>
        <time>2017-07-16T12:30:18Z</time>
      </trkpt>
      <trkpt lat="44.05623" lon="3.60453">
        <ele>1347.91</ele>
        <time>2017-07-16T12:30:33Z</time>
      </trkpt>
      <trkpt lat="44.05616" lon="3.60453">
        <ele>1348.39</ele>
        <time>2017-07-16T12:30:43Z</time>
      </trkpt>
      <trkpt lat="44.05608" lon="3.60455">
        <ele>1349.35</ele>
        <time>2017-07-16T12:30:56Z</time>
      </trkpt>
      <trkpt lat="44.05597" lon="3.60456">
        <ele>1350.31</ele>
        <time>2017-07-16T12:31:09Z</time>
      </trkpt>
      <trkpt lat="44.05591" lon="3.60456">
        <ele>1350.79</ele>
        <time>2017-07-16T12:31:18Z</time>
      </trkpt>
      <trkpt lat="44.05575" lon="3.60454">
        <ele>1351.75</ele>
        <time>2017-07-16T12:31:33Z</time>
      </trkpt>
      <trkpt lat="44.05561" lon="3.60454">
        <ele>1352.71</ele>
        <time>2017-07-16T12:31:45Z</time>
      </trkpt>
      <trkpt lat="44.05544" lon="3.60446">
        <ele>1353.19</ele>
        <time>2017-07-16T12:32:00Z</time>
      </trkpt>
      <trkpt lat="44.0553" lon="3.60437">
        <ele>1353.19</ele>
        <time>2017-07-16T12:32:17Z</time>
      </trkpt>
      <trkpt lat="44.05519" lon="3.60435">
        <ele>1353.19</ele>
        <time>2017-07-16T12:32:32Z</time>
      </trkpt>
      <trkpt lat="44.055" lon="3.60434">
        <ele>1352.71</ele>
        <time>2017-07-16T12:32:47Z</time>
      </trkpt>
      <trkpt lat="44.05497" lon="3.60434">
        <ele>1351.75</ele>
        <time>2017-07-16T12:32:50Z</time>
      </trkpt>
      <trkpt lat="44.05486" lon="3.6043">
        <ele>1350.79</ele>
        <time>2017-07-16T12:33:04Z</time>
      </trkpt>
      <trkpt lat="44.05482" lon="3.6043">
        <ele>1350.79</ele>
        <time>2017-07-16T12:33:08Z</time>
      </trkpt>
      <trkpt lat="44.05479" lon="3.6043">
        <ele>1350.31</ele>
        <time>2017-07-16T12:33:27Z</time>
      </trkpt>
      <trkpt lat="44.05475" lon="3.60432">
        <ele>1349.83</ele>
        <time>2017-07-16T12:33:41Z</time>
      </trkpt>
      <trkpt lat="44.05459" lon="3.60429">
        <ele>1348.39</ele>
        <time>2017-07-16T12:33:55Z</time>
      </trkpt>
      <trkpt lat="44.05446" lon="3.60428">
        <ele>1346.46</ele>
        <time>2017-07-16T12:34:08Z</time>
      </trkpt>
      <trkpt lat="44.05426" lon="3.60423">
        <ele>1345.02</ele>
        <time>2017-07-16T12:34:22Z</time>
      </trkpt>
      <trkpt lat="44.05421" lon="3.60422">
        <ele>1344.54</ele>
        <time>2017-07-16T12:34:27Z</time>
      </trkpt>
      <trkpt lat="44.05418" lon="3.60422">
        <ele>1344.06</ele>
        <time>2017-07-16T12:34:30Z</time>
      </trkpt>
      <trkpt lat="44.054" lon="3.60414">
        <ele>1341.66</ele>
        <time>2017-07-16T12:34:47Z</time>
      </trkpt>
      <trkpt lat="44.0539" lon="3.60408">
        <ele>1340.22</ele>
        <time>2017-07-16T12:34:56Z</time>
      </trkpt>
      <trkpt lat="44.05384" lon="3.60405">
        <ele>1339.25</ele>
        <time>2017-07-16T12:35:03Z</time>
      </trkpt>
      <trkpt lat="44.05372" lon="3.60404">
        <ele>1338.29</ele>
        <time>2017-07-16T12:35:15Z</time>
      </trkpt>
      <trkpt lat="44.05353" lon="3.60403">
        <ele>1335.89</ele>
        <time>2017-07-16T12:35:32Z</time>
      </trkpt>
      <trkpt lat="44.05338" lon="3.604">
        <ele>1333.97</ele>
        <time>2017-07-16T12:35:47Z</time>
      </trkpt>
      <trkpt lat="44.05323" lon="3.60403">
        <ele>1331.56</ele>
        <time>2017-07-16T12:36:03Z</time>
      </trkpt>
      <trkpt lat="44.05303" lon="3.60398">
        <ele>1329.16</ele>
        <time>2017-07-16T12:36:19Z</time>
      </trkpt>
      <trkpt lat="44.05287" lon="3.60396">
        <ele>1327.24</ele>
        <time>2017-07-16T12:36:33Z</time>
      </trkpt>
      <trkpt lat="44.05268" lon="3.60392">
        <ele>1324.83</ele>
        <time>2017-07-16T12:36:48Z</time>
      </trkpt>
      <trkpt lat="44.05263" lon="3.60391">
        <ele>1323.87</ele>
        <time>2017-07-16T12:36:55Z</time>
      </trkpt>
      <trkpt lat="44.05245" lon="3.60391">
        <ele>1322.43</ele>
        <time>2017-07-16T12:37:11Z</time>
      </trkpt>
      <trkpt lat="44.05232" lon="3.6039">
        <ele>1321.47</ele>
        <time>2017-07-16T12:37:25Z</time>
      </trkpt>
      <trkpt lat="44.05216" lon="3.60389">
        <ele>1320.51</ele>
        <time>2017-07-16T12:37:39Z</time>
      </trkpt>
      <trkpt lat="44.05197" lon="3.60389">
        <ele>1318.59</ele>
        <time>2017-07-16T12:37:54Z</time>
      </trkpt>
      <trkpt lat="44.05185" lon="3.60392">
        <ele>1317.14</ele>
        <time>2017-07-16T12:38:08Z</time>
      </trkpt>
      <trkpt lat="44.05171" lon="3.60393">
        <ele>1316.18</ele>
        <time>2017-07-16T12:38:22Z</time>
      </trkpt>
      <trkpt lat="44.05166" lon="3.60394">
        <ele>1316.18</ele>
        <time>2017-07-16T12:38:26Z</time>
      </trkpt>
      <trkpt lat="44.05153" lon="3.60395">
        <ele>1315.22</ele>
        <time>2017-07-16T12:38:36Z</time>
      </trkpt>
      <trkpt lat="44.05137" lon="3.60402">
        <ele>1313.78</ele>
        <time>2017-07-16T12:38:52Z</time>
      </trkpt>
      <trkpt lat="44.05123" lon="3.60409">
        <ele>1312.82</ele>
        <time>2017-07-16T12:39:04Z</time>
      </trkpt>
      <trkpt lat="44.05112" lon="3.60424">
        <ele>1311.86</ele>
        <time>2017-07-16T12:39:17Z</time>
      </trkpt>
      <trkpt lat="44.05101" lon="3.60439">
        <ele>1309.93</ele>
        <time>2017-07-16T12:39:32Z</time>
      </trkpt>
      <trkpt lat="44.05093" lon="3.60442">
        <ele>1308.49</ele>
        <time>2017-07-16T12:39:45Z</time>
      </trkpt>
      <trkpt lat="44.05076" lon="3.60447">
        <ele>1307.05</ele>
        <time>2017-07-16T12:40:00Z</time>
      </trkpt>
      <trkpt lat="44.05072" lon="3.60448">
        <ele>1306.57</ele>
        <time>2017-07-16T12:40:04Z</time>
      </trkpt>
      <trkpt lat="44.0505" lon="3.60444">
        <ele>1305.61</ele>
        <time>2017-07-16T12:40:24Z</time>
      </trkpt>
      <trkpt lat="44.05032" lon="3.60448">
        <ele>1304.17</ele>
        <time>2017-07-16T12:40:36Z</time>
      </trkpt>
      <trkpt lat="44.05029" lon="3.60447">
        <ele>1305.13</ele>
        <time>2017-07-16T12:40:38Z</time>
      </trkpt>
      <trkpt lat="44.05022" lon="3.60444">
        <ele>1303.69</ele>
        <time>2017-07-16T12:40:43Z</time>
      </trkpt>
      <trkpt lat="44.0501" lon="3.60438">
        <ele>1303.69</ele>
        <time>2017-07-16T12:40:54Z</time>
      </trkpt>
      <trkpt lat="44.04999" lon="3.60432">
        <ele>1302.24</ele>
        <time>2017-07-16T12:41:09Z</time>
      </trkpt>
      <trkpt lat="44.04993" lon="3.60425">
        <ele>1301.28</ele>
        <time>2017-07-16T12:41:15Z</time>
      </trkpt>
      <trkpt lat="44.04979" lon="3.60419">
        <ele>1300.8</ele>
        <time>2017-07-16T12:41:27Z</time>
      </trkpt>
      <trkpt lat="44.04974" lon="3.60425">
        <ele>1300.32</ele>
        <time>2017-07-16T12:41:35Z</time>
      </trkpt>
      <trkpt lat="44.04977" lon="3.60442">
        <ele>1298.88</ele>
        <time>2017-07-16T12:41:51Z</time>
      </trkpt>
      <trkpt lat="44.04983" lon="3.60459">
        <ele>1296.96</ele>
        <time>2017-07-16T12:42:05Z</time>
      </trkpt>
      <trkpt lat="44.04992" lon="3.60477">
        <ele>1295.99</ele>
        <time>2017-07-16T12:42:21Z</time>
      </trkpt>
      <trkpt lat="44.04998" lon="3.60497">
        <ele>1294.07</ele>
        <time>2017-07-16T12:42:35Z</time>
      </trkpt>
      <trkpt lat="44.05002" lon="3.60516">
        <ele>1291.67</ele>
        <time>2017-07-16T12:42:51Z</time>
      </trkpt>
      <trkpt lat="44.05004" lon="3.60518">
        <ele>1291.67</ele>
        <time>2017-07-16T12:42:54Z</time>
      </trkpt>
      <trkpt lat="44.0501" lon="3.60529">
        <ele>1289.75</ele>
        <time>2017-07-16T12:43:06Z</time>
      </trkpt>
      <trkpt lat="44.05015" lon="3.60538">
        <ele>1288.3</ele>
        <time>2017-07-16T12:43:17Z</time>
      </trkpt>
      <trkpt lat="44.05025" lon="3.60543">
        <ele>1286.38</ele>
        <time>2017-07-16T12:43:31Z</time>
      </trkpt>
      <trkpt lat="44.05034" lon="3.60553">
        <ele>1284.46</ele>
        <time>2017-07-16T12:43:47Z</time>
      </trkpt>
      <trkpt lat="44.05044" lon="3.60562">
        <ele>1282.06</ele>
        <time>2017-07-16T12:44:00Z</time>
      </trkpt>
      <trkpt lat="44.0505" lon="3.60571">
        <ele>1280.61</ele>
        <time>2017-07-16T12:44:17Z</time>
      </trkpt>
      <trkpt lat="44.05055" lon="3.60579">
        <ele>1279.65</ele>
        <time>2017-07-16T12:44:33Z</time>
      </trkpt>
      <trkpt lat="44.05064" lon="3.60582">
        <ele>1278.21</ele>
        <time>2017-07-16T12:44:47Z</time>
      </trkpt>
      <trkpt lat="44.05073" lon="3.60586">
        <ele>1276.29</ele>
        <time>2017-07-16T12:45:04Z</time>
      </trkpt>
      <trkpt lat="44.05081" lon="3.6059">
        <ele>1274.36</ele>
        <time>2017-07-16T12:45:16Z</time>
      </trkpt>
      <trkpt lat="44.05082" lon="3.6059">
        <ele>1272.44</ele>
        <time>2017-07-16T12:45:31Z</time>
      </trkpt>
      <trkpt lat="44.05076" lon="3.60593">
        <ele>1270.52</ele>
        <time>2017-07-16T12:45:45Z</time>
      </trkpt>
      <trkpt lat="44.05078" lon="3.60593">
        <ele>1270.52</ele>
        <time>2017-07-16T12:46:03Z</time>
      </trkpt>
      <trkpt lat="44.05077" lon="3.60599">
        <ele>1269.56</ele>
        <time>2017-07-16T12:46:31Z</time>
      </trkpt>
      <trkpt lat="44.05064" lon="3.60603">
        <ele>1268.12</ele>
        <time>2017-07-16T12:46:46Z</time>
      </trkpt>
      <trkpt lat="44.05061" lon="3.60611">
        <ele>1266.67</ele>
        <time>2017-07-16T12:47:08Z</time>
      </trkpt>
      <trkpt lat="44.05048" lon="3.60623">
        <ele>1265.23</ele>
        <time>2017-07-16T12:47:24Z</time>
      </trkpt>
      <trkpt lat="44.05046" lon="3.60625">
        <ele>1264.27</ele>
        <time>2017-07-16T12:47:28Z</time>
      </trkpt>
      <trkpt lat="44.05032" lon="3.6063">
        <ele>1261.87</ele>
        <time>2017-07-16T12:47:43Z</time>
      </trkpt>
      <trkpt lat="44.05019" lon="3.60634">
        <ele>1259.46</ele>
        <time>2017-07-16T12:47:58Z</time>
      </trkpt>
      <trkpt lat="44.05007" lon="3.60637">
        <ele>1257.06</ele>
        <time>2017-07-16T12:48:13Z</time>
      </trkpt>
      <trkpt lat="44.0499" lon="3.60633">
        <ele>1254.66</ele>
        <time>2017-07-16T12:48:29Z</time>
      </trkpt>
      <trkpt lat="44.04982" lon="3.60632">
        <ele>1253.22</ele>
        <time>2017-07-16T12:48:43Z</time>
      </trkpt>
      <trkpt lat="44.04972" lon="3.60626">
        <ele>1251.77</ele>
        <time>2017-07-16T12:48:55Z</time>
      </trkpt>
      <trkpt lat="44.0496" lon="3.60615">
        <ele>1250.33</ele>
        <time>2017-07-16T12:49:08Z</time>
      </trkpt>
      <trkpt lat="44.04947" lon="3.60606">
        <ele>1247.45</ele>
        <time>2017-07-16T12:49:23Z</time>
      </trkpt>
      <trkpt lat="44.0495" lon="3.60619">
        <ele>1246.01</ele>
        <time>2017-07-16T12:49:38Z</time>
      </trkpt>
      <trkpt lat="44.04956" lon="3.60631">
        <ele>1245.04</ele>
        <time>2017-07-16T12:49:53Z</time>
      </trkpt>
      <trkpt lat="44.04961" lon="3.60644">
        <ele>1243.6</ele>
        <time>2017-07-16T12:50:07Z</time>
      </trkpt>
      <trkpt lat="44.04967" lon="3.60654">
        <ele>1241.2</ele>
        <time>2017-07-16T12:50:24Z</time>
      </trkpt>
      <trkpt lat="44.0497" lon="3.60662">
        <ele>1240.24</ele>
        <time>2017-07-16T12:50:31Z</time>
      </trkpt>
      <trkpt lat="44.04978" lon="3.60678">
        <ele>1237.35</ele>
        <time>2017-07-16T12:50:45Z</time>
      </trkpt>
      <trkpt lat="44.04986" lon="3.60694">
        <ele>1234.95</ele>
        <time>2017-07-16T12:50:59Z</time>
      </trkpt>
      <trkpt lat="44.04988" lon="3.60699">
        <ele>1234.47</ele>
        <time>2017-07-16T12:51:03Z</time>
      </trkpt>
      <trkpt lat="44.04994" lon="3.60715">
        <ele>1232.55</ele>
        <time>2017-07-16T12:51:16Z</time>
      </trkpt>
      <trkpt lat="44.05" lon="3.60727">
        <ele>1231.11</ele>
        <time>2017-07-16T12:51:27Z</time>
      </trkpt>
      <trkpt lat="44.0501" lon="3.60746">
        <ele>1228.7</ele>
        <time>2017-07-16T12:51:45Z</time>
      </trkpt>
      <trkpt lat="44.0502" lon="3.60764">
        <ele>1226.78</ele>
        <time>2017-07-16T12:51:59Z</time>
      </trkpt>
      <trkpt lat="44.05013" lon="3.60786">
        <ele>1224.38</ele>
        <time>2017-07-16T12:52:15Z</time>
      </trkpt>
      <trkpt lat="44.05013" lon="3.60787">
        <ele>1224.38</ele>
        <time>2017-07-16T12:52:16Z</time>
      </trkpt>
      <trkpt lat="44.05012" lon="3.6079">
        <ele>1223.9</ele>
        <time>2017-07-16T12:52:18Z</time>
      </trkpt>
      <trkpt lat="44.05001" lon="3.60801">
        <ele>1220.05</ele>
        <time>2017-07-16T12:52:32Z</time>
      </trkpt>
      <trkpt lat="44.0499" lon="3.60807">
        <ele>1218.13</ele>
        <time>2017-07-16T12:52:46Z</time>
      </trkpt>
      <trkpt lat="44.04984" lon="3.6081">
        <ele>1216.69</ele>
        <time>2017-07-16T12:53:01Z</time>
      </trkpt>
      <trkpt lat="44.04984" lon="3.60811">
        <ele>1216.69</ele>
        <time>2017-07-16T12:53:02Z</time>
      </trkpt>
      <trkpt lat="44.04984" lon="3.60818">
        <ele>1216.69</ele>
        <time>2017-07-16T12:53:07Z</time>
      </trkpt>
      <trkpt lat="44.04973" lon="3.60828">
        <ele>1215.72</ele>
        <time>2017-07-16T12:53:22Z</time>
      </trkpt>
      <trkpt lat="44.04974" lon="3.60822">
        <ele>1215.72</ele>
        <time>2017-07-16T12:53:37Z</time>
      </trkpt>
      <trkpt lat="44.04977" lon="3.60822">
        <ele>1215.24</ele>
        <time>2017-07-16T12:53:41Z</time>
      </trkpt>
      <trkpt lat="44.04982" lon="3.60819">
        <ele>1216.69</ele>
        <time>2017-07-16T12:53:46Z</time>
      </trkpt>
      <trkpt lat="44.04986" lon="3.60812">
        <ele>1216.69</ele>
        <time>2017-07-16T12:54:00Z</time>
      </trkpt>
      <trkpt lat="44.04984" lon="3.60811">
        <ele>1216.21</ele>
        <time>2017-07-16T12:54:24Z</time>
      </trkpt>
      <trkpt lat="44.04982" lon="3.6081">
        <ele>1216.21</ele>
        <time>2017-07-16T12:54:39Z</time>
      </trkpt>
      <trkpt lat="44.04982" lon="3.60806">
        <ele>1216.21</ele>
        <time>2017-07-16T12:54:50Z</time>
      </trkpt>
      <trkpt lat="44.04978" lon="3.60805">
        <ele>1215.72</ele>
        <time>2017-07-16T12:55:05Z</time>
      </trkpt>
      <trkpt lat="44.0498" lon="3.60808">
        <ele>1215.72</ele>
        <time>2017-07-16T12:55:18Z</time>
      </trkpt>
      <trkpt lat="44.04982" lon="3.60801">
        <ele>1215.72</ele>
        <time>2017-07-16T12:55:37Z</time>
      </trkpt>
      <trkpt lat="44.04983" lon="3.60811">
        <ele>1215.72</ele>
        <time>2017-07-16T12:55:51Z</time>
      </trkpt>
      <trkpt lat="44.04984" lon="3.60821">
        <ele>1215.72</ele>
        <time>2017-07-16T12:56:02Z</time>
      </trkpt>
      <trkpt lat="44.04984" lon="3.60819">
        <ele>1215.72</ele>
        <time>2017-07-16T12:56:10Z</time>
      </trkpt>
      <trkpt lat="44.04984" lon="3.60807">
        <ele>1215.24</ele>
        <time>2017-07-16T12:56:19Z</time>
      </trkpt>
      <trkpt lat="44.04981" lon="3.60798">
        <ele>1215.24</ele>
        <time>2017-07-16T12:56:31Z</time>
      </trkpt>
      <trkpt lat="44.04984" lon="3.60796">
        <ele>1215.72</ele>
        <time>2017-07-16T12:56:45Z</time>
      </trkpt>
      <trkpt lat="44.04985" lon="3.60797">
        <ele>1215.72</ele>
        <time>2017-07-16T12:56:57Z</time>
      </trkpt>
      <trkpt lat="44.04985" lon="3.60801">
        <ele>1215.72</ele>
        <time>2017-07-16T12:57:18Z</time>
      </trkpt>
      <trkpt lat="44.04983" lon="3.60801">
        <ele>1215.24</ele>
        <time>2017-07-16T12:57:31Z</time>
      </trkpt>
      <trkpt lat="44.0498" lon="3.60797">
        <ele>1214.28</ele>
        <time>2017-07-16T12:57:49Z</time>
      </trkpt>
      <trkpt lat="44.04982" lon="3.60806">
        <ele>1214.28</ele>
        <time>2017-07-16T12:58:08Z</time>
      </trkpt>
      <trkpt lat="44.04981" lon="3.60805">
        <ele>1214.28</ele>
        <time>2017-07-16T12:58:23Z</time>
      </trkpt>
      <trkpt lat="44.04977" lon="3.60801">
        <ele>1213.8</ele>
        <time>2017-07-16T12:58:36Z</time>
      </trkpt>
      <trkpt lat="44.04975" lon="3.60804">
        <ele>1213.32</ele>
        <time>2017-07-16T12:58:58Z</time>
      </trkpt>
      <trkpt lat="44.04975" lon="3.60813">
        <ele>1212.84</ele>
        <time>2017-07-16T12:59:19Z</time>
      </trkpt>
      <trkpt lat="44.04976" lon="3.60812">
        <ele>1212.84</ele>
        <time>2017-07-16T12:59:39Z</time>
      </trkpt>
      <trkpt lat="44.0498" lon="3.60812">
        <ele>1212.84</ele>
        <time>2017-07-16T12:59:57Z</time>
      </trkpt>
      <trkpt lat="44.04984" lon="3.60811">
        <ele>1214.28</ele>
        <time>2017-07-16T13:00:15Z</time>
      </trkpt>
      <trkpt lat="44.04984" lon="3.60811">
        <ele>1214.28</ele>
        <time>2017-07-16T13:00:29Z</time>
      </trkpt>
      <trkpt lat="44.04977" lon="3.60804">
        <ele>1214.28</ele>
        <time>2017-07-16T13:00:44Z</time>
      </trkpt>
      <trkpt lat="44.04976" lon="3.60805">
        <ele>1212.84</ele>
        <time>2017-07-16T13:00:58Z</time>
      </trkpt>
      <trkpt lat="44.04978" lon="3.60805">
        <ele>1212.36</ele>
        <time>2017-07-16T13:01:17Z</time>
      </trkpt>
      <trkpt lat="44.04977" lon="3.60803">
        <ele>1211.88</ele>
        <time>2017-07-16T13:01:37Z</time>
      </trkpt>
      <trkpt lat="44.04975" lon="3.60799">
        <ele>1211.88</ele>
        <time>2017-07-16T13:01:53Z</time>
      </trkpt>
      <trkpt lat="44.04975" lon="3.60803">
        <ele>1210.92</ele>
        <time>2017-07-16T13:02:22Z</time>
      </trkpt>
      <trkpt lat="44.0497" lon="3.60799">
        <ele>1209.96</ele>
        <time>2017-07-16T13:02:40Z</time>
      </trkpt>
      <trkpt lat="44.04965" lon="3.608">
        <ele>1208.03</ele>
        <time>2017-07-16T13:02:46Z</time>
      </trkpt>
      <trkpt lat="44.04949" lon="3.60797">
        <ele>1205.63</ele>
        <time>2017-07-16T13:03:00Z</time>
      </trkpt>
      <trkpt lat="44.04945" lon="3.60798">
        <ele>1204.19</ele>
        <time>2017-07-16T13:03:06Z</time>
      </trkpt>
      <trkpt lat="44.04938" lon="3.60796">
        <ele>1201.79</ele>
        <time>2017-07-16T13:03:19Z</time>
      </trkpt>
      <trkpt lat="44.04939" lon="3.60786">
        <ele>1202.75</ele>
        <time>2017-07-16T13:03:33Z</time>
      </trkpt>
      <trkpt lat="44.04932" lon="3.60779">
        <ele>1203.23</ele>
        <time>2017-07-16T13:03:47Z</time>
      </trkpt>
      <trkpt lat="44.04934" lon="3.60774">
        <ele>1202.27</ele>
        <time>2017-07-16T13:04:17Z</time>
      </trkpt>
      <trkpt lat="44.04936" lon="3.60781">
        <ele>1201.79</ele>
        <time>2017-07-16T13:04:49Z</time>
      </trkpt>
      <trkpt lat="44.04933" lon="3.60777">
        <ele>1203.23</ele>
        <time>2017-07-16T13:04:51Z</time>
      </trkpt>
      <trkpt lat="44.04933" lon="3.60772">
        <ele>1201.79</ele>
        <time>2017-07-16T13:05:05Z</time>
      </trkpt>
      <trkpt lat="44.04931" lon="3.60775">
        <ele>1202.27</ele>
        <time>2017-07-16T13:05:20Z</time>
      </trkpt>
      <trkpt lat="44.04933" lon="3.60777">
        <ele>1202.27</ele>
        <time>2017-07-16T13:05:36Z</time>
      </trkpt>
      <trkpt lat="44.0493" lon="3.60771">
        <ele>1202.27</ele>
        <time>2017-07-16T13:05:49Z</time>
      </trkpt>
      <trkpt lat="44.04923" lon="3.60758">
        <ele>1203.23</ele>
        <time>2017-07-16T13:06:04Z</time>
      </trkpt>
      <trkpt lat="44.04918" lon="3.60746">
        <ele>1203.23</ele>
        <time>2017-07-16T13:06:23Z</time>
      </trkpt>
      <trkpt lat="44.0491" lon="3.60725">
        <ele>1204.19</ele>
        <time>2017-07-16T13:06:38Z</time>
      </trkpt>
      <trkpt lat="44.04908" lon="3.60708">
        <ele>1205.15</ele>
        <time>2017-07-16T13:06:51Z</time>
      </trkpt>
      <trkpt lat="44.04904" lon="3.60688">
        <ele>1205.63</ele>
        <time>2017-07-16T13:07:06Z</time>
      </trkpt>
      <trkpt lat="44.04896" lon="3.60667">
        <ele>1205.63</ele>
        <time>2017-07-16T13:07:22Z</time>
      </trkpt>
      <trkpt lat="44.0489" lon="3.60649">
        <ele>1206.11</ele>
        <time>2017-07-16T13:07:36Z</time>
      </trkpt>
      <trkpt lat="44.04883" lon="3.60631">
        <ele>1206.59</ele>
        <time>2017-07-16T13:07:51Z</time>
      </trkpt>
      <trkpt lat="44.04877" lon="3.6062">
        <ele>1207.07</ele>
        <time>2017-07-16T13:08:02Z</time>
      </trkpt>
      <trkpt lat="44.0487" lon="3.60606">
        <ele>1207.55</ele>
        <time>2017-07-16T13:08:16Z</time>
      </trkpt>
      <trkpt lat="44.0486" lon="3.60592">
        <ele>1205.15</ele>
        <time>2017-07-16T13:08:30Z</time>
      </trkpt>
      <trkpt lat="44.04856" lon="3.60579">
        <ele>1204.19</ele>
        <time>2017-07-16T13:08:44Z</time>
      </trkpt>
      <trkpt lat="44.04854" lon="3.60574">
        <ele>1204.19</ele>
        <time>2017-07-16T13:08:59Z</time>
      </trkpt>
      <trkpt lat="44.04849" lon="3.60563">
        <ele>1205.63</ele>
        <time>2017-07-16T13:09:15Z</time>
      </trkpt>
      <trkpt lat="44.04848" lon="3.60553">
        <ele>1208.03</ele>
        <time>2017-07-16T13:09:32Z</time>
      </trkpt>
      <trkpt lat="44.04847" lon="3.60539">
        <ele>1209</ele>
        <time>2017-07-16T13:09:48Z</time>
      </trkpt>
      <trkpt lat="44.04843" lon="3.60518">
        <ele>1209</ele>
        <time>2017-07-16T13:10:05Z</time>
      </trkpt>
      <trkpt lat="44.04843" lon="3.60504">
        <ele>1210.44</ele>
        <time>2017-07-16T13:10:20Z</time>
      </trkpt>
      <trkpt lat="44.04845" lon="3.60494">
        <ele>1211.88</ele>
        <time>2017-07-16T13:10:32Z</time>
      </trkpt>
      <trkpt lat="44.04848" lon="3.60481">
        <ele>1213.8</ele>
        <time>2017-07-16T13:10:47Z</time>
      </trkpt>
      <trkpt lat="44.04849" lon="3.60471">
        <ele>1215.72</ele>
        <time>2017-07-16T13:11:02Z</time>
      </trkpt>
      <trkpt lat="44.04849" lon="3.60464">
        <ele>1217.65</ele>
        <time>2017-07-16T13:11:15Z</time>
      </trkpt>
      <trkpt lat="44.04848" lon="3.60452">
        <ele>1218.61</ele>
        <time>2017-07-16T13:11:27Z</time>
      </trkpt>
      <trkpt lat="44.04846" lon="3.60447">
        <ele>1219.57</ele>
        <time>2017-07-16T13:11:38Z</time>
      </trkpt>
      <trkpt lat="44.04846" lon="3.60436">
        <ele>1220.53</ele>
        <time>2017-07-16T13:11:50Z</time>
      </trkpt>
      <trkpt lat="44.04846" lon="3.60434">
        <ele>1220.53</ele>
        <time>2017-07-16T13:11:51Z</time>
      </trkpt>
      <trkpt lat="44.04843" lon="3.60425">
        <ele>1220.05</ele>
        <time>2017-07-16T13:12:02Z</time>
      </trkpt>
      <trkpt lat="44.04844" lon="3.60407">
        <ele>1220.05</ele>
        <time>2017-07-16T13:12:16Z</time>
      </trkpt>
      <trkpt lat="44.04843" lon="3.60398">
        <ele>1216.69</ele>
        <time>2017-07-16T13:12:29Z</time>
      </trkpt>
      <trkpt lat="44.04841" lon="3.60384">
        <ele>1214.76</ele>
        <time>2017-07-16T13:12:45Z</time>
      </trkpt>
      <trkpt lat="44.04843" lon="3.60365">
        <ele>1214.76</ele>
        <time>2017-07-16T13:12:59Z</time>
      </trkpt>
      <trkpt lat="44.04849" lon="3.60342">
        <ele>1216.21</ele>
        <time>2017-07-16T13:13:14Z</time>
      </trkpt>
      <trkpt lat="44.04852" lon="3.60328">
        <ele>1217.65</ele>
        <time>2017-07-16T13:13:27Z</time>
      </trkpt>
      <trkpt lat="44.04852" lon="3.60318">
        <ele>1217.17</ele>
        <time>2017-07-16T13:13:43Z</time>
      </trkpt>
      <trkpt lat="44.04855" lon="3.60304">
        <ele>1218.13</ele>
        <time>2017-07-16T13:13:56Z</time>
      </trkpt>
      <trkpt lat="44.0486" lon="3.60293">
        <ele>1218.61</ele>
        <time>2017-07-16T13:14:10Z</time>
      </trkpt>
      <trkpt lat="44.04862" lon="3.60272">
        <ele>1219.09</ele>
        <time>2017-07-16T13:14:24Z</time>
      </trkpt>
      <trkpt lat="44.04867" lon="3.60255">
        <ele>1219.57</ele>
        <time>2017-07-16T13:14:38Z</time>
      </trkpt>
      <trkpt lat="44.04868" lon="3.60246">
        <ele>1220.05</ele>
        <time>2017-07-16T13:14:51Z</time>
      </trkpt>
      <trkpt lat="44.04871" lon="3.60242">
        <ele>1220.05</ele>
        <time>2017-07-16T13:15:04Z</time>
      </trkpt>
      <trkpt lat="44.04865" lon="3.60223">
        <ele>1220.05</ele>
        <time>2017-07-16T13:15:19Z</time>
      </trkpt>
      <trkpt lat="44.04862" lon="3.60213">
        <ele>1219.09</ele>
        <time>2017-07-16T13:15:28Z</time>
      </trkpt>
      <trkpt lat="44.04862" lon="3.60209">
        <ele>1219.09</ele>
        <time>2017-07-16T13:15:31Z</time>
      </trkpt>
      <trkpt lat="44.04862" lon="3.60202">
        <ele>1219.09</ele>
        <time>2017-07-16T13:15:35Z</time>
      </trkpt>
      <trkpt lat="44.04855" lon="3.60178">
        <ele>1221.01</ele>
        <time>2017-07-16T13:15:52Z</time>
      </trkpt>
      <trkpt lat="44.04855" lon="3.60161">
        <ele>1221.97</ele>
        <time>2017-07-16T13:16:06Z</time>
      </trkpt>
      <trkpt lat="44.04856" lon="3.60158">
        <ele>1221.97</ele>
        <time>2017-07-16T13:16:19Z</time>
      </trkpt>
      <trkpt lat="44.04855" lon="3.60157">
        <ele>1221.97</ele>
        <time>2017-07-16T13:16:32Z</time>
      </trkpt>
      <trkpt lat="44.04854" lon="3.60156">
        <ele>1221.49</ele>
        <time>2017-07-16T13:16:56Z</time>
      </trkpt>
      <trkpt lat="44.04855" lon="3.60154">
        <ele>1221.49</ele>
        <time>2017-07-16T13:17:36Z</time>
      </trkpt>
      <trkpt lat="44.04861" lon="3.60137">
        <ele>1221.97</ele>
        <time>2017-07-16T13:17:47Z</time>
      </trkpt>
      <trkpt lat="44.0487" lon="3.60128">
        <ele>1223.42</ele>
        <time>2017-07-16T13:18:02Z</time>
      </trkpt>
      <trkpt lat="44.0488" lon="3.60124">
        <ele>1223.42</ele>
        <time>2017-07-16T13:18:16Z</time>
      </trkpt>
      <trkpt lat="44.04898" lon="3.60121">
        <ele>1224.86</ele>
        <time>2017-07-16T13:18:35Z</time>
      </trkpt>
      <trkpt lat="44.04915" lon="3.60113">
        <ele>1226.3</ele>
        <time>2017-07-16T13:18:52Z</time>
      </trkpt>
      <trkpt lat="44.04928" lon="3.60099">
        <ele>1226.78</ele>
        <time>2017-07-16T13:19:09Z</time>
      </trkpt>
      <trkpt lat="44.04937" lon="3.60099">
        <ele>1227.74</ele>
        <time>2017-07-16T13:19:18Z</time>
      </trkpt>
      <trkpt lat="44.04958" lon="3.60103">
        <ele>1226.78</ele>
        <time>2017-07-16T13:19:41Z</time>
      </trkpt>
      <trkpt lat="44.0496" lon="3.60105">
        <ele>1228.22</ele>
        <time>2017-07-16T13:19:43Z</time>
      </trkpt>
      <trkpt lat="44.04974" lon="3.60112">
        <ele>1229.66</ele>
        <time>2017-07-16T13:19:55Z</time>
      </trkpt>
      <trkpt lat="44.04992" lon="3.60125">
        <ele>1229.18</ele>
        <time>2017-07-16T13:20:12Z</time>
      </trkpt>
      <trkpt lat="44.05007" lon="3.60131">
        <ele>1230.62</ele>
        <time>2017-07-16T13:20:27Z</time>
      </trkpt>
      <trkpt lat="44.05009" lon="3.60132">
        <ele>1230.62</ele>
        <time>2017-07-16T13:20:30Z</time>
      </trkpt>
      <trkpt lat="44.05022" lon="3.60128">
        <ele>1231.11</ele>
        <time>2017-07-16T13:20:44Z</time>
      </trkpt>
      <trkpt lat="44.05033" lon="3.60117">
        <ele>1232.07</ele>
        <time>2017-07-16T13:20:57Z</time>
      </trkpt>
      <trkpt lat="44.05045" lon="3.60104">
        <ele>1232.07</ele>
        <time>2017-07-16T13:21:10Z</time>
      </trkpt>
      <trkpt lat="44.05052" lon="3.601">
        <ele>1233.03</ele>
        <time>2017-07-16T13:21:18Z</time>
      </trkpt>
      <trkpt lat="44.05059" lon="3.60096">
        <ele>1233.51</ele>
        <time>2017-07-16T13:21:25Z</time>
      </trkpt>
      <trkpt lat="44.05065" lon="3.60097">
        <ele>1233.99</ele>
        <time>2017-07-16T13:21:41Z</time>
      </trkpt>
      <trkpt lat="44.05065" lon="3.60094">
        <ele>1233.99</ele>
        <time>2017-07-16T13:21:56Z</time>
      </trkpt>
      <trkpt lat="44.05065" lon="3.60092">
        <ele>1233.99</ele>
        <time>2017-07-16T13:22:13Z</time>
      </trkpt>
      <trkpt lat="44.05065" lon="3.60094">
        <ele>1233.51</ele>
        <time>2017-07-16T13:22:31Z</time>
      </trkpt>
      <trkpt lat="44.05065" lon="3.60098">
        <ele>1233.51</ele>
        <time>2017-07-16T13:23:02Z</time>
      </trkpt>
      <trkpt lat="44.05067" lon="3.6009">
        <ele>1233.99</ele>
        <time>2017-07-16T13:23:30Z</time>
      </trkpt>
      <trkpt lat="44.05069" lon="3.60088">
        <ele>1232.55</ele>
        <time>2017-07-16T13:23:35Z</time>
      </trkpt>
      <trkpt lat="44.05082" lon="3.60077">
        <ele>1232.55</ele>
        <time>2017-07-16T13:23:53Z</time>
      </trkpt>
      <trkpt lat="44.0509" lon="3.60069">
        <ele>1234.95</ele>
        <time>2017-07-16T13:24:06Z</time>
      </trkpt>
      <trkpt lat="44.051" lon="3.60061">
        <ele>1236.87</ele>
        <time>2017-07-16T13:24:22Z</time>
      </trkpt>
      <trkpt lat="44.05106" lon="3.60057">
        <ele>1239.76</ele>
        <time>2017-07-16T13:24:37Z</time>
      </trkpt>
      <trkpt lat="44.05109" lon="3.60048">
        <ele>1242.64</ele>
        <time>2017-07-16T13:24:54Z</time>
      </trkpt>
      <trkpt lat="44.05114" lon="3.60041">
        <ele>1245.04</ele>
        <time>2017-07-16T13:25:09Z</time>
      </trkpt>
      <trkpt lat="44.05121" lon="3.60033">
        <ele>1245.53</ele>
        <time>2017-07-16T13:25:22Z</time>
      </trkpt>
      <trkpt lat="44.05124" lon="3.60022">
        <ele>1242.64</ele>
        <time>2017-07-16T13:25:34Z</time>
      </trkpt>
      <trkpt lat="44.05127" lon="3.60018">
        <ele>1241.2</ele>
        <time>2017-07-16T13:25:39Z</time>
      </trkpt>
      <trkpt lat="44.05135" lon="3.60005">
        <ele>1239.28</ele>
        <time>2017-07-16T13:25:51Z</time>
      </trkpt>
      <trkpt lat="44.05136" lon="3.60004">
        <ele>1239.28</ele>
        <time>2017-07-16T13:25:53Z</time>
      </trkpt>
      <trkpt lat="44.05143" lon="3.60001">
        <ele>1238.32</ele>
        <time>2017-07-16T13:26:00Z</time>
      </trkpt>
      <trkpt lat="44.05152" lon="3.59999">
        <ele>1238.32</ele>
        <time>2017-07-16T13:26:11Z</time>
      </trkpt>
      <trkpt lat="44.05157" lon="3.59998">
        <ele>1239.76</ele>
        <time>2017-07-16T13:26:17Z</time>
      </trkpt>
      <trkpt lat="44.05164" lon="3.6">
        <ele>1239.76</ele>
        <time>2017-07-16T13:26:30Z</time>
      </trkpt>
      <trkpt lat="44.05173" lon="3.60007">
        <ele>1240.24</ele>
        <time>2017-07-16T13:26:51Z</time>
      </trkpt>
      <trkpt lat="44.05184" lon="3.60024">
        <ele>1240.72</ele>
        <time>2017-07-16T13:27:08Z</time>
      </trkpt>
      <trkpt lat="44.05186" lon="3.60029">
        <ele>1240.72</ele>
        <time>2017-07-16T13:27:12Z</time>
      </trkpt>
      <trkpt lat="44.05189" lon="3.60045">
        <ele>1241.68</ele>
        <time>2017-07-16T13:27:28Z</time>
      </trkpt>
      <trkpt lat="44.05196" lon="3.60043">
        <ele>1241.68</ele>
        <time>2017-07-16T13:27:42Z</time>
      </trkpt>
      <trkpt lat="44.05206" lon="3.60036">
        <ele>1243.6</ele>
        <time>2017-07-16T13:27:57Z</time>
      </trkpt>
      <trkpt lat="44.05213" lon="3.60027">
        <ele>1244.56</ele>
        <time>2017-07-16T13:28:10Z</time>
      </trkpt>
      <trkpt lat="44.05219" lon="3.60021">
        <ele>1246.01</ele>
        <time>2017-07-16T13:28:23Z</time>
      </trkpt>
      <trkpt lat="44.05223" lon="3.60017">
        <ele>1246.97</ele>
        <time>2017-07-16T13:28:30Z</time>
      </trkpt>
      <trkpt lat="44.05227" lon="3.6001">
        <ele>1245.04</ele>
        <time>2017-07-16T13:28:42Z</time>
      </trkpt>
      <trkpt lat="44.05233" lon="3.60005">
        <ele>1244.56</ele>
        <time>2017-07-16T13:29:00Z</time>
      </trkpt>
      <trkpt lat="44.05238" lon="3.59997">
        <ele>1244.56</ele>
        <time>2017-07-16T13:29:17Z</time>
      </trkpt>
      <trkpt lat="44.05243" lon="3.59993">
        <ele>1246.49</ele>
        <time>2017-07-16T13:29:27Z</time>
      </trkpt>
      <trkpt lat="44.05253" lon="3.5999">
        <ele>1246.49</ele>
        <time>2017-07-16T13:29:39Z</time>
      </trkpt>
      <trkpt lat="44.05264" lon="3.59979">
        <ele>1246.49</ele>
        <time>2017-07-16T13:29:53Z</time>
      </trkpt>
      <trkpt lat="44.05276" lon="3.59973">
        <ele>1245.53</ele>
        <time>2017-07-16T13:30:08Z</time>
      </trkpt>
      <trkpt lat="44.05287" lon="3.59968">
        <ele>1247.45</ele>
        <time>2017-07-16T13:30:23Z</time>
      </trkpt>
      <trkpt lat="44.05294" lon="3.59967">
        <ele>1249.37</ele>
        <time>2017-07-16T13:30:36Z</time>
      </trkpt>
      <trkpt lat="44.05302" lon="3.59961">
        <ele>1249.85</ele>
        <time>2017-07-16T13:30:51Z</time>
      </trkpt>
      <trkpt lat="44.05301" lon="3.5996">
        <ele>1249.85</ele>
        <time>2017-07-16T13:31:15Z</time>
      </trkpt>
      <trkpt lat="44.05298" lon="3.59955">
        <ele>1250.81</ele>
        <time>2017-07-16T13:31:42Z</time>
      </trkpt>
      <trkpt lat="44.05298" lon="3.59955">
        <ele>1250.33</ele>
        <time>2017-07-16T13:32:04Z</time>
      </trkpt>
      <trkpt lat="44.05314" lon="3.59946">
        <ele>1250.33</ele>
        <time>2017-07-16T13:32:22Z</time>
      </trkpt>
      <trkpt lat="44.05316" lon="3.59944">
        <ele>1251.77</ele>
        <time>2017-07-16T13:32:26Z</time>
      </trkpt>
      <trkpt lat="44.05331" lon="3.59926">
        <ele>1252.74</ele>
        <time>2017-07-16T13:32:49Z</time>
      </trkpt>
      <trkpt lat="44.05332" lon="3.59925">
        <ele>1252.25</ele>
        <time>2017-07-16T13:32:50Z</time>
      </trkpt>
      <trkpt lat="44.05334" lon="3.59922">
        <ele>1250.81</ele>
        <time>2017-07-16T13:32:53Z</time>
      </trkpt>
      <trkpt lat="44.05337" lon="3.5992">
        <ele>1252.74</ele>
        <time>2017-07-16T13:32:55Z</time>
      </trkpt>
      <trkpt lat="44.05339" lon="3.59917">
        <ele>1251.29</ele>
        <time>2017-07-16T13:32:57Z</time>
      </trkpt>
      <trkpt lat="44.05341" lon="3.59914">
        <ele>1252.74</ele>
        <time>2017-07-16T13:32:59Z</time>
      </trkpt>
      <trkpt lat="44.05343" lon="3.59912">
        <ele>1251.29</ele>
        <time>2017-07-16T13:33:00Z</time>
      </trkpt>
      <trkpt lat="44.05354" lon="3.59902">
        <ele>1253.22</ele>
        <time>2017-07-16T13:33:14Z</time>
      </trkpt>
      <trkpt lat="44.0537" lon="3.5989">
        <ele>1254.18</ele>
        <time>2017-07-16T13:33:30Z</time>
      </trkpt>
      <trkpt lat="44.05378" lon="3.59873">
        <ele>1254.66</ele>
        <time>2017-07-16T13:33:45Z</time>
      </trkpt>
      <trkpt lat="44.05388" lon="3.59866">
        <ele>1256.1</ele>
        <time>2017-07-16T13:33:59Z</time>
      </trkpt>
      <trkpt lat="44.05398" lon="3.59853">
        <ele>1257.06</ele>
        <time>2017-07-16T13:34:13Z</time>
      </trkpt>
      <trkpt lat="44.0541" lon="3.5984">
        <ele>1258.02</ele>
        <time>2017-07-16T13:34:27Z</time>
      </trkpt>
      <trkpt lat="44.05421" lon="3.59831">
        <ele>1258.98</ele>
        <time>2017-07-16T13:34:40Z</time>
      </trkpt>
      <trkpt lat="44.05439" lon="3.59823">
        <ele>1259.46</ele>
        <time>2017-07-16T13:34:55Z</time>
      </trkpt>
      <trkpt lat="44.05456" lon="3.59826">
        <ele>1260.91</ele>
        <time>2017-07-16T13:35:11Z</time>
      </trkpt>
      <trkpt lat="44.05466" lon="3.59815">
        <ele>1261.87</ele>
        <time>2017-07-16T13:35:26Z</time>
      </trkpt>
      <trkpt lat="44.0547" lon="3.59807">
        <ele>1262.83</ele>
        <time>2017-07-16T13:35:41Z</time>
      </trkpt>
      <trkpt lat="44.05463" lon="3.59795">
        <ele>1262.83</ele>
        <time>2017-07-16T13:35:56Z</time>
      </trkpt>
      <trkpt lat="44.0546" lon="3.59788">
        <ele>1261.87</ele>
        <time>2017-07-16T13:36:01Z</time>
      </trkpt>
      <trkpt lat="44.05457" lon="3.59768">
        <ele>1261.87</ele>
        <time>2017-07-16T13:36:18Z</time>
      </trkpt>
      <trkpt lat="44.05458" lon="3.59746">
        <ele>1263.79</ele>
        <time>2017-07-16T13:36:34Z</time>
      </trkpt>
      <trkpt lat="44.05457" lon="3.59732">
        <ele>1263.79</ele>
        <time>2017-07-16T13:36:40Z</time>
      </trkpt>
      <trkpt lat="44.05459" lon="3.5972">
        <ele>1263.79</ele>
        <time>2017-07-16T13:36:46Z</time>
      </trkpt>
      <trkpt lat="44.05453" lon="3.59701">
        <ele>1264.75</ele>
        <time>2017-07-16T13:36:59Z</time>
      </trkpt>
      <trkpt lat="44.05453" lon="3.59684">
        <ele>1265.71</ele>
        <time>2017-07-16T13:37:13Z</time>
      </trkpt>
      <trkpt lat="44.05453" lon="3.59671">
        <ele>1266.19</ele>
        <time>2017-07-16T13:37:22Z</time>
      </trkpt>
      <trkpt lat="44.05451" lon="3.59655">
        <ele>1266.67</ele>
        <time>2017-07-16T13:37:34Z</time>
      </trkpt>
      <trkpt lat="44.05451" lon="3.5964">
        <ele>1267.64</ele>
        <time>2017-07-16T13:37:45Z</time>
      </trkpt>
      <trkpt lat="44.05449" lon="3.59622">
        <ele>1268.12</ele>
        <time>2017-07-16T13:37:57Z</time>
      </trkpt>
      <trkpt lat="44.05448" lon="3.59606">
        <ele>1268.6</ele>
        <time>2017-07-16T13:38:08Z</time>
      </trkpt>
      <trkpt lat="44.05448" lon="3.59593">
        <ele>1269.56</ele>
        <time>2017-07-16T13:38:18Z</time>
      </trkpt>
      <trkpt lat="44.05449" lon="3.59572">
        <ele>1270.52</ele>
        <time>2017-07-16T13:38:30Z</time>
      </trkpt>
      <trkpt lat="44.05452" lon="3.59569">
        <ele>1271</ele>
        <time>2017-07-16T13:38:37Z</time>
      </trkpt>
      <trkpt lat="44.05455" lon="3.59573">
        <ele>1271</ele>
        <time>2017-07-16T13:38:42Z</time>
      </trkpt>
      <trkpt lat="44.05459" lon="3.59578">
        <ele>1271</ele>
        <time>2017-07-16T13:38:48Z</time>
      </trkpt>
      <trkpt lat="44.05471" lon="3.59581">
        <ele>1271.96</ele>
        <time>2017-07-16T13:39:00Z</time>
      </trkpt>
      <trkpt lat="44.05484" lon="3.59592">
        <ele>1272.44</ele>
        <time>2017-07-16T13:39:14Z</time>
      </trkpt>
      <trkpt lat="44.05496" lon="3.596">
        <ele>1272.44</ele>
        <time>2017-07-16T13:39:27Z</time>
      </trkpt>
      <trkpt lat="44.0551" lon="3.59611">
        <ele>1272.44</ele>
        <time>2017-07-16T13:39:43Z</time>
      </trkpt>
      <trkpt lat="44.05513" lon="3.59615">
        <ele>1272.92</ele>
        <time>2017-07-16T13:39:47Z</time>
      </trkpt>
      <trkpt lat="44.05521" lon="3.59615">
        <ele>1272.92</ele>
        <time>2017-07-16T13:39:55Z</time>
      </trkpt>
      <trkpt lat="44.05532" lon="3.59624">
        <ele>1273.4</ele>
        <time>2017-07-16T13:40:08Z</time>
      </trkpt>
      <trkpt lat="44.05533" lon="3.59625">
        <ele>1273.4</ele>
        <time>2017-07-16T13:40:10Z</time>
      </trkpt>
      <trkpt lat="44.05546" lon="3.5964">
        <ele>1273.88</ele>
        <time>2017-07-16T13:40:25Z</time>
      </trkpt>
      <trkpt lat="44.05556" lon="3.5965">
        <ele>1273.88</ele>
        <time>2017-07-16T13:40:40Z</time>
      </trkpt>
      <trkpt lat="44.05563" lon="3.59658">
        <ele>1274.36</ele>
        <time>2017-07-16T13:40:54Z</time>
      </trkpt>
      <trkpt lat="44.05565" lon="3.59663">
        <ele>1274.36</ele>
        <time>2017-07-16T13:41:16Z</time>
      </trkpt>
      <trkpt lat="44.05568" lon="3.59664">
        <ele>1274.36</ele>
        <time>2017-07-16T13:41:19Z</time>
      </trkpt>
      <trkpt lat="44.05576" lon="3.5967">
        <ele>1274.36</ele>
        <time>2017-07-16T13:41:29Z</time>
      </trkpt>
      <trkpt lat="44.05582" lon="3.59675">
        <ele>1274.36</ele>
        <time>2017-07-16T13:41:35Z</time>
      </trkpt>
      <trkpt lat="44.05587" lon="3.59681">
        <ele>1274.36</ele>
        <time>2017-07-16T13:41:40Z</time>
      </trkpt>
      <trkpt lat="44.056" lon="3.59693">
        <ele>1275.33</ele>
        <time>2017-07-16T13:41:54Z</time>
      </trkpt>
      <trkpt lat="44.0561" lon="3.59708">
        <ele>1275.33</ele>
        <time>2017-07-16T13:42:09Z</time>
      </trkpt>
      <trkpt lat="44.05626" lon="3.59722">
        <ele>1275.81</ele>
        <time>2017-07-16T13:42:25Z</time>
      </trkpt>
      <trkpt lat="44.05635" lon="3.59729">
        <ele>1276.29</ele>
        <time>2017-07-16T13:42:37Z</time>
      </trkpt>
      <trkpt lat="44.05649" lon="3.59724">
        <ele>1276.77</ele>
        <time>2017-07-16T13:42:50Z</time>
      </trkpt>
      <trkpt lat="44.05651" lon="3.59723">
        <ele>1276.77</ele>
        <time>2017-07-16T13:42:52Z</time>
      </trkpt>
      <trkpt lat="44.05656" lon="3.59722">
        <ele>1276.77</ele>
        <time>2017-07-16T13:42:55Z</time>
      </trkpt>
      <trkpt lat="44.05665" lon="3.59717">
        <ele>1276.77</ele>
        <time>2017-07-16T13:43:03Z</time>
      </trkpt>
      <trkpt lat="44.05683" lon="3.59719">
        <ele>1276.77</ele>
        <time>2017-07-16T13:43:18Z</time>
      </trkpt>
      <trkpt lat="44.05691" lon="3.59714">
        <ele>1277.25</ele>
        <time>2017-07-16T13:43:28Z</time>
      </trkpt>
      <trkpt lat="44.05691" lon="3.59713">
        <ele>1277.25</ele>
        <time>2017-07-16T13:43:29Z</time>
      </trkpt>
      <trkpt lat="44.05695" lon="3.59711">
        <ele>1277.25</ele>
        <time>2017-07-16T13:43:32Z</time>
      </trkpt>
      <trkpt lat="44.05705" lon="3.59709">
        <ele>1277.25</ele>
        <time>2017-07-16T13:43:40Z</time>
      </trkpt>
      <trkpt lat="44.05712" lon="3.59703">
        <ele>1277.73</ele>
        <time>2017-07-16T13:43:46Z</time>
      </trkpt>
      <trkpt lat="44.05727" lon="3.59695">
        <ele>1278.21</ele>
        <time>2017-07-16T13:44:00Z</time>
      </trkpt>
      <trkpt lat="44.05728" lon="3.59696">
        <ele>1278.21</ele>
        <time>2017-07-16T13:44:01Z</time>
      </trkpt>
      <trkpt lat="44.05743" lon="3.59708">
        <ele>1278.69</ele>
        <time>2017-07-16T13:44:16Z</time>
      </trkpt>
      <trkpt lat="44.05757" lon="3.59714">
        <ele>1278.69</ele>
        <time>2017-07-16T13:44:29Z</time>
      </trkpt>
      <trkpt lat="44.0577" lon="3.59718">
        <ele>1279.17</ele>
        <time>2017-07-16T13:44:43Z</time>
      </trkpt>
      <trkpt lat="44.05776" lon="3.59721">
        <ele>1280.13</ele>
        <time>2017-07-16T13:44:49Z</time>
      </trkpt>
      <trkpt lat="44.05788" lon="3.59723">
        <ele>1280.13</ele>
        <time>2017-07-16T13:45:02Z</time>
      </trkpt>
      <trkpt lat="44.05808" lon="3.5972">
        <ele>1280.13</ele>
        <time>2017-07-16T13:45:17Z</time>
      </trkpt>
      <trkpt lat="44.05823" lon="3.59719">
        <ele>1280.13</ele>
        <time>2017-07-16T13:45:29Z</time>
      </trkpt>
      <trkpt lat="44.05838" lon="3.5972">
        <ele>1281.09</ele>
        <time>2017-07-16T13:45:42Z</time>
      </trkpt>
      <trkpt lat="44.05852" lon="3.5973">
        <ele>1281.09</ele>
        <time>2017-07-16T13:45:55Z</time>
      </trkpt>
      <trkpt lat="44.05865" lon="3.59742">
        <ele>1281.57</ele>
        <time>2017-07-16T13:46:08Z</time>
      </trkpt>
      <trkpt lat="44.05867" lon="3.59749">
        <ele>1281.57</ele>
        <time>2017-07-16T13:46:24Z</time>
      </trkpt>
      <trkpt lat="44.05876" lon="3.59761">
        <ele>1282.54</ele>
        <time>2017-07-16T13:46:35Z</time>
      </trkpt>
      <trkpt lat="44.05885" lon="3.59781">
        <ele>1282.54</ele>
        <time>2017-07-16T13:46:51Z</time>
      </trkpt>
      <trkpt lat="44.05896" lon="3.598">
        <ele>1282.54</ele>
        <time>2017-07-16T13:47:05Z</time>
      </trkpt>
      <trkpt lat="44.05898" lon="3.59805">
        <ele>1282.54</ele>
        <time>2017-07-16T13:47:13Z</time>
      </trkpt>
      <trkpt lat="44.05901" lon="3.59811">
        <ele>1282.54</ele>
        <time>2017-07-16T13:47:18Z</time>
      </trkpt>
      <trkpt lat="44.05914" lon="3.59827">
        <ele>1283.5</ele>
        <time>2017-07-16T13:47:32Z</time>
      </trkpt>
      <trkpt lat="44.05922" lon="3.59844">
        <ele>1283.5</ele>
        <time>2017-07-16T13:47:45Z</time>
      </trkpt>
      <trkpt lat="44.0593" lon="3.5986">
        <ele>1283.98</ele>
        <time>2017-07-16T13:47:59Z</time>
      </trkpt>
      <trkpt lat="44.05936" lon="3.59879">
        <ele>1283.98</ele>
        <time>2017-07-16T13:48:12Z</time>
      </trkpt>
      <trkpt lat="44.05938" lon="3.59883">
        <ele>1283.98</ele>
        <time>2017-07-16T13:48:14Z</time>
      </trkpt>
      <trkpt lat="44.05941" lon="3.59909">
        <ele>1284.46</ele>
        <time>2017-07-16T13:48:30Z</time>
      </trkpt>
      <trkpt lat="44.05942" lon="3.59924">
        <ele>1284.94</ele>
        <time>2017-07-16T13:48:42Z</time>
      </trkpt>
      <trkpt lat="44.05942" lon="3.5994">
        <ele>1284.94</ele>
        <time>2017-07-16T13:49:00Z</time>
      </trkpt>
      <trkpt lat="44.05941" lon="3.59949">
        <ele>1284.94</ele>
        <time>2017-07-16T13:49:07Z</time>
      </trkpt>
      <trkpt lat="44.0594" lon="3.59968">
        <ele>1285.42</ele>
        <time>2017-07-16T13:49:20Z</time>
      </trkpt>
      <trkpt lat="44.05938" lon="3.59971">
        <ele>1286.38</ele>
        <time>2017-07-16T13:49:22Z</time>
      </trkpt>
      <trkpt lat="44.05938" lon="3.59992">
        <ele>1286.86</ele>
        <time>2017-07-16T13:49:35Z</time>
      </trkpt>
      <trkpt lat="44.05944" lon="3.60015">
        <ele>1286.86</ele>
        <time>2017-07-16T13:49:52Z</time>
      </trkpt>
      <trkpt lat="44.05945" lon="3.6002">
        <ele>1286.86</ele>
        <time>2017-07-16T13:49:56Z</time>
      </trkpt>
      <trkpt lat="44.05943" lon="3.60043">
        <ele>1287.34</ele>
        <time>2017-07-16T13:50:10Z</time>
      </trkpt>
      <trkpt lat="44.0594" lon="3.60068">
        <ele>1287.34</ele>
        <time>2017-07-16T13:50:24Z</time>
      </trkpt>
      <trkpt lat="44.05939" lon="3.60089">
        <ele>1287.82</ele>
        <time>2017-07-16T13:50:37Z</time>
      </trkpt>
      <trkpt lat="44.05935" lon="3.60107">
        <ele>1287.82</ele>
        <time>2017-07-16T13:50:50Z</time>
      </trkpt>
      <trkpt lat="44.05932" lon="3.60114">
        <ele>1288.3</ele>
        <time>2017-07-16T13:50:54Z</time>
      </trkpt>
      <trkpt lat="44.05925" lon="3.60131">
        <ele>1288.3</ele>
        <time>2017-07-16T13:51:06Z</time>
      </trkpt>
      <trkpt lat="44.05924" lon="3.60143">
        <ele>1288.3</ele>
        <time>2017-07-16T13:51:16Z</time>
      </trkpt>
      <trkpt lat="44.05917" lon="3.60159">
        <ele>1288.78</ele>
        <time>2017-07-16T13:51:28Z</time>
      </trkpt>
      <trkpt lat="44.05913" lon="3.60173">
        <ele>1289.27</ele>
        <time>2017-07-16T13:51:38Z</time>
      </trkpt>
      <trkpt lat="44.05907" lon="3.60194">
        <ele>1289.27</ele>
        <time>2017-07-16T13:51:51Z</time>
      </trkpt>
      <trkpt lat="44.05903" lon="3.60213">
        <ele>1289.75</ele>
        <time>2017-07-16T13:52:01Z</time>
      </trkpt>
      <trkpt lat="44.05901" lon="3.60226">
        <ele>1289.75</ele>
        <time>2017-07-16T13:52:10Z</time>
      </trkpt>
      <trkpt lat="44.05899" lon="3.60244">
        <ele>1290.23</ele>
        <time>2017-07-16T13:52:19Z</time>
      </trkpt>
      <trkpt lat="44.05896" lon="3.60267">
        <ele>1290.71</ele>
        <time>2017-07-16T13:52:33Z</time>
      </trkpt>
      <trkpt lat="44.05896" lon="3.60275">
        <ele>1290.71</ele>
        <time>2017-07-16T13:52:39Z</time>
      </trkpt>
      <trkpt lat="44.05897" lon="3.60279">
        <ele>1290.71</ele>
        <time>2017-07-16T13:52:42Z</time>
      </trkpt>
      <trkpt lat="44.05896" lon="3.60283">
        <ele>1291.19</ele>
        <time>2017-07-16T13:52:44Z</time>
      </trkpt>
      <trkpt lat="44.05895" lon="3.60291">
        <ele>1291.19</ele>
        <time>2017-07-16T13:52:50Z</time>
      </trkpt>
      <trkpt lat="44.05893" lon="3.60298">
        <ele>1291.67</ele>
        <time>2017-07-16T13:52:58Z</time>
      </trkpt>
      <trkpt lat="44.05891" lon="3.60308">
        <ele>1291.67</ele>
        <time>2017-07-16T13:53:06Z</time>
      </trkpt>
      <trkpt lat="44.05892" lon="3.60321">
        <ele>1291.67</ele>
        <time>2017-07-16T13:53:14Z</time>
      </trkpt>
      <trkpt lat="44.05892" lon="3.60349">
        <ele>1291.67</ele>
        <time>2017-07-16T13:53:29Z</time>
      </trkpt>
      <trkpt lat="44.05895" lon="3.60355">
        <ele>1291.67</ele>
        <time>2017-07-16T13:53:32Z</time>
      </trkpt>
      <trkpt lat="44.05914" lon="3.60365">
        <ele>1291.67</ele>
        <time>2017-07-16T13:53:50Z</time>
      </trkpt>
      <trkpt lat="44.05914" lon="3.60366">
        <ele>1291.67</ele>
        <time>2017-07-16T13:53:51Z</time>
      </trkpt>
      <trkpt lat="44.05926" lon="3.60372">
        <ele>1291.67</ele>
        <time>2017-07-16T13:54:02Z</time>
      </trkpt>
      <trkpt lat="44.05931" lon="3.60382">
        <ele>1292.63</ele>
        <time>2017-07-16T13:54:15Z</time>
      </trkpt>
      <trkpt lat="44.05924" lon="3.60389">
        <ele>1292.63</ele>
        <time>2017-07-16T13:54:21Z</time>
      </trkpt>
      <trkpt lat="44.05922" lon="3.60389">
        <ele>1292.63</ele>
        <time>2017-07-16T13:54:22Z</time>
      </trkpt>
      <trkpt lat="44.05921" lon="3.6039">
        <ele>1292.63</ele>
        <time>2017-07-16T13:54:23Z</time>
      </trkpt>
      <trkpt lat="44.05919" lon="3.60391">
        <ele>1292.63</ele>
        <time>2017-07-16T13:54:24Z</time>
      </trkpt>
      <trkpt lat="44.05916" lon="3.60397">
        <ele>1292.63</ele>
        <time>2017-07-16T13:54:30Z</time>
      </trkpt>
      <trkpt lat="44.0591" lon="3.60403">
        <ele>1293.59</ele>
        <time>2017-07-16T13:54:35Z</time>
      </trkpt>
      <trkpt lat="44.05908" lon="3.60413">
        <ele>1293.59</ele>
        <time>2017-07-16T13:54:41Z</time>
      </trkpt>
      <trkpt lat="44.05907" lon="3.60414">
        <ele>1293.59</ele>
        <time>2017-07-16T13:54:42Z</time>
      </trkpt>
      <trkpt lat="44.05906" lon="3.60424">
        <ele>1293.59</ele>
        <time>2017-07-16T13:54:48Z</time>
      </trkpt>
      <trkpt lat="44.05905" lon="3.60426">
        <ele>1293.59</ele>
        <time>2017-07-16T13:54:49Z</time>
      </trkpt>
      <trkpt lat="44.05904" lon="3.60439">
        <ele>1294.55</ele>
        <time>2017-07-16T13:55:00Z</time>
      </trkpt>
      <trkpt lat="44.05908" lon="3.60451">
        <ele>1294.55</ele>
        <time>2017-07-16T13:55:08Z</time>
      </trkpt>
      <trkpt lat="44.0591" lon="3.60469">
        <ele>1295.03</ele>
        <time>2017-07-16T13:55:24Z</time>
      </trkpt>
      <trkpt lat="44.05906" lon="3.60469">
        <ele>1295.03</ele>
        <time>2017-07-16T13:55:35Z</time>
      </trkpt>
      <trkpt lat="44.05908" lon="3.6047">
        <ele>1295.99</ele>
        <time>2017-07-16T13:55:52Z</time>
      </trkpt>
      <trkpt lat="44.05909" lon="3.60472">
        <ele>1295.99</ele>
        <time>2017-07-16T13:56:19Z</time>
      </trkpt>
      <trkpt lat="44.05909" lon="3.60471">
        <ele>1295.99</ele>
        <time>2017-07-16T13:56:56Z</time>
      </trkpt>
      <trkpt lat="44.05908" lon="3.60468">
        <ele>1295.99</ele>
        <time>2017-07-16T13:57:35Z</time>
      </trkpt>
      <trkpt lat="44.05909" lon="3.60469">
        <ele>1295.99</ele>
        <time>2017-07-16T13:58:00Z</time>
      </trkpt>
      <trkpt lat="44.05907" lon="3.60471">
        <ele>1295.51</ele>
        <time>2017-07-16T13:58:22Z</time>
      </trkpt>
      <trkpt lat="44.05909" lon="3.6047">
        <ele>1295.51</ele>
        <time>2017-07-16T13:58:24Z</time>
      </trkpt>
      <trkpt lat="44.0591" lon="3.6047">
        <ele>1295.51</ele>
        <time>2017-07-16T13:58:25Z</time>
      </trkpt>
      <trkpt lat="44.0591" lon="3.60468">
        <ele>1294.55</ele>
        <time>2017-07-16T13:58:28Z</time>
      </trkpt>
      <trkpt lat="44.05911" lon="3.60466">
        <ele>1294.55</ele>
        <time>2017-07-16T13:58:37Z</time>
      </trkpt>
      <trkpt lat="44.05911" lon="3.60464">
        <ele>1294.55</ele>
        <time>2017-07-16T13:58:53Z</time>
      </trkpt>
      <trkpt lat="44.05914" lon="3.60466">
        <ele>1294.55</ele>
        <time>2017-07-16T13:59:09Z</time>
      </trkpt>
      <trkpt lat="44.05915" lon="3.60471">
        <ele>1294.55</ele>
        <time>2017-07-16T13:59:35Z</time>
      </trkpt>
      <trkpt lat="44.0592" lon="3.60469">
        <ele>1294.55</ele>
        <time>2017-07-16T14:00:13Z</time>
      </trkpt>
      <trkpt lat="44.05919" lon="3.60474">
        <ele>1295.03</ele>
        <time>2017-07-16T14:00:37Z</time>
      </trkpt>
      <trkpt lat="44.05914" lon="3.60474">
        <ele>1294.55</ele>
        <time>2017-07-16T14:00:54Z</time>
      </trkpt>
      <trkpt lat="44.05915" lon="3.60472">
        <ele>1294.55</ele>
        <time>2017-07-16T14:01:14Z</time>
      </trkpt>
      <trkpt lat="44.05915" lon="3.60468">
        <ele>1294.55</ele>
        <time>2017-07-16T14:01:44Z</time>
      </trkpt>
      <trkpt lat="44.0592" lon="3.60468">
        <ele>1295.03</ele>
        <time>2017-07-16T14:02:11Z</time>
      </trkpt>
      <trkpt lat="44.05918" lon="3.60472">
        <ele>1295.03</ele>
        <time>2017-07-16T14:02:32Z</time>
      </trkpt>
      <trkpt lat="44.05913" lon="3.60477">
        <ele>1295.03</ele>
        <time>2017-07-16T14:02:49Z</time>
      </trkpt>
      <trkpt lat="44.05914" lon="3.6048">
        <ele>1295.03</ele>
        <time>2017-07-16T14:02:59Z</time>
      </trkpt>
      <trkpt lat="44.05913" lon="3.60478">
        <ele>1295.03</ele>
        <time>2017-07-16T14:03:09Z</time>
      </trkpt>
      <trkpt lat="44.05912" lon="3.60474">
        <ele>1295.03</ele>
        <time>2017-07-16T14:03:13Z</time>
      </trkpt>
      <trkpt lat="44.05912" lon="3.60471">
        <ele>1295.03</ele>
        <time>2017-07-16T14:03:24Z</time>
      </trkpt>
      <trkpt lat="44.05916" lon="3.60472">
        <ele>1295.03</ele>
        <time>2017-07-16T14:03:37Z</time>
      </trkpt>
      <trkpt lat="44.05917" lon="3.60468">
        <ele>1295.03</ele>
        <time>2017-07-16T14:03:52Z</time>
      </trkpt>
      <trkpt lat="44.05916" lon="3.6047">
        <ele>1295.03</ele>
        <time>2017-07-16T14:03:58Z</time>
      </trkpt>
      <trkpt lat="44.05913" lon="3.60474">
        <ele>1295.03</ele>
        <time>2017-07-16T14:04:09Z</time>
      </trkpt>
      <trkpt lat="44.05913" lon="3.60472">
        <ele>1295.03</ele>
        <time>2017-07-16T14:04:15Z</time>
      </trkpt>
      <trkpt lat="44.05914" lon="3.6047">
        <ele>1295.03</ele>
        <time>2017-07-16T14:04:29Z</time>
      </trkpt>
      <trkpt lat="44.05915" lon="3.60469">
        <ele>1296.48</ele>
        <time>2017-07-16T14:04:37Z</time>
      </trkpt>
      <trkpt lat="44.05912" lon="3.6047">
        <ele>1296.48</ele>
        <time>2017-07-16T14:05:16Z</time>
      </trkpt>
      <trkpt lat="44.05907" lon="3.60473">
        <ele>1296.48</ele>
        <time>2017-07-16T14:05:52Z</time>
      </trkpt>
    </trkseg>
  </trk>
</gpx>